<?xml version="1.0" encoding="UTF-8" standalone="no" ?>
<gpx xmlns="http://www.topografix.com/GPX/1/1" xmlns:xsi="http://www.w3.org/2001/XMLSchema-instance" xsi:schemaLocation="http://www.topografix.com/GPX/1/1 http://www.topografix.com/GPX/1/1/gpx.xsd" version="1.1" creator="VisuGPX - https://www.visugpx.com">
  <metadata>
    <name>Edirne-Mostar</name>
  </metadata>
  <trk>
    <name><![CDATA[Tour d'Europe: étape 703]]></name>
    <extensions>
      <line xmlns="http://www.topografix.com/GPX/gpx_style/0/2">
        <color>00FFFF</color>
        <width>4</width>
      </line>
    </extensions>
    <trkseg>
      <trkpt lat="42.45168" lon="18.54455">
        <ele>82.810271</ele>
        <time>2022-06-01T08:17:21.867Z</time>
      </trkpt>
      <trkpt lat="42.45148" lon="18.54485">
        <ele>82.810271</ele>
        <time>2022-06-01T08:17:22.861Z</time>
      </trkpt>
      <trkpt lat="42.45161" lon="18.54482">
        <ele>82.810271</ele>
        <time>2022-06-01T08:17:24.584Z</time>
      </trkpt>
      <trkpt lat="42.45169" lon="18.54462">
        <ele>82.810271</ele>
        <time>2022-06-01T08:20:39.583Z</time>
      </trkpt>
      <trkpt lat="42.45173" lon="18.5445">
        <ele>82.810271</ele>
        <time>2022-06-01T08:20:42.705Z</time>
      </trkpt>
      <trkpt lat="42.45171" lon="18.54437">
        <ele>82.810271</ele>
        <time>2022-06-01T08:20:44.570Z</time>
      </trkpt>
      <trkpt lat="42.45168" lon="18.54422">
        <ele>82.804141</ele>
        <time>2022-06-01T08:20:47.592Z</time>
      </trkpt>
      <trkpt lat="42.45164" lon="18.54409">
        <ele>82.463311</ele>
        <time>2022-06-01T08:20:50.572Z</time>
      </trkpt>
      <trkpt lat="42.45157" lon="18.544">
        <ele>82.146463</ele>
        <time>2022-06-01T08:20:55.581Z</time>
      </trkpt>
      <trkpt lat="42.45147" lon="18.54398">
        <ele>81.807618</ele>
        <time>2022-06-01T08:20:59.580Z</time>
      </trkpt>
      <trkpt lat="42.45138" lon="18.54408">
        <ele>81.404762</ele>
        <time>2022-06-01T08:21:02.615Z</time>
      </trkpt>
      <trkpt lat="42.45134" lon="18.5442">
        <ele>81.09302</ele>
        <time>2022-06-01T08:21:05.664Z</time>
      </trkpt>
      <trkpt lat="42.45127" lon="18.54435">
        <ele>80.648323</ele>
        <time>2022-06-01T08:21:08.600Z</time>
      </trkpt>
      <trkpt lat="42.45123" lon="18.54449">
        <ele>80.282869</ele>
        <time>2022-06-01T08:21:11.579Z</time>
      </trkpt>
      <trkpt lat="42.4512" lon="18.54461">
        <ele>79.978876</ele>
        <time>2022-06-01T08:21:14.582Z</time>
      </trkpt>
      <trkpt lat="42.45117" lon="18.54474">
        <ele>79.649578</ele>
        <time>2022-06-01T08:21:17.594Z</time>
      </trkpt>
      <trkpt lat="42.45114" lon="18.54487">
        <ele>79.311398</ele>
        <time>2022-06-01T08:21:20.588Z</time>
      </trkpt>
      <trkpt lat="42.45111" lon="18.545">
        <ele>78.976412</ele>
        <time>2022-06-01T08:21:22.590Z</time>
      </trkpt>
      <trkpt lat="42.45108" lon="18.54515">
        <ele>78.583216</ele>
        <time>2022-06-01T08:21:24.584Z</time>
      </trkpt>
      <trkpt lat="42.45106" lon="18.54533">
        <ele>78.156283</ele>
        <time>2022-06-01T08:21:26.619Z</time>
      </trkpt>
      <trkpt lat="42.45105" lon="18.54548">
        <ele>77.775833</ele>
        <time>2022-06-01T08:21:28.596Z</time>
      </trkpt>
      <trkpt lat="42.45103" lon="18.5456">
        <ele>77.474424</ele>
        <time>2022-06-01T08:21:30.587Z</time>
      </trkpt>
      <trkpt lat="42.451" lon="18.54577">
        <ele>77.052016</ele>
        <time>2022-06-01T08:21:33.584Z</time>
      </trkpt>
      <trkpt lat="42.45097" lon="18.54594">
        <ele>76.689148</ele>
        <time>2022-06-01T08:21:36.590Z</time>
      </trkpt>
      <trkpt lat="42.45096" lon="18.54608">
        <ele>76.426804</ele>
        <time>2022-06-01T08:21:39.583Z</time>
      </trkpt>
      <trkpt lat="42.45096" lon="18.54624">
        <ele>76.149624</ele>
        <time>2022-06-01T08:21:42.617Z</time>
      </trkpt>
      <trkpt lat="42.45096" lon="18.54641">
        <ele>75.850958</ele>
        <time>2022-06-01T08:21:45.577Z</time>
      </trkpt>
      <trkpt lat="42.45095" lon="18.54659">
        <ele>75.539691</ele>
        <time>2022-06-01T08:21:48.638Z</time>
      </trkpt>
      <trkpt lat="42.45094" lon="18.54671">
        <ele>75.322359</ele>
        <time>2022-06-01T08:21:50.601Z</time>
      </trkpt>
      <trkpt lat="42.45095" lon="18.54684">
        <ele>75.094597</ele>
        <time>2022-06-01T08:21:52.612Z</time>
      </trkpt>
      <trkpt lat="42.45095" lon="18.54697">
        <ele>74.857949</ele>
        <time>2022-06-01T08:21:54.570Z</time>
      </trkpt>
      <trkpt lat="42.45095" lon="18.54713">
        <ele>74.57374</ele>
        <time>2022-06-01T08:21:57.600Z</time>
      </trkpt>
      <trkpt lat="42.45096" lon="18.54727">
        <ele>74.32763</ele>
        <time>2022-06-01T08:22:00.587Z</time>
      </trkpt>
      <trkpt lat="42.45098" lon="18.54741">
        <ele>74.075081</ele>
        <time>2022-06-01T08:22:03.588Z</time>
      </trkpt>
      <trkpt lat="42.45103" lon="18.54758">
        <ele>73.75349</ele>
        <time>2022-06-01T08:22:06.587Z</time>
      </trkpt>
      <trkpt lat="42.45105" lon="18.54775">
        <ele>73.457063</ele>
        <time>2022-06-01T08:22:09.585Z</time>
      </trkpt>
      <trkpt lat="42.45101" lon="18.54787">
        <ele>73.2161</ele>
        <time>2022-06-01T08:22:12.582Z</time>
      </trkpt>
      <trkpt lat="42.45097" lon="18.54799">
        <ele>72.986321</ele>
        <time>2022-06-01T08:22:15.588Z</time>
      </trkpt>
      <trkpt lat="42.45091" lon="18.54809">
        <ele>72.770412</ele>
        <time>2022-06-01T08:22:18.594Z</time>
      </trkpt>
      <trkpt lat="42.45083" lon="18.54821">
        <ele>72.381905</ele>
        <time>2022-06-01T08:22:22.584Z</time>
      </trkpt>
      <trkpt lat="42.45074" lon="18.54817">
        <ele>71.542186</ele>
        <time>2022-06-01T08:22:28.593Z</time>
      </trkpt>
      <trkpt lat="42.45074" lon="18.54803">
        <ele>70.726669</ele>
        <time>2022-06-01T08:22:33.616Z</time>
      </trkpt>
      <trkpt lat="42.45074" lon="18.54789">
        <ele>69.826437</ele>
        <time>2022-06-01T08:22:39.609Z</time>
      </trkpt>
      <trkpt lat="42.45076" lon="18.54773">
        <ele>68.852246</ele>
        <time>2022-06-01T08:22:43.693Z</time>
      </trkpt>
      <trkpt lat="42.45077" lon="18.5476">
        <ele>68.025496</ele>
        <time>2022-06-01T08:22:46.580Z</time>
      </trkpt>
      <trkpt lat="42.45079" lon="18.54744">
        <ele>67.067622</ele>
        <time>2022-06-01T08:22:50.574Z</time>
      </trkpt>
      <trkpt lat="42.45081" lon="18.54732">
        <ele>66.277211</ele>
        <time>2022-06-01T08:22:53.598Z</time>
      </trkpt>
      <trkpt lat="42.45077" lon="18.5472">
        <ele>65.52673</ele>
        <time>2022-06-01T08:22:57.579Z</time>
      </trkpt>
      <trkpt lat="42.45066" lon="18.54721">
        <ele>64.571594</ele>
        <time>2022-06-01T08:23:05.587Z</time>
      </trkpt>
      <trkpt lat="42.45054" lon="18.54724">
        <ele>63.618218</ele>
        <time>2022-06-01T08:23:09.672Z</time>
      </trkpt>
      <trkpt lat="42.45046" lon="18.54734">
        <ele>62.663701</ele>
        <time>2022-06-01T08:23:13.591Z</time>
      </trkpt>
      <trkpt lat="42.45041" lon="18.54746">
        <ele>61.843114</ele>
        <time>2022-06-01T08:23:16.589Z</time>
      </trkpt>
      <trkpt lat="42.45035" lon="18.54758">
        <ele>60.951216</ele>
        <time>2022-06-01T08:23:20.586Z</time>
      </trkpt>
      <trkpt lat="42.45031" lon="18.54744">
        <ele>60.050764</ele>
        <time>2022-06-01T08:23:25.599Z</time>
      </trkpt>
      <trkpt lat="42.45021" lon="18.54737">
        <ele>59.120874</ele>
        <time>2022-06-01T08:23:30.574Z</time>
      </trkpt>
      <trkpt lat="42.45012" lon="18.54741">
        <ele>58.350191</ele>
        <time>2022-06-01T08:23:33.596Z</time>
      </trkpt>
      <trkpt lat="42.45001" lon="18.54742">
        <ele>57.432715</ele>
        <time>2022-06-01T08:23:37.564Z</time>
      </trkpt>
      <trkpt lat="42.4499" lon="18.54739">
        <ele>56.457957</ele>
        <time>2022-06-01T08:23:41.596Z</time>
      </trkpt>
      <trkpt lat="42.4498" lon="18.54739">
        <ele>55.640349</ele>
        <time>2022-06-01T08:23:45.589Z</time>
      </trkpt>
      <trkpt lat="42.44971" lon="18.54734">
        <ele>54.764003</ele>
        <time>2022-06-01T08:23:50.616Z</time>
      </trkpt>
      <trkpt lat="42.44966" lon="18.54719">
        <ele>53.7727</ele>
        <time>2022-06-01T08:23:54.584Z</time>
      </trkpt>
      <trkpt lat="42.44962" lon="18.54708">
        <ele>52.984111</ele>
        <time>2022-06-01T08:23:57.655Z</time>
      </trkpt>
      <trkpt lat="42.4496" lon="18.54696">
        <ele>52.211402</ele>
        <time>2022-06-01T08:24:00.598Z</time>
      </trkpt>
      <trkpt lat="42.44956" lon="18.54682">
        <ele>51.313402</ele>
        <time>2022-06-01T08:24:03.577Z</time>
      </trkpt>
      <trkpt lat="42.44952" lon="18.54668">
        <ele>50.400867</ele>
        <time>2022-06-01T08:24:06.582Z</time>
      </trkpt>
      <trkpt lat="42.4495" lon="18.54655">
        <ele>49.539769</ele>
        <time>2022-06-01T08:24:09.580Z</time>
      </trkpt>
      <trkpt lat="42.44946" lon="18.5464">
        <ele>48.577584</ele>
        <time>2022-06-01T08:24:12.609Z</time>
      </trkpt>
      <trkpt lat="42.44944" lon="18.54627">
        <ele>47.733998</ele>
        <time>2022-06-01T08:24:15.583Z</time>
      </trkpt>
      <trkpt lat="42.44945" lon="18.54613">
        <ele>46.8495</ele>
        <time>2022-06-01T08:24:18.581Z</time>
      </trkpt>
      <trkpt lat="42.44946" lon="18.54598">
        <ele>45.911787</ele>
        <time>2022-06-01T08:24:21.589Z</time>
      </trkpt>
      <trkpt lat="42.44948" lon="18.54583">
        <ele>44.984385</ele>
        <time>2022-06-01T08:24:24.583Z</time>
      </trkpt>
      <trkpt lat="42.44952" lon="18.54569">
        <ele>44.051448</ele>
        <time>2022-06-01T08:24:27.572Z</time>
      </trkpt>
      <trkpt lat="42.44956" lon="18.54556">
        <ele>43.153124</ele>
        <time>2022-06-01T08:24:30.586Z</time>
      </trkpt>
      <trkpt lat="42.4496" lon="18.54542">
        <ele>42.433439</ele>
        <time>2022-06-01T08:24:33.589Z</time>
      </trkpt>
      <trkpt lat="42.44964" lon="18.5453">
        <ele>42.357629</ele>
        <time>2022-06-01T08:24:36.576Z</time>
      </trkpt>
      <trkpt lat="42.44968" lon="18.54519">
        <ele>42.281635</ele>
        <time>2022-06-01T08:24:39.624Z</time>
      </trkpt>
      <trkpt lat="42.44973" lon="18.54507">
        <ele>42.20077</ele>
        <time>2022-06-01T08:24:42.581Z</time>
      </trkpt>
      <trkpt lat="42.44978" lon="18.54495">
        <ele>42.121613</ele>
        <time>2022-06-01T08:24:45.607Z</time>
      </trkpt>
      <trkpt lat="42.44983" lon="18.54482">
        <ele>42.038115</ele>
        <time>2022-06-01T08:24:48.586Z</time>
      </trkpt>
      <trkpt lat="42.44987" lon="18.54469">
        <ele>41.956735</ele>
        <time>2022-06-01T08:24:51.618Z</time>
      </trkpt>
      <trkpt lat="42.44992" lon="18.54456">
        <ele>41.873564</ele>
        <time>2022-06-01T08:24:54.579Z</time>
      </trkpt>
      <trkpt lat="42.44996" lon="18.54442">
        <ele>41.782332</ele>
        <time>2022-06-01T08:24:57.570Z</time>
      </trkpt>
      <trkpt lat="42.44999" lon="18.54426">
        <ele>41.686333</ele>
        <time>2022-06-01T08:25:00.588Z</time>
      </trkpt>
      <trkpt lat="42.45" lon="18.54409">
        <ele>41.586471</ele>
        <time>2022-06-01T08:25:03.624Z</time>
      </trkpt>
      <trkpt lat="42.45002" lon="18.54393">
        <ele>41.492603</ele>
        <time>2022-06-01T08:25:06.593Z</time>
      </trkpt>
      <trkpt lat="42.45005" lon="18.54379">
        <ele>41.404334</ele>
        <time>2022-06-01T08:25:09.587Z</time>
      </trkpt>
      <trkpt lat="42.45008" lon="18.54365">
        <ele>41.320216</ele>
        <time>2022-06-01T08:25:12.596Z</time>
      </trkpt>
      <trkpt lat="42.45011" lon="18.5435">
        <ele>41.232301</ele>
        <time>2022-06-01T08:25:15.587Z</time>
      </trkpt>
      <trkpt lat="42.45015" lon="18.54337">
        <ele>41.145819</ele>
        <time>2022-06-01T08:25:18.655Z</time>
      </trkpt>
      <trkpt lat="42.4502" lon="18.54322">
        <ele>41.05429</ele>
        <time>2022-06-01T08:25:21.576Z</time>
      </trkpt>
      <trkpt lat="42.45025" lon="18.54307">
        <ele>41.242061</ele>
        <time>2022-06-01T08:25:24.569Z</time>
      </trkpt>
      <trkpt lat="42.4503" lon="18.54292">
        <ele>41.526251</ele>
        <time>2022-06-01T08:25:27.582Z</time>
      </trkpt>
      <trkpt lat="42.45034" lon="18.54278">
        <ele>41.787996</ele>
        <time>2022-06-01T08:25:30.574Z</time>
      </trkpt>
      <trkpt lat="42.45039" lon="18.54264">
        <ele>42.054272</ele>
        <time>2022-06-01T08:25:33.588Z</time>
      </trkpt>
      <trkpt lat="42.45043" lon="18.54249">
        <ele>42.337566</ele>
        <time>2022-06-01T08:25:36.585Z</time>
      </trkpt>
      <trkpt lat="42.45048" lon="18.54233">
        <ele>42.63283</ele>
        <time>2022-06-01T08:25:39.597Z</time>
      </trkpt>
      <trkpt lat="42.45053" lon="18.54216">
        <ele>42.941315</ele>
        <time>2022-06-01T08:25:42.595Z</time>
      </trkpt>
      <trkpt lat="42.45057" lon="18.542">
        <ele>43.231406</ele>
        <time>2022-06-01T08:25:45.592Z</time>
      </trkpt>
      <trkpt lat="42.45059" lon="18.54185">
        <ele>43.505032</ele>
        <time>2022-06-01T08:25:48.618Z</time>
      </trkpt>
      <trkpt lat="42.45058" lon="18.54169">
        <ele>43.77333</ele>
        <time>2022-06-01T08:25:51.584Z</time>
      </trkpt>
      <trkpt lat="42.45055" lon="18.54153">
        <ele>44.062884</ele>
        <time>2022-06-01T08:25:54.615Z</time>
      </trkpt>
      <trkpt lat="42.4505" lon="18.54136">
        <ele>44.36872</ele>
        <time>2022-06-01T08:25:57.602Z</time>
      </trkpt>
      <trkpt lat="42.45045" lon="18.54122">
        <ele>44.644153</ele>
        <time>2022-06-01T08:26:00.587Z</time>
      </trkpt>
      <trkpt lat="42.45039" lon="18.54108">
        <ele>44.925709</ele>
        <time>2022-06-01T08:26:03.584Z</time>
      </trkpt>
      <trkpt lat="42.45032" lon="18.54095">
        <ele>45.194895</ele>
        <time>2022-06-01T08:26:06.572Z</time>
      </trkpt>
      <trkpt lat="42.45025" lon="18.54082">
        <ele>45.307916</ele>
        <time>2022-06-01T08:26:09.599Z</time>
      </trkpt>
      <trkpt lat="42.45018" lon="18.54068">
        <ele>45.393805</ele>
        <time>2022-06-01T08:26:12.583Z</time>
      </trkpt>
      <trkpt lat="42.45011" lon="18.54056">
        <ele>45.477183</ele>
        <time>2022-06-01T08:26:15.588Z</time>
      </trkpt>
      <trkpt lat="42.45005" lon="18.54044">
        <ele>45.555494</ele>
        <time>2022-06-01T08:26:18.572Z</time>
      </trkpt>
      <trkpt lat="42.45001" lon="18.54032">
        <ele>45.624814</ele>
        <time>2022-06-01T08:26:23.594Z</time>
      </trkpt>
      <trkpt lat="42.44997" lon="18.5402">
        <ele>45.692054</ele>
        <time>2022-06-01T08:26:27.576Z</time>
      </trkpt>
      <trkpt lat="42.44993" lon="18.54009">
        <ele>45.756019</ele>
        <time>2022-06-01T08:26:30.588Z</time>
      </trkpt>
      <trkpt lat="42.44991" lon="18.53996">
        <ele>45.82642</ele>
        <time>2022-06-01T08:26:33.567Z</time>
      </trkpt>
      <trkpt lat="42.44989" lon="18.53982">
        <ele>45.896872</ele>
        <time>2022-06-01T08:26:36.591Z</time>
      </trkpt>
      <trkpt lat="42.44988" lon="18.53969">
        <ele>45.967628</ele>
        <time>2022-06-01T08:26:39.617Z</time>
      </trkpt>
      <trkpt lat="42.44987" lon="18.53954">
        <ele>46.045608</ele>
        <time>2022-06-01T08:26:42.579Z</time>
      </trkpt>
      <trkpt lat="42.44986" lon="18.53939">
        <ele>46.123101</ele>
        <time>2022-06-01T08:26:45.582Z</time>
      </trkpt>
      <trkpt lat="42.44985" lon="18.53925">
        <ele>46.196788</ele>
        <time>2022-06-01T08:26:48.630Z</time>
      </trkpt>
      <trkpt lat="42.44983" lon="18.53911">
        <ele>46.272135</ele>
        <time>2022-06-01T08:26:51.597Z</time>
      </trkpt>
      <trkpt lat="42.4498" lon="18.53897">
        <ele>46.350496</ele>
        <time>2022-06-01T08:26:54.596Z</time>
      </trkpt>
      <trkpt lat="42.44976" lon="18.53881">
        <ele>46.435353</ele>
        <time>2022-06-01T08:26:57.598Z</time>
      </trkpt>
      <trkpt lat="42.44971" lon="18.53867">
        <ele>46.484234</ele>
        <time>2022-06-01T08:27:00.583Z</time>
      </trkpt>
      <trkpt lat="42.44967" lon="18.53855">
        <ele>46.31446</ele>
        <time>2022-06-01T08:27:03.611Z</time>
      </trkpt>
      <trkpt lat="42.4496" lon="18.53843">
        <ele>46.121959</ele>
        <time>2022-06-01T08:27:06.642Z</time>
      </trkpt>
      <trkpt lat="42.44954" lon="18.53829">
        <ele>45.919114</ele>
        <time>2022-06-01T08:27:09.590Z</time>
      </trkpt>
      <trkpt lat="42.44947" lon="18.53816">
        <ele>45.710572</ele>
        <time>2022-06-01T08:27:12.598Z</time>
      </trkpt>
      <trkpt lat="42.44941" lon="18.53802">
        <ele>45.503953</ele>
        <time>2022-06-01T08:27:15.583Z</time>
      </trkpt>
      <trkpt lat="42.44937" lon="18.53787">
        <ele>45.30288</ele>
        <time>2022-06-01T08:27:18.616Z</time>
      </trkpt>
      <trkpt lat="42.44934" lon="18.53771">
        <ele>45.101534</ele>
        <time>2022-06-01T08:27:21.574Z</time>
      </trkpt>
      <trkpt lat="42.44931" lon="18.53755">
        <ele>44.892033</ele>
        <time>2022-06-01T08:27:24.573Z</time>
      </trkpt>
      <trkpt lat="42.4493" lon="18.53739">
        <ele>44.680812</ele>
        <time>2022-06-01T08:27:27.590Z</time>
      </trkpt>
      <trkpt lat="42.44933" lon="18.53722">
        <ele>44.473507</ele>
        <time>2022-06-01T08:27:30.592Z</time>
      </trkpt>
      <trkpt lat="42.44935" lon="18.53707">
        <ele>44.267688</ele>
        <time>2022-06-01T08:27:33.578Z</time>
      </trkpt>
      <trkpt lat="42.44939" lon="18.53691">
        <ele>44.057348</ele>
        <time>2022-06-01T08:27:36.597Z</time>
      </trkpt>
      <trkpt lat="42.44946" lon="18.53676">
        <ele>43.83254</ele>
        <time>2022-06-01T08:27:39.582Z</time>
      </trkpt>
      <trkpt lat="42.44952" lon="18.53665">
        <ele>43.662659</ele>
        <time>2022-06-01T08:27:41.564Z</time>
      </trkpt>
      <trkpt lat="42.44957" lon="18.53655">
        <ele>43.499828</ele>
        <time>2022-06-01T08:27:43.609Z</time>
      </trkpt>
      <trkpt lat="42.44963" lon="18.53644">
        <ele>43.569531</ele>
        <time>2022-06-01T08:27:45.581Z</time>
      </trkpt>
      <trkpt lat="42.44968" lon="18.53631">
        <ele>43.900884</ele>
        <time>2022-06-01T08:27:48.594Z</time>
      </trkpt>
      <trkpt lat="42.44974" lon="18.53616">
        <ele>44.251242</ele>
        <time>2022-06-01T08:27:51.622Z</time>
      </trkpt>
      <trkpt lat="42.44979" lon="18.53601">
        <ele>44.613599</ele>
        <time>2022-06-01T08:27:54.580Z</time>
      </trkpt>
      <trkpt lat="42.44984" lon="18.53587">
        <ele>44.934063</ele>
        <time>2022-06-01T08:27:57.619Z</time>
      </trkpt>
      <trkpt lat="42.44987" lon="18.53575">
        <ele>45.202631</ele>
        <time>2022-06-01T08:27:59.594Z</time>
      </trkpt>
      <trkpt lat="42.44991" lon="18.53564">
        <ele>45.461644</ele>
        <time>2022-06-01T08:28:01.579Z</time>
      </trkpt>
      <trkpt lat="42.44996" lon="18.53554">
        <ele>45.721237</ele>
        <time>2022-06-01T08:28:03.583Z</time>
      </trkpt>
      <trkpt lat="42.45004" lon="18.5354">
        <ele>46.107055</ele>
        <time>2022-06-01T08:28:06.571Z</time>
      </trkpt>
      <trkpt lat="42.45014" lon="18.53527">
        <ele>46.479517</ele>
        <time>2022-06-01T08:28:09.586Z</time>
      </trkpt>
      <trkpt lat="42.45022" lon="18.53516">
        <ele>46.82225</ele>
        <time>2022-06-01T08:28:12.594Z</time>
      </trkpt>
      <trkpt lat="42.45027" lon="18.53504">
        <ele>47.121888</ele>
        <time>2022-06-01T08:28:15.593Z</time>
      </trkpt>
      <trkpt lat="42.45035" lon="18.53492">
        <ele>47.461095</ele>
        <time>2022-06-01T08:28:18.623Z</time>
      </trkpt>
      <trkpt lat="42.45041" lon="18.53481">
        <ele>47.727373</ele>
        <time>2022-06-01T08:28:21.573Z</time>
      </trkpt>
      <trkpt lat="42.45045" lon="18.53469">
        <ele>48.009699</ele>
        <time>2022-06-01T08:28:24.600Z</time>
      </trkpt>
      <trkpt lat="42.45051" lon="18.5346">
        <ele>48.272611</ele>
        <time>2022-06-01T08:28:26.581Z</time>
      </trkpt>
      <trkpt lat="42.45059" lon="18.53448">
        <ele>48.607042</ele>
        <time>2022-06-01T08:28:29.580Z</time>
      </trkpt>
      <trkpt lat="42.45065" lon="18.53438">
        <ele>48.745711</ele>
        <time>2022-06-01T08:28:32.593Z</time>
      </trkpt>
      <trkpt lat="42.45071" lon="18.53425">
        <ele>48.908478</ele>
        <time>2022-06-01T08:28:35.589Z</time>
      </trkpt>
      <trkpt lat="42.45077" lon="18.53415">
        <ele>49.043836</ele>
        <time>2022-06-01T08:28:37.573Z</time>
      </trkpt>
      <trkpt lat="42.45083" lon="18.53405">
        <ele>49.176611</ele>
        <time>2022-06-01T08:28:39.611Z</time>
      </trkpt>
      <trkpt lat="42.45089" lon="18.53395">
        <ele>49.305628</ele>
        <time>2022-06-01T08:28:41.609Z</time>
      </trkpt>
      <trkpt lat="42.45094" lon="18.53386">
        <ele>49.436001</ele>
        <time>2022-06-01T08:28:43.588Z</time>
      </trkpt>
      <trkpt lat="42.45101" lon="18.53372">
        <ele>49.607752</ele>
        <time>2022-06-01T08:28:46.601Z</time>
      </trkpt>
      <trkpt lat="42.45106" lon="18.53357">
        <ele>49.782618</ele>
        <time>2022-06-01T08:28:49.583Z</time>
      </trkpt>
      <trkpt lat="42.45112" lon="18.53341">
        <ele>49.967743</ele>
        <time>2022-06-01T08:28:52.586Z</time>
      </trkpt>
      <trkpt lat="42.45117" lon="18.53326">
        <ele>50.14814</ele>
        <time>2022-06-01T08:28:55.571Z</time>
      </trkpt>
      <trkpt lat="42.45123" lon="18.53311">
        <ele>50.322567</ele>
        <time>2022-06-01T08:28:58.609Z</time>
      </trkpt>
      <trkpt lat="42.45129" lon="18.53295">
        <ele>50.511767</ele>
        <time>2022-06-01T08:29:01.580Z</time>
      </trkpt>
      <trkpt lat="42.45134" lon="18.53278">
        <ele>50.703199</ele>
        <time>2022-06-01T08:29:04.581Z</time>
      </trkpt>
      <trkpt lat="42.4514" lon="18.53263">
        <ele>50.884865</ele>
        <time>2022-06-01T08:29:07.590Z</time>
      </trkpt>
      <trkpt lat="42.45145" lon="18.53247">
        <ele>51.065584</ele>
        <time>2022-06-01T08:29:10.585Z</time>
      </trkpt>
      <trkpt lat="42.4515" lon="18.53232">
        <ele>51.006203</ele>
        <time>2022-06-01T08:29:13.563Z</time>
      </trkpt>
      <trkpt lat="42.45155" lon="18.53217">
        <ele>50.671275</ele>
        <time>2022-06-01T08:29:16.584Z</time>
      </trkpt>
      <trkpt lat="42.45161" lon="18.53204">
        <ele>50.357269</ele>
        <time>2022-06-01T08:29:19.583Z</time>
      </trkpt>
      <trkpt lat="42.45168" lon="18.53192">
        <ele>50.064985</ele>
        <time>2022-06-01T08:29:23.577Z</time>
      </trkpt>
      <trkpt lat="42.45173" lon="18.53177">
        <ele>49.729904</ele>
        <time>2022-06-01T08:29:26.598Z</time>
      </trkpt>
      <trkpt lat="42.45176" lon="18.53163">
        <ele>49.449674</ele>
        <time>2022-06-01T08:29:28.578Z</time>
      </trkpt>
      <trkpt lat="42.45178" lon="18.53149">
        <ele>49.169422</ele>
        <time>2022-06-01T08:29:30.585Z</time>
      </trkpt>
      <trkpt lat="42.4518" lon="18.53137">
        <ele>48.907637</ele>
        <time>2022-06-01T08:29:32.593Z</time>
      </trkpt>
      <trkpt lat="42.45183" lon="18.53124">
        <ele>48.643112</ele>
        <time>2022-06-01T08:29:34.578Z</time>
      </trkpt>
      <trkpt lat="42.45186" lon="18.53108">
        <ele>48.31054</ele>
        <time>2022-06-01T08:29:37.623Z</time>
      </trkpt>
      <trkpt lat="42.45188" lon="18.53096">
        <ele>48.048121</ele>
        <time>2022-06-01T08:29:40.595Z</time>
      </trkpt>
      <trkpt lat="42.45192" lon="18.53079">
        <ele>47.707813</ele>
        <time>2022-06-01T08:29:43.660Z</time>
      </trkpt>
      <trkpt lat="42.45195" lon="18.53065">
        <ele>47.407143</ele>
        <time>2022-06-01T08:29:46.604Z</time>
      </trkpt>
      <trkpt lat="42.45201" lon="18.53055">
        <ele>47.158154</ele>
        <time>2022-06-01T08:29:49.580Z</time>
      </trkpt>
      <trkpt lat="42.45207" lon="18.53043">
        <ele>46.854484</ele>
        <time>2022-06-01T08:29:57.582Z</time>
      </trkpt>
      <trkpt lat="42.45214" lon="18.53033">
        <ele>46.593904</ele>
        <time>2022-06-01T08:30:00.587Z</time>
      </trkpt>
      <trkpt lat="42.45221" lon="18.53022">
        <ele>46.293971</ele>
        <time>2022-06-01T08:30:03.588Z</time>
      </trkpt>
      <trkpt lat="42.45231" lon="18.53013">
        <ele>45.700201</ele>
        <time>2022-06-01T08:30:06.590Z</time>
      </trkpt>
      <trkpt lat="42.45241" lon="18.53003">
        <ele>45.049272</ele>
        <time>2022-06-01T08:30:09.589Z</time>
      </trkpt>
      <trkpt lat="42.4525" lon="18.52992">
        <ele>44.443925</ele>
        <time>2022-06-01T08:30:12.583Z</time>
      </trkpt>
      <trkpt lat="42.4526" lon="18.52983">
        <ele>43.813977</ele>
        <time>2022-06-01T08:30:15.590Z</time>
      </trkpt>
      <trkpt lat="42.45269" lon="18.52971">
        <ele>43.170467</ele>
        <time>2022-06-01T08:30:18.580Z</time>
      </trkpt>
      <trkpt lat="42.45278" lon="18.52961">
        <ele>42.548349</ele>
        <time>2022-06-01T08:30:21.584Z</time>
      </trkpt>
      <trkpt lat="42.45287" lon="18.52949">
        <ele>41.898996</ele>
        <time>2022-06-01T08:30:24.575Z</time>
      </trkpt>
      <trkpt lat="42.45295" lon="18.52936">
        <ele>41.254367</ele>
        <time>2022-06-01T08:30:27.609Z</time>
      </trkpt>
      <trkpt lat="42.453" lon="18.52925">
        <ele>40.765167</ele>
        <time>2022-06-01T08:30:29.575Z</time>
      </trkpt>
      <trkpt lat="42.45304" lon="18.52914">
        <ele>40.28685</ele>
        <time>2022-06-01T08:30:31.594Z</time>
      </trkpt>
      <trkpt lat="42.45311" lon="18.529">
        <ele>39.629475</ele>
        <time>2022-06-01T08:30:34.577Z</time>
      </trkpt>
      <trkpt lat="42.45318" lon="18.52885">
        <ele>38.976016</ele>
        <time>2022-06-01T08:30:37.578Z</time>
      </trkpt>
      <trkpt lat="42.45322" lon="18.52874">
        <ele>38.506278</ele>
        <time>2022-06-01T08:30:39.593Z</time>
      </trkpt>
      <trkpt lat="42.45325" lon="18.52859">
        <ele>37.927173</ele>
        <time>2022-06-01T08:30:42.612Z</time>
      </trkpt>
      <trkpt lat="42.45327" lon="18.52842">
        <ele>37.273108</ele>
        <time>2022-06-01T08:30:45.590Z</time>
      </trkpt>
      <trkpt lat="42.4533" lon="18.52826">
        <ele>37.056078</ele>
        <time>2022-06-01T08:30:48.597Z</time>
      </trkpt>
      <trkpt lat="42.45332" lon="18.52809">
        <ele>37.228915</ele>
        <time>2022-06-01T08:30:51.586Z</time>
      </trkpt>
      <trkpt lat="42.45334" lon="18.52792">
        <ele>37.399752</ele>
        <time>2022-06-01T08:30:54.585Z</time>
      </trkpt>
      <trkpt lat="42.45335" lon="18.52777">
        <ele>37.550794</ele>
        <time>2022-06-01T08:30:57.579Z</time>
      </trkpt>
      <trkpt lat="42.45335" lon="18.52765">
        <ele>37.676282</ele>
        <time>2022-06-01T08:31:00.593Z</time>
      </trkpt>
      <trkpt lat="42.45335" lon="18.5275">
        <ele>37.825004</ele>
        <time>2022-06-01T08:31:05.570Z</time>
      </trkpt>
      <trkpt lat="42.45324" lon="18.52708">
        <ele>38.276225</ele>
        <time>2022-06-01T08:31:12.634Z</time>
      </trkpt>
      <trkpt lat="42.45337" lon="18.52706">
        <ele>38.456652</ele>
        <time>2022-06-01T08:31:13.588Z</time>
      </trkpt>
      <trkpt lat="42.45347" lon="18.52698">
        <ele>38.606636</ele>
        <time>2022-06-01T08:31:15.574Z</time>
      </trkpt>
      <trkpt lat="42.45356" lon="18.52693">
        <ele>38.74067</ele>
        <time>2022-06-01T08:31:17.578Z</time>
      </trkpt>
      <trkpt lat="42.45365" lon="18.52685">
        <ele>38.890815</ele>
        <time>2022-06-01T08:31:20.604Z</time>
      </trkpt>
      <trkpt lat="42.45372" lon="18.52674">
        <ele>39.039111</ele>
        <time>2022-06-01T08:31:23.624Z</time>
      </trkpt>
      <trkpt lat="42.45381" lon="18.5266">
        <ele>39.220969</ele>
        <time>2022-06-01T08:31:26.597Z</time>
      </trkpt>
      <trkpt lat="42.45386" lon="18.52649">
        <ele>39.355922</ele>
        <time>2022-06-01T08:31:28.583Z</time>
      </trkpt>
      <trkpt lat="42.45394" lon="18.52637">
        <ele>39.743391</ele>
        <time>2022-06-01T08:31:31.598Z</time>
      </trkpt>
      <trkpt lat="42.45405" lon="18.52629">
        <ele>40.289079</ele>
        <time>2022-06-01T08:31:34.582Z</time>
      </trkpt>
      <trkpt lat="42.45415" lon="18.5262">
        <ele>40.857176</ele>
        <time>2022-06-01T08:31:37.577Z</time>
      </trkpt>
      <trkpt lat="42.45426" lon="18.52614">
        <ele>41.365817</ele>
        <time>2022-06-01T08:31:40.585Z</time>
      </trkpt>
      <trkpt lat="42.45437" lon="18.52608">
        <ele>41.930073</ele>
        <time>2022-06-01T08:31:43.623Z</time>
      </trkpt>
      <trkpt lat="42.45449" lon="18.52602">
        <ele>42.484168</ele>
        <time>2022-06-01T08:31:46.588Z</time>
      </trkpt>
      <trkpt lat="42.4546" lon="18.52597">
        <ele>43.031706</ele>
        <time>2022-06-01T08:31:49.629Z</time>
      </trkpt>
      <trkpt lat="42.45471" lon="18.52591">
        <ele>43.536875</ele>
        <time>2022-06-01T08:31:52.588Z</time>
      </trkpt>
      <trkpt lat="42.4548" lon="18.52586">
        <ele>43.986406</ele>
        <time>2022-06-01T08:31:55.590Z</time>
      </trkpt>
      <trkpt lat="42.45489" lon="18.52579">
        <ele>44.441518</ele>
        <time>2022-06-01T08:31:58.578Z</time>
      </trkpt>
      <trkpt lat="42.45497" lon="18.5257">
        <ele>44.934196</ele>
        <time>2022-06-01T08:32:01.614Z</time>
      </trkpt>
      <trkpt lat="42.45505" lon="18.52563">
        <ele>45.33949</ele>
        <time>2022-06-01T08:32:04.586Z</time>
      </trkpt>
      <trkpt lat="42.45513" lon="18.52555">
        <ele>45.787191</ele>
        <time>2022-06-01T08:32:07.638Z</time>
      </trkpt>
      <trkpt lat="42.45522" lon="18.52546">
        <ele>46.306237</ele>
        <time>2022-06-01T08:32:10.590Z</time>
      </trkpt>
      <trkpt lat="42.45534" lon="18.52538">
        <ele>46.900745</ele>
        <time>2022-06-01T08:32:13.583Z</time>
      </trkpt>
      <trkpt lat="42.45544" lon="18.52531">
        <ele>47.441833</ele>
        <time>2022-06-01T08:32:16.589Z</time>
      </trkpt>
      <trkpt lat="42.45553" lon="18.52523">
        <ele>47.520954</ele>
        <time>2022-06-01T08:32:19.571Z</time>
      </trkpt>
      <trkpt lat="42.45564" lon="18.52515">
        <ele>47.451028</ele>
        <time>2022-06-01T08:32:22.580Z</time>
      </trkpt>
      <trkpt lat="42.45575" lon="18.52509">
        <ele>47.383416</ele>
        <time>2022-06-01T08:32:25.581Z</time>
      </trkpt>
      <trkpt lat="42.45586" lon="18.52501">
        <ele>47.315275</ele>
        <time>2022-06-01T08:32:28.596Z</time>
      </trkpt>
      <trkpt lat="42.45595" lon="18.52493">
        <ele>47.25522</ele>
        <time>2022-06-01T08:32:31.577Z</time>
      </trkpt>
      <trkpt lat="42.45603" lon="18.52482">
        <ele>47.187674</ele>
        <time>2022-06-01T08:32:34.581Z</time>
      </trkpt>
      <trkpt lat="42.45611" lon="18.52469">
        <ele>47.119701</ele>
        <time>2022-06-01T08:32:37.588Z</time>
      </trkpt>
      <trkpt lat="42.45617" lon="18.52455">
        <ele>47.049815</ele>
        <time>2022-06-01T08:32:40.586Z</time>
      </trkpt>
      <trkpt lat="42.45623" lon="18.52442">
        <ele>46.9877</ele>
        <time>2022-06-01T08:32:43.596Z</time>
      </trkpt>
      <trkpt lat="42.45629" lon="18.52427">
        <ele>46.916498</ele>
        <time>2022-06-01T08:32:46.608Z</time>
      </trkpt>
      <trkpt lat="42.45634" lon="18.52411">
        <ele>46.844355</ele>
        <time>2022-06-01T08:32:49.570Z</time>
      </trkpt>
      <trkpt lat="42.45639" lon="18.52398">
        <ele>46.780981</ele>
        <time>2022-06-01T08:32:52.583Z</time>
      </trkpt>
      <trkpt lat="42.45644" lon="18.52385">
        <ele>46.721357</ele>
        <time>2022-06-01T08:32:55.587Z</time>
      </trkpt>
      <trkpt lat="42.45647" lon="18.52371">
        <ele>46.659548</ele>
        <time>2022-06-01T08:32:58.596Z</time>
      </trkpt>
      <trkpt lat="42.45651" lon="18.52355">
        <ele>46.589374</ele>
        <time>2022-06-01T08:33:01.581Z</time>
      </trkpt>
      <trkpt lat="42.45657" lon="18.52341">
        <ele>46.496143</ele>
        <time>2022-06-01T08:33:04.580Z</time>
      </trkpt>
      <trkpt lat="42.45661" lon="18.52329">
        <ele>46.372801</ele>
        <time>2022-06-01T08:33:07.600Z</time>
      </trkpt>
      <trkpt lat="42.45665" lon="18.52316">
        <ele>46.244122</ele>
        <time>2022-06-01T08:33:10.576Z</time>
      </trkpt>
      <trkpt lat="42.4567" lon="18.52302">
        <ele>46.106445</ele>
        <time>2022-06-01T08:33:14.566Z</time>
      </trkpt>
      <trkpt lat="42.45675" lon="18.5229">
        <ele>45.986622</ele>
        <time>2022-06-01T08:33:17.620Z</time>
      </trkpt>
      <trkpt lat="42.45679" lon="18.52278">
        <ele>45.85944</ele>
        <time>2022-06-01T08:33:20.630Z</time>
      </trkpt>
      <trkpt lat="42.45683" lon="18.52265">
        <ele>45.738714</ele>
        <time>2022-06-01T08:33:23.591Z</time>
      </trkpt>
      <trkpt lat="42.45688" lon="18.52252">
        <ele>45.604992</ele>
        <time>2022-06-01T08:33:26.578Z</time>
      </trkpt>
      <trkpt lat="42.45695" lon="18.5224">
        <ele>45.470367</ele>
        <time>2022-06-01T08:33:29.584Z</time>
      </trkpt>
      <trkpt lat="42.45701" lon="18.5223">
        <ele>45.351016</ele>
        <time>2022-06-01T08:33:32.582Z</time>
      </trkpt>
      <trkpt lat="42.45708" lon="18.52222">
        <ele>45.230821</ele>
        <time>2022-06-01T08:33:35.582Z</time>
      </trkpt>
      <trkpt lat="42.45716" lon="18.52213">
        <ele>45.110161</ele>
        <time>2022-06-01T08:33:38.589Z</time>
      </trkpt>
      <trkpt lat="42.45724" lon="18.52205">
        <ele>44.98028</ele>
        <time>2022-06-01T08:33:42.583Z</time>
      </trkpt>
      <trkpt lat="42.45733" lon="18.52195">
        <ele>44.841257</ele>
        <time>2022-06-01T08:33:45.577Z</time>
      </trkpt>
      <trkpt lat="42.45742" lon="18.52185">
        <ele>44.698044</ele>
        <time>2022-06-01T08:33:48.585Z</time>
      </trkpt>
      <trkpt lat="42.45749" lon="18.52173">
        <ele>44.558288</ele>
        <time>2022-06-01T08:33:51.604Z</time>
      </trkpt>
      <trkpt lat="42.45755" lon="18.52159">
        <ele>44.417634</ele>
        <time>2022-06-01T08:33:54.562Z</time>
      </trkpt>
      <trkpt lat="42.45759" lon="18.52145">
        <ele>44.168483</ele>
        <time>2022-06-01T08:33:57.588Z</time>
      </trkpt>
      <trkpt lat="42.45764" lon="18.52133">
        <ele>43.818114</ele>
        <time>2022-06-01T08:34:00.595Z</time>
      </trkpt>
      <trkpt lat="42.45769" lon="18.5212">
        <ele>43.458684</ele>
        <time>2022-06-01T08:34:03.628Z</time>
      </trkpt>
      <trkpt lat="42.45773" lon="18.52106">
        <ele>43.086629</ele>
        <time>2022-06-01T08:34:06.594Z</time>
      </trkpt>
      <trkpt lat="42.45776" lon="18.52091">
        <ele>42.715538</ele>
        <time>2022-06-01T08:34:09.599Z</time>
      </trkpt>
      <trkpt lat="42.4578" lon="18.52078">
        <ele>42.354494</ele>
        <time>2022-06-01T08:34:12.586Z</time>
      </trkpt>
      <trkpt lat="42.45785" lon="18.52064">
        <ele>41.974474</ele>
        <time>2022-06-01T08:34:15.602Z</time>
      </trkpt>
      <trkpt lat="42.4579" lon="18.5205">
        <ele>41.600523</ele>
        <time>2022-06-01T08:34:18.577Z</time>
      </trkpt>
      <trkpt lat="42.45796" lon="18.52038">
        <ele>41.235344</ele>
        <time>2022-06-01T08:34:21.585Z</time>
      </trkpt>
      <trkpt lat="42.45802" lon="18.52024">
        <ele>40.856476</ele>
        <time>2022-06-01T08:34:24.574Z</time>
      </trkpt>
      <trkpt lat="42.45808" lon="18.52011">
        <ele>40.466577</ele>
        <time>2022-06-01T08:34:27.587Z</time>
      </trkpt>
      <trkpt lat="42.45815" lon="18.51998">
        <ele>40.062966</ele>
        <time>2022-06-01T08:34:30.581Z</time>
      </trkpt>
      <trkpt lat="42.45822" lon="18.51984">
        <ele>39.653569</ele>
        <time>2022-06-01T08:34:33.581Z</time>
      </trkpt>
      <trkpt lat="42.45829" lon="18.5197">
        <ele>39.231785</ele>
        <time>2022-06-01T08:34:36.697Z</time>
      </trkpt>
      <trkpt lat="42.45837" lon="18.51956">
        <ele>38.804112</ele>
        <time>2022-06-01T08:34:39.596Z</time>
      </trkpt>
      <trkpt lat="42.45843" lon="18.51942">
        <ele>38.404082</ele>
        <time>2022-06-01T08:34:42.581Z</time>
      </trkpt>
      <trkpt lat="42.45849" lon="18.51929">
        <ele>38.546883</ele>
        <time>2022-06-01T08:34:45.594Z</time>
      </trkpt>
      <trkpt lat="42.45855" lon="18.51916">
        <ele>38.834494</ele>
        <time>2022-06-01T08:34:48.581Z</time>
      </trkpt>
      <trkpt lat="42.45861" lon="18.51904">
        <ele>39.098823</ele>
        <time>2022-06-01T08:34:51.581Z</time>
      </trkpt>
      <trkpt lat="42.45867" lon="18.51892">
        <ele>39.358576</ele>
        <time>2022-06-01T08:34:54.606Z</time>
      </trkpt>
      <trkpt lat="42.45872" lon="18.51879">
        <ele>39.616817</ele>
        <time>2022-06-01T08:34:57.591Z</time>
      </trkpt>
      <trkpt lat="42.45878" lon="18.51867">
        <ele>39.876918</ele>
        <time>2022-06-01T08:35:00.571Z</time>
      </trkpt>
      <trkpt lat="42.45884" lon="18.51856">
        <ele>40.129338</ele>
        <time>2022-06-01T08:35:03.615Z</time>
      </trkpt>
      <trkpt lat="42.4589" lon="18.51846">
        <ele>40.365009</ele>
        <time>2022-06-01T08:35:06.584Z</time>
      </trkpt>
      <trkpt lat="42.45896" lon="18.51833">
        <ele>40.640671</ele>
        <time>2022-06-01T08:35:09.619Z</time>
      </trkpt>
      <trkpt lat="42.45901" lon="18.51816">
        <ele>40.974959</ele>
        <time>2022-06-01T08:35:12.572Z</time>
      </trkpt>
      <trkpt lat="42.45902" lon="18.51801">
        <ele>41.24222</ele>
        <time>2022-06-01T08:35:15.623Z</time>
      </trkpt>
      <trkpt lat="42.45906" lon="18.51784">
        <ele>41.562886</ele>
        <time>2022-06-01T08:35:18.572Z</time>
      </trkpt>
      <trkpt lat="42.45909" lon="18.51772">
        <ele>41.804486</ele>
        <time>2022-06-01T08:35:20.582Z</time>
      </trkpt>
      <trkpt lat="42.45913" lon="18.51759">
        <ele>42.042631</ele>
        <time>2022-06-01T08:35:22.581Z</time>
      </trkpt>
      <trkpt lat="42.45917" lon="18.51744">
        <ele>42.342401</ele>
        <time>2022-06-01T08:35:25.575Z</time>
      </trkpt>
      <trkpt lat="42.45922" lon="18.51731">
        <ele>42.601369</ele>
        <time>2022-06-01T08:35:28.594Z</time>
      </trkpt>
      <trkpt lat="42.45925" lon="18.51716">
        <ele>42.893023</ele>
        <time>2022-06-01T08:35:31.570Z</time>
      </trkpt>
      <trkpt lat="42.45925" lon="18.51699">
        <ele>43.243625</ele>
        <time>2022-06-01T08:35:34.567Z</time>
      </trkpt>
      <trkpt lat="42.45924" lon="18.51686">
        <ele>43.512628</ele>
        <time>2022-06-01T08:35:36.582Z</time>
      </trkpt>
      <trkpt lat="42.45922" lon="18.51672">
        <ele>43.799766</ele>
        <time>2022-06-01T08:35:38.578Z</time>
      </trkpt>
      <trkpt lat="42.45919" lon="18.51655">
        <ele>44.165543</ele>
        <time>2022-06-01T08:35:41.576Z</time>
      </trkpt>
      <trkpt lat="42.45918" lon="18.51639">
        <ele>44.48932</ele>
        <time>2022-06-01T08:35:44.611Z</time>
      </trkpt>
      <trkpt lat="42.45916" lon="18.51623">
        <ele>44.822496</ele>
        <time>2022-06-01T08:35:47.584Z</time>
      </trkpt>
      <trkpt lat="42.4591" lon="18.51607">
        <ele>45.182202</ele>
        <time>2022-06-01T08:35:50.599Z</time>
      </trkpt>
      <trkpt lat="42.45904" lon="18.51594">
        <ele>45.494969</ele>
        <time>2022-06-01T08:35:53.608Z</time>
      </trkpt>
      <trkpt lat="42.45898" lon="18.5158">
        <ele>45.819917</ele>
        <time>2022-06-01T08:35:56.591Z</time>
      </trkpt>
      <trkpt lat="42.45893" lon="18.51569">
        <ele>46.088289</ele>
        <time>2022-06-01T08:35:59.590Z</time>
      </trkpt>
      <trkpt lat="42.45887" lon="18.51555">
        <ele>46.40434</ele>
        <time>2022-06-01T08:36:02.584Z</time>
      </trkpt>
      <trkpt lat="42.45882" lon="18.51541">
        <ele>46.722519</ele>
        <time>2022-06-01T08:36:05.569Z</time>
      </trkpt>
      <trkpt lat="42.45878" lon="18.5153">
        <ele>46.986509</ele>
        <time>2022-06-01T08:36:08.591Z</time>
      </trkpt>
      <trkpt lat="42.45873" lon="18.51518">
        <ele>47.261574</ele>
        <time>2022-06-01T08:36:11.581Z</time>
      </trkpt>
      <trkpt lat="42.45868" lon="18.51504">
        <ele>47.579415</ele>
        <time>2022-06-01T08:36:14.594Z</time>
      </trkpt>
      <trkpt lat="42.45862" lon="18.5149">
        <ele>47.600004</ele>
        <time>2022-06-01T08:36:17.597Z</time>
      </trkpt>
      <trkpt lat="42.45857" lon="18.51476">
        <ele>47.4219</ele>
        <time>2022-06-01T08:36:20.590Z</time>
      </trkpt>
      <trkpt lat="42.45852" lon="18.51462">
        <ele>47.24894</ele>
        <time>2022-06-01T08:36:23.584Z</time>
      </trkpt>
      <trkpt lat="42.45847" lon="18.51449">
        <ele>47.079716</ele>
        <time>2022-06-01T08:36:26.585Z</time>
      </trkpt>
      <trkpt lat="42.45843" lon="18.51434">
        <ele>46.89913</ele>
        <time>2022-06-01T08:36:29.588Z</time>
      </trkpt>
      <trkpt lat="42.45839" lon="18.5142">
        <ele>46.726815</ele>
        <time>2022-06-01T08:36:32.590Z</time>
      </trkpt>
      <trkpt lat="42.45833" lon="18.51407">
        <ele>46.551985</ele>
        <time>2022-06-01T08:36:35.612Z</time>
      </trkpt>
      <trkpt lat="42.45828" lon="18.51394">
        <ele>46.380875</ele>
        <time>2022-06-01T08:36:38.598Z</time>
      </trkpt>
      <trkpt lat="42.45822" lon="18.5138">
        <ele>46.206509</ele>
        <time>2022-06-01T08:36:41.625Z</time>
      </trkpt>
      <trkpt lat="42.45817" lon="18.51365">
        <ele>46.025703</ele>
        <time>2022-06-01T08:36:44.590Z</time>
      </trkpt>
      <trkpt lat="42.45811" lon="18.51352">
        <ele>45.848002</ele>
        <time>2022-06-01T08:36:47.590Z</time>
      </trkpt>
      <trkpt lat="42.45806" lon="18.5134">
        <ele>45.683576</ele>
        <time>2022-06-01T08:36:50.585Z</time>
      </trkpt>
      <trkpt lat="42.45801" lon="18.51328">
        <ele>45.528089</ele>
        <time>2022-06-01T08:36:53.580Z</time>
      </trkpt>
      <trkpt lat="42.45796" lon="18.51316">
        <ele>45.371851</ele>
        <time>2022-06-01T08:36:56.582Z</time>
      </trkpt>
      <trkpt lat="42.45789" lon="18.51302">
        <ele>45.189646</ele>
        <time>2022-06-01T08:36:59.576Z</time>
      </trkpt>
      <trkpt lat="42.45785" lon="18.5129">
        <ele>45.040365</ele>
        <time>2022-06-01T08:37:02.609Z</time>
      </trkpt>
      <trkpt lat="42.45781" lon="18.5128">
        <ele>45.044751</ele>
        <time>2022-06-01T08:37:05.605Z</time>
      </trkpt>
      <trkpt lat="42.45772" lon="18.51268">
        <ele>45.453541</ele>
        <time>2022-06-01T08:37:09.591Z</time>
      </trkpt>
      <trkpt lat="42.45766" lon="18.51259">
        <ele>45.782186</ele>
        <time>2022-06-01T08:37:12.581Z</time>
      </trkpt>
      <trkpt lat="42.45759" lon="18.51247">
        <ele>46.149264</ele>
        <time>2022-06-01T08:37:15.592Z</time>
      </trkpt>
      <trkpt lat="42.45752" lon="18.51235">
        <ele>46.546516</ele>
        <time>2022-06-01T08:37:18.580Z</time>
      </trkpt>
      <trkpt lat="42.45746" lon="18.51224">
        <ele>46.895248</ele>
        <time>2022-06-01T08:37:21.577Z</time>
      </trkpt>
      <trkpt lat="42.45741" lon="18.51212">
        <ele>47.245749</ele>
        <time>2022-06-01T08:37:24.614Z</time>
      </trkpt>
      <trkpt lat="42.45734" lon="18.512">
        <ele>47.61462</ele>
        <time>2022-06-01T08:37:27.577Z</time>
      </trkpt>
      <trkpt lat="42.45727" lon="18.5119">
        <ele>47.971483</ele>
        <time>2022-06-01T08:37:30.595Z</time>
      </trkpt>
      <trkpt lat="42.45719" lon="18.51179">
        <ele>48.354516</ele>
        <time>2022-06-01T08:37:33.581Z</time>
      </trkpt>
      <trkpt lat="42.45711" lon="18.51169">
        <ele>48.714347</ele>
        <time>2022-06-01T08:37:36.617Z</time>
      </trkpt>
      <trkpt lat="42.45703" lon="18.51157">
        <ele>49.118437</ele>
        <time>2022-06-01T08:37:39.580Z</time>
      </trkpt>
      <trkpt lat="42.45697" lon="18.51146">
        <ele>49.479637</ele>
        <time>2022-06-01T08:37:42.618Z</time>
      </trkpt>
      <trkpt lat="42.45689" lon="18.51133">
        <ele>49.911497</ele>
        <time>2022-06-01T08:37:45.580Z</time>
      </trkpt>
      <trkpt lat="42.45681" lon="18.5112">
        <ele>50.321058</ele>
        <time>2022-06-01T08:37:48.579Z</time>
      </trkpt>
      <trkpt lat="42.45674" lon="18.51108">
        <ele>50.717814</ele>
        <time>2022-06-01T08:37:51.568Z</time>
      </trkpt>
      <trkpt lat="42.45666" lon="18.51096">
        <ele>51.044441</ele>
        <time>2022-06-01T08:37:54.579Z</time>
      </trkpt>
      <trkpt lat="42.45657" lon="18.51084">
        <ele>50.571041</ele>
        <time>2022-06-01T08:37:57.576Z</time>
      </trkpt>
      <trkpt lat="42.45649" lon="18.51071">
        <ele>50.06515</ele>
        <time>2022-06-01T08:38:00.588Z</time>
      </trkpt>
      <trkpt lat="42.45641" lon="18.51058">
        <ele>49.590369</ele>
        <time>2022-06-01T08:38:03.578Z</time>
      </trkpt>
      <trkpt lat="42.45634" lon="18.51046">
        <ele>49.143887</ele>
        <time>2022-06-01T08:38:06.598Z</time>
      </trkpt>
      <trkpt lat="42.45628" lon="18.51034">
        <ele>48.7391</ele>
        <time>2022-06-01T08:38:09.579Z</time>
      </trkpt>
      <trkpt lat="42.45621" lon="18.51022">
        <ele>48.292737</ele>
        <time>2022-06-01T08:38:12.588Z</time>
      </trkpt>
      <trkpt lat="42.45613" lon="18.51009">
        <ele>47.81848</ele>
        <time>2022-06-01T08:38:15.574Z</time>
      </trkpt>
      <trkpt lat="42.45605" lon="18.50996">
        <ele>47.342976</ele>
        <time>2022-06-01T08:38:18.593Z</time>
      </trkpt>
      <trkpt lat="42.45597" lon="18.50985">
        <ele>46.881744</ele>
        <time>2022-06-01T08:38:21.594Z</time>
      </trkpt>
      <trkpt lat="42.45589" lon="18.50972">
        <ele>46.40793</ele>
        <time>2022-06-01T08:38:24.582Z</time>
      </trkpt>
      <trkpt lat="42.45581" lon="18.5096">
        <ele>45.935328</ele>
        <time>2022-06-01T08:38:27.597Z</time>
      </trkpt>
      <trkpt lat="42.45573" lon="18.50948">
        <ele>45.499189</ele>
        <time>2022-06-01T08:38:30.582Z</time>
      </trkpt>
      <trkpt lat="42.45566" lon="18.50938">
        <ele>45.105201</ele>
        <time>2022-06-01T08:38:33.627Z</time>
      </trkpt>
      <trkpt lat="42.45558" lon="18.50928">
        <ele>44.667786</ele>
        <time>2022-06-01T08:38:36.582Z</time>
      </trkpt>
      <trkpt lat="42.45551" lon="18.50918">
        <ele>44.276453</ele>
        <time>2022-06-01T08:38:39.616Z</time>
      </trkpt>
      <trkpt lat="42.45545" lon="18.50907">
        <ele>44.055412</ele>
        <time>2022-06-01T08:38:42.591Z</time>
      </trkpt>
      <trkpt lat="42.45536" lon="18.50894">
        <ele>43.917658</ele>
        <time>2022-06-01T08:38:45.622Z</time>
      </trkpt>
      <trkpt lat="42.45529" lon="18.50884">
        <ele>43.81845</ele>
        <time>2022-06-01T08:38:47.579Z</time>
      </trkpt>
      <trkpt lat="42.45523" lon="18.50875">
        <ele>43.723266</ele>
        <time>2022-06-01T08:38:49.573Z</time>
      </trkpt>
      <trkpt lat="42.45516" lon="18.50866">
        <ele>43.630251</ele>
        <time>2022-06-01T08:38:51.584Z</time>
      </trkpt>
      <trkpt lat="42.45509" lon="18.50858">
        <ele>43.534059</ele>
        <time>2022-06-01T08:38:53.595Z</time>
      </trkpt>
      <trkpt lat="42.455" lon="18.50846">
        <ele>43.397264</ele>
        <time>2022-06-01T08:38:56.618Z</time>
      </trkpt>
      <trkpt lat="42.4549" lon="18.50834">
        <ele>43.262244</ele>
        <time>2022-06-01T08:38:59.574Z</time>
      </trkpt>
      <trkpt lat="42.4548" lon="18.50822">
        <ele>43.129431</ele>
        <time>2022-06-01T08:39:02.574Z</time>
      </trkpt>
      <trkpt lat="42.45472" lon="18.50809">
        <ele>43.001682</ele>
        <time>2022-06-01T08:39:05.583Z</time>
      </trkpt>
      <trkpt lat="42.45463" lon="18.50798">
        <ele>42.8797</ele>
        <time>2022-06-01T08:39:08.580Z</time>
      </trkpt>
      <trkpt lat="42.45454" lon="18.50787">
        <ele>42.753563</ele>
        <time>2022-06-01T08:39:11.579Z</time>
      </trkpt>
      <trkpt lat="42.45445" lon="18.50775">
        <ele>42.624011</ele>
        <time>2022-06-01T08:39:14.597Z</time>
      </trkpt>
      <trkpt lat="42.45437" lon="18.50763">
        <ele>42.49975</ele>
        <time>2022-06-01T08:39:17.594Z</time>
      </trkpt>
      <trkpt lat="42.45428" lon="18.50751">
        <ele>42.370808</ele>
        <time>2022-06-01T08:39:20.674Z</time>
      </trkpt>
      <trkpt lat="42.45419" lon="18.50739">
        <ele>42.179478</ele>
        <time>2022-06-01T08:39:23.583Z</time>
      </trkpt>
      <trkpt lat="42.4541" lon="18.50728">
        <ele>41.777565</ele>
        <time>2022-06-01T08:39:26.598Z</time>
      </trkpt>
      <trkpt lat="42.45401" lon="18.50716">
        <ele>41.368163</ele>
        <time>2022-06-01T08:39:29.595Z</time>
      </trkpt>
      <trkpt lat="42.45395" lon="18.50702">
        <ele>40.96223</ele>
        <time>2022-06-01T08:39:32.600Z</time>
      </trkpt>
      <trkpt lat="42.45395" lon="18.50684">
        <ele>40.533302</ele>
        <time>2022-06-01T08:39:35.577Z</time>
      </trkpt>
      <trkpt lat="42.454" lon="18.5067">
        <ele>40.150047</ele>
        <time>2022-06-01T08:39:38.591Z</time>
      </trkpt>
      <trkpt lat="42.45405" lon="18.50658">
        <ele>39.82541</ele>
        <time>2022-06-01T08:39:41.666Z</time>
      </trkpt>
      <trkpt lat="42.45409" lon="18.50645">
        <ele>39.485492</ele>
        <time>2022-06-01T08:39:44.579Z</time>
      </trkpt>
      <trkpt lat="42.45412" lon="18.50632">
        <ele>39.156875</ele>
        <time>2022-06-01T08:39:47.582Z</time>
      </trkpt>
      <trkpt lat="42.45414" lon="18.50621">
        <ele>38.859508</ele>
        <time>2022-06-01T08:39:50.585Z</time>
      </trkpt>
      <trkpt lat="42.45418" lon="18.50606">
        <ele>38.492502</ele>
        <time>2022-06-01T08:39:54.580Z</time>
      </trkpt>
      <trkpt lat="42.45422" lon="18.50592">
        <ele>38.120666</ele>
        <time>2022-06-01T08:39:58.592Z</time>
      </trkpt>
      <trkpt lat="42.45427" lon="18.5058">
        <ele>37.782594</ele>
        <time>2022-06-01T08:40:02.578Z</time>
      </trkpt>
      <trkpt lat="42.45432" lon="18.50568">
        <ele>37.456217</ele>
        <time>2022-06-01T08:40:06.599Z</time>
      </trkpt>
      <trkpt lat="42.45437" lon="18.50555">
        <ele>37.0925</ele>
        <time>2022-06-01T08:40:10.578Z</time>
      </trkpt>
      <trkpt lat="42.45445" lon="18.50544">
        <ele>36.740251</ele>
        <time>2022-06-01T08:40:14.629Z</time>
      </trkpt>
      <trkpt lat="42.45451" lon="18.50536">
        <ele>36.443026</ele>
        <time>2022-06-01T08:40:17.592Z</time>
      </trkpt>
      <trkpt lat="42.45459" lon="18.50528">
        <ele>36.609314</ele>
        <time>2022-06-01T08:40:20.594Z</time>
      </trkpt>
      <trkpt lat="42.45467" lon="18.50518">
        <ele>36.952398</ele>
        <time>2022-06-01T08:40:23.592Z</time>
      </trkpt>
      <trkpt lat="42.45474" lon="18.50508">
        <ele>37.284768</ele>
        <time>2022-06-01T08:40:26.618Z</time>
      </trkpt>
      <trkpt lat="42.45482" lon="18.50498">
        <ele>37.634057</ele>
        <time>2022-06-01T08:40:29.589Z</time>
      </trkpt>
      <trkpt lat="42.4549" lon="18.50488">
        <ele>37.973321</ele>
        <time>2022-06-01T08:40:32.575Z</time>
      </trkpt>
      <trkpt lat="42.45498" lon="18.50478">
        <ele>38.349985</ele>
        <time>2022-06-01T08:40:35.655Z</time>
      </trkpt>
      <trkpt lat="42.45505" lon="18.50469">
        <ele>38.653299</ele>
        <time>2022-06-01T08:40:39.582Z</time>
      </trkpt>
      <trkpt lat="42.45513" lon="18.5046">
        <ele>38.998053</ele>
        <time>2022-06-01T08:40:43.662Z</time>
      </trkpt>
      <trkpt lat="42.45521" lon="18.50448">
        <ele>39.358299</ele>
        <time>2022-06-01T08:40:46.581Z</time>
      </trkpt>
      <trkpt lat="42.45527" lon="18.50434">
        <ele>39.743088</ele>
        <time>2022-06-01T08:40:49.571Z</time>
      </trkpt>
      <trkpt lat="42.45531" lon="18.5042">
        <ele>40.111808</ele>
        <time>2022-06-01T08:40:52.592Z</time>
      </trkpt>
      <trkpt lat="42.45532" lon="18.50408">
        <ele>40.402169</ele>
        <time>2022-06-01T08:40:55.578Z</time>
      </trkpt>
      <trkpt lat="42.45535" lon="18.50393">
        <ele>40.76575</ele>
        <time>2022-06-01T08:40:58.578Z</time>
      </trkpt>
      <trkpt lat="42.45539" lon="18.5038">
        <ele>41.093258</ele>
        <time>2022-06-01T08:41:01.583Z</time>
      </trkpt>
      <trkpt lat="42.45539" lon="18.50368">
        <ele>41.385497</ele>
        <time>2022-06-01T08:41:04.590Z</time>
      </trkpt>
      <trkpt lat="42.45541" lon="18.50354">
        <ele>41.729114</ele>
        <time>2022-06-01T08:41:07.575Z</time>
      </trkpt>
      <trkpt lat="42.45544" lon="18.50342">
        <ele>42.016638</ele>
        <time>2022-06-01T08:41:10.571Z</time>
      </trkpt>
      <trkpt lat="42.45545" lon="18.50326">
        <ele>42.268305</ele>
        <time>2022-06-01T08:41:14.583Z</time>
      </trkpt>
      <trkpt lat="42.45546" lon="18.50312">
        <ele>42.43219</ele>
        <time>2022-06-01T08:41:17.598Z</time>
      </trkpt>
      <trkpt lat="42.45545" lon="18.50297">
        <ele>42.605707</ele>
        <time>2022-06-01T08:41:20.647Z</time>
      </trkpt>
      <trkpt lat="42.45543" lon="18.50281">
        <ele>42.78509</ele>
        <time>2022-06-01T08:41:23.577Z</time>
      </trkpt>
      <trkpt lat="42.45542" lon="18.50265">
        <ele>42.964791</ele>
        <time>2022-06-01T08:41:26.569Z</time>
      </trkpt>
      <trkpt lat="42.45541" lon="18.5025">
        <ele>43.138369</ele>
        <time>2022-06-01T08:41:29.583Z</time>
      </trkpt>
      <trkpt lat="42.45541" lon="18.50234">
        <ele>43.320596</ele>
        <time>2022-06-01T08:41:32.584Z</time>
      </trkpt>
      <trkpt lat="42.45541" lon="18.50219">
        <ele>43.495933</ele>
        <time>2022-06-01T08:41:35.582Z</time>
      </trkpt>
      <trkpt lat="42.45542" lon="18.50202">
        <ele>43.690736</ele>
        <time>2022-06-01T08:41:38.583Z</time>
      </trkpt>
      <trkpt lat="42.45542" lon="18.50184">
        <ele>43.887539</ele>
        <time>2022-06-01T08:41:41.594Z</time>
      </trkpt>
      <trkpt lat="42.45541" lon="18.50172">
        <ele>44.026317</ele>
        <time>2022-06-01T08:41:43.572Z</time>
      </trkpt>
      <trkpt lat="42.45542" lon="18.50159">
        <ele>44.177605</ele>
        <time>2022-06-01T08:41:45.616Z</time>
      </trkpt>
      <trkpt lat="42.45542" lon="18.50146">
        <ele>44.328388</ele>
        <time>2022-06-01T08:41:47.584Z</time>
      </trkpt>
      <trkpt lat="42.45543" lon="18.50128">
        <ele>44.534549</ele>
        <time>2022-06-01T08:41:50.578Z</time>
      </trkpt>
      <trkpt lat="42.45544" lon="18.50115">
        <ele>44.676864</ele>
        <time>2022-06-01T08:41:52.581Z</time>
      </trkpt>
      <trkpt lat="42.45545" lon="18.50097">
        <ele>44.878906</ele>
        <time>2022-06-01T08:41:55.576Z</time>
      </trkpt>
      <trkpt lat="42.45546" lon="18.50084">
        <ele>44.85718</ele>
        <time>2022-06-01T08:41:57.586Z</time>
      </trkpt>
      <trkpt lat="42.45546" lon="18.50066">
        <ele>44.718773</ele>
        <time>2022-06-01T08:42:00.599Z</time>
      </trkpt>
      <trkpt lat="42.45547" lon="18.50049">
        <ele>44.584769</ele>
        <time>2022-06-01T08:42:03.580Z</time>
      </trkpt>
      <trkpt lat="42.45548" lon="18.50032">
        <ele>44.451767</ele>
        <time>2022-06-01T08:42:06.580Z</time>
      </trkpt>
      <trkpt lat="42.45548" lon="18.50019">
        <ele>44.35516</ele>
        <time>2022-06-01T08:42:08.588Z</time>
      </trkpt>
      <trkpt lat="42.45548" lon="18.50006">
        <ele>44.253745</ele>
        <time>2022-06-01T08:42:10.566Z</time>
      </trkpt>
      <trkpt lat="42.45548" lon="18.49993">
        <ele>44.156389</ele>
        <time>2022-06-01T08:42:12.568Z</time>
      </trkpt>
      <trkpt lat="42.45548" lon="18.49981">
        <ele>44.061068</ele>
        <time>2022-06-01T08:42:14.588Z</time>
      </trkpt>
      <trkpt lat="42.45546" lon="18.49963">
        <ele>43.922711</ele>
        <time>2022-06-01T08:42:17.585Z</time>
      </trkpt>
      <trkpt lat="42.45542" lon="18.49947">
        <ele>43.789127</ele>
        <time>2022-06-01T08:42:20.592Z</time>
      </trkpt>
      <trkpt lat="42.45538" lon="18.49931">
        <ele>43.657525</ele>
        <time>2022-06-01T08:42:23.600Z</time>
      </trkpt>
      <trkpt lat="42.45534" lon="18.49915">
        <ele>43.532104</ele>
        <time>2022-06-01T08:42:26.583Z</time>
      </trkpt>
      <trkpt lat="42.4553" lon="18.499">
        <ele>43.40342</ele>
        <time>2022-06-01T08:42:29.592Z</time>
      </trkpt>
      <trkpt lat="42.45525" lon="18.49884">
        <ele>43.272107</ele>
        <time>2022-06-01T08:42:32.578Z</time>
      </trkpt>
      <trkpt lat="42.45521" lon="18.49867">
        <ele>43.13546</ele>
        <time>2022-06-01T08:42:35.630Z</time>
      </trkpt>
      <trkpt lat="42.45518" lon="18.4985">
        <ele>43.017905</ele>
        <time>2022-06-01T08:42:38.592Z</time>
      </trkpt>
      <trkpt lat="42.45516" lon="18.49832">
        <ele>42.943206</ele>
        <time>2022-06-01T08:42:41.558Z</time>
      </trkpt>
      <trkpt lat="42.45514" lon="18.4982">
        <ele>42.890816</ele>
        <time>2022-06-01T08:42:43.575Z</time>
      </trkpt>
      <trkpt lat="42.45515" lon="18.49807">
        <ele>42.835817</ele>
        <time>2022-06-01T08:42:45.598Z</time>
      </trkpt>
      <trkpt lat="42.45516" lon="18.49793">
        <ele>42.779378</ele>
        <time>2022-06-01T08:42:47.577Z</time>
      </trkpt>
      <trkpt lat="42.45518" lon="18.49781">
        <ele>42.724609</ele>
        <time>2022-06-01T08:42:49.571Z</time>
      </trkpt>
      <trkpt lat="42.45521" lon="18.49768">
        <ele>42.671743</ele>
        <time>2022-06-01T08:42:51.588Z</time>
      </trkpt>
      <trkpt lat="42.45525" lon="18.49752">
        <ele>42.598922</ele>
        <time>2022-06-01T08:42:54.592Z</time>
      </trkpt>
      <trkpt lat="42.4553" lon="18.49736">
        <ele>42.524735</ele>
        <time>2022-06-01T08:42:57.610Z</time>
      </trkpt>
      <trkpt lat="42.45536" lon="18.49726">
        <ele>42.471714</ele>
        <time>2022-06-01T08:42:59.604Z</time>
      </trkpt>
      <trkpt lat="42.45543" lon="18.4971">
        <ele>42.397506</ele>
        <time>2022-06-01T08:43:02.589Z</time>
      </trkpt>
      <trkpt lat="42.45548" lon="18.49701">
        <ele>42.346189</ele>
        <time>2022-06-01T08:43:04.582Z</time>
      </trkpt>
      <trkpt lat="42.45554" lon="18.49691">
        <ele>42.292986</ele>
        <time>2022-06-01T08:43:06.631Z</time>
      </trkpt>
      <trkpt lat="42.45561" lon="18.49682">
        <ele>42.237857</ele>
        <time>2022-06-01T08:43:08.594Z</time>
      </trkpt>
      <trkpt lat="42.4557" lon="18.49669">
        <ele>42.160902</ele>
        <time>2022-06-01T08:43:11.589Z</time>
      </trkpt>
      <trkpt lat="42.45579" lon="18.49655">
        <ele>42.084814</ele>
        <time>2022-06-01T08:43:14.592Z</time>
      </trkpt>
      <trkpt lat="42.45586" lon="18.49646">
        <ele>42.033468</ele>
        <time>2022-06-01T08:43:16.585Z</time>
      </trkpt>
      <trkpt lat="42.45592" lon="18.49637">
        <ele>42.016079</ele>
        <time>2022-06-01T08:43:18.603Z</time>
      </trkpt>
      <trkpt lat="42.45601" lon="18.49625">
        <ele>42.00549</ele>
        <time>2022-06-01T08:43:21.606Z</time>
      </trkpt>
      <trkpt lat="42.4561" lon="18.49612">
        <ele>41.995195</ele>
        <time>2022-06-01T08:43:24.584Z</time>
      </trkpt>
      <trkpt lat="42.45618" lon="18.496">
        <ele>41.98537</ele>
        <time>2022-06-01T08:43:27.577Z</time>
      </trkpt>
      <trkpt lat="42.45626" lon="18.49587">
        <ele>41.975553</ele>
        <time>2022-06-01T08:43:30.581Z</time>
      </trkpt>
      <trkpt lat="42.45635" lon="18.49575">
        <ele>41.965026</ele>
        <time>2022-06-01T08:43:33.593Z</time>
      </trkpt>
      <trkpt lat="42.45643" lon="18.49561">
        <ele>41.95477</ele>
        <time>2022-06-01T08:43:36.579Z</time>
      </trkpt>
      <trkpt lat="42.45649" lon="18.49552">
        <ele>41.947483</ele>
        <time>2022-06-01T08:43:38.584Z</time>
      </trkpt>
      <trkpt lat="42.45655" lon="18.49542">
        <ele>41.939822</ele>
        <time>2022-06-01T08:43:40.579Z</time>
      </trkpt>
      <trkpt lat="42.45663" lon="18.49529">
        <ele>41.929591</ele>
        <time>2022-06-01T08:43:43.588Z</time>
      </trkpt>
      <trkpt lat="42.45671" lon="18.49514">
        <ele>41.918868</ele>
        <time>2022-06-01T08:43:46.578Z</time>
      </trkpt>
      <trkpt lat="42.45677" lon="18.49498">
        <ele>41.90811</ele>
        <time>2022-06-01T08:43:49.581Z</time>
      </trkpt>
      <trkpt lat="42.45682" lon="18.49482">
        <ele>41.897648</ele>
        <time>2022-06-01T08:43:52.589Z</time>
      </trkpt>
      <trkpt lat="42.45686" lon="18.49466">
        <ele>41.887438</ele>
        <time>2022-06-01T08:43:55.577Z</time>
      </trkpt>
      <trkpt lat="42.45689" lon="18.49454">
        <ele>41.880143</ele>
        <time>2022-06-01T08:43:57.583Z</time>
      </trkpt>
      <trkpt lat="42.45691" lon="18.49437">
        <ele>42.115736</ele>
        <time>2022-06-01T08:44:00.620Z</time>
      </trkpt>
      <trkpt lat="42.45693" lon="18.4942">
        <ele>42.450047</ele>
        <time>2022-06-01T08:44:03.624Z</time>
      </trkpt>
      <trkpt lat="42.45695" lon="18.49402">
        <ele>42.802389</ele>
        <time>2022-06-01T08:44:06.606Z</time>
      </trkpt>
      <trkpt lat="42.45694" lon="18.49385">
        <ele>43.147222</ele>
        <time>2022-06-01T08:44:09.608Z</time>
      </trkpt>
      <trkpt lat="42.45694" lon="18.49367">
        <ele>43.503782</ele>
        <time>2022-06-01T08:44:12.562Z</time>
      </trkpt>
      <trkpt lat="42.45694" lon="18.49349">
        <ele>43.854483</ele>
        <time>2022-06-01T08:44:15.598Z</time>
      </trkpt>
      <trkpt lat="42.45694" lon="18.49331">
        <ele>44.205102</ele>
        <time>2022-06-01T08:44:18.691Z</time>
      </trkpt>
      <trkpt lat="42.45694" lon="18.49319">
        <ele>44.45074</ele>
        <time>2022-06-01T08:44:20.576Z</time>
      </trkpt>
      <trkpt lat="42.45694" lon="18.49307">
        <ele>44.696892</ele>
        <time>2022-06-01T08:44:22.589Z</time>
      </trkpt>
      <trkpt lat="42.45696" lon="18.49294">
        <ele>44.943417</ele>
        <time>2022-06-01T08:44:24.590Z</time>
      </trkpt>
      <trkpt lat="42.45698" lon="18.49276">
        <ele>45.305947</ele>
        <time>2022-06-01T08:44:27.590Z</time>
      </trkpt>
      <trkpt lat="42.45701" lon="18.4926">
        <ele>45.641973</ele>
        <time>2022-06-01T08:44:30.600Z</time>
      </trkpt>
      <trkpt lat="42.45705" lon="18.49243">
        <ele>45.986256</ele>
        <time>2022-06-01T08:44:33.606Z</time>
      </trkpt>
      <trkpt lat="42.45709" lon="18.49232">
        <ele>46.234111</ele>
        <time>2022-06-01T08:44:35.569Z</time>
      </trkpt>
      <trkpt lat="42.45717" lon="18.49218">
        <ele>46.584786</ele>
        <time>2022-06-01T08:44:38.570Z</time>
      </trkpt>
      <trkpt lat="42.45725" lon="18.49206">
        <ele>46.797651</ele>
        <time>2022-06-01T08:44:41.593Z</time>
      </trkpt>
      <trkpt lat="42.45733" lon="18.49194">
        <ele>46.940637</ele>
        <time>2022-06-01T08:44:44.573Z</time>
      </trkpt>
      <trkpt lat="42.45742" lon="18.49185">
        <ele>47.081435</ele>
        <time>2022-06-01T08:44:47.576Z</time>
      </trkpt>
      <trkpt lat="42.45752" lon="18.49175">
        <ele>47.223478</ele>
        <time>2022-06-01T08:44:50.582Z</time>
      </trkpt>
      <trkpt lat="42.45762" lon="18.49166">
        <ele>47.370432</ele>
        <time>2022-06-01T08:44:53.584Z</time>
      </trkpt>
      <trkpt lat="42.45772" lon="18.49157">
        <ele>47.518854</ele>
        <time>2022-06-01T08:44:56.580Z</time>
      </trkpt>
      <trkpt lat="42.45783" lon="18.49147">
        <ele>47.676811</ele>
        <time>2022-06-01T08:44:59.593Z</time>
      </trkpt>
      <trkpt lat="42.45794" lon="18.49137">
        <ele>47.832752</ele>
        <time>2022-06-01T08:45:02.583Z</time>
      </trkpt>
      <trkpt lat="42.45805" lon="18.49128">
        <ele>47.988531</ele>
        <time>2022-06-01T08:45:05.614Z</time>
      </trkpt>
      <trkpt lat="42.45815" lon="18.4912">
        <ele>48.129199</ele>
        <time>2022-06-01T08:45:08.578Z</time>
      </trkpt>
      <trkpt lat="42.45825" lon="18.49111">
        <ele>48.275155</ele>
        <time>2022-06-01T08:45:11.636Z</time>
      </trkpt>
      <trkpt lat="42.45835" lon="18.49101">
        <ele>48.431606</ele>
        <time>2022-06-01T08:45:14.587Z</time>
      </trkpt>
      <trkpt lat="42.45846" lon="18.49091">
        <ele>48.586074</ele>
        <time>2022-06-01T08:45:17.627Z</time>
      </trkpt>
      <trkpt lat="42.45856" lon="18.49081">
        <ele>48.737068</ele>
        <time>2022-06-01T08:45:20.562Z</time>
      </trkpt>
      <trkpt lat="42.45865" lon="18.49071">
        <ele>48.88464</ele>
        <time>2022-06-01T08:45:23.623Z</time>
      </trkpt>
      <trkpt lat="42.45875" lon="18.4906">
        <ele>48.820831</ele>
        <time>2022-06-01T08:45:26.589Z</time>
      </trkpt>
      <trkpt lat="42.45884" lon="18.4905">
        <ele>48.756711</ele>
        <time>2022-06-01T08:45:29.589Z</time>
      </trkpt>
      <trkpt lat="42.45894" lon="18.49038">
        <ele>48.691384</ele>
        <time>2022-06-01T08:45:32.589Z</time>
      </trkpt>
      <trkpt lat="42.45903" lon="18.49027">
        <ele>48.626835</ele>
        <time>2022-06-01T08:45:35.576Z</time>
      </trkpt>
      <trkpt lat="42.45912" lon="18.49015">
        <ele>48.560718</ele>
        <time>2022-06-01T08:45:38.588Z</time>
      </trkpt>
      <trkpt lat="42.45921" lon="18.49003">
        <ele>48.497152</ele>
        <time>2022-06-01T08:45:41.602Z</time>
      </trkpt>
      <trkpt lat="42.4593" lon="18.4899">
        <ele>48.429875</ele>
        <time>2022-06-01T08:45:44.579Z</time>
      </trkpt>
      <trkpt lat="42.45939" lon="18.48978">
        <ele>48.363325</ele>
        <time>2022-06-01T08:45:47.594Z</time>
      </trkpt>
      <trkpt lat="42.45948" lon="18.48966">
        <ele>48.298584</ele>
        <time>2022-06-01T08:45:50.583Z</time>
      </trkpt>
      <trkpt lat="42.45956" lon="18.48953">
        <ele>48.234198</ele>
        <time>2022-06-01T08:45:53.572Z</time>
      </trkpt>
      <trkpt lat="42.45965" lon="18.48942">
        <ele>48.17127</ele>
        <time>2022-06-01T08:45:56.616Z</time>
      </trkpt>
      <trkpt lat="42.45974" lon="18.4893">
        <ele>48.105537</ele>
        <time>2022-06-01T08:45:59.579Z</time>
      </trkpt>
      <trkpt lat="42.45982" lon="18.48918">
        <ele>48.043513</ele>
        <time>2022-06-01T08:46:02.614Z</time>
      </trkpt>
      <trkpt lat="42.45991" lon="18.48907">
        <ele>47.981903</ele>
        <time>2022-06-01T08:46:05.609Z</time>
      </trkpt>
      <trkpt lat="42.45999" lon="18.48895">
        <ele>48.126578</ele>
        <time>2022-06-01T08:46:08.590Z</time>
      </trkpt>
      <trkpt lat="42.46008" lon="18.48884">
        <ele>48.443955</ele>
        <time>2022-06-01T08:46:11.585Z</time>
      </trkpt>
      <trkpt lat="42.46016" lon="18.48873">
        <ele>48.759958</ele>
        <time>2022-06-01T08:46:14.618Z</time>
      </trkpt>
      <trkpt lat="42.46024" lon="18.48862">
        <ele>49.063296</ele>
        <time>2022-06-01T08:46:17.582Z</time>
      </trkpt>
      <trkpt lat="42.46031" lon="18.48851">
        <ele>49.368103</ele>
        <time>2022-06-01T08:46:20.588Z</time>
      </trkpt>
      <trkpt lat="42.46039" lon="18.48839">
        <ele>49.684951</ele>
        <time>2022-06-01T08:46:23.594Z</time>
      </trkpt>
      <trkpt lat="42.46047" lon="18.48829">
        <ele>49.964029</ele>
        <time>2022-06-01T08:46:26.623Z</time>
      </trkpt>
      <trkpt lat="42.46053" lon="18.4882">
        <ele>50.212149</ele>
        <time>2022-06-01T08:46:29.611Z</time>
      </trkpt>
      <trkpt lat="42.46062" lon="18.4881">
        <ele>50.526047</ele>
        <time>2022-06-01T08:46:33.590Z</time>
      </trkpt>
      <trkpt lat="42.46069" lon="18.488">
        <ele>50.802319</ele>
        <time>2022-06-01T08:46:36.594Z</time>
      </trkpt>
      <trkpt lat="42.46077" lon="18.48791">
        <ele>51.080961</ele>
        <time>2022-06-01T08:46:39.620Z</time>
      </trkpt>
      <trkpt lat="42.46085" lon="18.48781">
        <ele>51.360301</ele>
        <time>2022-06-01T08:46:42.590Z</time>
      </trkpt>
      <trkpt lat="42.46092" lon="18.48771">
        <ele>51.6436</ele>
        <time>2022-06-01T08:46:45.602Z</time>
      </trkpt>
      <trkpt lat="42.461" lon="18.48763">
        <ele>51.906476</ele>
        <time>2022-06-01T08:46:48.578Z</time>
      </trkpt>
      <trkpt lat="42.46107" lon="18.48754">
        <ele>52.169165</ele>
        <time>2022-06-01T08:46:51.617Z</time>
      </trkpt>
      <trkpt lat="42.46115" lon="18.48746">
        <ele>52.429514</ele>
        <time>2022-06-01T08:46:54.599Z</time>
      </trkpt>
      <trkpt lat="42.46122" lon="18.48737">
        <ele>52.6932</ele>
        <time>2022-06-01T08:46:57.586Z</time>
      </trkpt>
      <trkpt lat="42.4613" lon="18.48729">
        <ele>52.91634</ele>
        <time>2022-06-01T08:47:00.587Z</time>
      </trkpt>
      <trkpt lat="42.46137" lon="18.4872">
        <ele>53.106884</ele>
        <time>2022-06-01T08:47:03.592Z</time>
      </trkpt>
      <trkpt lat="42.46144" lon="18.48712">
        <ele>53.292959</ele>
        <time>2022-06-01T08:47:06.594Z</time>
      </trkpt>
      <trkpt lat="42.4615" lon="18.48703">
        <ele>53.47606</ele>
        <time>2022-06-01T08:47:09.612Z</time>
      </trkpt>
      <trkpt lat="42.46157" lon="18.48695">
        <ele>53.660186</ele>
        <time>2022-06-01T08:47:12.572Z</time>
      </trkpt>
      <trkpt lat="42.46166" lon="18.48684">
        <ele>53.895458</ele>
        <time>2022-06-01T08:47:16.581Z</time>
      </trkpt>
      <trkpt lat="42.46175" lon="18.48674">
        <ele>54.133316</ele>
        <time>2022-06-01T08:47:20.609Z</time>
      </trkpt>
      <trkpt lat="42.46183" lon="18.48663">
        <ele>54.359757</ele>
        <time>2022-06-01T08:47:24.581Z</time>
      </trkpt>
      <trkpt lat="42.4619" lon="18.48655">
        <ele>54.559824</ele>
        <time>2022-06-01T08:47:27.584Z</time>
      </trkpt>
      <trkpt lat="42.46198" lon="18.48647">
        <ele>54.750193</ele>
        <time>2022-06-01T08:47:30.593Z</time>
      </trkpt>
      <trkpt lat="42.46205" lon="18.48639">
        <ele>54.933069</ele>
        <time>2022-06-01T08:47:33.601Z</time>
      </trkpt>
      <trkpt lat="42.46212" lon="18.48631">
        <ele>55.118758</ele>
        <time>2022-06-01T08:47:36.590Z</time>
      </trkpt>
      <trkpt lat="42.46219" lon="18.48622">
        <ele>55.303321</ele>
        <time>2022-06-01T08:47:39.581Z</time>
      </trkpt>
      <trkpt lat="42.46226" lon="18.48614">
        <ele>55.499801</ele>
        <time>2022-06-01T08:47:42.562Z</time>
      </trkpt>
      <trkpt lat="42.46233" lon="18.48605">
        <ele>55.695843</ele>
        <time>2022-06-01T08:47:45.648Z</time>
      </trkpt>
      <trkpt lat="42.46241" lon="18.48596">
        <ele>55.89591</ele>
        <time>2022-06-01T08:47:48.589Z</time>
      </trkpt>
      <trkpt lat="42.46248" lon="18.48588">
        <ele>56.079104</ele>
        <time>2022-06-01T08:47:51.641Z</time>
      </trkpt>
      <trkpt lat="42.46256" lon="18.48582">
        <ele>56.263253</ele>
        <time>2022-06-01T08:47:54.578Z</time>
      </trkpt>
      <trkpt lat="42.46264" lon="18.48573">
        <ele>56.415848</ele>
        <time>2022-06-01T08:47:57.591Z</time>
      </trkpt>
      <trkpt lat="42.46272" lon="18.48565">
        <ele>56.446354</ele>
        <time>2022-06-01T08:48:00.634Z</time>
      </trkpt>
      <trkpt lat="42.4628" lon="18.48559">
        <ele>56.474619</ele>
        <time>2022-06-01T08:48:03.588Z</time>
      </trkpt>
      <trkpt lat="42.46289" lon="18.48554">
        <ele>56.502817</ele>
        <time>2022-06-01T08:48:06.614Z</time>
      </trkpt>
      <trkpt lat="42.46298" lon="18.4855">
        <ele>56.530246</ele>
        <time>2022-06-01T08:48:09.598Z</time>
      </trkpt>
      <trkpt lat="42.46307" lon="18.48546">
        <ele>56.559456</ele>
        <time>2022-06-01T08:48:12.580Z</time>
      </trkpt>
      <trkpt lat="42.46318" lon="18.48543">
        <ele>56.590733</ele>
        <time>2022-06-01T08:48:15.590Z</time>
      </trkpt>
      <trkpt lat="42.46327" lon="18.48539">
        <ele>56.620575</ele>
        <time>2022-06-01T08:48:18.593Z</time>
      </trkpt>
      <trkpt lat="42.46337" lon="18.48536">
        <ele>56.649689</ele>
        <time>2022-06-01T08:48:21.585Z</time>
      </trkpt>
      <trkpt lat="42.46346" lon="18.48534">
        <ele>56.677375</ele>
        <time>2022-06-01T08:48:24.595Z</time>
      </trkpt>
      <trkpt lat="42.46358" lon="18.48531">
        <ele>56.713031</ele>
        <time>2022-06-01T08:48:28.591Z</time>
      </trkpt>
      <trkpt lat="42.46369" lon="18.48528">
        <ele>56.744752</ele>
        <time>2022-06-01T08:48:31.602Z</time>
      </trkpt>
      <trkpt lat="42.46379" lon="18.48523">
        <ele>56.776255</ele>
        <time>2022-06-01T08:48:34.591Z</time>
      </trkpt>
      <trkpt lat="42.46388" lon="18.48518">
        <ele>56.805546</ele>
        <time>2022-06-01T08:48:37.576Z</time>
      </trkpt>
      <trkpt lat="42.46397" lon="18.48514">
        <ele>56.832695</ele>
        <time>2022-06-01T08:48:40.594Z</time>
      </trkpt>
      <trkpt lat="42.46406" lon="18.48509">
        <ele>56.861879</ele>
        <time>2022-06-01T08:48:43.595Z</time>
      </trkpt>
      <trkpt lat="42.46415" lon="18.48504">
        <ele>56.891336</ele>
        <time>2022-06-01T08:48:46.590Z</time>
      </trkpt>
      <trkpt lat="42.46423" lon="18.48499">
        <ele>56.918632</ele>
        <time>2022-06-01T08:48:49.589Z</time>
      </trkpt>
      <trkpt lat="42.46432" lon="18.48493">
        <ele>56.946676</ele>
        <time>2022-06-01T08:48:52.592Z</time>
      </trkpt>
      <trkpt lat="42.4644" lon="18.48486">
        <ele>56.974141</ele>
        <time>2022-06-01T08:48:55.617Z</time>
      </trkpt>
      <trkpt lat="42.46449" lon="18.4848">
        <ele>57.001995</ele>
        <time>2022-06-01T08:48:58.596Z</time>
      </trkpt>
      <trkpt lat="42.46458" lon="18.48472">
        <ele>57.031777</ele>
        <time>2022-06-01T08:49:01.586Z</time>
      </trkpt>
      <trkpt lat="42.46466" lon="18.48464">
        <ele>57.062256</ele>
        <time>2022-06-01T08:49:04.581Z</time>
      </trkpt>
      <trkpt lat="42.46474" lon="18.48456">
        <ele>57.090245</ele>
        <time>2022-06-01T08:49:07.602Z</time>
      </trkpt>
      <trkpt lat="42.46481" lon="18.48449">
        <ele>57.116243</ele>
        <time>2022-06-01T08:49:10.582Z</time>
      </trkpt>
      <trkpt lat="42.4649" lon="18.48441">
        <ele>57.144005</ele>
        <time>2022-06-01T08:49:13.624Z</time>
      </trkpt>
      <trkpt lat="42.46498" lon="18.48434">
        <ele>57.173661</ele>
        <time>2022-06-01T08:49:16.578Z</time>
      </trkpt>
      <trkpt lat="42.46507" lon="18.48426">
        <ele>57.203596</ele>
        <time>2022-06-01T08:49:19.618Z</time>
      </trkpt>
      <trkpt lat="42.46516" lon="18.4842">
        <ele>57.233153</ele>
        <time>2022-06-01T08:49:22.595Z</time>
      </trkpt>
      <trkpt lat="42.46525" lon="18.48414">
        <ele>57.261268</ele>
        <time>2022-06-01T08:49:25.578Z</time>
      </trkpt>
      <trkpt lat="42.46533" lon="18.48408">
        <ele>57.287569</ele>
        <time>2022-06-01T08:49:28.591Z</time>
      </trkpt>
      <trkpt lat="42.46544" lon="18.48401">
        <ele>57.321469</ele>
        <time>2022-06-01T08:49:32.588Z</time>
      </trkpt>
      <trkpt lat="42.46552" lon="18.48395">
        <ele>57.348443</ele>
        <time>2022-06-01T08:49:35.593Z</time>
      </trkpt>
      <trkpt lat="42.46561" lon="18.4839">
        <ele>57.375</ele>
        <time>2022-06-01T08:49:38.579Z</time>
      </trkpt>
      <trkpt lat="42.46572" lon="18.48383">
        <ele>57.409077</ele>
        <time>2022-06-01T08:49:42.592Z</time>
      </trkpt>
      <trkpt lat="42.46582" lon="18.48376">
        <ele>57.442458</ele>
        <time>2022-06-01T08:49:46.584Z</time>
      </trkpt>
      <trkpt lat="42.46593" lon="18.4837">
        <ele>57.680068</ele>
        <time>2022-06-01T08:49:50.584Z</time>
      </trkpt>
      <trkpt lat="42.46603" lon="18.48364">
        <ele>58.001848</ele>
        <time>2022-06-01T08:49:54.582Z</time>
      </trkpt>
      <trkpt lat="42.46611" lon="18.48359">
        <ele>58.256791</ele>
        <time>2022-06-01T08:49:57.590Z</time>
      </trkpt>
      <trkpt lat="42.46622" lon="18.48352">
        <ele>58.594793</ele>
        <time>2022-06-01T08:50:01.590Z</time>
      </trkpt>
      <trkpt lat="42.46633" lon="18.48345">
        <ele>58.934459</ele>
        <time>2022-06-01T08:50:05.593Z</time>
      </trkpt>
      <trkpt lat="42.46641" lon="18.4834">
        <ele>59.19805</ele>
        <time>2022-06-01T08:50:08.587Z</time>
      </trkpt>
      <trkpt lat="42.4665" lon="18.48335">
        <ele>59.461848</ele>
        <time>2022-06-01T08:50:11.585Z</time>
      </trkpt>
      <trkpt lat="42.46658" lon="18.48331">
        <ele>59.720698</ele>
        <time>2022-06-01T08:50:14.585Z</time>
      </trkpt>
      <trkpt lat="42.46668" lon="18.48324">
        <ele>60.034412</ele>
        <time>2022-06-01T08:50:18.581Z</time>
      </trkpt>
      <trkpt lat="42.46679" lon="18.48317">
        <ele>60.379233</ele>
        <time>2022-06-01T08:50:22.600Z</time>
      </trkpt>
      <trkpt lat="42.46688" lon="18.48312">
        <ele>60.648066</ele>
        <time>2022-06-01T08:50:25.580Z</time>
      </trkpt>
      <trkpt lat="42.46696" lon="18.48307">
        <ele>60.912513</ele>
        <time>2022-06-01T08:50:28.583Z</time>
      </trkpt>
      <trkpt lat="42.46705" lon="18.48302">
        <ele>61.172639</ele>
        <time>2022-06-01T08:50:31.584Z</time>
      </trkpt>
      <trkpt lat="42.46713" lon="18.48297">
        <ele>61.431893</ele>
        <time>2022-06-01T08:50:34.590Z</time>
      </trkpt>
      <trkpt lat="42.46721" lon="18.48291">
        <ele>61.699134</ele>
        <time>2022-06-01T08:50:37.617Z</time>
      </trkpt>
      <trkpt lat="42.4673" lon="18.48286">
        <ele>61.960981</ele>
        <time>2022-06-01T08:50:40.592Z</time>
      </trkpt>
      <trkpt lat="42.46738" lon="18.4828">
        <ele>62.220676</ele>
        <time>2022-06-01T08:50:43.611Z</time>
      </trkpt>
      <trkpt lat="42.46746" lon="18.48274">
        <ele>62.486777</ele>
        <time>2022-06-01T08:50:46.584Z</time>
      </trkpt>
      <trkpt lat="42.46754" lon="18.48267">
        <ele>62.560516</ele>
        <time>2022-06-01T08:50:49.604Z</time>
      </trkpt>
      <trkpt lat="42.46763" lon="18.48261">
        <ele>62.548446</ele>
        <time>2022-06-01T08:50:52.615Z</time>
      </trkpt>
      <trkpt lat="42.46771" lon="18.48255">
        <ele>62.535701</ele>
        <time>2022-06-01T08:50:55.559Z</time>
      </trkpt>
      <trkpt lat="42.4678" lon="18.48249">
        <ele>62.52366</ele>
        <time>2022-06-01T08:50:58.586Z</time>
      </trkpt>
      <trkpt lat="42.46789" lon="18.48244">
        <ele>62.511272</ele>
        <time>2022-06-01T08:51:01.596Z</time>
      </trkpt>
      <trkpt lat="42.46798" lon="18.48237">
        <ele>62.497493</ele>
        <time>2022-06-01T08:51:04.624Z</time>
      </trkpt>
      <trkpt lat="42.46807" lon="18.48229">
        <ele>62.483888</ele>
        <time>2022-06-01T08:51:07.594Z</time>
      </trkpt>
      <trkpt lat="42.46816" lon="18.48222">
        <ele>62.470465</ele>
        <time>2022-06-01T08:51:10.588Z</time>
      </trkpt>
      <trkpt lat="42.46826" lon="18.48216">
        <ele>62.457018</ele>
        <time>2022-06-01T08:51:13.575Z</time>
      </trkpt>
      <trkpt lat="42.46835" lon="18.4821">
        <ele>62.443539</ele>
        <time>2022-06-01T08:51:16.583Z</time>
      </trkpt>
      <trkpt lat="42.46844" lon="18.48204">
        <ele>62.430561</ele>
        <time>2022-06-01T08:51:19.587Z</time>
      </trkpt>
      <trkpt lat="42.46853" lon="18.48197">
        <ele>62.41837</ele>
        <time>2022-06-01T08:51:22.580Z</time>
      </trkpt>
      <trkpt lat="42.46861" lon="18.4819">
        <ele>62.406094</ele>
        <time>2022-06-01T08:51:25.575Z</time>
      </trkpt>
      <trkpt lat="42.46869" lon="18.48182">
        <ele>62.392335</ele>
        <time>2022-06-01T08:51:28.595Z</time>
      </trkpt>
      <trkpt lat="42.46879" lon="18.48175">
        <ele>62.378242</ele>
        <time>2022-06-01T08:51:31.588Z</time>
      </trkpt>
      <trkpt lat="42.46888" lon="18.48169">
        <ele>62.366077</ele>
        <time>2022-06-01T08:51:34.591Z</time>
      </trkpt>
      <trkpt lat="42.46896" lon="18.4816">
        <ele>62.352726</ele>
        <time>2022-06-01T08:51:37.577Z</time>
      </trkpt>
      <trkpt lat="42.46904" lon="18.48155">
        <ele>62.34099</ele>
        <time>2022-06-01T08:51:40.579Z</time>
      </trkpt>
      <trkpt lat="42.46913" lon="18.48149">
        <ele>62.14929</ele>
        <time>2022-06-01T08:51:43.580Z</time>
      </trkpt>
      <trkpt lat="42.46922" lon="18.48142">
        <ele>61.909621</ele>
        <time>2022-06-01T08:51:46.602Z</time>
      </trkpt>
      <trkpt lat="42.46932" lon="18.48135">
        <ele>61.65348</ele>
        <time>2022-06-01T08:51:49.591Z</time>
      </trkpt>
      <trkpt lat="42.46942" lon="18.48128">
        <ele>61.385662</ele>
        <time>2022-06-01T08:51:52.627Z</time>
      </trkpt>
      <trkpt lat="42.46953" lon="18.48119">
        <ele>61.096903</ele>
        <time>2022-06-01T08:51:55.575Z</time>
      </trkpt>
      <trkpt lat="42.46964" lon="18.48112">
        <ele>60.810512</ele>
        <time>2022-06-01T08:51:58.597Z</time>
      </trkpt>
      <trkpt lat="42.46975" lon="18.48103">
        <ele>60.532939</ele>
        <time>2022-06-01T08:52:01.631Z</time>
      </trkpt>
      <trkpt lat="42.46985" lon="18.48095">
        <ele>60.256725</ele>
        <time>2022-06-01T08:52:04.575Z</time>
      </trkpt>
      <trkpt lat="42.46995" lon="18.48087">
        <ele>59.991603</ele>
        <time>2022-06-01T08:52:07.591Z</time>
      </trkpt>
      <trkpt lat="42.47005" lon="18.48079">
        <ele>59.738063</ele>
        <time>2022-06-01T08:52:10.588Z</time>
      </trkpt>
      <trkpt lat="42.47014" lon="18.48071">
        <ele>59.469634</ele>
        <time>2022-06-01T08:52:13.591Z</time>
      </trkpt>
      <trkpt lat="42.47024" lon="18.48062">
        <ele>59.206984</ele>
        <time>2022-06-01T08:52:16.619Z</time>
      </trkpt>
      <trkpt lat="42.47033" lon="18.48054">
        <ele>58.945312</ele>
        <time>2022-06-01T08:52:19.582Z</time>
      </trkpt>
      <trkpt lat="42.47043" lon="18.48044">
        <ele>58.678859</ele>
        <time>2022-06-01T08:52:22.595Z</time>
      </trkpt>
      <trkpt lat="42.47053" lon="18.48035">
        <ele>58.408581</ele>
        <time>2022-06-01T08:52:25.565Z</time>
      </trkpt>
      <trkpt lat="42.47062" lon="18.48026">
        <ele>58.166981</ele>
        <time>2022-06-01T08:52:28.588Z</time>
      </trkpt>
      <trkpt lat="42.47071" lon="18.48016">
        <ele>57.980668</ele>
        <time>2022-06-01T08:52:31.580Z</time>
      </trkpt>
      <trkpt lat="42.4708" lon="18.48006">
        <ele>57.795406</ele>
        <time>2022-06-01T08:52:34.627Z</time>
      </trkpt>
      <trkpt lat="42.47088" lon="18.47995">
        <ele>57.606193</ele>
        <time>2022-06-01T08:52:37.576Z</time>
      </trkpt>
      <trkpt lat="42.47097" lon="18.47984">
        <ele>57.422807</ele>
        <time>2022-06-01T08:52:40.590Z</time>
      </trkpt>
      <trkpt lat="42.47106" lon="18.47973">
        <ele>57.230146</ele>
        <time>2022-06-01T08:52:43.588Z</time>
      </trkpt>
      <trkpt lat="42.47114" lon="18.47962">
        <ele>57.04162</ele>
        <time>2022-06-01T08:52:46.578Z</time>
      </trkpt>
      <trkpt lat="42.47122" lon="18.47951">
        <ele>56.871528</ele>
        <time>2022-06-01T08:52:49.596Z</time>
      </trkpt>
      <trkpt lat="42.47129" lon="18.4794">
        <ele>56.695126</ele>
        <time>2022-06-01T08:52:52.591Z</time>
      </trkpt>
      <trkpt lat="42.47137" lon="18.47929">
        <ele>56.522402</ele>
        <time>2022-06-01T08:52:55.589Z</time>
      </trkpt>
      <trkpt lat="42.47144" lon="18.47918">
        <ele>56.34748</ele>
        <time>2022-06-01T08:52:58.593Z</time>
      </trkpt>
      <trkpt lat="42.47151" lon="18.47906">
        <ele>56.170516</ele>
        <time>2022-06-01T08:53:01.618Z</time>
      </trkpt>
      <trkpt lat="42.47158" lon="18.47896">
        <ele>56.009219</ele>
        <time>2022-06-01T08:53:04.575Z</time>
      </trkpt>
      <trkpt lat="42.47164" lon="18.47885">
        <ele>55.841595</ele>
        <time>2022-06-01T08:53:07.594Z</time>
      </trkpt>
      <trkpt lat="42.47171" lon="18.47875">
        <ele>55.677958</ele>
        <time>2022-06-01T08:53:10.591Z</time>
      </trkpt>
      <trkpt lat="42.47178" lon="18.47865">
        <ele>55.521405</ele>
        <time>2022-06-01T08:53:13.613Z</time>
      </trkpt>
      <trkpt lat="42.47185" lon="18.47855">
        <ele>55.360758</ele>
        <time>2022-06-01T08:53:16.583Z</time>
      </trkpt>
      <trkpt lat="42.47191" lon="18.47844">
        <ele>55.743865</ele>
        <time>2022-06-01T08:53:19.581Z</time>
      </trkpt>
      <trkpt lat="42.47198" lon="18.47834">
        <ele>56.146336</ele>
        <time>2022-06-01T08:53:22.596Z</time>
      </trkpt>
      <trkpt lat="42.47205" lon="18.47822">
        <ele>56.552128</ele>
        <time>2022-06-01T08:53:25.580Z</time>
      </trkpt>
      <trkpt lat="42.47211" lon="18.47812">
        <ele>56.932746</ele>
        <time>2022-06-01T08:53:28.589Z</time>
      </trkpt>
      <trkpt lat="42.47217" lon="18.47801">
        <ele>57.308788</ele>
        <time>2022-06-01T08:53:31.596Z</time>
      </trkpt>
      <trkpt lat="42.47222" lon="18.4779">
        <ele>57.671422</ele>
        <time>2022-06-01T08:53:34.618Z</time>
      </trkpt>
      <trkpt lat="42.47227" lon="18.47779">
        <ele>58.052241</ele>
        <time>2022-06-01T08:53:37.580Z</time>
      </trkpt>
      <trkpt lat="42.47233" lon="18.47769">
        <ele>58.412312</ele>
        <time>2022-06-01T08:53:40.577Z</time>
      </trkpt>
      <trkpt lat="42.47238" lon="18.47757">
        <ele>58.792772</ele>
        <time>2022-06-01T08:53:43.579Z</time>
      </trkpt>
      <trkpt lat="42.47244" lon="18.47744">
        <ele>59.237726</ele>
        <time>2022-06-01T08:53:47.605Z</time>
      </trkpt>
      <trkpt lat="42.47249" lon="18.47734">
        <ele>59.58599</ele>
        <time>2022-06-01T08:53:50.592Z</time>
      </trkpt>
      <trkpt lat="42.47253" lon="18.47722">
        <ele>59.942599</ele>
        <time>2022-06-01T08:53:53.564Z</time>
      </trkpt>
      <trkpt lat="42.47259" lon="18.47709">
        <ele>60.386499</ele>
        <time>2022-06-01T08:53:57.557Z</time>
      </trkpt>
      <trkpt lat="42.47263" lon="18.47698">
        <ele>60.741429</ele>
        <time>2022-06-01T08:54:00.597Z</time>
      </trkpt>
      <trkpt lat="42.47267" lon="18.47686">
        <ele>61.116672</ele>
        <time>2022-06-01T08:54:03.573Z</time>
      </trkpt>
      <trkpt lat="42.47271" lon="18.47674">
        <ele>61.475095</ele>
        <time>2022-06-01T08:54:06.576Z</time>
      </trkpt>
      <trkpt lat="42.47276" lon="18.4766">
        <ele>61.909096</ele>
        <time>2022-06-01T08:54:10.593Z</time>
      </trkpt>
      <trkpt lat="42.47281" lon="18.47647">
        <ele>62.281014</ele>
        <time>2022-06-01T08:54:14.588Z</time>
      </trkpt>
      <trkpt lat="42.47286" lon="18.47633">
        <ele>62.374098</ele>
        <time>2022-06-01T08:54:18.610Z</time>
      </trkpt>
      <trkpt lat="42.47289" lon="18.47619">
        <ele>62.464535</ele>
        <time>2022-06-01T08:54:22.592Z</time>
      </trkpt>
      <trkpt lat="42.47294" lon="18.47605">
        <ele>62.560246</ele>
        <time>2022-06-01T08:54:26.573Z</time>
      </trkpt>
      <trkpt lat="42.47298" lon="18.47591">
        <ele>62.652144</ele>
        <time>2022-06-01T08:54:30.577Z</time>
      </trkpt>
      <trkpt lat="42.47301" lon="18.47578">
        <ele>62.739081</ele>
        <time>2022-06-01T08:54:34.605Z</time>
      </trkpt>
      <trkpt lat="42.47305" lon="18.47565">
        <ele>62.826601</ele>
        <time>2022-06-01T08:54:38.598Z</time>
      </trkpt>
      <trkpt lat="42.47308" lon="18.47553">
        <ele>62.902787</ele>
        <time>2022-06-01T08:54:41.599Z</time>
      </trkpt>
      <trkpt lat="42.47312" lon="18.47539">
        <ele>62.998686</ele>
        <time>2022-06-01T08:54:45.609Z</time>
      </trkpt>
      <trkpt lat="42.47318" lon="18.47527">
        <ele>63.084945</ele>
        <time>2022-06-01T08:54:49.601Z</time>
      </trkpt>
      <trkpt lat="42.47322" lon="18.47514">
        <ele>63.172907</ele>
        <time>2022-06-01T08:54:53.585Z</time>
      </trkpt>
      <trkpt lat="42.47326" lon="18.47501">
        <ele>63.263951</ele>
        <time>2022-06-01T08:54:57.619Z</time>
      </trkpt>
      <trkpt lat="42.47332" lon="18.47487">
        <ele>63.357406</ele>
        <time>2022-06-01T08:55:01.584Z</time>
      </trkpt>
      <trkpt lat="42.47337" lon="18.47474">
        <ele>63.454078</ele>
        <time>2022-06-01T08:55:05.593Z</time>
      </trkpt>
      <trkpt lat="42.47343" lon="18.4746">
        <ele>63.552642</ele>
        <time>2022-06-01T08:55:09.594Z</time>
      </trkpt>
      <trkpt lat="42.47349" lon="18.4745">
        <ele>63.630987</ele>
        <time>2022-06-01T08:55:12.594Z</time>
      </trkpt>
      <trkpt lat="42.47354" lon="18.47439">
        <ele>63.709333</ele>
        <time>2022-06-01T08:55:15.582Z</time>
      </trkpt>
      <trkpt lat="42.4736" lon="18.47429">
        <ele>63.779119</ele>
        <time>2022-06-01T08:55:18.588Z</time>
      </trkpt>
      <trkpt lat="42.47366" lon="18.4742">
        <ele>63.801902</ele>
        <time>2022-06-01T08:55:21.591Z</time>
      </trkpt>
      <trkpt lat="42.47373" lon="18.4741">
        <ele>63.825892</ele>
        <time>2022-06-01T08:55:24.633Z</time>
      </trkpt>
      <trkpt lat="42.47379" lon="18.474">
        <ele>63.849882</ele>
        <time>2022-06-01T08:55:27.591Z</time>
      </trkpt>
      <trkpt lat="42.47386" lon="18.47388">
        <ele>63.875468</ele>
        <time>2022-06-01T08:55:30.590Z</time>
      </trkpt>
      <trkpt lat="42.47392" lon="18.47378">
        <ele>63.89936</ele>
        <time>2022-06-01T08:55:33.583Z</time>
      </trkpt>
      <trkpt lat="42.47399" lon="18.47369">
        <ele>63.922615</ele>
        <time>2022-06-01T08:55:36.567Z</time>
      </trkpt>
      <trkpt lat="42.47406" lon="18.4736">
        <ele>63.946144</ele>
        <time>2022-06-01T08:55:39.599Z</time>
      </trkpt>
      <trkpt lat="42.47413" lon="18.47351">
        <ele>63.968726</ele>
        <time>2022-06-01T08:55:42.589Z</time>
      </trkpt>
      <trkpt lat="42.47419" lon="18.47342">
        <ele>63.992066</ele>
        <time>2022-06-01T08:55:45.578Z</time>
      </trkpt>
      <trkpt lat="42.47425" lon="18.47331">
        <ele>64.01593</ele>
        <time>2022-06-01T08:55:48.578Z</time>
      </trkpt>
      <trkpt lat="42.47432" lon="18.47319">
        <ele>64.042657</ele>
        <time>2022-06-01T08:55:51.597Z</time>
      </trkpt>
      <trkpt lat="42.47439" lon="18.47307">
        <ele>64.07068</ele>
        <time>2022-06-01T08:55:54.618Z</time>
      </trkpt>
      <trkpt lat="42.47444" lon="18.47294">
        <ele>64.097128</ele>
        <time>2022-06-01T08:55:57.583Z</time>
      </trkpt>
      <trkpt lat="42.47449" lon="18.4728">
        <ele>64.124068</ele>
        <time>2022-06-01T08:56:00.611Z</time>
      </trkpt>
      <trkpt lat="42.47451" lon="18.47266">
        <ele>64.14921</ele>
        <time>2022-06-01T08:56:03.595Z</time>
      </trkpt>
      <trkpt lat="42.47454" lon="18.47252">
        <ele>64.175018</ele>
        <time>2022-06-01T08:56:06.595Z</time>
      </trkpt>
      <trkpt lat="42.47458" lon="18.47239">
        <ele>64.201235</ele>
        <time>2022-06-01T08:56:09.594Z</time>
      </trkpt>
      <trkpt lat="42.4746" lon="18.47225">
        <ele>64.415771</ele>
        <time>2022-06-01T08:56:12.583Z</time>
      </trkpt>
      <trkpt lat="42.47462" lon="18.47213">
        <ele>64.72283</ele>
        <time>2022-06-01T08:56:15.582Z</time>
      </trkpt>
      <trkpt lat="42.47466" lon="18.47198">
        <ele>65.109916</ele>
        <time>2022-06-01T08:56:19.579Z</time>
      </trkpt>
      <trkpt lat="42.4747" lon="18.47187">
        <ele>65.413471</ele>
        <time>2022-06-01T08:56:22.592Z</time>
      </trkpt>
      <trkpt lat="42.47475" lon="18.47173">
        <ele>65.791489</ele>
        <time>2022-06-01T08:56:26.587Z</time>
      </trkpt>
      <trkpt lat="42.47479" lon="18.47162">
        <ele>66.114952</ele>
        <time>2022-06-01T08:56:29.593Z</time>
      </trkpt>
      <trkpt lat="42.47483" lon="18.47149">
        <ele>66.458657</ele>
        <time>2022-06-01T08:56:32.611Z</time>
      </trkpt>
      <trkpt lat="42.47487" lon="18.47137">
        <ele>66.776216</ele>
        <time>2022-06-01T08:56:35.593Z</time>
      </trkpt>
      <trkpt lat="42.47492" lon="18.47126">
        <ele>67.090073</ele>
        <time>2022-06-01T08:56:38.584Z</time>
      </trkpt>
      <trkpt lat="42.47496" lon="18.47114">
        <ele>67.428238</ele>
        <time>2022-06-01T08:56:41.588Z</time>
      </trkpt>
      <trkpt lat="42.475" lon="18.47102">
        <ele>67.750332</ele>
        <time>2022-06-01T08:56:44.579Z</time>
      </trkpt>
      <trkpt lat="42.47503" lon="18.4709">
        <ele>68.062351</ele>
        <time>2022-06-01T08:56:47.586Z</time>
      </trkpt>
      <trkpt lat="42.47507" lon="18.47077">
        <ele>68.403544</ele>
        <time>2022-06-01T08:56:50.611Z</time>
      </trkpt>
      <trkpt lat="42.47509" lon="18.47065">
        <ele>68.702514</ele>
        <time>2022-06-01T08:56:53.591Z</time>
      </trkpt>
      <trkpt lat="42.47511" lon="18.47052">
        <ele>69.036638</ele>
        <time>2022-06-01T08:56:56.601Z</time>
      </trkpt>
      <trkpt lat="42.47513" lon="18.47038">
        <ele>69.379375</ele>
        <time>2022-06-01T08:56:59.582Z</time>
      </trkpt>
      <trkpt lat="42.47515" lon="18.47024">
        <ele>69.73667</ele>
        <time>2022-06-01T08:57:02.586Z</time>
      </trkpt>
      <trkpt lat="42.47517" lon="18.47009">
        <ele>70.117831</ele>
        <time>2022-06-01T08:57:05.584Z</time>
      </trkpt>
      <trkpt lat="42.47521" lon="18.46993">
        <ele>70.328564</ele>
        <time>2022-06-01T08:57:08.577Z</time>
      </trkpt>
      <trkpt lat="42.47524" lon="18.46977">
        <ele>70.475754</ele>
        <time>2022-06-01T08:57:11.592Z</time>
      </trkpt>
      <trkpt lat="42.47528" lon="18.46962">
        <ele>70.621025</ele>
        <time>2022-06-01T08:57:14.598Z</time>
      </trkpt>
      <trkpt lat="42.47532" lon="18.46947">
        <ele>70.760446</ele>
        <time>2022-06-01T08:57:17.599Z</time>
      </trkpt>
      <trkpt lat="42.47537" lon="18.46934">
        <ele>70.895382</ele>
        <time>2022-06-01T08:57:20.603Z</time>
      </trkpt>
      <trkpt lat="42.47542" lon="18.4692">
        <ele>71.030336</ele>
        <time>2022-06-01T08:57:23.579Z</time>
      </trkpt>
      <trkpt lat="42.47548" lon="18.46907">
        <ele>71.173427</ele>
        <time>2022-06-01T08:57:26.574Z</time>
      </trkpt>
      <trkpt lat="42.47554" lon="18.46893">
        <ele>71.314357</ele>
        <time>2022-06-01T08:57:29.620Z</time>
      </trkpt>
      <trkpt lat="42.4756" lon="18.46881">
        <ele>71.449248</ele>
        <time>2022-06-01T08:57:32.598Z</time>
      </trkpt>
      <trkpt lat="42.47566" lon="18.46868">
        <ele>71.58318</ele>
        <time>2022-06-01T08:57:35.615Z</time>
      </trkpt>
      <trkpt lat="42.47571" lon="18.46855">
        <ele>71.710064</ele>
        <time>2022-06-01T08:57:38.591Z</time>
      </trkpt>
      <trkpt lat="42.47576" lon="18.46841">
        <ele>71.849553</ele>
        <time>2022-06-01T08:57:41.618Z</time>
      </trkpt>
      <trkpt lat="42.4758" lon="18.46828">
        <ele>71.976445</ele>
        <time>2022-06-01T08:57:44.594Z</time>
      </trkpt>
      <trkpt lat="42.47583" lon="18.46813">
        <ele>72.115</ele>
        <time>2022-06-01T08:57:47.574Z</time>
      </trkpt>
      <trkpt lat="42.47586" lon="18.46799">
        <ele>72.244619</ele>
        <time>2022-06-01T08:57:50.583Z</time>
      </trkpt>
      <trkpt lat="42.47589" lon="18.46787">
        <ele>72.363769</ele>
        <time>2022-06-01T08:57:53.570Z</time>
      </trkpt>
      <trkpt lat="42.47591" lon="18.46772">
        <ele>72.638457</ele>
        <time>2022-06-01T08:57:57.589Z</time>
      </trkpt>
      <trkpt lat="42.47592" lon="18.46758">
        <ele>72.933285</ele>
        <time>2022-06-01T08:58:01.580Z</time>
      </trkpt>
      <trkpt lat="42.47594" lon="18.46743">
        <ele>73.282314</ele>
        <time>2022-06-01T08:58:05.598Z</time>
      </trkpt>
      <trkpt lat="42.47596" lon="18.46727">
        <ele>73.625247</ele>
        <time>2022-06-01T08:58:09.655Z</time>
      </trkpt>
      <trkpt lat="42.47598" lon="18.46712">
        <ele>73.949203</ele>
        <time>2022-06-01T08:58:13.596Z</time>
      </trkpt>
      <trkpt lat="42.476" lon="18.46698">
        <ele>74.274338</ele>
        <time>2022-06-01T08:58:17.596Z</time>
      </trkpt>
      <trkpt lat="42.47601" lon="18.46683">
        <ele>74.588591</ele>
        <time>2022-06-01T08:58:21.588Z</time>
      </trkpt>
      <trkpt lat="42.47602" lon="18.46669">
        <ele>74.903504</ele>
        <time>2022-06-01T08:58:25.581Z</time>
      </trkpt>
      <trkpt lat="42.47604" lon="18.46653">
        <ele>75.246785</ele>
        <time>2022-06-01T08:58:29.592Z</time>
      </trkpt>
      <trkpt lat="42.47605" lon="18.46639">
        <ele>75.544883</ele>
        <time>2022-06-01T08:58:33.586Z</time>
      </trkpt>
      <trkpt lat="42.47605" lon="18.46626">
        <ele>75.838164</ele>
        <time>2022-06-01T08:58:37.617Z</time>
      </trkpt>
      <trkpt lat="42.47606" lon="18.46612">
        <ele>76.145251</ele>
        <time>2022-06-01T08:58:41.599Z</time>
      </trkpt>
      <trkpt lat="42.47609" lon="18.46598">
        <ele>76.457496</ele>
        <time>2022-06-01T08:58:45.584Z</time>
      </trkpt>
      <trkpt lat="42.4761" lon="18.46584">
        <ele>76.770254</ele>
        <time>2022-06-01T08:58:49.578Z</time>
      </trkpt>
      <trkpt lat="42.47612" lon="18.46571">
        <ele>77.052146</ele>
        <time>2022-06-01T08:58:53.588Z</time>
      </trkpt>
      <trkpt lat="42.47616" lon="18.46559">
        <ele>77.330474</ele>
        <time>2022-06-01T08:58:57.580Z</time>
      </trkpt>
      <trkpt lat="42.4762" lon="18.46546">
        <ele>77.644125</ele>
        <time>2022-06-01T08:59:01.592Z</time>
      </trkpt>
      <trkpt lat="42.47623" lon="18.46532">
        <ele>77.842402</ele>
        <time>2022-06-01T08:59:05.597Z</time>
      </trkpt>
      <trkpt lat="42.47627" lon="18.46518">
        <ele>78.024339</ele>
        <time>2022-06-01T08:59:09.594Z</time>
      </trkpt>
      <trkpt lat="42.47631" lon="18.46504">
        <ele>78.198911</ele>
        <time>2022-06-01T08:59:13.590Z</time>
      </trkpt>
      <trkpt lat="42.47635" lon="18.46491">
        <ele>78.373289</ele>
        <time>2022-06-01T08:59:17.598Z</time>
      </trkpt>
      <trkpt lat="42.4764" lon="18.46479">
        <ele>78.539801</ele>
        <time>2022-06-01T08:59:21.595Z</time>
      </trkpt>
      <trkpt lat="42.47646" lon="18.46466">
        <ele>78.725516</ele>
        <time>2022-06-01T08:59:25.569Z</time>
      </trkpt>
      <trkpt lat="42.47653" lon="18.46454">
        <ele>78.91965</ele>
        <time>2022-06-01T08:59:29.594Z</time>
      </trkpt>
      <trkpt lat="42.47659" lon="18.46444">
        <ele>79.070989</ele>
        <time>2022-06-01T08:59:32.601Z</time>
      </trkpt>
      <trkpt lat="42.47667" lon="18.46432">
        <ele>79.263461</ele>
        <time>2022-06-01T08:59:36.593Z</time>
      </trkpt>
      <trkpt lat="42.47674" lon="18.4642">
        <ele>79.444947</ele>
        <time>2022-06-01T08:59:40.601Z</time>
      </trkpt>
      <trkpt lat="42.4768" lon="18.46409">
        <ele>79.61564</ele>
        <time>2022-06-01T08:59:44.617Z</time>
      </trkpt>
      <trkpt lat="42.47687" lon="18.46399">
        <ele>79.782083</ele>
        <time>2022-06-01T08:59:48.595Z</time>
      </trkpt>
      <trkpt lat="42.47693" lon="18.46386">
        <ele>79.962833</ele>
        <time>2022-06-01T08:59:52.582Z</time>
      </trkpt>
      <trkpt lat="42.47698" lon="18.46373">
        <ele>80.146832</ele>
        <time>2022-06-01T08:59:56.607Z</time>
      </trkpt>
      <trkpt lat="42.47704" lon="18.46362">
        <ele>80.318494</ele>
        <time>2022-06-01T09:00:00.576Z</time>
      </trkpt>
      <trkpt lat="42.4771" lon="18.46349">
        <ele>80.49826</ele>
        <time>2022-06-01T09:00:04.596Z</time>
      </trkpt>
      <trkpt lat="42.47717" lon="18.46337">
        <ele>80.710579</ele>
        <time>2022-06-01T09:00:08.585Z</time>
      </trkpt>
      <trkpt lat="42.47723" lon="18.46326">
        <ele>81.082666</ele>
        <time>2022-06-01T09:00:12.575Z</time>
      </trkpt>
      <trkpt lat="42.4773" lon="18.46314">
        <ele>81.47521</ele>
        <time>2022-06-01T09:00:16.594Z</time>
      </trkpt>
      <trkpt lat="42.47737" lon="18.46302">
        <ele>81.840917</ele>
        <time>2022-06-01T09:00:20.595Z</time>
      </trkpt>
      <trkpt lat="42.47744" lon="18.46291">
        <ele>82.224364</ele>
        <time>2022-06-01T09:00:24.632Z</time>
      </trkpt>
      <trkpt lat="42.47751" lon="18.4628">
        <ele>82.5849</ele>
        <time>2022-06-01T09:00:28.579Z</time>
      </trkpt>
      <trkpt lat="42.47757" lon="18.46268">
        <ele>82.969138</ele>
        <time>2022-06-01T09:00:32.592Z</time>
      </trkpt>
      <trkpt lat="42.47764" lon="18.46256">
        <ele>83.336857</ele>
        <time>2022-06-01T09:00:36.582Z</time>
      </trkpt>
      <trkpt lat="42.4777" lon="18.46245">
        <ele>83.702794</ele>
        <time>2022-06-01T09:00:40.595Z</time>
      </trkpt>
      <trkpt lat="42.47777" lon="18.46234">
        <ele>84.068922</ele>
        <time>2022-06-01T09:00:44.583Z</time>
      </trkpt>
      <trkpt lat="42.47784" lon="18.46224">
        <ele>84.419576</ele>
        <time>2022-06-01T09:00:48.591Z</time>
      </trkpt>
      <trkpt lat="42.47791" lon="18.46214">
        <ele>84.773984</ele>
        <time>2022-06-01T09:00:52.571Z</time>
      </trkpt>
      <trkpt lat="42.47797" lon="18.46204">
        <ele>85.096897</ele>
        <time>2022-06-01T09:00:56.611Z</time>
      </trkpt>
      <trkpt lat="42.47803" lon="18.46193">
        <ele>85.440232</ele>
        <time>2022-06-01T09:01:00.578Z</time>
      </trkpt>
      <trkpt lat="42.4781" lon="18.46182">
        <ele>85.809156</ele>
        <time>2022-06-01T09:01:04.570Z</time>
      </trkpt>
      <trkpt lat="42.47817" lon="18.46172">
        <ele>86.171951</ele>
        <time>2022-06-01T09:01:08.589Z</time>
      </trkpt>
      <trkpt lat="42.47824" lon="18.46162">
        <ele>86.51449</ele>
        <time>2022-06-01T09:01:12.588Z</time>
      </trkpt>
      <trkpt lat="42.4783" lon="18.46153">
        <ele>86.832597</ele>
        <time>2022-06-01T09:01:16.574Z</time>
      </trkpt>
      <trkpt lat="42.47837" lon="18.46142">
        <ele>87.070514</ele>
        <time>2022-06-01T09:01:21.571Z</time>
      </trkpt>
      <trkpt lat="42.47842" lon="18.46131">
        <ele>87.264164</ele>
        <time>2022-06-01T09:01:26.596Z</time>
      </trkpt>
      <trkpt lat="42.4785" lon="18.4612">
        <ele>87.493064</ele>
        <time>2022-06-01T09:01:31.601Z</time>
      </trkpt>
      <trkpt lat="42.47856" lon="18.46111">
        <ele>87.68107</ele>
        <time>2022-06-01T09:01:35.580Z</time>
      </trkpt>
      <trkpt lat="42.47862" lon="18.46102">
        <ele>87.871102</ele>
        <time>2022-06-01T09:01:39.592Z</time>
      </trkpt>
      <trkpt lat="42.47868" lon="18.46091">
        <ele>88.07024</ele>
        <time>2022-06-01T09:01:43.576Z</time>
      </trkpt>
      <trkpt lat="42.47873" lon="18.46079">
        <ele>88.281798</ele>
        <time>2022-06-01T09:01:47.572Z</time>
      </trkpt>
      <trkpt lat="42.47878" lon="18.46068">
        <ele>88.479304</ele>
        <time>2022-06-01T09:01:51.587Z</time>
      </trkpt>
      <trkpt lat="42.47884" lon="18.46056">
        <ele>88.692102</ele>
        <time>2022-06-01T09:01:56.584Z</time>
      </trkpt>
      <trkpt lat="42.47889" lon="18.46043">
        <ele>88.911424</ele>
        <time>2022-06-01T09:02:01.566Z</time>
      </trkpt>
      <trkpt lat="42.47893" lon="18.46029">
        <ele>89.135867</ele>
        <time>2022-06-01T09:02:06.581Z</time>
      </trkpt>
      <trkpt lat="42.47896" lon="18.46016">
        <ele>89.351014</ele>
        <time>2022-06-01T09:02:11.578Z</time>
      </trkpt>
      <trkpt lat="42.479" lon="18.46004">
        <ele>89.535727</ele>
        <time>2022-06-01T09:02:15.623Z</time>
      </trkpt>
      <trkpt lat="42.47904" lon="18.4599">
        <ele>89.766532</ele>
        <time>2022-06-01T09:02:20.592Z</time>
      </trkpt>
      <trkpt lat="42.47907" lon="18.45978">
        <ele>89.960452</ele>
        <time>2022-06-01T09:02:24.585Z</time>
      </trkpt>
      <trkpt lat="42.47911" lon="18.45966">
        <ele>90.165328</ele>
        <time>2022-06-01T09:02:28.582Z</time>
      </trkpt>
      <trkpt lat="42.47915" lon="18.45953">
        <ele>90.373411</ele>
        <time>2022-06-01T09:02:32.596Z</time>
      </trkpt>
      <trkpt lat="42.47919" lon="18.4594">
        <ele>90.60964</ele>
        <time>2022-06-01T09:02:36.574Z</time>
      </trkpt>
      <trkpt lat="42.47924" lon="18.45925">
        <ele>90.944883</ele>
        <time>2022-06-01T09:02:40.597Z</time>
      </trkpt>
      <trkpt lat="42.47927" lon="18.45914">
        <ele>91.202182</ele>
        <time>2022-06-01T09:02:43.654Z</time>
      </trkpt>
      <trkpt lat="42.47933" lon="18.45899">
        <ele>91.538336</ele>
        <time>2022-06-01T09:02:47.585Z</time>
      </trkpt>
      <trkpt lat="42.47938" lon="18.45887">
        <ele>91.835877</ele>
        <time>2022-06-01T09:02:51.583Z</time>
      </trkpt>
      <trkpt lat="42.47944" lon="18.45873">
        <ele>92.168935</ele>
        <time>2022-06-01T09:02:55.588Z</time>
      </trkpt>
      <trkpt lat="42.47949" lon="18.45862">
        <ele>92.457483</ele>
        <time>2022-06-01T09:02:58.578Z</time>
      </trkpt>
      <trkpt lat="42.47956" lon="18.45851">
        <ele>92.753023</ele>
        <time>2022-06-01T09:03:01.576Z</time>
      </trkpt>
      <trkpt lat="42.47963" lon="18.45842">
        <ele>93.01827</ele>
        <time>2022-06-01T09:03:04.602Z</time>
      </trkpt>
      <trkpt lat="42.47972" lon="18.45832">
        <ele>93.343812</ele>
        <time>2022-06-01T09:03:08.612Z</time>
      </trkpt>
      <trkpt lat="42.47979" lon="18.45824">
        <ele>93.603972</ele>
        <time>2022-06-01T09:03:11.598Z</time>
      </trkpt>
      <trkpt lat="42.47988" lon="18.45815">
        <ele>93.922192</ele>
        <time>2022-06-01T09:03:15.615Z</time>
      </trkpt>
      <trkpt lat="42.47998" lon="18.45807">
        <ele>94.252147</ele>
        <time>2022-06-01T09:03:19.584Z</time>
      </trkpt>
      <trkpt lat="42.48008" lon="18.45799">
        <ele>94.585837</ele>
        <time>2022-06-01T09:03:23.572Z</time>
      </trkpt>
      <trkpt lat="42.48019" lon="18.45792">
        <ele>94.927956</ele>
        <time>2022-06-01T09:03:27.601Z</time>
      </trkpt>
      <trkpt lat="42.48027" lon="18.45787">
        <ele>95.184785</ele>
        <time>2022-06-01T09:03:30.599Z</time>
      </trkpt>
      <trkpt lat="42.48036" lon="18.45781">
        <ele>95.472785</ele>
        <time>2022-06-01T09:03:34.577Z</time>
      </trkpt>
      <trkpt lat="42.48047" lon="18.45775">
        <ele>95.798198</ele>
        <time>2022-06-01T09:03:38.573Z</time>
      </trkpt>
      <trkpt lat="42.48056" lon="18.4577">
        <ele>96.061473</ele>
        <time>2022-06-01T09:03:41.553Z</time>
      </trkpt>
      <trkpt lat="42.48066" lon="18.45763">
        <ele>96.385473</ele>
        <time>2022-06-01T09:03:45.561Z</time>
      </trkpt>
      <trkpt lat="42.48076" lon="18.45754">
        <ele>96.723493</ele>
        <time>2022-06-01T09:03:49.566Z</time>
      </trkpt>
      <trkpt lat="42.48083" lon="18.45747">
        <ele>96.97833</ele>
        <time>2022-06-01T09:03:52.552Z</time>
      </trkpt>
      <trkpt lat="42.48092" lon="18.45736">
        <ele>97.308175</ele>
        <time>2022-06-01T09:03:56.556Z</time>
      </trkpt>
      <trkpt lat="42.48099" lon="18.45726">
        <ele>97.578799</ele>
        <time>2022-06-01T09:03:59.602Z</time>
      </trkpt>
      <trkpt lat="42.48104" lon="18.45717">
        <ele>97.831052</ele>
        <time>2022-06-01T09:04:02.560Z</time>
      </trkpt>
      <trkpt lat="42.48111" lon="18.45699">
        <ele>98.234514</ele>
        <time>2022-06-01T09:04:07.554Z</time>
      </trkpt>
      <trkpt lat="42.48114" lon="18.45685">
        <ele>98.546087</ele>
        <time>2022-06-01T09:04:11.557Z</time>
      </trkpt>
      <trkpt lat="42.48118" lon="18.4567">
        <ele>98.871638</ele>
        <time>2022-06-01T09:04:15.558Z</time>
      </trkpt>
      <trkpt lat="42.48119" lon="18.45657">
        <ele>99.135</ele>
        <time>2022-06-01T09:04:18.553Z</time>
      </trkpt>
      <trkpt lat="42.4812" lon="18.45642">
        <ele>99.456671</ele>
        <time>2022-06-01T09:04:22.572Z</time>
      </trkpt>
      <trkpt lat="42.48121" lon="18.45628">
        <ele>99.733488</ele>
        <time>2022-06-01T09:04:26.554Z</time>
      </trkpt>
      <trkpt lat="42.48122" lon="18.45615">
        <ele>100.001594</ele>
        <time>2022-06-01T09:04:31.562Z</time>
      </trkpt>
      <trkpt lat="42.48122" lon="18.45581">
        <ele>100.702565</ele>
        <time>2022-06-01T09:05:17.562Z</time>
      </trkpt>
      <trkpt lat="42.48121" lon="18.4556">
        <ele>100.995883</ele>
        <time>2022-06-01T09:06:44.586Z</time>
      </trkpt>
      <trkpt lat="42.48124" lon="18.45542">
        <ele>101.260573</ele>
        <time>2022-06-01T09:08:40.624Z</time>
      </trkpt>
      <trkpt lat="42.48121" lon="18.45528">
        <ele>101.46603</ele>
        <time>2022-06-01T09:08:45.582Z</time>
      </trkpt>
      <trkpt lat="42.4812" lon="18.45515">
        <ele>101.649088</ele>
        <time>2022-06-01T09:08:49.583Z</time>
      </trkpt>
      <trkpt lat="42.4812" lon="18.455">
        <ele>101.86439</ele>
        <time>2022-06-01T09:08:54.595Z</time>
      </trkpt>
      <trkpt lat="42.48122" lon="18.45485">
        <ele>102.078221</ele>
        <time>2022-06-01T09:08:59.597Z</time>
      </trkpt>
      <trkpt lat="42.48124" lon="18.45471">
        <ele>102.280553</ele>
        <time>2022-06-01T09:09:04.583Z</time>
      </trkpt>
      <trkpt lat="42.48126" lon="18.45458">
        <ele>102.463085</ele>
        <time>2022-06-01T09:09:09.588Z</time>
      </trkpt>
      <trkpt lat="42.48129" lon="18.45446">
        <ele>102.65911</ele>
        <time>2022-06-01T09:09:14.568Z</time>
      </trkpt>
      <trkpt lat="42.48134" lon="18.45433">
        <ele>102.854152</ele>
        <time>2022-06-01T09:09:20.597Z</time>
      </trkpt>
      <trkpt lat="42.48138" lon="18.45422">
        <ele>103.029969</ele>
        <time>2022-06-01T09:09:26.614Z</time>
      </trkpt>
      <trkpt lat="42.48141" lon="18.45409">
        <ele>103.231283</ele>
        <time>2022-06-01T09:09:33.591Z</time>
      </trkpt>
      <trkpt lat="42.48145" lon="18.45397">
        <ele>103.410272</ele>
        <time>2022-06-01T09:09:39.592Z</time>
      </trkpt>
      <trkpt lat="42.48149" lon="18.45384">
        <ele>103.612246</ele>
        <time>2022-06-01T09:09:46.591Z</time>
      </trkpt>
      <trkpt lat="42.48151" lon="18.4537">
        <ele>103.81171</ele>
        <time>2022-06-01T09:09:53.596Z</time>
      </trkpt>
      <trkpt lat="42.48155" lon="18.45358">
        <ele>103.988437</ele>
        <time>2022-06-01T09:09:59.583Z</time>
      </trkpt>
      <trkpt lat="42.48158" lon="18.45347">
        <ele>104.268675</ele>
        <time>2022-06-01T09:10:05.589Z</time>
      </trkpt>
      <trkpt lat="42.48161" lon="18.45335">
        <ele>105.154168</ele>
        <time>2022-06-01T09:10:11.581Z</time>
      </trkpt>
      <trkpt lat="42.48164" lon="18.45322">
        <ele>106.112482</ele>
        <time>2022-06-01T09:10:17.606Z</time>
      </trkpt>
      <trkpt lat="42.48166" lon="18.4531">
        <ele>107.019596</ele>
        <time>2022-06-01T09:10:23.567Z</time>
      </trkpt>
      <trkpt lat="42.48169" lon="18.45297">
        <ele>107.982202</ele>
        <time>2022-06-01T09:10:29.579Z</time>
      </trkpt>
      <trkpt lat="42.48173" lon="18.45284">
        <ele>108.997786</ele>
        <time>2022-06-01T09:10:36.579Z</time>
      </trkpt>
      <trkpt lat="42.48178" lon="18.45272">
        <ele>109.965698</ele>
        <time>2022-06-01T09:10:42.639Z</time>
      </trkpt>
      <trkpt lat="42.4818" lon="18.45259">
        <ele>110.933136</ele>
        <time>2022-06-01T09:10:50.579Z</time>
      </trkpt>
      <trkpt lat="42.48181" lon="18.45247">
        <ele>111.847883</ele>
        <time>2022-06-01T09:10:56.583Z</time>
      </trkpt>
      <trkpt lat="42.48183" lon="18.45234">
        <ele>112.727271</ele>
        <time>2022-06-01T09:11:02.601Z</time>
      </trkpt>
      <trkpt lat="42.48185" lon="18.45223">
        <ele>113.614088</ele>
        <time>2022-06-01T09:11:09.592Z</time>
      </trkpt>
      <trkpt lat="42.48185" lon="18.45209">
        <ele>114.567315</ele>
        <time>2022-06-01T09:11:18.576Z</time>
      </trkpt>
      <trkpt lat="42.48184" lon="18.45197">
        <ele>115.438014</ele>
        <time>2022-06-01T09:11:26.574Z</time>
      </trkpt>
      <trkpt lat="42.48185" lon="18.45185">
        <ele>116.345296</ele>
        <time>2022-06-01T09:11:34.594Z</time>
      </trkpt>
      <trkpt lat="42.48185" lon="18.45172">
        <ele>117.255572</ele>
        <time>2022-06-01T09:11:41.588Z</time>
      </trkpt>
      <trkpt lat="42.48185" lon="18.45158">
        <ele>118.225521</ele>
        <time>2022-06-01T09:11:48.590Z</time>
      </trkpt>
      <trkpt lat="42.48184" lon="18.45144">
        <ele>119.237252</ele>
        <time>2022-06-01T09:11:55.584Z</time>
      </trkpt>
      <trkpt lat="42.48183" lon="18.45131">
        <ele>120.214332</ele>
        <time>2022-06-01T09:12:03.573Z</time>
      </trkpt>
      <trkpt lat="42.48182" lon="18.45118">
        <ele>121.115478</ele>
        <time>2022-06-01T09:12:10.584Z</time>
      </trkpt>
      <trkpt lat="42.48182" lon="18.45105">
        <ele>121.945875</ele>
        <time>2022-06-01T09:12:17.572Z</time>
      </trkpt>
      <trkpt lat="42.4818" lon="18.45092">
        <ele>122.687537</ele>
        <time>2022-06-01T09:12:24.601Z</time>
      </trkpt>
      <trkpt lat="42.48179" lon="18.45079">
        <ele>123.393205</ele>
        <time>2022-06-01T09:12:33.590Z</time>
      </trkpt>
      <trkpt lat="42.48179" lon="18.45066">
        <ele>124.08453</ele>
        <time>2022-06-01T09:12:40.602Z</time>
      </trkpt>
      <trkpt lat="42.48181" lon="18.45053">
        <ele>124.798574</ele>
        <time>2022-06-01T09:12:47.619Z</time>
      </trkpt>
      <trkpt lat="42.48182" lon="18.45039">
        <ele>125.522132</ele>
        <time>2022-06-01T09:12:55.573Z</time>
      </trkpt>
      <trkpt lat="42.48181" lon="18.45026">
        <ele>126.238644</ele>
        <time>2022-06-01T09:13:03.591Z</time>
      </trkpt>
      <trkpt lat="42.48182" lon="18.45014">
        <ele>126.901507</ele>
        <time>2022-06-01T09:13:10.622Z</time>
      </trkpt>
      <trkpt lat="42.48181" lon="18.45001">
        <ele>127.564652</ele>
        <time>2022-06-01T09:13:17.590Z</time>
      </trkpt>
      <trkpt lat="42.4818" lon="18.44988">
        <ele>128.284728</ele>
        <time>2022-06-01T09:13:25.582Z</time>
      </trkpt>
      <trkpt lat="42.4818" lon="18.44975">
        <ele>128.980161</ele>
        <time>2022-06-01T09:13:32.589Z</time>
      </trkpt>
      <trkpt lat="42.48181" lon="18.44963">
        <ele>129.667358</ele>
        <time>2022-06-01T09:13:39.628Z</time>
      </trkpt>
      <trkpt lat="42.48182" lon="18.4495">
        <ele>130.328229</ele>
        <time>2022-06-01T09:13:46.585Z</time>
      </trkpt>
      <trkpt lat="42.48185" lon="18.44938">
        <ele>131.04735</ele>
        <time>2022-06-01T09:13:54.592Z</time>
      </trkpt>
      <trkpt lat="42.48188" lon="18.44925">
        <ele>131.787871</ele>
        <time>2022-06-01T09:14:01.586Z</time>
      </trkpt>
      <trkpt lat="42.48192" lon="18.44913">
        <ele>132.465735</ele>
        <time>2022-06-01T09:14:08.581Z</time>
      </trkpt>
      <trkpt lat="42.48195" lon="18.44901">
        <ele>133.150782</ele>
        <time>2022-06-01T09:14:16.580Z</time>
      </trkpt>
      <trkpt lat="42.48198" lon="18.4489">
        <ele>133.811095</ele>
        <time>2022-06-01T09:14:24.579Z</time>
      </trkpt>
      <trkpt lat="42.48202" lon="18.44877">
        <ele>134.5314</ele>
        <time>2022-06-01T09:14:32.585Z</time>
      </trkpt>
      <trkpt lat="42.48206" lon="18.44866">
        <ele>135.335045</ele>
        <time>2022-06-01T09:14:39.594Z</time>
      </trkpt>
      <trkpt lat="42.4821" lon="18.44854">
        <ele>136.237925</ele>
        <time>2022-06-01T09:14:47.582Z</time>
      </trkpt>
      <trkpt lat="42.48214" lon="18.44843">
        <ele>137.080994</ele>
        <time>2022-06-01T09:14:55.587Z</time>
      </trkpt>
      <trkpt lat="42.48218" lon="18.44832">
        <ele>137.940518</ele>
        <time>2022-06-01T09:15:02.587Z</time>
      </trkpt>
      <trkpt lat="42.48224" lon="18.44821">
        <ele>138.848181</ele>
        <time>2022-06-01T09:15:10.606Z</time>
      </trkpt>
      <trkpt lat="42.48229" lon="18.44811">
        <ele>139.696521</ele>
        <time>2022-06-01T09:15:18.589Z</time>
      </trkpt>
      <trkpt lat="42.48235" lon="18.44801">
        <ele>140.588599</ele>
        <time>2022-06-01T09:15:26.620Z</time>
      </trkpt>
      <trkpt lat="42.48241" lon="18.44791">
        <ele>141.45361</ele>
        <time>2022-06-01T09:15:34.625Z</time>
      </trkpt>
      <trkpt lat="42.48248" lon="18.44782">
        <ele>142.365892</ele>
        <time>2022-06-01T09:15:42.619Z</time>
      </trkpt>
      <trkpt lat="42.48254" lon="18.44772">
        <ele>143.284484</ele>
        <time>2022-06-01T09:15:50.587Z</time>
      </trkpt>
      <trkpt lat="42.48262" lon="18.44762">
        <ele>144.228819</ele>
        <time>2022-06-01T09:15:58.586Z</time>
      </trkpt>
      <trkpt lat="42.4827" lon="18.44753">
        <ele>145.195077</ele>
        <time>2022-06-01T09:16:05.619Z</time>
      </trkpt>
      <trkpt lat="42.48277" lon="18.44746">
        <ele>146.035235</ele>
        <time>2022-06-01T09:16:12.604Z</time>
      </trkpt>
      <trkpt lat="42.48283" lon="18.44736">
        <ele>146.927309</ele>
        <time>2022-06-01T09:16:20.591Z</time>
      </trkpt>
      <trkpt lat="42.48289" lon="18.44727">
        <ele>147.794907</ele>
        <time>2022-06-01T09:16:28.557Z</time>
      </trkpt>
      <trkpt lat="42.48296" lon="18.44717">
        <ele>148.722517</ele>
        <time>2022-06-01T09:16:36.559Z</time>
      </trkpt>
      <trkpt lat="42.48301" lon="18.44706">
        <ele>149.581672</ele>
        <time>2022-06-01T09:16:43.570Z</time>
      </trkpt>
      <trkpt lat="42.48307" lon="18.44696">
        <ele>150.457211</ele>
        <time>2022-06-01T09:16:52.552Z</time>
      </trkpt>
      <trkpt lat="42.48313" lon="18.44687">
        <ele>151.31561</ele>
        <time>2022-06-01T09:17:00.570Z</time>
      </trkpt>
      <trkpt lat="42.48319" lon="18.44677">
        <ele>152.264599</ele>
        <time>2022-06-01T09:17:07.565Z</time>
      </trkpt>
      <trkpt lat="42.48325" lon="18.44668">
        <ele>153.249226</ele>
        <time>2022-06-01T09:17:14.560Z</time>
      </trkpt>
      <trkpt lat="42.4833" lon="18.44657">
        <ele>154.27856</ele>
        <time>2022-06-01T09:17:22.579Z</time>
      </trkpt>
      <trkpt lat="42.48336" lon="18.44647">
        <ele>155.282671</ele>
        <time>2022-06-01T09:17:30.575Z</time>
      </trkpt>
      <trkpt lat="42.48342" lon="18.44637">
        <ele>156.266786</ele>
        <time>2022-06-01T09:17:37.550Z</time>
      </trkpt>
      <trkpt lat="42.48348" lon="18.44628">
        <ele>157.246555</ele>
        <time>2022-06-01T09:17:44.566Z</time>
      </trkpt>
      <trkpt lat="42.48352" lon="18.44617">
        <ele>158.221096</ele>
        <time>2022-06-01T09:17:51.556Z</time>
      </trkpt>
      <trkpt lat="42.48358" lon="18.44606">
        <ele>159.282031</ele>
        <time>2022-06-01T09:17:59.562Z</time>
      </trkpt>
      <trkpt lat="42.48363" lon="18.44595">
        <ele>160.265892</ele>
        <time>2022-06-01T09:18:07.555Z</time>
      </trkpt>
      <trkpt lat="42.48367" lon="18.44584">
        <ele>161.254681</ele>
        <time>2022-06-01T09:18:15.556Z</time>
      </trkpt>
      <trkpt lat="42.48372" lon="18.44573">
        <ele>162.309611</ele>
        <time>2022-06-01T09:18:22.596Z</time>
      </trkpt>
      <trkpt lat="42.48377" lon="18.44562">
        <ele>163.342413</ele>
        <time>2022-06-01T09:18:29.555Z</time>
      </trkpt>
      <trkpt lat="42.48382" lon="18.4455">
        <ele>164.400364</ele>
        <time>2022-06-01T09:18:37.585Z</time>
      </trkpt>
      <trkpt lat="42.48385" lon="18.44538">
        <ele>165.407101</ele>
        <time>2022-06-01T09:18:46.570Z</time>
      </trkpt>
      <trkpt lat="42.48387" lon="18.44525">
        <ele>166.479705</ele>
        <time>2022-06-01T09:18:55.565Z</time>
      </trkpt>
      <trkpt lat="42.4839" lon="18.44513">
        <ele>167.469418</ele>
        <time>2022-06-01T09:19:04.574Z</time>
      </trkpt>
      <trkpt lat="42.48393" lon="18.44499">
        <ele>168.591175</ele>
        <time>2022-06-01T09:19:12.563Z</time>
      </trkpt>
      <trkpt lat="42.48397" lon="18.44486">
        <ele>169.661472</ele>
        <time>2022-06-01T09:19:20.600Z</time>
      </trkpt>
      <trkpt lat="42.484" lon="18.44474">
        <ele>170.679175</ele>
        <time>2022-06-01T09:19:28.556Z</time>
      </trkpt>
      <trkpt lat="42.48402" lon="18.44462">
        <ele>171.398136</ele>
        <time>2022-06-01T09:19:36.556Z</time>
      </trkpt>
      <trkpt lat="42.48405" lon="18.44449">
        <ele>172.091645</ele>
        <time>2022-06-01T09:19:44.567Z</time>
      </trkpt>
      <trkpt lat="42.48408" lon="18.44437">
        <ele>172.789344</ele>
        <time>2022-06-01T09:19:51.555Z</time>
      </trkpt>
      <trkpt lat="42.4841" lon="18.44425">
        <ele>173.464019</ele>
        <time>2022-06-01T09:19:58.592Z</time>
      </trkpt>
      <trkpt lat="42.48414" lon="18.44414">
        <ele>174.118933</ele>
        <time>2022-06-01T09:20:05.551Z</time>
      </trkpt>
      <trkpt lat="42.48416" lon="18.44402">
        <ele>174.792543</ele>
        <time>2022-06-01T09:20:13.557Z</time>
      </trkpt>
      <trkpt lat="42.4842" lon="18.4439">
        <ele>175.507496</ele>
        <time>2022-06-01T09:20:21.559Z</time>
      </trkpt>
      <trkpt lat="42.48423" lon="18.44377">
        <ele>176.199648</ele>
        <time>2022-06-01T09:20:29.573Z</time>
      </trkpt>
      <trkpt lat="42.48426" lon="18.44364">
        <ele>176.92588</ele>
        <time>2022-06-01T09:20:37.554Z</time>
      </trkpt>
      <trkpt lat="42.48428" lon="18.44351">
        <ele>177.655819</ele>
        <time>2022-06-01T09:20:46.594Z</time>
      </trkpt>
      <trkpt lat="42.48431" lon="18.44338">
        <ele>178.382051</ele>
        <time>2022-06-01T09:20:54.560Z</time>
      </trkpt>
      <trkpt lat="42.48435" lon="18.44325">
        <ele>179.109979</ele>
        <time>2022-06-01T09:21:02.552Z</time>
      </trkpt>
      <trkpt lat="42.48438" lon="18.44314">
        <ele>179.764914</ele>
        <time>2022-06-01T09:21:09.557Z</time>
      </trkpt>
      <trkpt lat="42.48441" lon="18.44302">
        <ele>180.434904</ele>
        <time>2022-06-01T09:21:17.559Z</time>
      </trkpt>
      <trkpt lat="42.48444" lon="18.44291">
        <ele>181.104894</ele>
        <time>2022-06-01T09:21:24.578Z</time>
      </trkpt>
      <trkpt lat="42.48447" lon="18.44278">
        <ele>181.82441</ele>
        <time>2022-06-01T09:21:32.555Z</time>
      </trkpt>
      <trkpt lat="42.48451" lon="18.44266">
        <ele>182.512713</ele>
        <time>2022-06-01T09:21:39.559Z</time>
      </trkpt>
      <trkpt lat="42.48456" lon="18.44255">
        <ele>183.213077</ele>
        <time>2022-06-01T09:21:47.563Z</time>
      </trkpt>
      <trkpt lat="42.48459" lon="18.44242">
        <ele>183.959243</ele>
        <time>2022-06-01T09:21:55.577Z</time>
      </trkpt>
      <trkpt lat="42.48462" lon="18.44229">
        <ele>184.806454</ele>
        <time>2022-06-01T09:22:03.554Z</time>
      </trkpt>
      <trkpt lat="42.48466" lon="18.44217">
        <ele>185.60508</ele>
        <time>2022-06-01T09:22:11.564Z</time>
      </trkpt>
      <trkpt lat="42.48469" lon="18.44205">
        <ele>186.417711</ele>
        <time>2022-06-01T09:22:18.560Z</time>
      </trkpt>
      <trkpt lat="42.48472" lon="18.44193">
        <ele>187.206104</ele>
        <time>2022-06-01T09:22:25.567Z</time>
      </trkpt>
      <trkpt lat="42.48476" lon="18.44181">
        <ele>188.055009</ele>
        <time>2022-06-01T09:22:33.559Z</time>
      </trkpt>
      <trkpt lat="42.48481" lon="18.44169">
        <ele>188.888956</ele>
        <time>2022-06-01T09:22:41.581Z</time>
      </trkpt>
      <trkpt lat="42.48486" lon="18.44158">
        <ele>189.683113</ele>
        <time>2022-06-01T09:22:49.561Z</time>
      </trkpt>
      <trkpt lat="42.4849" lon="18.44147">
        <ele>190.447584</ele>
        <time>2022-06-01T09:22:56.558Z</time>
      </trkpt>
      <trkpt lat="42.48497" lon="18.44137">
        <ele>191.334134</ele>
        <time>2022-06-01T09:23:03.571Z</time>
      </trkpt>
      <trkpt lat="42.48503" lon="18.44127">
        <ele>192.129805</ele>
        <time>2022-06-01T09:23:11.554Z</time>
      </trkpt>
      <trkpt lat="42.48509" lon="18.44117">
        <ele>192.965206</ele>
        <time>2022-06-01T09:23:19.562Z</time>
      </trkpt>
      <trkpt lat="42.48515" lon="18.44106">
        <ele>193.749776</ele>
        <time>2022-06-01T09:23:27.552Z</time>
      </trkpt>
      <trkpt lat="42.4852" lon="18.44096">
        <ele>194.54414</ele>
        <time>2022-06-01T09:23:35.553Z</time>
      </trkpt>
      <trkpt lat="42.48525" lon="18.44086">
        <ele>195.320353</ele>
        <time>2022-06-01T09:23:42.557Z</time>
      </trkpt>
      <trkpt lat="42.48531" lon="18.44075">
        <ele>196.109687</ele>
        <time>2022-06-01T09:23:49.577Z</time>
      </trkpt>
      <trkpt lat="42.48536" lon="18.44065">
        <ele>196.924211</ele>
        <time>2022-06-01T09:23:57.551Z</time>
      </trkpt>
      <trkpt lat="42.48542" lon="18.44054">
        <ele>197.729929</ele>
        <time>2022-06-01T09:24:05.560Z</time>
      </trkpt>
      <trkpt lat="42.48547" lon="18.44043">
        <ele>198.574655</ele>
        <time>2022-06-01T09:24:13.581Z</time>
      </trkpt>
      <trkpt lat="42.48551" lon="18.4403">
        <ele>199.242866</ele>
        <time>2022-06-01T09:24:21.561Z</time>
      </trkpt>
      <trkpt lat="42.48555" lon="18.44019">
        <ele>199.6011</ele>
        <time>2022-06-01T09:24:28.554Z</time>
      </trkpt>
      <trkpt lat="42.4856" lon="18.44008">
        <ele>199.97495</ele>
        <time>2022-06-01T09:24:35.558Z</time>
      </trkpt>
      <trkpt lat="42.48563" lon="18.43996">
        <ele>200.34722</ele>
        <time>2022-06-01T09:24:43.557Z</time>
      </trkpt>
      <trkpt lat="42.48566" lon="18.43983">
        <ele>200.739136</ele>
        <time>2022-06-01T09:24:51.562Z</time>
      </trkpt>
      <trkpt lat="42.48568" lon="18.4397">
        <ele>201.119299</ele>
        <time>2022-06-01T09:24:59.565Z</time>
      </trkpt>
      <trkpt lat="42.4857" lon="18.43957">
        <ele>201.496855</ele>
        <time>2022-06-01T09:25:07.555Z</time>
      </trkpt>
      <trkpt lat="42.4857" lon="18.43945">
        <ele>201.86044</ele>
        <time>2022-06-01T09:25:14.561Z</time>
      </trkpt>
      <trkpt lat="42.48572" lon="18.43933">
        <ele>202.210975</ele>
        <time>2022-06-01T09:25:21.586Z</time>
      </trkpt>
      <trkpt lat="42.48575" lon="18.4392">
        <ele>202.608996</ele>
        <time>2022-06-01T09:25:29.559Z</time>
      </trkpt>
      <trkpt lat="42.48578" lon="18.43906">
        <ele>203.007848</ele>
        <time>2022-06-01T09:25:37.554Z</time>
      </trkpt>
      <trkpt lat="42.48581" lon="18.43894">
        <ele>203.381493</ele>
        <time>2022-06-01T09:25:44.555Z</time>
      </trkpt>
      <trkpt lat="42.48585" lon="18.43882">
        <ele>203.782123</ele>
        <time>2022-06-01T09:25:51.558Z</time>
      </trkpt>
      <trkpt lat="42.48589" lon="18.4387">
        <ele>204.147946</ele>
        <time>2022-06-01T09:25:58.560Z</time>
      </trkpt>
      <trkpt lat="42.48593" lon="18.43857">
        <ele>204.548575</ele>
        <time>2022-06-01T09:26:06.556Z</time>
      </trkpt>
      <trkpt lat="42.48599" lon="18.43845">
        <ele>204.953828</ele>
        <time>2022-06-01T09:26:14.563Z</time>
      </trkpt>
      <trkpt lat="42.48605" lon="18.43835">
        <ele>205.342482</ele>
        <time>2022-06-01T09:26:22.561Z</time>
      </trkpt>
      <trkpt lat="42.48613" lon="18.43826">
        <ele>205.730563</ele>
        <time>2022-06-01T09:26:31.558Z</time>
      </trkpt>
      <trkpt lat="42.48621" lon="18.43819">
        <ele>206.113028</ele>
        <time>2022-06-01T09:26:38.565Z</time>
      </trkpt>
      <trkpt lat="42.4863" lon="18.43815">
        <ele>206.621609</ele>
        <time>2022-06-01T09:26:44.570Z</time>
      </trkpt>
      <trkpt lat="42.48639" lon="18.4381">
        <ele>207.180114</ele>
        <time>2022-06-01T09:26:52.574Z</time>
      </trkpt>
      <trkpt lat="42.48648" lon="18.43806">
        <ele>207.70311</ele>
        <time>2022-06-01T09:27:00.563Z</time>
      </trkpt>
      <trkpt lat="42.48658" lon="18.43803">
        <ele>208.271339</ele>
        <time>2022-06-01T09:27:07.561Z</time>
      </trkpt>
      <trkpt lat="42.48667" lon="18.43801">
        <ele>208.814564</ele>
        <time>2022-06-01T09:27:14.560Z</time>
      </trkpt>
      <trkpt lat="42.48676" lon="18.43797">
        <ele>209.337913</ele>
        <time>2022-06-01T09:27:21.566Z</time>
      </trkpt>
      <trkpt lat="42.48685" lon="18.43794">
        <ele>209.884038</ele>
        <time>2022-06-01T09:27:29.578Z</time>
      </trkpt>
      <trkpt lat="42.48695" lon="18.43789">
        <ele>210.450037</ele>
        <time>2022-06-01T09:27:37.556Z</time>
      </trkpt>
      <trkpt lat="42.48704" lon="18.43785">
        <ele>211.001589</ele>
        <time>2022-06-01T09:27:45.556Z</time>
      </trkpt>
      <trkpt lat="42.48713" lon="18.43779">
        <ele>211.557353</ele>
        <time>2022-06-01T09:27:53.577Z</time>
      </trkpt>
      <trkpt lat="42.48721" lon="18.43774">
        <ele>212.086284</ele>
        <time>2022-06-01T09:28:01.570Z</time>
      </trkpt>
      <trkpt lat="42.48729" lon="18.43766">
        <ele>212.636698</ele>
        <time>2022-06-01T09:28:09.556Z</time>
      </trkpt>
      <trkpt lat="42.48736" lon="18.43758">
        <ele>213.171904</ele>
        <time>2022-06-01T09:28:17.583Z</time>
      </trkpt>
      <trkpt lat="42.48743" lon="18.43748">
        <ele>213.728046</ele>
        <time>2022-06-01T09:28:24.574Z</time>
      </trkpt>
      <trkpt lat="42.48749" lon="18.43738">
        <ele>214.264603</ele>
        <time>2022-06-01T09:28:31.554Z</time>
      </trkpt>
      <trkpt lat="42.48754" lon="18.43727">
        <ele>214.780961</ele>
        <time>2022-06-01T09:28:38.559Z</time>
      </trkpt>
      <trkpt lat="42.4876" lon="18.43717">
        <ele>215.319481</ele>
        <time>2022-06-01T09:28:45.578Z</time>
      </trkpt>
      <trkpt lat="42.48765" lon="18.43706">
        <ele>215.845057</ele>
        <time>2022-06-01T09:28:51.558Z</time>
      </trkpt>
      <trkpt lat="42.4877" lon="18.43696">
        <ele>216.443383</ele>
        <time>2022-06-01T09:28:58.563Z</time>
      </trkpt>
      <trkpt lat="42.48775" lon="18.43686">
        <ele>217.356546</ele>
        <time>2022-06-01T09:29:05.558Z</time>
      </trkpt>
      <trkpt lat="42.4878" lon="18.43674">
        <ele>218.380724</ele>
        <time>2022-06-01T09:29:13.559Z</time>
      </trkpt>
      <trkpt lat="42.48785" lon="18.43664">
        <ele>219.325024</ele>
        <time>2022-06-01T09:29:21.577Z</time>
      </trkpt>
      <trkpt lat="42.4879" lon="18.43651">
        <ele>220.359297</ele>
        <time>2022-06-01T09:29:28.575Z</time>
      </trkpt>
      <trkpt lat="42.48796" lon="18.43643">
        <ele>221.276766</ele>
        <time>2022-06-01T09:29:36.560Z</time>
      </trkpt>
      <trkpt lat="42.48803" lon="18.43632">
        <ele>222.339102</ele>
        <time>2022-06-01T09:29:43.556Z</time>
      </trkpt>
      <trkpt lat="42.48807" lon="18.4362">
        <ele>223.310172</ele>
        <time>2022-06-01T09:29:51.566Z</time>
      </trkpt>
      <trkpt lat="42.48812" lon="18.43609">
        <ele>224.283777</ele>
        <time>2022-06-01T09:29:58.566Z</time>
      </trkpt>
      <trkpt lat="42.48818" lon="18.43599">
        <ele>225.211962</ele>
        <time>2022-06-01T09:30:05.559Z</time>
      </trkpt>
      <trkpt lat="42.48825" lon="18.43591">
        <ele>226.152896</ele>
        <time>2022-06-01T09:30:12.575Z</time>
      </trkpt>
      <trkpt lat="42.48833" lon="18.43583">
        <ele>227.143028</ele>
        <time>2022-06-01T09:30:19.557Z</time>
      </trkpt>
      <trkpt lat="42.4884" lon="18.43576">
        <ele>228.065054</ele>
        <time>2022-06-01T09:30:27.556Z</time>
      </trkpt>
      <trkpt lat="42.48847" lon="18.43568">
        <ele>229.001386</ele>
        <time>2022-06-01T09:30:34.560Z</time>
      </trkpt>
      <trkpt lat="42.48855" lon="18.43561">
        <ele>229.944105</ele>
        <time>2022-06-01T09:30:41.552Z</time>
      </trkpt>
      <trkpt lat="42.48864" lon="18.43553">
        <ele>231.005853</ele>
        <time>2022-06-01T09:30:48.571Z</time>
      </trkpt>
      <trkpt lat="42.48873" lon="18.43547">
        <ele>232.010006</ele>
        <time>2022-06-01T09:30:54.574Z</time>
      </trkpt>
      <trkpt lat="42.4888" lon="18.43539">
        <ele>232.946516</ele>
        <time>2022-06-01T09:31:03.582Z</time>
      </trkpt>
      <trkpt lat="42.48888" lon="18.43531">
        <ele>233.943746</ele>
        <time>2022-06-01T09:31:12.568Z</time>
      </trkpt>
      <trkpt lat="42.48897" lon="18.43525">
        <ele>234.820509</ele>
        <time>2022-06-01T09:31:20.557Z</time>
      </trkpt>
      <trkpt lat="42.48906" lon="18.43519">
        <ele>235.555424</ele>
        <time>2022-06-01T09:31:27.556Z</time>
      </trkpt>
      <trkpt lat="42.48915" lon="18.43513">
        <ele>236.286463</ele>
        <time>2022-06-01T09:31:34.564Z</time>
      </trkpt>
      <trkpt lat="42.48923" lon="18.43507">
        <ele>236.967779</ele>
        <time>2022-06-01T09:31:41.556Z</time>
      </trkpt>
      <trkpt lat="42.48931" lon="18.43499">
        <ele>237.678317</ele>
        <time>2022-06-01T09:31:49.556Z</time>
      </trkpt>
      <trkpt lat="42.4894" lon="18.43494">
        <ele>238.37365</ele>
        <time>2022-06-01T09:31:56.570Z</time>
      </trkpt>
      <trkpt lat="42.48949" lon="18.43488">
        <ele>239.077903</ele>
        <time>2022-06-01T09:32:03.560Z</time>
      </trkpt>
      <trkpt lat="42.48956" lon="18.43481">
        <ele>239.741063</ele>
        <time>2022-06-01T09:32:10.554Z</time>
      </trkpt>
      <trkpt lat="42.48964" lon="18.43473">
        <ele>240.461077</ele>
        <time>2022-06-01T09:32:18.570Z</time>
      </trkpt>
      <trkpt lat="42.48973" lon="18.43467">
        <ele>241.156404</ele>
        <time>2022-06-01T09:32:25.554Z</time>
      </trkpt>
      <trkpt lat="42.48981" lon="18.43461">
        <ele>241.846624</ele>
        <time>2022-06-01T09:32:32.555Z</time>
      </trkpt>
      <trkpt lat="42.48991" lon="18.43456">
        <ele>242.580005</ele>
        <time>2022-06-01T09:32:40.559Z</time>
      </trkpt>
      <trkpt lat="42.49" lon="18.43452">
        <ele>243.290523</ele>
        <time>2022-06-01T09:32:50.551Z</time>
      </trkpt>
      <trkpt lat="42.49009" lon="18.43446">
        <ele>244.036401</ele>
        <time>2022-06-01T09:32:59.559Z</time>
      </trkpt>
      <trkpt lat="42.49018" lon="18.4344">
        <ele>244.739425</ele>
        <time>2022-06-01T09:33:06.564Z</time>
      </trkpt>
      <trkpt lat="42.49027" lon="18.43433">
        <ele>245.492862</ele>
        <time>2022-06-01T09:33:13.573Z</time>
      </trkpt>
      <trkpt lat="42.49035" lon="18.43424">
        <ele>246.222278</ele>
        <time>2022-06-01T09:33:20.559Z</time>
      </trkpt>
      <trkpt lat="42.49053" lon="18.43395">
        <ele>247.197364</ele>
        <time>2022-06-01T09:35:01.558Z</time>
      </trkpt>
      <trkpt lat="42.49078" lon="18.43384">
        <ele>246.389077</ele>
        <time>2022-06-01T09:37:30.587Z</time>
      </trkpt>
      <trkpt lat="42.49096" lon="18.43363">
        <ele>245.684978</ele>
        <time>2022-06-01T09:38:46.597Z</time>
      </trkpt>
      <trkpt lat="42.49104" lon="18.43354">
        <ele>245.370243</ele>
        <time>2022-06-01T09:38:50.575Z</time>
      </trkpt>
      <trkpt lat="42.49113" lon="18.43344">
        <ele>245.019662</ele>
        <time>2022-06-01T09:38:54.591Z</time>
      </trkpt>
      <trkpt lat="42.49122" lon="18.43334">
        <ele>244.663004</ele>
        <time>2022-06-01T09:38:58.602Z</time>
      </trkpt>
      <trkpt lat="42.49129" lon="18.43323">
        <ele>244.345504</ele>
        <time>2022-06-01T09:39:01.571Z</time>
      </trkpt>
      <trkpt lat="42.49135" lon="18.43309">
        <ele>243.9798</ele>
        <time>2022-06-01T09:39:04.601Z</time>
      </trkpt>
      <trkpt lat="42.4914" lon="18.43298">
        <ele>243.690799</ele>
        <time>2022-06-01T09:39:06.621Z</time>
      </trkpt>
      <trkpt lat="42.49145" lon="18.43287">
        <ele>243.407161</ele>
        <time>2022-06-01T09:39:08.594Z</time>
      </trkpt>
      <trkpt lat="42.4915" lon="18.43276">
        <ele>243.123524</ele>
        <time>2022-06-01T09:39:10.584Z</time>
      </trkpt>
      <trkpt lat="42.49155" lon="18.43264">
        <ele>242.808507</ele>
        <time>2022-06-01T09:39:12.588Z</time>
      </trkpt>
      <trkpt lat="42.49161" lon="18.4325">
        <ele>242.439081</ele>
        <time>2022-06-01T09:39:14.576Z</time>
      </trkpt>
      <trkpt lat="42.49169" lon="18.43233">
        <ele>241.955657</ele>
        <time>2022-06-01T09:39:16.579Z</time>
      </trkpt>
      <trkpt lat="42.49177" lon="18.43216">
        <ele>241.181255</ele>
        <time>2022-06-01T09:39:18.591Z</time>
      </trkpt>
      <trkpt lat="42.49185" lon="18.43202">
        <ele>240.468057</ele>
        <time>2022-06-01T09:39:20.613Z</time>
      </trkpt>
      <trkpt lat="42.49193" lon="18.43189">
        <ele>239.807889</ele>
        <time>2022-06-01T09:39:22.593Z</time>
      </trkpt>
      <trkpt lat="42.49202" lon="18.43176">
        <ele>239.111239</ele>
        <time>2022-06-01T09:39:24.592Z</time>
      </trkpt>
      <trkpt lat="42.49212" lon="18.4316">
        <ele>238.30882</ele>
        <time>2022-06-01T09:39:26.588Z</time>
      </trkpt>
      <trkpt lat="42.49222" lon="18.43142">
        <ele>237.420244</ele>
        <time>2022-06-01T09:39:28.600Z</time>
      </trkpt>
      <trkpt lat="42.49233" lon="18.43124">
        <ele>236.522295</ele>
        <time>2022-06-01T09:39:30.598Z</time>
      </trkpt>
      <trkpt lat="42.49242" lon="18.43106">
        <ele>235.683837</ele>
        <time>2022-06-01T09:39:32.583Z</time>
      </trkpt>
      <trkpt lat="42.4925" lon="18.43087">
        <ele>234.826185</ele>
        <time>2022-06-01T09:39:34.614Z</time>
      </trkpt>
      <trkpt lat="42.49259" lon="18.43067">
        <ele>233.920367</ele>
        <time>2022-06-01T09:39:36.628Z</time>
      </trkpt>
      <trkpt lat="42.49268" lon="18.43047">
        <ele>233.00111</ele>
        <time>2022-06-01T09:39:38.596Z</time>
      </trkpt>
      <trkpt lat="42.49276" lon="18.43025">
        <ele>232.282352</ele>
        <time>2022-06-01T09:39:40.591Z</time>
      </trkpt>
      <trkpt lat="42.49282" lon="18.43004">
        <ele>231.75478</ele>
        <time>2022-06-01T09:39:42.568Z</time>
      </trkpt>
      <trkpt lat="42.49289" lon="18.42983">
        <ele>231.229655</ele>
        <time>2022-06-01T09:39:44.574Z</time>
      </trkpt>
      <trkpt lat="42.49295" lon="18.42962">
        <ele>230.703759</ele>
        <time>2022-06-01T09:39:46.591Z</time>
      </trkpt>
      <trkpt lat="42.49301" lon="18.4294">
        <ele>230.167089</ele>
        <time>2022-06-01T09:39:48.583Z</time>
      </trkpt>
      <trkpt lat="42.49306" lon="18.42918">
        <ele>229.619428</ele>
        <time>2022-06-01T09:39:50.578Z</time>
      </trkpt>
      <trkpt lat="42.49312" lon="18.42895">
        <ele>229.052167</ele>
        <time>2022-06-01T09:39:52.573Z</time>
      </trkpt>
      <trkpt lat="42.49318" lon="18.42872">
        <ele>228.496899</ele>
        <time>2022-06-01T09:39:54.593Z</time>
      </trkpt>
      <trkpt lat="42.49324" lon="18.42851">
        <ele>227.949106</ele>
        <time>2022-06-01T09:39:56.594Z</time>
      </trkpt>
      <trkpt lat="42.49332" lon="18.42829">
        <ele>227.385468</ele>
        <time>2022-06-01T09:39:58.606Z</time>
      </trkpt>
      <trkpt lat="42.49337" lon="18.42818">
        <ele>227.089505</ele>
        <time>2022-06-01T09:39:59.579Z</time>
      </trkpt>
      <trkpt lat="42.49341" lon="18.42806">
        <ele>226.755152</ele>
        <time>2022-06-01T09:40:00.587Z</time>
      </trkpt>
      <trkpt lat="42.49347" lon="18.42795">
        <ele>226.384613</ele>
        <time>2022-06-01T09:40:01.591Z</time>
      </trkpt>
      <trkpt lat="42.49352" lon="18.42784">
        <ele>226.012504</ele>
        <time>2022-06-01T09:40:02.586Z</time>
      </trkpt>
      <trkpt lat="42.49358" lon="18.42774">
        <ele>225.638184</ele>
        <time>2022-06-01T09:40:03.595Z</time>
      </trkpt>
      <trkpt lat="42.49364" lon="18.42765">
        <ele>225.2768</ele>
        <time>2022-06-01T09:40:04.624Z</time>
      </trkpt>
      <trkpt lat="42.4937" lon="18.42755">
        <ele>224.910731</ele>
        <time>2022-06-01T09:40:05.587Z</time>
      </trkpt>
      <trkpt lat="42.49377" lon="18.42745">
        <ele>224.548492</ele>
        <time>2022-06-01T09:40:06.580Z</time>
      </trkpt>
      <trkpt lat="42.49389" lon="18.42728">
        <ele>223.85226</ele>
        <time>2022-06-01T09:40:08.625Z</time>
      </trkpt>
      <trkpt lat="42.49395" lon="18.42719">
        <ele>223.497753</ele>
        <time>2022-06-01T09:40:09.615Z</time>
      </trkpt>
      <trkpt lat="42.49402" lon="18.4271">
        <ele>223.142556</ele>
        <time>2022-06-01T09:40:10.571Z</time>
      </trkpt>
      <trkpt lat="42.49408" lon="18.42701">
        <ele>222.786604</ele>
        <time>2022-06-01T09:40:11.584Z</time>
      </trkpt>
      <trkpt lat="42.49415" lon="18.42693">
        <ele>222.420296</ele>
        <time>2022-06-01T09:40:12.562Z</time>
      </trkpt>
      <trkpt lat="42.49422" lon="18.42684">
        <ele>222.065099</ele>
        <time>2022-06-01T09:40:13.576Z</time>
      </trkpt>
      <trkpt lat="42.49428" lon="18.42675">
        <ele>221.709148</ele>
        <time>2022-06-01T09:40:14.586Z</time>
      </trkpt>
      <trkpt lat="42.49435" lon="18.42666">
        <ele>221.350537</ele>
        <time>2022-06-01T09:40:15.582Z</time>
      </trkpt>
      <trkpt lat="42.49441" lon="18.42657">
        <ele>220.996001</ele>
        <time>2022-06-01T09:40:16.588Z</time>
      </trkpt>
      <trkpt lat="42.49447" lon="18.42647">
        <ele>220.632763</ele>
        <time>2022-06-01T09:40:17.586Z</time>
      </trkpt>
      <trkpt lat="42.49453" lon="18.42637">
        <ele>220.267549</ele>
        <time>2022-06-01T09:40:18.590Z</time>
      </trkpt>
      <trkpt lat="42.49459" lon="18.42627">
        <ele>219.823854</ele>
        <time>2022-06-01T09:40:19.583Z</time>
      </trkpt>
      <trkpt lat="42.49465" lon="18.42617">
        <ele>219.142986</ele>
        <time>2022-06-01T09:40:20.631Z</time>
      </trkpt>
      <trkpt lat="42.49471" lon="18.42607">
        <ele>218.462118</ele>
        <time>2022-06-01T09:40:21.593Z</time>
      </trkpt>
      <trkpt lat="42.49477" lon="18.42597">
        <ele>217.799053</ele>
        <time>2022-06-01T09:40:22.577Z</time>
      </trkpt>
      <trkpt lat="42.49483" lon="18.42586">
        <ele>217.10674</ele>
        <time>2022-06-01T09:40:23.584Z</time>
      </trkpt>
      <trkpt lat="42.49488" lon="18.42574">
        <ele>216.405261</ele>
        <time>2022-06-01T09:40:24.592Z</time>
      </trkpt>
      <trkpt lat="42.49494" lon="18.42563">
        <ele>215.707048</ele>
        <time>2022-06-01T09:40:25.586Z</time>
      </trkpt>
      <trkpt lat="42.49499" lon="18.42551">
        <ele>214.984382</ele>
        <time>2022-06-01T09:40:26.590Z</time>
      </trkpt>
      <trkpt lat="42.49505" lon="18.42539">
        <ele>214.253005</ele>
        <time>2022-06-01T09:40:27.590Z</time>
      </trkpt>
      <trkpt lat="42.4951" lon="18.42527">
        <ele>213.536356</ele>
        <time>2022-06-01T09:40:28.575Z</time>
      </trkpt>
      <trkpt lat="42.49515" lon="18.42516">
        <ele>212.829359</ele>
        <time>2022-06-01T09:40:29.598Z</time>
      </trkpt>
      <trkpt lat="42.49521" lon="18.42504">
        <ele>212.113533</ele>
        <time>2022-06-01T09:40:30.576Z</time>
      </trkpt>
      <trkpt lat="42.49526" lon="18.42492">
        <ele>211.386519</ele>
        <time>2022-06-01T09:40:31.580Z</time>
      </trkpt>
      <trkpt lat="42.49532" lon="18.42481">
        <ele>210.663856</ele>
        <time>2022-06-01T09:40:32.583Z</time>
      </trkpt>
      <trkpt lat="42.49537" lon="18.42468">
        <ele>209.940727</ele>
        <time>2022-06-01T09:40:33.581Z</time>
      </trkpt>
      <trkpt lat="42.49541" lon="18.42456">
        <ele>209.226211</ele>
        <time>2022-06-01T09:40:34.622Z</time>
      </trkpt>
      <trkpt lat="42.49546" lon="18.42444">
        <ele>208.53594</ele>
        <time>2022-06-01T09:40:35.597Z</time>
      </trkpt>
      <trkpt lat="42.49551" lon="18.42433">
        <ele>207.850215</ele>
        <time>2022-06-01T09:40:36.606Z</time>
      </trkpt>
      <trkpt lat="42.49556" lon="18.42421">
        <ele>207.105483</ele>
        <time>2022-06-01T09:40:37.570Z</time>
      </trkpt>
      <trkpt lat="42.49562" lon="18.42411">
        <ele>206.199632</ele>
        <time>2022-06-01T09:40:38.586Z</time>
      </trkpt>
      <trkpt lat="42.49568" lon="18.424">
        <ele>205.281631</ele>
        <time>2022-06-01T09:40:39.597Z</time>
      </trkpt>
      <trkpt lat="42.49575" lon="18.4239">
        <ele>204.358835</ele>
        <time>2022-06-01T09:40:40.629Z</time>
      </trkpt>
      <trkpt lat="42.49582" lon="18.42381">
        <ele>203.425563</ele>
        <time>2022-06-01T09:40:41.631Z</time>
      </trkpt>
      <trkpt lat="42.49591" lon="18.42374">
        <ele>202.487731</ele>
        <time>2022-06-01T09:40:42.584Z</time>
      </trkpt>
      <trkpt lat="42.496" lon="18.42367">
        <ele>201.531423</ele>
        <time>2022-06-01T09:40:43.585Z</time>
      </trkpt>
      <trkpt lat="42.49609" lon="18.4236">
        <ele>200.586346</ele>
        <time>2022-06-01T09:40:44.585Z</time>
      </trkpt>
      <trkpt lat="42.49618" lon="18.42355">
        <ele>199.616975</ele>
        <time>2022-06-01T09:40:45.581Z</time>
      </trkpt>
      <trkpt lat="42.49628" lon="18.42349">
        <ele>198.649646</ele>
        <time>2022-06-01T09:40:46.574Z</time>
      </trkpt>
      <trkpt lat="42.49638" lon="18.42344">
        <ele>197.6787</ele>
        <time>2022-06-01T09:40:47.582Z</time>
      </trkpt>
      <trkpt lat="42.49647" lon="18.4234">
        <ele>196.754438</ele>
        <time>2022-06-01T09:40:48.591Z</time>
      </trkpt>
      <trkpt lat="42.49657" lon="18.42336">
        <ele>195.825858</ele>
        <time>2022-06-01T09:40:49.573Z</time>
      </trkpt>
      <trkpt lat="42.49667" lon="18.4233">
        <ele>194.864511</ele>
        <time>2022-06-01T09:40:50.587Z</time>
      </trkpt>
      <trkpt lat="42.49676" lon="18.42325">
        <ele>193.917668</ele>
        <time>2022-06-01T09:40:51.570Z</time>
      </trkpt>
      <trkpt lat="42.49685" lon="18.42318">
        <ele>192.970415</ele>
        <time>2022-06-01T09:40:52.592Z</time>
      </trkpt>
      <trkpt lat="42.49694" lon="18.42311">
        <ele>192.007325</ele>
        <time>2022-06-01T09:40:53.576Z</time>
      </trkpt>
      <trkpt lat="42.49703" lon="18.42303">
        <ele>191.038859</ele>
        <time>2022-06-01T09:40:54.593Z</time>
      </trkpt>
      <trkpt lat="42.49711" lon="18.42295">
        <ele>190.173758</ele>
        <time>2022-06-01T09:40:55.593Z</time>
      </trkpt>
      <trkpt lat="42.49719" lon="18.42285">
        <ele>189.367698</ele>
        <time>2022-06-01T09:40:56.594Z</time>
      </trkpt>
      <trkpt lat="42.49727" lon="18.42275">
        <ele>188.536737</ele>
        <time>2022-06-01T09:40:57.614Z</time>
      </trkpt>
      <trkpt lat="42.49735" lon="18.42263">
        <ele>187.663245</ele>
        <time>2022-06-01T09:40:58.600Z</time>
      </trkpt>
      <trkpt lat="42.49742" lon="18.4225">
        <ele>186.755691</ele>
        <time>2022-06-01T09:40:59.598Z</time>
      </trkpt>
      <trkpt lat="42.4975" lon="18.42237">
        <ele>185.840089</ele>
        <time>2022-06-01T09:41:00.587Z</time>
      </trkpt>
      <trkpt lat="42.49757" lon="18.42224">
        <ele>184.915636</ele>
        <time>2022-06-01T09:41:01.595Z</time>
      </trkpt>
      <trkpt lat="42.49764" lon="18.42211">
        <ele>184.000194</ele>
        <time>2022-06-01T09:41:02.577Z</time>
      </trkpt>
      <trkpt lat="42.49772" lon="18.42199">
        <ele>183.102142</ele>
        <time>2022-06-01T09:41:03.617Z</time>
      </trkpt>
      <trkpt lat="42.4978" lon="18.42186">
        <ele>182.202598</ele>
        <time>2022-06-01T09:41:04.576Z</time>
      </trkpt>
      <trkpt lat="42.49788" lon="18.42174">
        <ele>181.28734</ele>
        <time>2022-06-01T09:41:05.591Z</time>
      </trkpt>
      <trkpt lat="42.49796" lon="18.42162">
        <ele>180.379296</ele>
        <time>2022-06-01T09:41:06.611Z</time>
      </trkpt>
      <trkpt lat="42.49804" lon="18.42151">
        <ele>179.483398</ele>
        <time>2022-06-01T09:41:07.603Z</time>
      </trkpt>
      <trkpt lat="42.49813" lon="18.42139">
        <ele>178.575602</ele>
        <time>2022-06-01T09:41:08.558Z</time>
      </trkpt>
      <trkpt lat="42.49821" lon="18.42128">
        <ele>177.6741</ele>
        <time>2022-06-01T09:41:09.593Z</time>
      </trkpt>
      <trkpt lat="42.4983" lon="18.42117">
        <ele>176.855119</ele>
        <time>2022-06-01T09:41:10.582Z</time>
      </trkpt>
      <trkpt lat="42.49838" lon="18.42107">
        <ele>176.14402</ele>
        <time>2022-06-01T09:41:11.599Z</time>
      </trkpt>
      <trkpt lat="42.49847" lon="18.42096">
        <ele>175.428215</ele>
        <time>2022-06-01T09:41:12.570Z</time>
      </trkpt>
      <trkpt lat="42.49857" lon="18.42087">
        <ele>174.718809</ele>
        <time>2022-06-01T09:41:13.582Z</time>
      </trkpt>
      <trkpt lat="42.49866" lon="18.42078">
        <ele>174.032112</ele>
        <time>2022-06-01T09:41:14.619Z</time>
      </trkpt>
      <trkpt lat="42.49874" lon="18.42069">
        <ele>173.378788</ele>
        <time>2022-06-01T09:41:15.579Z</time>
      </trkpt>
      <trkpt lat="42.49883" lon="18.42061">
        <ele>172.753381</ele>
        <time>2022-06-01T09:41:16.576Z</time>
      </trkpt>
      <trkpt lat="42.49891" lon="18.42053">
        <ele>172.147758</ele>
        <time>2022-06-01T09:41:17.575Z</time>
      </trkpt>
      <trkpt lat="42.49898" lon="18.42045">
        <ele>171.554006</ele>
        <time>2022-06-01T09:41:18.585Z</time>
      </trkpt>
      <trkpt lat="42.49906" lon="18.42037">
        <ele>170.970566</ele>
        <time>2022-06-01T09:41:19.584Z</time>
      </trkpt>
      <trkpt lat="42.49913" lon="18.42029">
        <ele>170.402264</ele>
        <time>2022-06-01T09:41:20.582Z</time>
      </trkpt>
      <trkpt lat="42.49921" lon="18.42022">
        <ele>169.843582</ele>
        <time>2022-06-01T09:41:21.572Z</time>
      </trkpt>
      <trkpt lat="42.49928" lon="18.42014">
        <ele>169.278004</ele>
        <time>2022-06-01T09:41:22.586Z</time>
      </trkpt>
      <trkpt lat="42.49936" lon="18.42006">
        <ele>168.702134</ele>
        <time>2022-06-01T09:41:23.590Z</time>
      </trkpt>
      <trkpt lat="42.49943" lon="18.41998">
        <ele>168.101407</ele>
        <time>2022-06-01T09:41:24.579Z</time>
      </trkpt>
      <trkpt lat="42.49951" lon="18.4199">
        <ele>167.492521</ele>
        <time>2022-06-01T09:41:25.551Z</time>
      </trkpt>
      <trkpt lat="42.49959" lon="18.41982">
        <ele>166.893222</ele>
        <time>2022-06-01T09:41:26.580Z</time>
      </trkpt>
      <trkpt lat="42.49967" lon="18.41973">
        <ele>166.296709</ele>
        <time>2022-06-01T09:41:27.563Z</time>
      </trkpt>
      <trkpt lat="42.49975" lon="18.41965">
        <ele>165.785438</ele>
        <time>2022-06-01T09:41:28.675Z</time>
      </trkpt>
      <trkpt lat="42.49982" lon="18.41956">
        <ele>165.311605</ele>
        <time>2022-06-01T09:41:29.578Z</time>
      </trkpt>
      <trkpt lat="42.4999" lon="18.41947">
        <ele>164.831956</ele>
        <time>2022-06-01T09:41:30.605Z</time>
      </trkpt>
      <trkpt lat="42.49998" lon="18.41938">
        <ele>164.34885</ele>
        <time>2022-06-01T09:41:31.587Z</time>
      </trkpt>
      <trkpt lat="42.50006" lon="18.41929">
        <ele>163.859912</ele>
        <time>2022-06-01T09:41:32.572Z</time>
      </trkpt>
      <trkpt lat="42.50014" lon="18.4192">
        <ele>163.366676</ele>
        <time>2022-06-01T09:41:33.589Z</time>
      </trkpt>
      <trkpt lat="42.50022" lon="18.41912">
        <ele>162.885102</ele>
        <time>2022-06-01T09:41:34.587Z</time>
      </trkpt>
      <trkpt lat="42.50031" lon="18.41903">
        <ele>162.395525</ele>
        <time>2022-06-01T09:41:35.586Z</time>
      </trkpt>
      <trkpt lat="42.50038" lon="18.41894">
        <ele>161.908758</ele>
        <time>2022-06-01T09:41:36.583Z</time>
      </trkpt>
      <trkpt lat="42.50046" lon="18.41885">
        <ele>161.42199</ele>
        <time>2022-06-01T09:41:37.576Z</time>
      </trkpt>
      <trkpt lat="42.50054" lon="18.41875">
        <ele>160.92581</ele>
        <time>2022-06-01T09:41:38.571Z</time>
      </trkpt>
      <trkpt lat="42.50063" lon="18.41866">
        <ele>160.4274</ele>
        <time>2022-06-01T09:41:39.580Z</time>
      </trkpt>
      <trkpt lat="42.50071" lon="18.41857">
        <ele>159.925743</ele>
        <time>2022-06-01T09:41:40.589Z</time>
      </trkpt>
      <trkpt lat="42.50078" lon="18.41847">
        <ele>159.431083</ele>
        <time>2022-06-01T09:41:41.571Z</time>
      </trkpt>
      <trkpt lat="42.50086" lon="18.41837">
        <ele>158.935178</ele>
        <time>2022-06-01T09:41:42.599Z</time>
      </trkpt>
      <trkpt lat="42.50094" lon="18.41827">
        <ele>158.432109</ele>
        <time>2022-06-01T09:41:43.570Z</time>
      </trkpt>
      <trkpt lat="42.50101" lon="18.41817">
        <ele>157.928376</ele>
        <time>2022-06-01T09:41:44.614Z</time>
      </trkpt>
      <trkpt lat="42.50109" lon="18.41806">
        <ele>157.464094</ele>
        <time>2022-06-01T09:41:45.575Z</time>
      </trkpt>
      <trkpt lat="42.50116" lon="18.41796">
        <ele>157.034799</ele>
        <time>2022-06-01T09:41:46.595Z</time>
      </trkpt>
      <trkpt lat="42.50123" lon="18.41785">
        <ele>156.612202</ele>
        <time>2022-06-01T09:41:47.591Z</time>
      </trkpt>
      <trkpt lat="42.50129" lon="18.41775">
        <ele>156.197351</ele>
        <time>2022-06-01T09:41:48.559Z</time>
      </trkpt>
      <trkpt lat="42.50136" lon="18.41765">
        <ele>155.778433</ele>
        <time>2022-06-01T09:41:49.593Z</time>
      </trkpt>
      <trkpt lat="42.50143" lon="18.41754">
        <ele>155.36713</ele>
        <time>2022-06-01T09:41:50.595Z</time>
      </trkpt>
      <trkpt lat="42.50149" lon="18.41744">
        <ele>154.957723</ele>
        <time>2022-06-01T09:41:51.584Z</time>
      </trkpt>
      <trkpt lat="42.50156" lon="18.41734">
        <ele>154.553282</ele>
        <time>2022-06-01T09:41:52.613Z</time>
      </trkpt>
      <trkpt lat="42.50162" lon="18.41724">
        <ele>154.146564</ele>
        <time>2022-06-01T09:41:53.579Z</time>
      </trkpt>
      <trkpt lat="42.50168" lon="18.41714">
        <ele>153.752044</ele>
        <time>2022-06-01T09:41:54.584Z</time>
      </trkpt>
      <trkpt lat="42.50175" lon="18.41704">
        <ele>153.354838</ele>
        <time>2022-06-01T09:41:55.608Z</time>
      </trkpt>
      <trkpt lat="42.50181" lon="18.41694">
        <ele>152.95219</ele>
        <time>2022-06-01T09:41:56.611Z</time>
      </trkpt>
      <trkpt lat="42.50188" lon="18.41684">
        <ele>152.557249</ele>
        <time>2022-06-01T09:41:57.565Z</time>
      </trkpt>
      <trkpt lat="42.50194" lon="18.41674">
        <ele>152.160441</ele>
        <time>2022-06-01T09:41:58.598Z</time>
      </trkpt>
      <trkpt lat="42.50201" lon="18.41664">
        <ele>151.760527</ele>
        <time>2022-06-01T09:41:59.622Z</time>
      </trkpt>
      <trkpt lat="42.50207" lon="18.41655">
        <ele>151.375062</ele>
        <time>2022-06-01T09:42:00.567Z</time>
      </trkpt>
      <trkpt lat="42.50213" lon="18.41645">
        <ele>150.996819</ele>
        <time>2022-06-01T09:42:01.557Z</time>
      </trkpt>
      <trkpt lat="42.50219" lon="18.41636">
        <ele>150.625793</ele>
        <time>2022-06-01T09:42:02.587Z</time>
      </trkpt>
      <trkpt lat="42.50232" lon="18.41619">
        <ele>150.245232</ele>
        <time>2022-06-01T09:42:04.594Z</time>
      </trkpt>
      <trkpt lat="42.50244" lon="18.41603">
        <ele>150.088266</ele>
        <time>2022-06-01T09:42:06.595Z</time>
      </trkpt>
      <trkpt lat="42.50256" lon="18.41586">
        <ele>149.937162</ele>
        <time>2022-06-01T09:42:08.583Z</time>
      </trkpt>
      <trkpt lat="42.50268" lon="18.41571">
        <ele>149.788194</ele>
        <time>2022-06-01T09:42:10.581Z</time>
      </trkpt>
      <trkpt lat="42.5028" lon="18.41555">
        <ele>149.642896</ele>
        <time>2022-06-01T09:42:12.593Z</time>
      </trkpt>
      <trkpt lat="42.50291" lon="18.41541">
        <ele>149.505424</ele>
        <time>2022-06-01T09:42:14.590Z</time>
      </trkpt>
      <trkpt lat="42.50302" lon="18.41527">
        <ele>149.374689</ele>
        <time>2022-06-01T09:42:16.569Z</time>
      </trkpt>
      <trkpt lat="42.50312" lon="18.41514">
        <ele>149.246965</ele>
        <time>2022-06-01T09:42:18.584Z</time>
      </trkpt>
      <trkpt lat="42.50323" lon="18.41501">
        <ele>149.116892</ele>
        <time>2022-06-01T09:42:20.585Z</time>
      </trkpt>
      <trkpt lat="42.50333" lon="18.41488">
        <ele>148.988591</ele>
        <time>2022-06-01T09:42:22.571Z</time>
      </trkpt>
      <trkpt lat="42.50343" lon="18.41475">
        <ele>148.867117</ele>
        <time>2022-06-01T09:42:24.588Z</time>
      </trkpt>
      <trkpt lat="42.50352" lon="18.41462">
        <ele>148.749766</ele>
        <time>2022-06-01T09:42:26.581Z</time>
      </trkpt>
      <trkpt lat="42.50361" lon="18.41449">
        <ele>148.842197</ele>
        <time>2022-06-01T09:42:28.588Z</time>
      </trkpt>
      <trkpt lat="42.50368" lon="18.41435">
        <ele>148.969618</ele>
        <time>2022-06-01T09:42:30.603Z</time>
      </trkpt>
      <trkpt lat="42.50376" lon="18.41422">
        <ele>149.093985</ele>
        <time>2022-06-01T09:42:32.593Z</time>
      </trkpt>
      <trkpt lat="42.50382" lon="18.41408">
        <ele>149.213681</ele>
        <time>2022-06-01T09:42:34.603Z</time>
      </trkpt>
      <trkpt lat="42.50388" lon="18.41394">
        <ele>149.333396</ele>
        <time>2022-06-01T09:42:36.605Z</time>
      </trkpt>
      <trkpt lat="42.50394" lon="18.41379">
        <ele>149.461699</ele>
        <time>2022-06-01T09:42:38.595Z</time>
      </trkpt>
      <trkpt lat="42.504" lon="18.41364">
        <ele>149.589089</ele>
        <time>2022-06-01T09:42:40.584Z</time>
      </trkpt>
      <trkpt lat="42.50404" lon="18.41349">
        <ele>149.704588</ele>
        <time>2022-06-01T09:42:42.617Z</time>
      </trkpt>
      <trkpt lat="42.50408" lon="18.41333">
        <ele>149.829168</ele>
        <time>2022-06-01T09:42:44.586Z</time>
      </trkpt>
      <trkpt lat="42.50411" lon="18.41317">
        <ele>149.951281</ele>
        <time>2022-06-01T09:42:46.595Z</time>
      </trkpt>
      <trkpt lat="42.50414" lon="18.41301">
        <ele>150.071987</ele>
        <time>2022-06-01T09:42:48.587Z</time>
      </trkpt>
      <trkpt lat="42.50416" lon="18.41286">
        <ele>150.18308</ele>
        <time>2022-06-01T09:42:50.593Z</time>
      </trkpt>
      <trkpt lat="42.50419" lon="18.41271">
        <ele>150.301774</ele>
        <time>2022-06-01T09:42:52.587Z</time>
      </trkpt>
      <trkpt lat="42.50422" lon="18.41254">
        <ele>150.431779</ele>
        <time>2022-06-01T09:42:54.572Z</time>
      </trkpt>
      <trkpt lat="42.50424" lon="18.41236">
        <ele>150.528149</ele>
        <time>2022-06-01T09:42:56.580Z</time>
      </trkpt>
      <trkpt lat="42.50427" lon="18.41218">
        <ele>150.494897</ele>
        <time>2022-06-01T09:42:58.610Z</time>
      </trkpt>
      <trkpt lat="42.50431" lon="18.41202">
        <ele>150.462696</ele>
        <time>2022-06-01T09:43:00.580Z</time>
      </trkpt>
      <trkpt lat="42.50435" lon="18.41185">
        <ele>150.430389</ele>
        <time>2022-06-01T09:43:02.583Z</time>
      </trkpt>
      <trkpt lat="42.5044" lon="18.41169">
        <ele>150.399214</ele>
        <time>2022-06-01T09:43:04.588Z</time>
      </trkpt>
      <trkpt lat="42.50445" lon="18.41154">
        <ele>150.367592</ele>
        <time>2022-06-01T09:43:06.586Z</time>
      </trkpt>
      <trkpt lat="42.5045" lon="18.4114">
        <ele>150.338358</ele>
        <time>2022-06-01T09:43:08.583Z</time>
      </trkpt>
      <trkpt lat="42.50456" lon="18.41126">
        <ele>150.309472</ele>
        <time>2022-06-01T09:43:10.621Z</time>
      </trkpt>
      <trkpt lat="42.50462" lon="18.41113">
        <ele>150.281125</ele>
        <time>2022-06-01T09:43:12.598Z</time>
      </trkpt>
      <trkpt lat="42.50467" lon="18.411">
        <ele>150.253608</ele>
        <time>2022-06-01T09:43:14.605Z</time>
      </trkpt>
      <trkpt lat="42.50474" lon="18.41088">
        <ele>150.225878</ele>
        <time>2022-06-01T09:43:16.586Z</time>
      </trkpt>
      <trkpt lat="42.50479" lon="18.41076">
        <ele>150.19928</ele>
        <time>2022-06-01T09:43:18.582Z</time>
      </trkpt>
      <trkpt lat="42.50485" lon="18.41064">
        <ele>150.172586</ele>
        <time>2022-06-01T09:43:20.584Z</time>
      </trkpt>
      <trkpt lat="42.50491" lon="18.41052">
        <ele>150.146198</ele>
        <time>2022-06-01T09:43:22.611Z</time>
      </trkpt>
      <trkpt lat="42.50496" lon="18.4104">
        <ele>150.120651</ele>
        <time>2022-06-01T09:43:24.595Z</time>
      </trkpt>
      <trkpt lat="42.50502" lon="18.41029">
        <ele>150.095605</ele>
        <time>2022-06-01T09:43:26.585Z</time>
      </trkpt>
      <trkpt lat="42.50507" lon="18.41018">
        <ele>150.00599</ele>
        <time>2022-06-01T09:43:28.621Z</time>
      </trkpt>
      <trkpt lat="42.50513" lon="18.41008">
        <ele>149.86252</ele>
        <time>2022-06-01T09:43:30.583Z</time>
      </trkpt>
      <trkpt lat="42.50518" lon="18.40998">
        <ele>149.723479</ele>
        <time>2022-06-01T09:43:32.617Z</time>
      </trkpt>
      <trkpt lat="42.50525" lon="18.40982">
        <ele>149.520605</ele>
        <time>2022-06-01T09:43:35.583Z</time>
      </trkpt>
      <trkpt lat="42.50531" lon="18.40966">
        <ele>149.315626</ele>
        <time>2022-06-01T09:43:38.577Z</time>
      </trkpt>
      <trkpt lat="42.50538" lon="18.40951">
        <ele>149.121744</ele>
        <time>2022-06-01T09:43:41.592Z</time>
      </trkpt>
      <trkpt lat="42.50543" lon="18.40938">
        <ele>148.950018</ele>
        <time>2022-06-01T09:43:44.602Z</time>
      </trkpt>
      <trkpt lat="42.50548" lon="18.40925">
        <ele>148.787217</ele>
        <time>2022-06-01T09:43:48.579Z</time>
      </trkpt>
      <trkpt lat="42.50552" lon="18.40914">
        <ele>148.644541</ele>
        <time>2022-06-01T09:43:51.598Z</time>
      </trkpt>
      <trkpt lat="42.50557" lon="18.40901">
        <ele>148.476219</ele>
        <time>2022-06-01T09:43:54.575Z</time>
      </trkpt>
      <trkpt lat="42.50561" lon="18.40886">
        <ele>148.293638</ele>
        <time>2022-06-01T09:43:57.593Z</time>
      </trkpt>
      <trkpt lat="42.50566" lon="18.4087">
        <ele>148.108481</ele>
        <time>2022-06-01T09:44:00.619Z</time>
      </trkpt>
      <trkpt lat="42.5057" lon="18.40855">
        <ele>147.923357</ele>
        <time>2022-06-01T09:44:03.582Z</time>
      </trkpt>
      <trkpt lat="42.50575" lon="18.40839">
        <ele>147.729737</ele>
        <time>2022-06-01T09:44:06.637Z</time>
      </trkpt>
      <trkpt lat="42.50579" lon="18.40823">
        <ele>147.539318</ele>
        <time>2022-06-01T09:44:09.592Z</time>
      </trkpt>
      <trkpt lat="42.50583" lon="18.40807">
        <ele>147.342516</ele>
        <time>2022-06-01T09:44:12.619Z</time>
      </trkpt>
      <trkpt lat="42.50586" lon="18.40795">
        <ele>147.208843</ele>
        <time>2022-06-01T09:44:14.593Z</time>
      </trkpt>
      <trkpt lat="42.50591" lon="18.40778">
        <ele>147.008734</ele>
        <time>2022-06-01T09:44:17.576Z</time>
      </trkpt>
      <trkpt lat="42.50595" lon="18.40767">
        <ele>146.872671</ele>
        <time>2022-06-01T09:44:19.614Z</time>
      </trkpt>
      <trkpt lat="42.50598" lon="18.40754">
        <ele>146.729409</ele>
        <time>2022-06-01T09:44:21.577Z</time>
      </trkpt>
      <trkpt lat="42.50602" lon="18.40742">
        <ele>146.58573</ele>
        <time>2022-06-01T09:44:23.586Z</time>
      </trkpt>
      <trkpt lat="42.50604" lon="18.4073">
        <ele>146.448302</ele>
        <time>2022-06-01T09:44:25.577Z</time>
      </trkpt>
      <trkpt lat="42.50607" lon="18.40718">
        <ele>146.31065</ele>
        <time>2022-06-01T09:44:27.591Z</time>
      </trkpt>
      <trkpt lat="42.50609" lon="18.40706">
        <ele>146.171764</ele>
        <time>2022-06-01T09:44:29.587Z</time>
      </trkpt>
      <trkpt lat="42.50612" lon="18.40694">
        <ele>146.031577</ele>
        <time>2022-06-01T09:44:31.595Z</time>
      </trkpt>
      <trkpt lat="42.50615" lon="18.40681">
        <ele>145.888852</ele>
        <time>2022-06-01T09:44:33.602Z</time>
      </trkpt>
      <trkpt lat="42.50618" lon="18.40669">
        <ele>145.750276</ele>
        <time>2022-06-01T09:44:35.580Z</time>
      </trkpt>
      <trkpt lat="42.50621" lon="18.40657">
        <ele>145.61411</ele>
        <time>2022-06-01T09:44:37.582Z</time>
      </trkpt>
      <trkpt lat="42.50623" lon="18.40645">
        <ele>145.472846</ele>
        <time>2022-06-01T09:44:39.627Z</time>
      </trkpt>
      <trkpt lat="42.50625" lon="18.40631">
        <ele>145.323068</ele>
        <time>2022-06-01T09:44:41.597Z</time>
      </trkpt>
      <trkpt lat="42.50626" lon="18.40618">
        <ele>145.178511</ele>
        <time>2022-06-01T09:44:43.586Z</time>
      </trkpt>
      <trkpt lat="42.50627" lon="18.40605">
        <ele>145.032576</ele>
        <time>2022-06-01T09:44:45.591Z</time>
      </trkpt>
      <trkpt lat="42.50628" lon="18.40591">
        <ele>144.88591</ele>
        <time>2022-06-01T09:44:47.590Z</time>
      </trkpt>
      <trkpt lat="42.50627" lon="18.40578">
        <ele>144.738204</ele>
        <time>2022-06-01T09:44:49.586Z</time>
      </trkpt>
      <trkpt lat="42.50627" lon="18.40565">
        <ele>144.568211</ele>
        <time>2022-06-01T09:44:51.639Z</time>
      </trkpt>
      <trkpt lat="42.50626" lon="18.40551">
        <ele>144.377988</ele>
        <time>2022-06-01T09:44:53.591Z</time>
      </trkpt>
      <trkpt lat="42.50624" lon="18.40538">
        <ele>144.183732</ele>
        <time>2022-06-01T09:44:55.582Z</time>
      </trkpt>
      <trkpt lat="42.50622" lon="18.40525">
        <ele>143.986681</ele>
        <time>2022-06-01T09:44:57.560Z</time>
      </trkpt>
      <trkpt lat="42.50619" lon="18.40511">
        <ele>143.781557</ele>
        <time>2022-06-01T09:44:59.581Z</time>
      </trkpt>
      <trkpt lat="42.50615" lon="18.40497">
        <ele>143.568813</ele>
        <time>2022-06-01T09:45:01.583Z</time>
      </trkpt>
      <trkpt lat="42.50611" lon="18.40483">
        <ele>143.353206</ele>
        <time>2022-06-01T09:45:03.581Z</time>
      </trkpt>
      <trkpt lat="42.50607" lon="18.40469">
        <ele>143.136368</ele>
        <time>2022-06-01T09:45:05.587Z</time>
      </trkpt>
      <trkpt lat="42.50604" lon="18.40455">
        <ele>142.923474</ele>
        <time>2022-06-01T09:45:07.578Z</time>
      </trkpt>
      <trkpt lat="42.50601" lon="18.40441">
        <ele>142.711728</ele>
        <time>2022-06-01T09:45:09.586Z</time>
      </trkpt>
      <trkpt lat="42.50598" lon="18.40427">
        <ele>142.499149</ele>
        <time>2022-06-01T09:45:11.567Z</time>
      </trkpt>
      <trkpt lat="42.50595" lon="18.40413">
        <ele>142.292097</ele>
        <time>2022-06-01T09:45:13.617Z</time>
      </trkpt>
      <trkpt lat="42.50592" lon="18.40398">
        <ele>142.07359</ele>
        <time>2022-06-01T09:45:15.585Z</time>
      </trkpt>
      <trkpt lat="42.5059" lon="18.40383">
        <ele>141.852805</ele>
        <time>2022-06-01T09:45:17.588Z</time>
      </trkpt>
      <trkpt lat="42.50589" lon="18.40367">
        <ele>141.628304</ele>
        <time>2022-06-01T09:45:19.585Z</time>
      </trkpt>
      <trkpt lat="42.50588" lon="18.40352">
        <ele>141.409002</ele>
        <time>2022-06-01T09:45:21.665Z</time>
      </trkpt>
      <trkpt lat="42.50587" lon="18.40337">
        <ele>141.19207</ele>
        <time>2022-06-01T09:45:23.585Z</time>
      </trkpt>
      <trkpt lat="42.50587" lon="18.40323">
        <ele>140.808452</ele>
        <time>2022-06-01T09:45:25.590Z</time>
      </trkpt>
      <trkpt lat="42.50587" lon="18.40307">
        <ele>140.372972</ele>
        <time>2022-06-01T09:45:27.626Z</time>
      </trkpt>
      <trkpt lat="42.50589" lon="18.40293">
        <ele>139.952692</ele>
        <time>2022-06-01T09:45:29.581Z</time>
      </trkpt>
      <trkpt lat="42.5059" lon="18.4028">
        <ele>139.596018</ele>
        <time>2022-06-01T09:45:31.599Z</time>
      </trkpt>
      <trkpt lat="42.50609" lon="18.40241">
        <ele>138.256257</ele>
        <time>2022-06-01T09:46:02.695Z</time>
      </trkpt>
      <trkpt lat="42.50614" lon="18.40229">
        <ele>137.856052</ele>
        <time>2022-06-01T09:46:04.590Z</time>
      </trkpt>
      <trkpt lat="42.5062" lon="18.40217">
        <ele>137.434318</ele>
        <time>2022-06-01T09:46:06.566Z</time>
      </trkpt>
      <trkpt lat="42.50626" lon="18.40206">
        <ele>137.05643</ele>
        <time>2022-06-01T09:46:08.563Z</time>
      </trkpt>
      <trkpt lat="42.50631" lon="18.40196">
        <ele>136.69217</ele>
        <time>2022-06-01T09:46:10.564Z</time>
      </trkpt>
      <trkpt lat="42.50636" lon="18.40185">
        <ele>136.334559</ele>
        <time>2022-06-01T09:46:12.550Z</time>
      </trkpt>
      <trkpt lat="42.50641" lon="18.40175">
        <ele>135.974827</ele>
        <time>2022-06-01T09:46:14.563Z</time>
      </trkpt>
      <trkpt lat="42.50647" lon="18.40165">
        <ele>135.621266</ele>
        <time>2022-06-01T09:46:16.566Z</time>
      </trkpt>
      <trkpt lat="42.50654" lon="18.40157">
        <ele>135.268087</ele>
        <time>2022-06-01T09:46:18.576Z</time>
      </trkpt>
      <trkpt lat="42.50661" lon="18.40149">
        <ele>134.909898</ele>
        <time>2022-06-01T09:46:20.621Z</time>
      </trkpt>
      <trkpt lat="42.50668" lon="18.40141">
        <ele>134.53427</ele>
        <time>2022-06-01T09:46:22.638Z</time>
      </trkpt>
      <trkpt lat="42.50678" lon="18.40128">
        <ele>134.027391</ele>
        <time>2022-06-01T09:46:25.626Z</time>
      </trkpt>
      <trkpt lat="42.50685" lon="18.40119">
        <ele>133.678714</ele>
        <time>2022-06-01T09:46:27.602Z</time>
      </trkpt>
      <trkpt lat="42.50691" lon="18.40108">
        <ele>133.295252</ele>
        <time>2022-06-01T09:46:29.621Z</time>
      </trkpt>
      <trkpt lat="42.50698" lon="18.40096">
        <ele>132.916262</ele>
        <time>2022-06-01T09:46:31.595Z</time>
      </trkpt>
      <trkpt lat="42.50703" lon="18.40085">
        <ele>132.545233</ele>
        <time>2022-06-01T09:46:33.602Z</time>
      </trkpt>
      <trkpt lat="42.50708" lon="18.40072">
        <ele>132.157914</ele>
        <time>2022-06-01T09:46:35.600Z</time>
      </trkpt>
      <trkpt lat="42.50712" lon="18.4006">
        <ele>131.788862</ele>
        <time>2022-06-01T09:46:37.598Z</time>
      </trkpt>
      <trkpt lat="42.50717" lon="18.40047">
        <ele>131.401427</ele>
        <time>2022-06-01T09:46:40.565Z</time>
      </trkpt>
      <trkpt lat="42.50738" lon="18.40049">
        <ele>130.659233</ele>
        <time>2022-06-01T09:47:42.576Z</time>
      </trkpt>
      <trkpt lat="42.50747" lon="18.4005">
        <ele>130.30297</ele>
        <time>2022-06-01T09:47:47.561Z</time>
      </trkpt>
      <trkpt lat="42.50757" lon="18.4005">
        <ele>129.967235</ele>
        <time>2022-06-01T09:47:51.550Z</time>
      </trkpt>
      <trkpt lat="42.50766" lon="18.40044">
        <ele>129.587897</ele>
        <time>2022-06-01T09:47:57.602Z</time>
      </trkpt>
      <trkpt lat="42.50769" lon="18.4003">
        <ele>129.202379</ele>
        <time>2022-06-01T09:48:02.641Z</time>
      </trkpt>
      <trkpt lat="42.50768" lon="18.40015">
        <ele>128.795638</ele>
        <time>2022-06-01T09:48:07.601Z</time>
      </trkpt>
      <trkpt lat="42.50765" lon="18.40003">
        <ele>128.45592</ele>
        <time>2022-06-01T09:48:11.582Z</time>
      </trkpt>
      <trkpt lat="42.50762" lon="18.39991">
        <ele>128.112687</ele>
        <time>2022-06-01T09:48:15.575Z</time>
      </trkpt>
      <trkpt lat="42.50762" lon="18.39978">
        <ele>127.765488</ele>
        <time>2022-06-01T09:48:19.610Z</time>
      </trkpt>
      <trkpt lat="42.50762" lon="18.39963">
        <ele>127.690394</ele>
        <time>2022-06-01T09:48:23.580Z</time>
      </trkpt>
      <trkpt lat="42.50763" lon="18.39949">
        <ele>127.817274</ele>
        <time>2022-06-01T09:48:27.573Z</time>
      </trkpt>
      <trkpt lat="42.50764" lon="18.39935">
        <ele>127.93822</ele>
        <time>2022-06-01T09:48:31.593Z</time>
      </trkpt>
      <trkpt lat="42.50767" lon="18.39922">
        <ele>128.058198</ele>
        <time>2022-06-01T09:48:35.622Z</time>
      </trkpt>
      <trkpt lat="42.50771" lon="18.39908">
        <ele>128.192909</ele>
        <time>2022-06-01T09:48:39.598Z</time>
      </trkpt>
      <trkpt lat="42.50774" lon="18.39893">
        <ele>128.329444</ele>
        <time>2022-06-01T09:48:43.589Z</time>
      </trkpt>
      <trkpt lat="42.50778" lon="18.3988">
        <ele>128.452167</ele>
        <time>2022-06-01T09:48:47.592Z</time>
      </trkpt>
      <trkpt lat="42.5078" lon="18.39864">
        <ele>128.592174</ele>
        <time>2022-06-01T09:48:51.587Z</time>
      </trkpt>
      <trkpt lat="42.50783" lon="18.39849">
        <ele>128.728482</ele>
        <time>2022-06-01T09:48:55.582Z</time>
      </trkpt>
      <trkpt lat="42.50785" lon="18.39834">
        <ele>128.864789</ele>
        <time>2022-06-01T09:48:59.599Z</time>
      </trkpt>
      <trkpt lat="42.50787" lon="18.39822">
        <ele>128.975813</ele>
        <time>2022-06-01T09:49:03.622Z</time>
      </trkpt>
      <trkpt lat="42.5079" lon="18.39808">
        <ele>129.105752</ele>
        <time>2022-06-01T09:49:08.601Z</time>
      </trkpt>
      <trkpt lat="42.50792" lon="18.39794">
        <ele>129.232943</ele>
        <time>2022-06-01T09:49:12.581Z</time>
      </trkpt>
      <trkpt lat="42.50796" lon="18.39778">
        <ele>129.381367</ele>
        <time>2022-06-01T09:49:16.590Z</time>
      </trkpt>
      <trkpt lat="42.508" lon="18.39763">
        <ele>129.520659</ele>
        <time>2022-06-01T09:49:20.624Z</time>
      </trkpt>
      <trkpt lat="42.50805" lon="18.39749">
        <ele>129.65609</ele>
        <time>2022-06-01T09:49:24.592Z</time>
      </trkpt>
      <trkpt lat="42.50811" lon="18.39736">
        <ele>129.739904</ele>
        <time>2022-06-01T09:49:29.566Z</time>
      </trkpt>
      <trkpt lat="42.50818" lon="18.39727">
        <ele>129.650176</ele>
        <time>2022-06-01T09:49:33.571Z</time>
      </trkpt>
      <trkpt lat="42.50826" lon="18.39717">
        <ele>129.548168</ele>
        <time>2022-06-01T09:49:37.588Z</time>
      </trkpt>
      <trkpt lat="42.50834" lon="18.39706">
        <ele>129.443421</ele>
        <time>2022-06-01T09:49:41.571Z</time>
      </trkpt>
      <trkpt lat="42.50841" lon="18.39696">
        <ele>129.346782</ele>
        <time>2022-06-01T09:49:45.596Z</time>
      </trkpt>
      <trkpt lat="42.50848" lon="18.39683">
        <ele>129.239561</ele>
        <time>2022-06-01T09:49:49.599Z</time>
      </trkpt>
      <trkpt lat="42.50852" lon="18.39671">
        <ele>129.152463</ele>
        <time>2022-06-01T09:49:52.580Z</time>
      </trkpt>
      <trkpt lat="42.50856" lon="18.3966">
        <ele>129.065973</ele>
        <time>2022-06-01T09:49:55.586Z</time>
      </trkpt>
      <trkpt lat="42.50861" lon="18.39646">
        <ele>128.958165</ele>
        <time>2022-06-01T09:49:59.584Z</time>
      </trkpt>
      <trkpt lat="42.50865" lon="18.39634">
        <ele>128.872639</ele>
        <time>2022-06-01T09:50:02.592Z</time>
      </trkpt>
      <trkpt lat="42.50869" lon="18.39622">
        <ele>128.78729</ele>
        <time>2022-06-01T09:50:05.615Z</time>
      </trkpt>
      <trkpt lat="42.50872" lon="18.39608">
        <ele>128.682455</ele>
        <time>2022-06-01T09:50:09.595Z</time>
      </trkpt>
      <trkpt lat="42.50875" lon="18.39592">
        <ele>128.572122</ele>
        <time>2022-06-01T09:50:13.615Z</time>
      </trkpt>
      <trkpt lat="42.50876" lon="18.39576">
        <ele>128.464798</ele>
        <time>2022-06-01T09:50:17.574Z</time>
      </trkpt>
      <trkpt lat="42.50878" lon="18.39562">
        <ele>128.368686</ele>
        <time>2022-06-01T09:50:21.579Z</time>
      </trkpt>
      <trkpt lat="42.5088" lon="18.3955">
        <ele>128.279478</ele>
        <time>2022-06-01T09:50:25.576Z</time>
      </trkpt>
      <trkpt lat="42.50883" lon="18.39535">
        <ele>128.176206</ele>
        <time>2022-06-01T09:50:30.586Z</time>
      </trkpt>
      <trkpt lat="42.50888" lon="18.39523">
        <ele>128.06057</ele>
        <time>2022-06-01T09:50:34.576Z</time>
      </trkpt>
      <trkpt lat="42.50893" lon="18.3951">
        <ele>127.844331</ele>
        <time>2022-06-01T09:50:38.574Z</time>
      </trkpt>
      <trkpt lat="42.50899" lon="18.39498">
        <ele>127.621957</ele>
        <time>2022-06-01T09:50:42.577Z</time>
      </trkpt>
      <trkpt lat="42.50905" lon="18.39487">
        <ele>127.425906</ele>
        <time>2022-06-01T09:50:46.605Z</time>
      </trkpt>
      <trkpt lat="42.5091" lon="18.39476">
        <ele>127.223849</ele>
        <time>2022-06-01T09:50:51.622Z</time>
      </trkpt>
      <trkpt lat="42.50915" lon="18.39466">
        <ele>127.036306</ele>
        <time>2022-06-01T09:50:55.575Z</time>
      </trkpt>
      <trkpt lat="42.5092" lon="18.39455">
        <ele>126.84076</ele>
        <time>2022-06-01T09:50:59.586Z</time>
      </trkpt>
      <trkpt lat="42.50924" lon="18.39443">
        <ele>126.645228</ele>
        <time>2022-06-01T09:51:03.579Z</time>
      </trkpt>
      <trkpt lat="42.50928" lon="18.39429">
        <ele>126.425223</ele>
        <time>2022-06-01T09:51:08.577Z</time>
      </trkpt>
      <trkpt lat="42.50934" lon="18.39417">
        <ele>126.202189</ele>
        <time>2022-06-01T09:51:13.618Z</time>
      </trkpt>
      <trkpt lat="42.50939" lon="18.39404">
        <ele>125.986555</ele>
        <time>2022-06-01T09:51:18.586Z</time>
      </trkpt>
      <trkpt lat="42.50943" lon="18.39391">
        <ele>125.775864</ele>
        <time>2022-06-01T09:51:23.601Z</time>
      </trkpt>
      <trkpt lat="42.50948" lon="18.39379">
        <ele>125.572411</ele>
        <time>2022-06-01T09:51:28.579Z</time>
      </trkpt>
      <trkpt lat="42.50954" lon="18.39367">
        <ele>125.348291</ele>
        <time>2022-06-01T09:51:33.589Z</time>
      </trkpt>
      <trkpt lat="42.5096" lon="18.39355">
        <ele>125.137203</ele>
        <time>2022-06-01T09:51:38.592Z</time>
      </trkpt>
      <trkpt lat="42.50966" lon="18.39344">
        <ele>124.929297</ele>
        <time>2022-06-01T09:51:43.584Z</time>
      </trkpt>
      <trkpt lat="42.50973" lon="18.39333">
        <ele>124.711499</ele>
        <time>2022-06-01T09:51:48.564Z</time>
      </trkpt>
      <trkpt lat="42.50979" lon="18.39324">
        <ele>124.527278</ele>
        <time>2022-06-01T09:51:52.588Z</time>
      </trkpt>
      <trkpt lat="42.50986" lon="18.39312">
        <ele>124.284479</ele>
        <time>2022-06-01T09:51:57.605Z</time>
      </trkpt>
      <trkpt lat="42.50992" lon="18.39303">
        <ele>124.074072</ele>
        <time>2022-06-01T09:52:01.590Z</time>
      </trkpt>
      <trkpt lat="42.50998" lon="18.39292">
        <ele>123.841413</ele>
        <time>2022-06-01T09:52:06.595Z</time>
      </trkpt>
      <trkpt lat="42.51004" lon="18.3928">
        <ele>123.59373</ele>
        <time>2022-06-01T09:52:11.581Z</time>
      </trkpt>
      <trkpt lat="42.51011" lon="18.39269">
        <ele>123.366438</ele>
        <time>2022-06-01T09:52:15.590Z</time>
      </trkpt>
      <trkpt lat="42.51017" lon="18.39259">
        <ele>123.147051</ele>
        <time>2022-06-01T09:52:19.587Z</time>
      </trkpt>
      <trkpt lat="42.51022" lon="18.39249">
        <ele>122.923918</ele>
        <time>2022-06-01T09:52:23.598Z</time>
      </trkpt>
      <trkpt lat="42.51028" lon="18.39238">
        <ele>122.698068</ele>
        <time>2022-06-01T09:52:27.619Z</time>
      </trkpt>
      <trkpt lat="42.51034" lon="18.39228">
        <ele>122.485759</ele>
        <time>2022-06-01T09:52:31.564Z</time>
      </trkpt>
      <trkpt lat="42.51039" lon="18.39217">
        <ele>122.273225</ele>
        <time>2022-06-01T09:52:35.557Z</time>
      </trkpt>
      <trkpt lat="42.51044" lon="18.39205">
        <ele>122.03194</ele>
        <time>2022-06-01T09:52:40.553Z</time>
      </trkpt>
      <trkpt lat="42.5105" lon="18.39194">
        <ele>121.801975</ele>
        <time>2022-06-01T09:52:45.543Z</time>
      </trkpt>
      <trkpt lat="42.51057" lon="18.39183">
        <ele>121.556867</ele>
        <time>2022-06-01T09:52:50.558Z</time>
      </trkpt>
      <trkpt lat="42.51063" lon="18.39172">
        <ele>121.336395</ele>
        <time>2022-06-01T09:52:54.557Z</time>
      </trkpt>
      <trkpt lat="42.51069" lon="18.39162">
        <ele>121.106739</ele>
        <time>2022-06-01T09:52:58.574Z</time>
      </trkpt>
      <trkpt lat="42.51076" lon="18.39152">
        <ele>120.870926</ele>
        <time>2022-06-01T09:53:02.562Z</time>
      </trkpt>
      <trkpt lat="42.51083" lon="18.39141">
        <ele>120.628281</ele>
        <time>2022-06-01T09:53:06.569Z</time>
      </trkpt>
      <trkpt lat="42.51088" lon="18.3913">
        <ele>120.413273</ele>
        <time>2022-06-01T09:53:10.558Z</time>
      </trkpt>
      <trkpt lat="42.51094" lon="18.39119">
        <ele>120.1641</ele>
        <time>2022-06-01T09:53:14.606Z</time>
      </trkpt>
      <trkpt lat="42.511" lon="18.39107">
        <ele>119.917004</ele>
        <time>2022-06-01T09:53:18.582Z</time>
      </trkpt>
      <trkpt lat="42.51106" lon="18.39097">
        <ele>119.683218</ele>
        <time>2022-06-01T09:53:23.598Z</time>
      </trkpt>
      <trkpt lat="42.5111" lon="18.39086">
        <ele>119.460889</ele>
        <time>2022-06-01T09:53:28.578Z</time>
      </trkpt>
      <trkpt lat="42.51116" lon="18.39076">
        <ele>119.225377</ele>
        <time>2022-06-01T09:53:33.598Z</time>
      </trkpt>
      <trkpt lat="42.51123" lon="18.39064">
        <ele>118.953582</ele>
        <time>2022-06-01T09:53:38.631Z</time>
      </trkpt>
      <trkpt lat="42.51128" lon="18.39053">
        <ele>118.716924</ele>
        <time>2022-06-01T09:53:42.597Z</time>
      </trkpt>
      <trkpt lat="42.51135" lon="18.39042">
        <ele>118.467164</ele>
        <time>2022-06-01T09:53:47.575Z</time>
      </trkpt>
      <trkpt lat="42.51141" lon="18.39031">
        <ele>118.205825</ele>
        <time>2022-06-01T09:53:52.560Z</time>
      </trkpt>
      <trkpt lat="42.51146" lon="18.3902">
        <ele>117.968376</ele>
        <time>2022-06-01T09:53:57.613Z</time>
      </trkpt>
      <trkpt lat="42.51151" lon="18.39009">
        <ele>117.743039</ele>
        <time>2022-06-01T09:54:02.601Z</time>
      </trkpt>
      <trkpt lat="42.51156" lon="18.38997">
        <ele>117.496616</ele>
        <time>2022-06-01T09:54:07.581Z</time>
      </trkpt>
      <trkpt lat="42.51161" lon="18.38985">
        <ele>117.239129</ele>
        <time>2022-06-01T09:54:13.585Z</time>
      </trkpt>
      <trkpt lat="42.51167" lon="18.38972">
        <ele>116.976244</ele>
        <time>2022-06-01T09:54:19.593Z</time>
      </trkpt>
      <trkpt lat="42.51172" lon="18.38959">
        <ele>116.71238</ele>
        <time>2022-06-01T09:54:25.582Z</time>
      </trkpt>
      <trkpt lat="42.51176" lon="18.38948">
        <ele>116.484914</ele>
        <time>2022-06-01T09:54:29.590Z</time>
      </trkpt>
      <trkpt lat="42.51182" lon="18.38938">
        <ele>116.240987</ele>
        <time>2022-06-01T09:54:34.572Z</time>
      </trkpt>
      <trkpt lat="42.51188" lon="18.38927">
        <ele>116.002824</ele>
        <time>2022-06-01T09:54:39.586Z</time>
      </trkpt>
      <trkpt lat="42.51193" lon="18.38916">
        <ele>115.818603</ele>
        <time>2022-06-01T09:54:43.594Z</time>
      </trkpt>
      <trkpt lat="42.51198" lon="18.38905">
        <ele>115.64911</ele>
        <time>2022-06-01T09:54:48.588Z</time>
      </trkpt>
      <trkpt lat="42.51203" lon="18.38894">
        <ele>115.4816</ele>
        <time>2022-06-01T09:54:53.593Z</time>
      </trkpt>
      <trkpt lat="42.51207" lon="18.3888">
        <ele>115.295176</ele>
        <time>2022-06-01T09:54:59.590Z</time>
      </trkpt>
      <trkpt lat="42.51211" lon="18.38867">
        <ele>115.124066</ele>
        <time>2022-06-01T09:55:04.582Z</time>
      </trkpt>
      <trkpt lat="42.51215" lon="18.38856">
        <ele>114.964682</ele>
        <time>2022-06-01T09:55:09.613Z</time>
      </trkpt>
      <trkpt lat="42.5122" lon="18.38845">
        <ele>114.798541</ele>
        <time>2022-06-01T09:55:14.594Z</time>
      </trkpt>
      <trkpt lat="42.51225" lon="18.38831">
        <ele>114.598611</ele>
        <time>2022-06-01T09:55:19.610Z</time>
      </trkpt>
      <trkpt lat="42.51231" lon="18.38819">
        <ele>114.416073</ele>
        <time>2022-06-01T09:55:23.635Z</time>
      </trkpt>
      <trkpt lat="42.51236" lon="18.38808">
        <ele>114.253608</ele>
        <time>2022-06-01T09:55:27.600Z</time>
      </trkpt>
      <trkpt lat="42.51241" lon="18.38794">
        <ele>114.062416</ele>
        <time>2022-06-01T09:55:32.604Z</time>
      </trkpt>
      <trkpt lat="42.51246" lon="18.38782">
        <ele>113.887708</ele>
        <time>2022-06-01T09:55:37.605Z</time>
      </trkpt>
      <trkpt lat="42.5125" lon="18.38771">
        <ele>113.725295</ele>
        <time>2022-06-01T09:55:42.579Z</time>
      </trkpt>
      <trkpt lat="42.51255" lon="18.38757">
        <ele>113.538027</ele>
        <time>2022-06-01T09:55:47.587Z</time>
      </trkpt>
      <trkpt lat="42.51256" lon="18.38745">
        <ele>113.380508</ele>
        <time>2022-06-01T09:55:51.595Z</time>
      </trkpt>
      <trkpt lat="42.51255" lon="18.38731">
        <ele>113.206451</ele>
        <time>2022-06-01T09:55:56.584Z</time>
      </trkpt>
      <trkpt lat="42.51252" lon="18.38717">
        <ele>113.025303</ele>
        <time>2022-06-01T09:56:01.600Z</time>
      </trkpt>
      <trkpt lat="42.51252" lon="18.38704">
        <ele>112.856435</ele>
        <time>2022-06-01T09:56:06.593Z</time>
      </trkpt>
      <trkpt lat="42.51254" lon="18.3869">
        <ele>112.618957</ele>
        <time>2022-06-01T09:56:11.601Z</time>
      </trkpt>
      <trkpt lat="42.51257" lon="18.38678">
        <ele>112.39052</ele>
        <time>2022-06-01T09:56:15.581Z</time>
      </trkpt>
      <trkpt lat="42.51261" lon="18.38666">
        <ele>112.16529</ele>
        <time>2022-06-01T09:56:19.590Z</time>
      </trkpt>
      <trkpt lat="42.51266" lon="18.38654">
        <ele>111.920931</ele>
        <time>2022-06-01T09:56:24.612Z</time>
      </trkpt>
      <trkpt lat="42.51271" lon="18.38642">
        <ele>111.681863</ele>
        <time>2022-06-01T09:56:29.590Z</time>
      </trkpt>
      <trkpt lat="42.51276" lon="18.38631">
        <ele>111.440064</ele>
        <time>2022-06-01T09:56:34.587Z</time>
      </trkpt>
      <trkpt lat="42.51282" lon="18.38619">
        <ele>111.185034</ele>
        <time>2022-06-01T09:56:40.580Z</time>
      </trkpt>
      <trkpt lat="42.51287" lon="18.38607">
        <ele>110.952933</ele>
        <time>2022-06-01T09:56:45.576Z</time>
      </trkpt>
      <trkpt lat="42.51293" lon="18.38595">
        <ele>110.707156</ele>
        <time>2022-06-01T09:56:50.587Z</time>
      </trkpt>
      <trkpt lat="42.51298" lon="18.38582">
        <ele>110.452372</ele>
        <time>2022-06-01T09:56:55.598Z</time>
      </trkpt>
      <trkpt lat="42.51302" lon="18.38571">
        <ele>110.22394</ele>
        <time>2022-06-01T09:57:00.580Z</time>
      </trkpt>
      <trkpt lat="42.51306" lon="18.3856">
        <ele>110.006503</ele>
        <time>2022-06-01T09:57:05.589Z</time>
      </trkpt>
      <trkpt lat="42.51311" lon="18.38549">
        <ele>109.771122</ele>
        <time>2022-06-01T09:57:10.576Z</time>
      </trkpt>
      <trkpt lat="42.51316" lon="18.38536">
        <ele>109.533821</ele>
        <time>2022-06-01T09:57:15.591Z</time>
      </trkpt>
      <trkpt lat="42.51321" lon="18.38524">
        <ele>109.282803</ele>
        <time>2022-06-01T09:57:20.592Z</time>
      </trkpt>
      <trkpt lat="42.51325" lon="18.38513">
        <ele>109.056463</ele>
        <time>2022-06-01T09:57:25.595Z</time>
      </trkpt>
      <trkpt lat="42.5133" lon="18.38501">
        <ele>108.824363</ele>
        <time>2022-06-01T09:57:30.597Z</time>
      </trkpt>
      <trkpt lat="42.51336" lon="18.3849">
        <ele>108.590587</ele>
        <time>2022-06-01T09:57:35.599Z</time>
      </trkpt>
      <trkpt lat="42.51342" lon="18.38479">
        <ele>108.45193</ele>
        <time>2022-06-01T09:57:40.580Z</time>
      </trkpt>
      <trkpt lat="42.51348" lon="18.38468">
        <ele>108.347466</ele>
        <time>2022-06-01T09:57:45.584Z</time>
      </trkpt>
      <trkpt lat="42.51354" lon="18.38457">
        <ele>108.248986</ele>
        <time>2022-06-01T09:57:50.577Z</time>
      </trkpt>
      <trkpt lat="42.51358" lon="18.38447">
        <ele>108.154726</ele>
        <time>2022-06-01T09:57:54.598Z</time>
      </trkpt>
      <trkpt lat="42.51363" lon="18.38435">
        <ele>108.055564</ele>
        <time>2022-06-01T09:57:59.754Z</time>
      </trkpt>
      <trkpt lat="42.51369" lon="18.38424">
        <ele>107.950532</ele>
        <time>2022-06-01T09:58:04.579Z</time>
      </trkpt>
      <trkpt lat="42.51375" lon="18.38414">
        <ele>107.852662</ele>
        <time>2022-06-01T09:58:08.577Z</time>
      </trkpt>
      <trkpt lat="42.51381" lon="18.38402">
        <ele>107.747598</ele>
        <time>2022-06-01T09:58:12.607Z</time>
      </trkpt>
      <trkpt lat="42.51386" lon="18.3839">
        <ele>107.638481</ele>
        <time>2022-06-01T09:58:16.584Z</time>
      </trkpt>
      <trkpt lat="42.51392" lon="18.38379">
        <ele>107.532823</ele>
        <time>2022-06-01T09:58:20.579Z</time>
      </trkpt>
      <trkpt lat="42.51398" lon="18.38367">
        <ele>107.419601</ele>
        <time>2022-06-01T09:58:24.590Z</time>
      </trkpt>
      <trkpt lat="42.51405" lon="18.38353">
        <ele>107.296788</ele>
        <time>2022-06-01T09:58:28.574Z</time>
      </trkpt>
      <trkpt lat="42.5141" lon="18.38342">
        <ele>107.197746</ele>
        <time>2022-06-01T09:58:31.597Z</time>
      </trkpt>
      <trkpt lat="42.51415" lon="18.38331">
        <ele>107.100136</ele>
        <time>2022-06-01T09:58:34.652Z</time>
      </trkpt>
      <trkpt lat="42.5142" lon="18.3832">
        <ele>106.999824</ele>
        <time>2022-06-01T09:58:37.592Z</time>
      </trkpt>
      <trkpt lat="42.51425" lon="18.38308">
        <ele>106.897098</ele>
        <time>2022-06-01T09:58:40.619Z</time>
      </trkpt>
      <trkpt lat="42.5143" lon="18.38296">
        <ele>106.792266</ele>
        <time>2022-06-01T09:58:43.578Z</time>
      </trkpt>
      <trkpt lat="42.51434" lon="18.38284">
        <ele>106.690381</ele>
        <time>2022-06-01T09:58:46.598Z</time>
      </trkpt>
      <trkpt lat="42.51438" lon="18.38271">
        <ele>106.771845</ele>
        <time>2022-06-01T09:58:49.579Z</time>
      </trkpt>
      <trkpt lat="42.51442" lon="18.38259">
        <ele>106.865968</ele>
        <time>2022-06-01T09:58:52.580Z</time>
      </trkpt>
      <trkpt lat="42.51446" lon="18.38245">
        <ele>106.96437</ele>
        <time>2022-06-01T09:58:55.588Z</time>
      </trkpt>
      <trkpt lat="42.5145" lon="18.38232">
        <ele>107.063122</ele>
        <time>2022-06-01T09:58:58.619Z</time>
      </trkpt>
      <trkpt lat="42.51454" lon="18.38219">
        <ele>107.160618</ele>
        <time>2022-06-01T09:59:01.591Z</time>
      </trkpt>
      <trkpt lat="42.51459" lon="18.38205">
        <ele>107.263951</ele>
        <time>2022-06-01T09:59:04.596Z</time>
      </trkpt>
      <trkpt lat="42.51463" lon="18.3819">
        <ele>107.369358</ele>
        <time>2022-06-01T09:59:07.600Z</time>
      </trkpt>
      <trkpt lat="42.51469" lon="18.38176">
        <ele>107.484324</ele>
        <time>2022-06-01T09:59:10.575Z</time>
      </trkpt>
      <trkpt lat="42.51476" lon="18.38161">
        <ele>107.602196</ele>
        <time>2022-06-01T09:59:13.595Z</time>
      </trkpt>
      <trkpt lat="42.51483" lon="18.38146">
        <ele>107.722741</ele>
        <time>2022-06-01T09:59:16.572Z</time>
      </trkpt>
      <trkpt lat="42.5149" lon="18.38133">
        <ele>107.837251</ele>
        <time>2022-06-01T09:59:19.592Z</time>
      </trkpt>
      <trkpt lat="42.51498" lon="18.38119">
        <ele>107.95843</ele>
        <time>2022-06-01T09:59:22.583Z</time>
      </trkpt>
      <trkpt lat="42.51504" lon="18.38109">
        <ele>108.043505</ele>
        <time>2022-06-01T09:59:24.576Z</time>
      </trkpt>
      <trkpt lat="42.51513" lon="18.38096">
        <ele>108.166393</ele>
        <time>2022-06-01T09:59:27.588Z</time>
      </trkpt>
      <trkpt lat="42.51522" lon="18.38083">
        <ele>108.28478</ele>
        <time>2022-06-01T09:59:30.586Z</time>
      </trkpt>
      <trkpt lat="42.51531" lon="18.3807">
        <ele>108.298886</ele>
        <time>2022-06-01T09:59:33.575Z</time>
      </trkpt>
      <trkpt lat="42.51537" lon="18.3806">
        <ele>108.232131</ele>
        <time>2022-06-01T09:59:35.585Z</time>
      </trkpt>
      <trkpt lat="42.51543" lon="18.38051">
        <ele>108.164124</ele>
        <time>2022-06-01T09:59:37.615Z</time>
      </trkpt>
      <trkpt lat="42.51551" lon="18.38038">
        <ele>108.071611</ele>
        <time>2022-06-01T09:59:40.582Z</time>
      </trkpt>
      <trkpt lat="42.5156" lon="18.38025">
        <ele>107.97399</ele>
        <time>2022-06-01T09:59:43.589Z</time>
      </trkpt>
      <trkpt lat="42.51569" lon="18.38011">
        <ele>107.875736</ele>
        <time>2022-06-01T09:59:46.614Z</time>
      </trkpt>
      <trkpt lat="42.51575" lon="18.38001">
        <ele>107.807813</ele>
        <time>2022-06-01T09:59:48.615Z</time>
      </trkpt>
      <trkpt lat="42.51583" lon="18.37987">
        <ele>107.70944</ele>
        <time>2022-06-01T09:59:51.563Z</time>
      </trkpt>
      <trkpt lat="42.5159" lon="18.37972">
        <ele>107.614816</ele>
        <time>2022-06-01T09:59:54.582Z</time>
      </trkpt>
      <trkpt lat="42.51595" lon="18.37962">
        <ele>107.54776</ele>
        <time>2022-06-01T09:59:56.585Z</time>
      </trkpt>
      <trkpt lat="42.51602" lon="18.37948">
        <ele>107.454596</ele>
        <time>2022-06-01T09:59:59.575Z</time>
      </trkpt>
      <trkpt lat="42.5161" lon="18.37934">
        <ele>107.361019</ele>
        <time>2022-06-01T10:00:02.593Z</time>
      </trkpt>
      <trkpt lat="42.51617" lon="18.37919">
        <ele>107.266524</ele>
        <time>2022-06-01T10:00:05.583Z</time>
      </trkpt>
      <trkpt lat="42.51624" lon="18.37905">
        <ele>107.175087</ele>
        <time>2022-06-01T10:00:08.596Z</time>
      </trkpt>
      <trkpt lat="42.51632" lon="18.37891">
        <ele>107.080206</ele>
        <time>2022-06-01T10:00:11.590Z</time>
      </trkpt>
      <trkpt lat="42.51639" lon="18.37877">
        <ele>107.023911</ele>
        <time>2022-06-01T10:00:14.567Z</time>
      </trkpt>
      <trkpt lat="42.51647" lon="18.37862">
        <ele>107.018105</ele>
        <time>2022-06-01T10:00:17.595Z</time>
      </trkpt>
      <trkpt lat="42.51654" lon="18.37848">
        <ele>107.012509</ele>
        <time>2022-06-01T10:00:20.586Z</time>
      </trkpt>
      <trkpt lat="42.51661" lon="18.37834">
        <ele>107.006852</ele>
        <time>2022-06-01T10:00:23.585Z</time>
      </trkpt>
      <trkpt lat="42.51668" lon="18.3782">
        <ele>107.001426</ele>
        <time>2022-06-01T10:00:26.588Z</time>
      </trkpt>
      <trkpt lat="42.51675" lon="18.37806">
        <ele>106.99604</ele>
        <time>2022-06-01T10:00:29.583Z</time>
      </trkpt>
      <trkpt lat="42.51681" lon="18.37793">
        <ele>106.99081</ele>
        <time>2022-06-01T10:00:32.597Z</time>
      </trkpt>
      <trkpt lat="42.51688" lon="18.3778">
        <ele>106.985671</ele>
        <time>2022-06-01T10:00:35.582Z</time>
      </trkpt>
      <trkpt lat="42.51693" lon="18.37767">
        <ele>106.980787</ele>
        <time>2022-06-01T10:00:38.602Z</time>
      </trkpt>
      <trkpt lat="42.51698" lon="18.37753">
        <ele>106.975866</ele>
        <time>2022-06-01T10:00:41.587Z</time>
      </trkpt>
      <trkpt lat="42.51703" lon="18.37739">
        <ele>106.970837</ele>
        <time>2022-06-01T10:00:44.608Z</time>
      </trkpt>
      <trkpt lat="42.51708" lon="18.37726">
        <ele>106.965877</ele>
        <time>2022-06-01T10:00:47.590Z</time>
      </trkpt>
      <trkpt lat="42.51713" lon="18.37712">
        <ele>106.960819</ele>
        <time>2022-06-01T10:00:50.605Z</time>
      </trkpt>
      <trkpt lat="42.51717" lon="18.37697">
        <ele>106.955518</ele>
        <time>2022-06-01T10:00:53.599Z</time>
      </trkpt>
      <trkpt lat="42.5172" lon="18.37682">
        <ele>106.950547</ele>
        <time>2022-06-01T10:00:56.580Z</time>
      </trkpt>
      <trkpt lat="42.51724" lon="18.37667">
        <ele>106.934218</ele>
        <time>2022-06-01T10:00:59.592Z</time>
      </trkpt>
      <trkpt lat="42.51728" lon="18.37654">
        <ele>106.888089</ele>
        <time>2022-06-01T10:01:02.582Z</time>
      </trkpt>
      <trkpt lat="42.51732" lon="18.3764">
        <ele>106.842974</ele>
        <time>2022-06-01T10:01:05.595Z</time>
      </trkpt>
      <trkpt lat="42.51734" lon="18.37625">
        <ele>106.794527</ele>
        <time>2022-06-01T10:01:08.576Z</time>
      </trkpt>
      <trkpt lat="42.51738" lon="18.3761">
        <ele>106.747903</ele>
        <time>2022-06-01T10:01:11.694Z</time>
      </trkpt>
      <trkpt lat="42.51742" lon="18.37595">
        <ele>106.697826</ele>
        <time>2022-06-01T10:01:14.589Z</time>
      </trkpt>
      <trkpt lat="42.51745" lon="18.37581">
        <ele>106.651697</ele>
        <time>2022-06-01T10:01:17.593Z</time>
      </trkpt>
      <trkpt lat="42.51749" lon="18.37569">
        <ele>106.609656</ele>
        <time>2022-06-01T10:01:20.599Z</time>
      </trkpt>
      <trkpt lat="42.51751" lon="18.37555">
        <ele>106.56725</ele>
        <time>2022-06-01T10:01:23.597Z</time>
      </trkpt>
      <trkpt lat="42.51754" lon="18.37543">
        <ele>106.528151</ele>
        <time>2022-06-01T10:01:26.598Z</time>
      </trkpt>
      <trkpt lat="42.51759" lon="18.37529">
        <ele>106.479543</ele>
        <time>2022-06-01T10:01:30.579Z</time>
      </trkpt>
      <trkpt lat="42.51762" lon="18.37516">
        <ele>106.435844</ele>
        <time>2022-06-01T10:01:34.649Z</time>
      </trkpt>
      <trkpt lat="42.51765" lon="18.37491">
        <ele>106.356894</ele>
        <time>2022-06-01T10:07:46.575Z</time>
      </trkpt>
      <trkpt lat="42.51769" lon="18.37479">
        <ele>106.316304</ele>
        <time>2022-06-01T10:07:50.561Z</time>
      </trkpt>
      <trkpt lat="42.51779" lon="18.37471">
        <ele>106.269384</ele>
        <time>2022-06-01T10:07:55.554Z</time>
      </trkpt>
      <trkpt lat="42.51791" lon="18.37475">
        <ele>106.214137</ele>
        <time>2022-06-01T10:07:58.553Z</time>
      </trkpt>
      <trkpt lat="42.51803" lon="18.3748">
        <ele>106.039348</ele>
        <time>2022-06-01T10:08:01.564Z</time>
      </trkpt>
      <trkpt lat="42.51814" lon="18.37485">
        <ele>105.770193</ele>
        <time>2022-06-01T10:08:04.553Z</time>
      </trkpt>
      <trkpt lat="42.51825" lon="18.3749">
        <ele>105.508173</ele>
        <time>2022-06-01T10:08:07.559Z</time>
      </trkpt>
      <trkpt lat="42.51837" lon="18.37496">
        <ele>105.201264</ele>
        <time>2022-06-01T10:08:10.556Z</time>
      </trkpt>
      <trkpt lat="42.51846" lon="18.375">
        <ele>104.990654</ele>
        <time>2022-06-01T10:08:12.554Z</time>
      </trkpt>
      <trkpt lat="42.51859" lon="18.37504">
        <ele>104.677882</ele>
        <time>2022-06-01T10:08:15.564Z</time>
      </trkpt>
      <trkpt lat="42.51867" lon="18.37509">
        <ele>104.467261</ele>
        <time>2022-06-01T10:08:17.583Z</time>
      </trkpt>
      <trkpt lat="42.51875" lon="18.37514">
        <ele>104.256686</ele>
        <time>2022-06-01T10:08:19.559Z</time>
      </trkpt>
      <trkpt lat="42.51884" lon="18.37519">
        <ele>104.031154</ele>
        <time>2022-06-01T10:08:21.560Z</time>
      </trkpt>
      <trkpt lat="42.51896" lon="18.37526">
        <ele>103.731694</ele>
        <time>2022-06-01T10:08:24.554Z</time>
      </trkpt>
      <trkpt lat="42.51904" lon="18.37532">
        <ele>103.519789</ele>
        <time>2022-06-01T10:08:26.560Z</time>
      </trkpt>
      <trkpt lat="42.51913" lon="18.37538">
        <ele>103.287198</ele>
        <time>2022-06-01T10:08:28.578Z</time>
      </trkpt>
      <trkpt lat="42.51922" lon="18.37543">
        <ele>103.058846</ele>
        <time>2022-06-01T10:08:30.562Z</time>
      </trkpt>
      <trkpt lat="42.5193" lon="18.37548">
        <ele>102.84331</ele>
        <time>2022-06-01T10:08:32.561Z</time>
      </trkpt>
      <trkpt lat="42.51939" lon="18.37554">
        <ele>102.631867</ele>
        <time>2022-06-01T10:08:34.576Z</time>
      </trkpt>
      <trkpt lat="42.51947" lon="18.37559">
        <ele>102.42057</ele>
        <time>2022-06-01T10:08:36.555Z</time>
      </trkpt>
      <trkpt lat="42.51958" lon="18.37566">
        <ele>102.12556</ele>
        <time>2022-06-01T10:08:39.559Z</time>
      </trkpt>
      <trkpt lat="42.51968" lon="18.37574">
        <ele>102.005266</ele>
        <time>2022-06-01T10:08:42.557Z</time>
      </trkpt>
      <trkpt lat="42.51978" lon="18.37581">
        <ele>102.03783</ele>
        <time>2022-06-01T10:08:45.570Z</time>
      </trkpt>
      <trkpt lat="42.51987" lon="18.37588">
        <ele>102.068498</ele>
        <time>2022-06-01T10:08:48.578Z</time>
      </trkpt>
      <trkpt lat="42.51997" lon="18.37595">
        <ele>102.102134</ele>
        <time>2022-06-01T10:08:51.570Z</time>
      </trkpt>
      <trkpt lat="42.52006" lon="18.376">
        <ele>102.132181</ele>
        <time>2022-06-01T10:08:54.563Z</time>
      </trkpt>
      <trkpt lat="42.52015" lon="18.37606">
        <ele>102.161755</ele>
        <time>2022-06-01T10:08:57.585Z</time>
      </trkpt>
      <trkpt lat="42.52024" lon="18.37614">
        <ele>102.195029</ele>
        <time>2022-06-01T10:09:00.576Z</time>
      </trkpt>
      <trkpt lat="42.52035" lon="18.37623">
        <ele>102.232633</ele>
        <time>2022-06-01T10:09:03.571Z</time>
      </trkpt>
      <trkpt lat="42.52045" lon="18.3763">
        <ele>102.265694</ele>
        <time>2022-06-01T10:09:06.600Z</time>
      </trkpt>
      <trkpt lat="42.52055" lon="18.37636">
        <ele>102.297065</ele>
        <time>2022-06-01T10:09:09.579Z</time>
      </trkpt>
      <trkpt lat="42.52066" lon="18.37642">
        <ele>102.334722</ele>
        <time>2022-06-01T10:09:13.582Z</time>
      </trkpt>
      <trkpt lat="42.52076" lon="18.37648">
        <ele>102.365462</ele>
        <time>2022-06-01T10:09:16.593Z</time>
      </trkpt>
      <trkpt lat="42.52085" lon="18.37654">
        <ele>102.394659</ele>
        <time>2022-06-01T10:09:19.638Z</time>
      </trkpt>
      <trkpt lat="42.52094" lon="18.37659">
        <ele>102.424217</ele>
        <time>2022-06-01T10:09:22.581Z</time>
      </trkpt>
      <trkpt lat="42.52103" lon="18.37665">
        <ele>102.453601</ele>
        <time>2022-06-01T10:09:25.603Z</time>
      </trkpt>
      <trkpt lat="42.52112" lon="18.3767">
        <ele>102.483728</ele>
        <time>2022-06-01T10:09:28.582Z</time>
      </trkpt>
      <trkpt lat="42.52121" lon="18.37674">
        <ele>102.510644</ele>
        <time>2022-06-01T10:09:31.615Z</time>
      </trkpt>
      <trkpt lat="42.5213" lon="18.37677">
        <ele>102.651532</ele>
        <time>2022-06-01T10:09:35.589Z</time>
      </trkpt>
      <trkpt lat="42.52141" lon="18.3768">
        <ele>102.946582</ele>
        <time>2022-06-01T10:09:39.578Z</time>
      </trkpt>
      <trkpt lat="42.52151" lon="18.37684">
        <ele>103.210435</ele>
        <time>2022-06-01T10:09:42.594Z</time>
      </trkpt>
      <trkpt lat="42.52162" lon="18.37686">
        <ele>103.478669</ele>
        <time>2022-06-01T10:09:45.602Z</time>
      </trkpt>
      <trkpt lat="42.52172" lon="18.37689">
        <ele>103.735358</ele>
        <time>2022-06-01T10:09:48.567Z</time>
      </trkpt>
      <trkpt lat="42.52183" lon="18.37693">
        <ele>104.041173</ele>
        <time>2022-06-01T10:09:52.598Z</time>
      </trkpt>
      <trkpt lat="42.52192" lon="18.37696">
        <ele>104.279124</ele>
        <time>2022-06-01T10:09:55.588Z</time>
      </trkpt>
      <trkpt lat="42.52201" lon="18.37699">
        <ele>104.520949</ele>
        <time>2022-06-01T10:09:58.624Z</time>
      </trkpt>
      <trkpt lat="42.52213" lon="18.37701">
        <ele>104.804726</ele>
        <time>2022-06-01T10:10:02.575Z</time>
      </trkpt>
      <trkpt lat="42.52223" lon="18.37703">
        <ele>105.072664</ele>
        <time>2022-06-01T10:10:06.591Z</time>
      </trkpt>
      <trkpt lat="42.52232" lon="18.37704">
        <ele>105.310656</ele>
        <time>2022-06-01T10:10:09.599Z</time>
      </trkpt>
      <trkpt lat="42.52242" lon="18.37705">
        <ele>105.550997</ele>
        <time>2022-06-01T10:10:12.582Z</time>
      </trkpt>
      <trkpt lat="42.52253" lon="18.37707">
        <ele>105.84568</ele>
        <time>2022-06-01T10:10:16.592Z</time>
      </trkpt>
      <trkpt lat="42.52262" lon="18.37709">
        <ele>106.07447</ele>
        <time>2022-06-01T10:10:19.582Z</time>
      </trkpt>
      <trkpt lat="42.52273" lon="18.37711">
        <ele>106.362033</ele>
        <time>2022-06-01T10:10:23.581Z</time>
      </trkpt>
      <trkpt lat="42.52282" lon="18.37713">
        <ele>106.597329</ele>
        <time>2022-06-01T10:10:26.652Z</time>
      </trkpt>
      <trkpt lat="42.52292" lon="18.37714">
        <ele>106.832788</ele>
        <time>2022-06-01T10:10:29.583Z</time>
      </trkpt>
      <trkpt lat="42.52302" lon="18.37717">
        <ele>107.106952</ele>
        <time>2022-06-01T10:10:33.581Z</time>
      </trkpt>
      <trkpt lat="42.52312" lon="18.3772">
        <ele>107.188254</ele>
        <time>2022-06-01T10:10:36.587Z</time>
      </trkpt>
      <trkpt lat="42.52323" lon="18.37723">
        <ele>107.283103</ele>
        <time>2022-06-01T10:10:40.587Z</time>
      </trkpt>
      <trkpt lat="42.52332" lon="18.37726">
        <ele>107.366487</ele>
        <time>2022-06-01T10:10:44.590Z</time>
      </trkpt>
      <trkpt lat="42.52342" lon="18.37728">
        <ele>107.450297</ele>
        <time>2022-06-01T10:10:48.625Z</time>
      </trkpt>
      <trkpt lat="42.52353" lon="18.3773">
        <ele>107.543098</ele>
        <time>2022-06-01T10:10:52.598Z</time>
      </trkpt>
      <trkpt lat="42.52363" lon="18.37734">
        <ele>107.629614</ele>
        <time>2022-06-01T10:10:56.593Z</time>
      </trkpt>
      <trkpt lat="42.52372" lon="18.37737">
        <ele>107.711082</ele>
        <time>2022-06-01T10:11:00.583Z</time>
      </trkpt>
      <trkpt lat="42.52381" lon="18.3774">
        <ele>107.790879</ele>
        <time>2022-06-01T10:11:04.581Z</time>
      </trkpt>
      <trkpt lat="42.52392" lon="18.37742">
        <ele>107.883763</ele>
        <time>2022-06-01T10:11:09.570Z</time>
      </trkpt>
      <trkpt lat="42.52402" lon="18.37744">
        <ele>107.972854</ele>
        <time>2022-06-01T10:11:14.584Z</time>
      </trkpt>
      <trkpt lat="42.52412" lon="18.37747">
        <ele>108.06019</ele>
        <time>2022-06-01T10:11:18.583Z</time>
      </trkpt>
      <trkpt lat="42.52422" lon="18.3775">
        <ele>108.14803</ele>
        <time>2022-06-01T10:11:22.591Z</time>
      </trkpt>
      <trkpt lat="42.52433" lon="18.37755">
        <ele>108.244485</ele>
        <time>2022-06-01T10:11:27.590Z</time>
      </trkpt>
      <trkpt lat="42.52444" lon="18.37761">
        <ele>108.34374</ele>
        <time>2022-06-01T10:11:31.587Z</time>
      </trkpt>
      <trkpt lat="42.52454" lon="18.37763">
        <ele>108.433796</ele>
        <time>2022-06-01T10:11:34.604Z</time>
      </trkpt>
      <trkpt lat="42.52463" lon="18.37766">
        <ele>108.513852</ele>
        <time>2022-06-01T10:11:37.590Z</time>
      </trkpt>
      <trkpt lat="42.52473" lon="18.3777">
        <ele>108.600076</ele>
        <time>2022-06-01T10:11:41.597Z</time>
      </trkpt>
      <trkpt lat="42.52482" lon="18.37773">
        <ele>108.645134</ele>
        <time>2022-06-01T10:11:45.589Z</time>
      </trkpt>
      <trkpt lat="42.52492" lon="18.37777">
        <ele>108.668251</ele>
        <time>2022-06-01T10:11:49.575Z</time>
      </trkpt>
      <trkpt lat="42.52501" lon="18.3778">
        <ele>108.690471</ele>
        <time>2022-06-01T10:11:53.566Z</time>
      </trkpt>
      <trkpt lat="42.52512" lon="18.37785">
        <ele>108.716635</ele>
        <time>2022-06-01T10:11:57.629Z</time>
      </trkpt>
      <trkpt lat="42.52522" lon="18.3779">
        <ele>108.742085</ele>
        <time>2022-06-01T10:12:01.586Z</time>
      </trkpt>
      <trkpt lat="42.52532" lon="18.37794">
        <ele>108.764174</ele>
        <time>2022-06-01T10:12:04.593Z</time>
      </trkpt>
      <trkpt lat="42.52541" lon="18.37798">
        <ele>108.787318</ele>
        <time>2022-06-01T10:12:07.595Z</time>
      </trkpt>
      <trkpt lat="42.52551" lon="18.37802">
        <ele>108.810213</ele>
        <time>2022-06-01T10:12:10.578Z</time>
      </trkpt>
      <trkpt lat="42.5256" lon="18.37806">
        <ele>108.833136</ele>
        <time>2022-06-01T10:12:13.603Z</time>
      </trkpt>
      <trkpt lat="42.5257" lon="18.37809">
        <ele>108.85614</ele>
        <time>2022-06-01T10:12:16.577Z</time>
      </trkpt>
      <trkpt lat="42.5258" lon="18.37812">
        <ele>108.879516</ele>
        <time>2022-06-01T10:12:19.588Z</time>
      </trkpt>
      <trkpt lat="42.5259" lon="18.37816">
        <ele>108.903511</ele>
        <time>2022-06-01T10:12:22.601Z</time>
      </trkpt>
      <trkpt lat="42.52601" lon="18.3782">
        <ele>108.930113</ele>
        <time>2022-06-01T10:12:25.577Z</time>
      </trkpt>
      <trkpt lat="42.52614" lon="18.37824">
        <ele>108.959836</ele>
        <time>2022-06-01T10:12:28.591Z</time>
      </trkpt>
      <trkpt lat="42.52627" lon="18.37828">
        <ele>108.990307</ele>
        <time>2022-06-01T10:12:31.592Z</time>
      </trkpt>
      <trkpt lat="42.52636" lon="18.37831">
        <ele>109.011183</ele>
        <time>2022-06-01T10:12:33.595Z</time>
      </trkpt>
      <trkpt lat="42.52645" lon="18.37833">
        <ele>109.032477</ele>
        <time>2022-06-01T10:12:35.580Z</time>
      </trkpt>
      <trkpt lat="42.52654" lon="18.37836">
        <ele>108.95707</ele>
        <time>2022-06-01T10:12:37.579Z</time>
      </trkpt>
      <trkpt lat="42.52663" lon="18.37838">
        <ele>108.73004</ele>
        <time>2022-06-01T10:12:39.586Z</time>
      </trkpt>
      <trkpt lat="42.52672" lon="18.3784">
        <ele>108.499507</ele>
        <time>2022-06-01T10:12:41.594Z</time>
      </trkpt>
      <trkpt lat="42.52682" lon="18.37842">
        <ele>108.267119</ele>
        <time>2022-06-01T10:12:43.574Z</time>
      </trkpt>
      <trkpt lat="42.52691" lon="18.37844">
        <ele>108.037412</ele>
        <time>2022-06-01T10:12:45.589Z</time>
      </trkpt>
      <trkpt lat="42.527" lon="18.37846">
        <ele>107.807951</ele>
        <time>2022-06-01T10:12:47.587Z</time>
      </trkpt>
      <trkpt lat="42.52709" lon="18.37847">
        <ele>107.580914</ele>
        <time>2022-06-01T10:12:49.581Z</time>
      </trkpt>
      <trkpt lat="42.52719" lon="18.37849">
        <ele>107.346108</ele>
        <time>2022-06-01T10:12:51.586Z</time>
      </trkpt>
      <trkpt lat="42.52728" lon="18.37851">
        <ele>107.112634</ele>
        <time>2022-06-01T10:12:53.595Z</time>
      </trkpt>
      <trkpt lat="42.52738" lon="18.37852">
        <ele>106.882077</ele>
        <time>2022-06-01T10:12:55.588Z</time>
      </trkpt>
      <trkpt lat="42.52748" lon="18.37853">
        <ele>106.638869</ele>
        <time>2022-06-01T10:12:57.589Z</time>
      </trkpt>
      <trkpt lat="42.52757" lon="18.37854">
        <ele>106.405394</ele>
        <time>2022-06-01T10:12:59.575Z</time>
      </trkpt>
      <trkpt lat="42.52767" lon="18.37855">
        <ele>106.160334</ele>
        <time>2022-06-01T10:13:01.584Z</time>
      </trkpt>
      <trkpt lat="42.52777" lon="18.37856">
        <ele>105.910505</ele>
        <time>2022-06-01T10:13:03.586Z</time>
      </trkpt>
      <trkpt lat="42.52788" lon="18.37856">
        <ele>105.658486</ele>
        <time>2022-06-01T10:13:05.683Z</time>
      </trkpt>
      <trkpt lat="42.52798" lon="18.37857">
        <ele>105.40151</ele>
        <time>2022-06-01T10:13:07.591Z</time>
      </trkpt>
      <trkpt lat="42.52808" lon="18.37858">
        <ele>105.158622</ele>
        <time>2022-06-01T10:13:09.587Z</time>
      </trkpt>
      <trkpt lat="42.52818" lon="18.3786">
        <ele>104.923816</ele>
        <time>2022-06-01T10:13:11.624Z</time>
      </trkpt>
      <trkpt lat="42.52827" lon="18.37862">
        <ele>104.698106</ele>
        <time>2022-06-01T10:13:13.571Z</time>
      </trkpt>
      <trkpt lat="42.5284" lon="18.37864">
        <ele>104.685703</ele>
        <time>2022-06-01T10:13:16.574Z</time>
      </trkpt>
      <trkpt lat="42.52851" lon="18.37865">
        <ele>104.727427</ele>
        <time>2022-06-01T10:13:19.581Z</time>
      </trkpt>
      <trkpt lat="42.52863" lon="18.37864">
        <ele>104.767288</ele>
        <time>2022-06-01T10:13:22.618Z</time>
      </trkpt>
      <trkpt lat="42.52874" lon="18.37862">
        <ele>104.808266</ele>
        <time>2022-06-01T10:13:25.582Z</time>
      </trkpt>
      <trkpt lat="42.52885" lon="18.37859">
        <ele>104.845473</ele>
        <time>2022-06-01T10:13:28.588Z</time>
      </trkpt>
      <trkpt lat="42.52895" lon="18.37857">
        <ele>104.882329</ele>
        <time>2022-06-01T10:13:31.581Z</time>
      </trkpt>
      <trkpt lat="42.52904" lon="18.37856">
        <ele>104.915175</ele>
        <time>2022-06-01T10:13:34.587Z</time>
      </trkpt>
      <trkpt lat="42.52913" lon="18.3785">
        <ele>104.949596</ele>
        <time>2022-06-01T10:13:38.596Z</time>
      </trkpt>
      <trkpt lat="42.52923" lon="18.37844">
        <ele>104.986834</ele>
        <time>2022-06-01T10:13:42.606Z</time>
      </trkpt>
      <trkpt lat="42.52932" lon="18.37838">
        <ele>105.023607</ele>
        <time>2022-06-01T10:13:46.593Z</time>
      </trkpt>
      <trkpt lat="42.52942" lon="18.37834">
        <ele>105.060416</ele>
        <time>2022-06-01T10:13:50.602Z</time>
      </trkpt>
      <trkpt lat="42.52952" lon="18.37837">
        <ele>105.097772</ele>
        <time>2022-06-01T10:13:54.568Z</time>
      </trkpt>
      <trkpt lat="42.52962" lon="18.37841">
        <ele>105.132281</ele>
        <time>2022-06-01T10:13:58.593Z</time>
      </trkpt>
      <trkpt lat="42.5297" lon="18.37831">
        <ele>105.172129</ele>
        <time>2022-06-01T10:14:03.561Z</time>
      </trkpt>
      <trkpt lat="42.52977" lon="18.37817">
        <ele>105.212747</ele>
        <time>2022-06-01T10:14:06.575Z</time>
      </trkpt>
      <trkpt lat="42.52985" lon="18.37811">
        <ele>105.24769</ele>
        <time>2022-06-01T10:14:08.586Z</time>
      </trkpt>
      <trkpt lat="42.52999" lon="18.37811">
        <ele>105.154834</ele>
        <time>2022-06-01T10:14:10.585Z</time>
      </trkpt>
      <trkpt lat="42.53013" lon="18.37815">
        <ele>104.746457</ele>
        <time>2022-06-01T10:14:12.570Z</time>
      </trkpt>
      <trkpt lat="42.53027" lon="18.37819">
        <ele>104.325939</ele>
        <time>2022-06-01T10:14:14.580Z</time>
      </trkpt>
      <trkpt lat="42.53042" lon="18.37821">
        <ele>103.890554</ele>
        <time>2022-06-01T10:14:16.580Z</time>
      </trkpt>
      <trkpt lat="42.53058" lon="18.37821">
        <ele>103.436911</ele>
        <time>2022-06-01T10:14:18.596Z</time>
      </trkpt>
      <trkpt lat="42.53074" lon="18.37819">
        <ele>102.958746</ele>
        <time>2022-06-01T10:14:20.592Z</time>
      </trkpt>
      <trkpt lat="42.53091" lon="18.37813">
        <ele>102.451335</ele>
        <time>2022-06-01T10:14:22.585Z</time>
      </trkpt>
      <trkpt lat="42.53107" lon="18.37804">
        <ele>101.964329</ele>
        <time>2022-06-01T10:14:24.595Z</time>
      </trkpt>
      <trkpt lat="42.53121" lon="18.37793">
        <ele>101.482889</ele>
        <time>2022-06-01T10:14:26.610Z</time>
      </trkpt>
      <trkpt lat="42.53136" lon="18.37784">
        <ele>101.029093</ele>
        <time>2022-06-01T10:14:28.592Z</time>
      </trkpt>
      <trkpt lat="42.53149" lon="18.37775">
        <ele>100.600907</ele>
        <time>2022-06-01T10:14:30.598Z</time>
      </trkpt>
      <trkpt lat="42.53162" lon="18.37766">
        <ele>100.176936</ele>
        <time>2022-06-01T10:14:32.639Z</time>
      </trkpt>
      <trkpt lat="42.53174" lon="18.37755">
        <ele>99.846254</ele>
        <time>2022-06-01T10:14:34.585Z</time>
      </trkpt>
      <trkpt lat="42.53186" lon="18.37744">
        <ele>99.557641</ele>
        <time>2022-06-01T10:14:36.596Z</time>
      </trkpt>
      <trkpt lat="42.53197" lon="18.37733">
        <ele>99.278202</ele>
        <time>2022-06-01T10:14:38.619Z</time>
      </trkpt>
      <trkpt lat="42.53207" lon="18.37723">
        <ele>99.01787</ele>
        <time>2022-06-01T10:14:40.592Z</time>
      </trkpt>
      <trkpt lat="42.53216" lon="18.37713">
        <ele>98.771206</ele>
        <time>2022-06-01T10:14:42.596Z</time>
      </trkpt>
      <trkpt lat="42.53225" lon="18.37706">
        <ele>98.556601</ele>
        <time>2022-06-01T10:14:44.581Z</time>
      </trkpt>
      <trkpt lat="42.53236" lon="18.37705">
        <ele>98.343099</ele>
        <time>2022-06-01T10:14:46.591Z</time>
      </trkpt>
      <trkpt lat="42.53246" lon="18.37711">
        <ele>98.116786</ele>
        <time>2022-06-01T10:14:48.611Z</time>
      </trkpt>
      <trkpt lat="42.53255" lon="18.37719">
        <ele>97.896057</ele>
        <time>2022-06-01T10:14:50.567Z</time>
      </trkpt>
      <trkpt lat="42.53263" lon="18.37725">
        <ele>97.706667</ele>
        <time>2022-06-01T10:14:52.615Z</time>
      </trkpt>
      <trkpt lat="42.53273" lon="18.37734">
        <ele>97.455831</ele>
        <time>2022-06-01T10:14:55.610Z</time>
      </trkpt>
      <trkpt lat="42.53282" lon="18.37742">
        <ele>97.236825</ele>
        <time>2022-06-01T10:14:58.585Z</time>
      </trkpt>
      <trkpt lat="42.53291" lon="18.37748">
        <ele>97.036321</ele>
        <time>2022-06-01T10:15:01.629Z</time>
      </trkpt>
      <trkpt lat="42.533" lon="18.37755">
        <ele>96.823916</ele>
        <time>2022-06-01T10:15:04.586Z</time>
      </trkpt>
      <trkpt lat="42.5331" lon="18.37763">
        <ele>96.58803</ele>
        <time>2022-06-01T10:15:07.584Z</time>
      </trkpt>
      <trkpt lat="42.5332" lon="18.37773">
        <ele>96.493596</ele>
        <time>2022-06-01T10:15:10.592Z</time>
      </trkpt>
      <trkpt lat="42.53329" lon="18.37781">
        <ele>96.767959</ele>
        <time>2022-06-01T10:15:12.570Z</time>
      </trkpt>
      <trkpt lat="42.53337" lon="18.37787">
        <ele>97.037945</ele>
        <time>2022-06-01T10:15:14.576Z</time>
      </trkpt>
      <trkpt lat="42.53346" lon="18.37793">
        <ele>97.320934</ele>
        <time>2022-06-01T10:15:16.583Z</time>
      </trkpt>
      <trkpt lat="42.53356" lon="18.378">
        <ele>97.608945</ele>
        <time>2022-06-01T10:15:18.576Z</time>
      </trkpt>
      <trkpt lat="42.53365" lon="18.37806">
        <ele>97.8916</ele>
        <time>2022-06-01T10:15:20.587Z</time>
      </trkpt>
      <trkpt lat="42.53374" lon="18.37811">
        <ele>98.161999</ele>
        <time>2022-06-01T10:15:22.590Z</time>
      </trkpt>
      <trkpt lat="42.53386" lon="18.37818">
        <ele>98.528698</ele>
        <time>2022-06-01T10:15:25.590Z</time>
      </trkpt>
      <trkpt lat="42.53398" lon="18.37821">
        <ele>98.861167</ele>
        <time>2022-06-01T10:15:28.609Z</time>
      </trkpt>
      <trkpt lat="42.53409" lon="18.37817">
        <ele>99.178487</ele>
        <time>2022-06-01T10:15:31.577Z</time>
      </trkpt>
      <trkpt lat="42.5342" lon="18.37813">
        <ele>99.505456</ele>
        <time>2022-06-01T10:15:34.637Z</time>
      </trkpt>
      <trkpt lat="42.5343" lon="18.37809">
        <ele>99.78319</ele>
        <time>2022-06-01T10:15:37.600Z</time>
      </trkpt>
      <trkpt lat="42.53439" lon="18.37806">
        <ele>100.044915</ele>
        <time>2022-06-01T10:15:41.600Z</time>
      </trkpt>
      <trkpt lat="42.53448" lon="18.37803">
        <ele>100.305539</ele>
        <time>2022-06-01T10:15:47.618Z</time>
      </trkpt>
      <trkpt lat="42.53447" lon="18.3779">
        <ele>100.584052</ele>
        <time>2022-06-01T10:15:53.575Z</time>
      </trkpt>
      <trkpt lat="42.53443" lon="18.37779">
        <ele>100.835276</ele>
        <time>2022-06-01T10:15:58.595Z</time>
      </trkpt>
      <trkpt lat="42.5344" lon="18.37767">
        <ele>101.091269</ele>
        <time>2022-06-01T10:16:01.592Z</time>
      </trkpt>
      <trkpt lat="42.5344" lon="18.37752">
        <ele>101.381319</ele>
        <time>2022-06-01T10:16:03.645Z</time>
      </trkpt>
      <trkpt lat="42.53439" lon="18.37738">
        <ele>101.442218</ele>
        <time>2022-06-01T10:16:05.603Z</time>
      </trkpt>
      <trkpt lat="42.53439" lon="18.37726">
        <ele>101.494594</ele>
        <time>2022-06-01T10:16:07.629Z</time>
      </trkpt>
      <trkpt lat="42.53436" lon="18.37709">
        <ele>101.569091</ele>
        <time>2022-06-01T10:16:10.598Z</time>
      </trkpt>
      <trkpt lat="42.53431" lon="18.37694">
        <ele>101.637789</ele>
        <time>2022-06-01T10:16:13.582Z</time>
      </trkpt>
      <trkpt lat="42.53429" lon="18.37681">
        <ele>101.696421</ele>
        <time>2022-06-01T10:16:16.590Z</time>
      </trkpt>
      <trkpt lat="42.53427" lon="18.37668">
        <ele>101.752743</ele>
        <time>2022-06-01T10:16:19.550Z</time>
      </trkpt>
      <trkpt lat="42.53425" lon="18.37656">
        <ele>101.805841</ele>
        <time>2022-06-01T10:16:22.597Z</time>
      </trkpt>
      <trkpt lat="42.53422" lon="18.3764">
        <ele>101.873112</ele>
        <time>2022-06-01T10:16:26.577Z</time>
      </trkpt>
      <trkpt lat="42.53421" lon="18.37625">
        <ele>101.938042</ele>
        <time>2022-06-01T10:16:30.581Z</time>
      </trkpt>
      <trkpt lat="42.53421" lon="18.37611">
        <ele>101.998516</ele>
        <time>2022-06-01T10:16:34.612Z</time>
      </trkpt>
      <trkpt lat="42.53421" lon="18.37597">
        <ele>102.056044</ele>
        <time>2022-06-01T10:16:38.589Z</time>
      </trkpt>
      <trkpt lat="42.53424" lon="18.37584">
        <ele>102.113799</ele>
        <time>2022-06-01T10:16:42.589Z</time>
      </trkpt>
      <trkpt lat="42.53424" lon="18.37572">
        <ele>102.167224</ele>
        <time>2022-06-01T10:16:46.618Z</time>
      </trkpt>
      <trkpt lat="42.53424" lon="18.37559">
        <ele>102.221921</ele>
        <time>2022-06-01T10:16:50.589Z</time>
      </trkpt>
      <trkpt lat="42.53422" lon="18.37544">
        <ele>102.286877</ele>
        <time>2022-06-01T10:16:55.611Z</time>
      </trkpt>
      <trkpt lat="42.5342" lon="18.37532">
        <ele>102.339438</ele>
        <time>2022-06-01T10:16:59.582Z</time>
      </trkpt>
      <trkpt lat="42.53419" lon="18.37517">
        <ele>102.402351</ele>
        <time>2022-06-01T10:17:04.632Z</time>
      </trkpt>
      <trkpt lat="42.53418" lon="18.37503">
        <ele>102.608278</ele>
        <time>2022-06-01T10:17:09.580Z</time>
      </trkpt>
      <trkpt lat="42.5342" lon="18.37491">
        <ele>102.833054</ele>
        <time>2022-06-01T10:17:13.587Z</time>
      </trkpt>
      <trkpt lat="42.53421" lon="18.37476">
        <ele>103.105107</ele>
        <time>2022-06-01T10:17:18.653Z</time>
      </trkpt>
      <trkpt lat="42.53423" lon="18.37464">
        <ele>103.332723</ele>
        <time>2022-06-01T10:17:22.580Z</time>
      </trkpt>
      <trkpt lat="42.53428" lon="18.3745">
        <ele>103.603014</ele>
        <time>2022-06-01T10:17:27.599Z</time>
      </trkpt>
      <trkpt lat="42.53432" lon="18.37438">
        <ele>103.868339</ele>
        <time>2022-06-01T10:17:32.567Z</time>
      </trkpt>
      <trkpt lat="42.53436" lon="18.37426">
        <ele>104.110606</ele>
        <time>2022-06-01T10:17:37.600Z</time>
      </trkpt>
      <trkpt lat="42.53441" lon="18.37415">
        <ele>104.345762</ele>
        <time>2022-06-01T10:17:42.594Z</time>
      </trkpt>
      <trkpt lat="42.53446" lon="18.37402">
        <ele>104.603409</ele>
        <time>2022-06-01T10:17:47.570Z</time>
      </trkpt>
      <trkpt lat="42.53448" lon="18.37391">
        <ele>104.82615</ele>
        <time>2022-06-01T10:17:52.568Z</time>
      </trkpt>
      <trkpt lat="42.53451" lon="18.37379">
        <ele>105.053094</ele>
        <time>2022-06-01T10:17:57.585Z</time>
      </trkpt>
      <trkpt lat="42.53452" lon="18.37365">
        <ele>105.304053</ele>
        <time>2022-06-01T10:18:02.584Z</time>
      </trkpt>
      <trkpt lat="42.53454" lon="18.37351">
        <ele>105.56129</ele>
        <time>2022-06-01T10:18:08.587Z</time>
      </trkpt>
      <trkpt lat="42.53455" lon="18.37338">
        <ele>105.81424</ele>
        <time>2022-06-01T10:18:13.577Z</time>
      </trkpt>
      <trkpt lat="42.53457" lon="18.37323">
        <ele>106.085751</ele>
        <time>2022-06-01T10:18:18.616Z</time>
      </trkpt>
      <trkpt lat="42.53458" lon="18.37311">
        <ele>106.312867</ele>
        <time>2022-06-01T10:18:22.587Z</time>
      </trkpt>
      <trkpt lat="42.53461" lon="18.37298">
        <ele>106.557672</ele>
        <time>2022-06-01T10:18:26.579Z</time>
      </trkpt>
      <trkpt lat="42.53463" lon="18.37284">
        <ele>106.831617</ele>
        <time>2022-06-01T10:18:31.587Z</time>
      </trkpt>
      <trkpt lat="42.53465" lon="18.37269">
        <ele>106.98981</ele>
        <time>2022-06-01T10:18:35.585Z</time>
      </trkpt>
      <trkpt lat="42.53467" lon="18.37257">
        <ele>107.090421</ele>
        <time>2022-06-01T10:18:38.571Z</time>
      </trkpt>
      <trkpt lat="42.53469" lon="18.37245">
        <ele>107.191347</ele>
        <time>2022-06-01T10:18:41.612Z</time>
      </trkpt>
      <trkpt lat="42.5347" lon="18.37232">
        <ele>107.292274</ele>
        <time>2022-06-01T10:18:44.594Z</time>
      </trkpt>
      <trkpt lat="42.53471" lon="18.37219">
        <ele>107.395748</ele>
        <time>2022-06-01T10:18:47.615Z</time>
      </trkpt>
      <trkpt lat="42.53472" lon="18.37206">
        <ele>107.496226</ele>
        <time>2022-06-01T10:18:50.608Z</time>
      </trkpt>
      <trkpt lat="42.53472" lon="18.3719">
        <ele>107.621975</ele>
        <time>2022-06-01T10:18:54.580Z</time>
      </trkpt>
      <trkpt lat="42.53472" lon="18.37176">
        <ele>107.734391</ele>
        <time>2022-06-01T10:18:58.598Z</time>
      </trkpt>
      <trkpt lat="42.53473" lon="18.37162">
        <ele>107.84719</ele>
        <time>2022-06-01T10:19:02.587Z</time>
      </trkpt>
      <trkpt lat="42.53474" lon="18.37149">
        <ele>107.953591</ele>
        <time>2022-06-01T10:19:06.580Z</time>
      </trkpt>
      <trkpt lat="42.53477" lon="18.37135">
        <ele>108.065733</ele>
        <time>2022-06-01T10:19:10.611Z</time>
      </trkpt>
      <trkpt lat="42.53479" lon="18.37121">
        <ele>108.178625</ele>
        <time>2022-06-01T10:19:14.601Z</time>
      </trkpt>
      <trkpt lat="42.53481" lon="18.37108">
        <ele>108.283641</ele>
        <time>2022-06-01T10:19:18.574Z</time>
      </trkpt>
      <trkpt lat="42.53484" lon="18.37094">
        <ele>108.394837</ele>
        <time>2022-06-01T10:19:23.575Z</time>
      </trkpt>
      <trkpt lat="42.53487" lon="18.37082">
        <ele>108.500972</ele>
        <time>2022-06-01T10:19:28.583Z</time>
      </trkpt>
      <trkpt lat="42.53491" lon="18.37069">
        <ele>108.609771</ele>
        <time>2022-06-01T10:19:33.567Z</time>
      </trkpt>
      <trkpt lat="42.53494" lon="18.37057">
        <ele>108.711429</ele>
        <time>2022-06-01T10:19:38.581Z</time>
      </trkpt>
      <trkpt lat="42.53497" lon="18.37043">
        <ele>108.82385</ele>
        <time>2022-06-01T10:19:43.593Z</time>
      </trkpt>
      <trkpt lat="42.535" lon="18.37031">
        <ele>108.973538</ele>
        <time>2022-06-01T10:19:47.599Z</time>
      </trkpt>
      <trkpt lat="42.53503" lon="18.37018">
        <ele>109.154214</ele>
        <time>2022-06-01T10:19:51.584Z</time>
      </trkpt>
      <trkpt lat="42.53507" lon="18.37003">
        <ele>109.351812</ele>
        <time>2022-06-01T10:19:55.624Z</time>
      </trkpt>
      <trkpt lat="42.5351" lon="18.36989">
        <ele>109.535647</ele>
        <time>2022-06-01T10:19:59.579Z</time>
      </trkpt>
      <trkpt lat="42.53514" lon="18.36975">
        <ele>109.731431</ele>
        <time>2022-06-01T10:20:03.596Z</time>
      </trkpt>
      <trkpt lat="42.53518" lon="18.36961">
        <ele>109.919433</ele>
        <time>2022-06-01T10:20:07.588Z</time>
      </trkpt>
      <trkpt lat="42.53522" lon="18.36946">
        <ele>110.123716</ele>
        <time>2022-06-01T10:20:11.597Z</time>
      </trkpt>
      <trkpt lat="42.53524" lon="18.3693">
        <ele>110.32766</ele>
        <time>2022-06-01T10:20:15.607Z</time>
      </trkpt>
      <trkpt lat="42.53527" lon="18.36916">
        <ele>110.518517</ele>
        <time>2022-06-01T10:20:19.583Z</time>
      </trkpt>
      <trkpt lat="42.53529" lon="18.36902">
        <ele>110.704054</ele>
        <time>2022-06-01T10:20:23.590Z</time>
      </trkpt>
      <trkpt lat="42.5353" lon="18.36888">
        <ele>110.874496</ele>
        <time>2022-06-01T10:20:27.588Z</time>
      </trkpt>
      <trkpt lat="42.53532" lon="18.36875">
        <ele>111.042985</ele>
        <time>2022-06-01T10:20:31.583Z</time>
      </trkpt>
      <trkpt lat="42.53534" lon="18.36863">
        <ele>111.20622</ele>
        <time>2022-06-01T10:20:35.577Z</time>
      </trkpt>
      <trkpt lat="42.53536" lon="18.36849">
        <ele>111.381972</ele>
        <time>2022-06-01T10:20:39.574Z</time>
      </trkpt>
      <trkpt lat="42.53537" lon="18.36835">
        <ele>111.564182</ele>
        <time>2022-06-01T10:20:43.582Z</time>
      </trkpt>
      <trkpt lat="42.53537" lon="18.36821">
        <ele>111.739089</ele>
        <time>2022-06-01T10:20:47.574Z</time>
      </trkpt>
      <trkpt lat="42.53536" lon="18.36807">
        <ele>111.929738</ele>
        <time>2022-06-01T10:20:52.627Z</time>
      </trkpt>
      <trkpt lat="42.53535" lon="18.36792">
        <ele>111.930273</ele>
        <time>2022-06-01T10:20:57.586Z</time>
      </trkpt>
      <trkpt lat="42.53533" lon="18.36779">
        <ele>111.903993</ele>
        <time>2022-06-01T10:21:01.579Z</time>
      </trkpt>
      <trkpt lat="42.53532" lon="18.36765">
        <ele>111.87681</ele>
        <time>2022-06-01T10:21:05.586Z</time>
      </trkpt>
      <trkpt lat="42.53532" lon="18.36751">
        <ele>111.850341</ele>
        <time>2022-06-01T10:21:09.587Z</time>
      </trkpt>
      <trkpt lat="42.53533" lon="18.36737">
        <ele>111.822207</ele>
        <time>2022-06-01T10:21:13.581Z</time>
      </trkpt>
      <trkpt lat="42.53535" lon="18.36723">
        <ele>111.793778</ele>
        <time>2022-06-01T10:21:17.590Z</time>
      </trkpt>
      <trkpt lat="42.5354" lon="18.36708">
        <ele>111.761901</ele>
        <time>2022-06-01T10:21:21.567Z</time>
      </trkpt>
      <trkpt lat="42.53545" lon="18.36696">
        <ele>111.735479</ele>
        <time>2022-06-01T10:21:24.591Z</time>
      </trkpt>
      <trkpt lat="42.53549" lon="18.36685">
        <ele>111.71025</ele>
        <time>2022-06-01T10:21:27.575Z</time>
      </trkpt>
      <trkpt lat="42.53554" lon="18.36672">
        <ele>111.682783</ele>
        <time>2022-06-01T10:21:30.589Z</time>
      </trkpt>
      <trkpt lat="42.53557" lon="18.36659">
        <ele>111.653996</ele>
        <time>2022-06-01T10:21:33.588Z</time>
      </trkpt>
      <trkpt lat="42.5356" lon="18.36645">
        <ele>111.626201</ele>
        <time>2022-06-01T10:21:36.592Z</time>
      </trkpt>
      <trkpt lat="42.53562" lon="18.36631">
        <ele>111.598597</ele>
        <time>2022-06-01T10:21:39.593Z</time>
      </trkpt>
      <trkpt lat="42.53565" lon="18.36617">
        <ele>111.570039</ele>
        <time>2022-06-01T10:21:42.588Z</time>
      </trkpt>
      <trkpt lat="42.53566" lon="18.36601">
        <ele>111.539487</ele>
        <time>2022-06-01T10:21:45.599Z</time>
      </trkpt>
      <trkpt lat="42.53567" lon="18.36585">
        <ele>111.507507</ele>
        <time>2022-06-01T10:21:48.579Z</time>
      </trkpt>
      <trkpt lat="42.53567" lon="18.36569">
        <ele>111.477224</ele>
        <time>2022-06-01T10:21:51.596Z</time>
      </trkpt>
      <trkpt lat="42.53567" lon="18.36553">
        <ele>111.484137</ele>
        <time>2022-06-01T10:21:54.623Z</time>
      </trkpt>
      <trkpt lat="42.53567" lon="18.36538">
        <ele>111.490789</ele>
        <time>2022-06-01T10:21:57.585Z</time>
      </trkpt>
      <trkpt lat="42.53567" lon="18.36524">
        <ele>111.49705</ele>
        <time>2022-06-01T10:22:00.589Z</time>
      </trkpt>
      <trkpt lat="42.53568" lon="18.36509">
        <ele>111.503587</ele>
        <time>2022-06-01T10:22:03.588Z</time>
      </trkpt>
      <trkpt lat="42.53568" lon="18.36493">
        <ele>111.510202</ele>
        <time>2022-06-01T10:22:06.572Z</time>
      </trkpt>
      <trkpt lat="42.53569" lon="18.36478">
        <ele>111.516903</ele>
        <time>2022-06-01T10:22:09.583Z</time>
      </trkpt>
      <trkpt lat="42.5357" lon="18.36463">
        <ele>111.523505</ele>
        <time>2022-06-01T10:22:12.576Z</time>
      </trkpt>
      <trkpt lat="42.53571" lon="18.36448">
        <ele>111.530207</ele>
        <time>2022-06-01T10:22:15.599Z</time>
      </trkpt>
      <trkpt lat="42.53572" lon="18.36433">
        <ele>111.536658</ele>
        <time>2022-06-01T10:22:18.600Z</time>
      </trkpt>
      <trkpt lat="42.53572" lon="18.36415">
        <ele>111.544353</ele>
        <time>2022-06-01T10:22:21.583Z</time>
      </trkpt>
      <trkpt lat="42.53572" lon="18.36402">
        <ele>111.549961</ele>
        <time>2022-06-01T10:22:23.626Z</time>
      </trkpt>
      <trkpt lat="42.53572" lon="18.36389">
        <ele>111.555526</ele>
        <time>2022-06-01T10:22:25.587Z</time>
      </trkpt>
      <trkpt lat="42.53572" lon="18.36371">
        <ele>111.563352</ele>
        <time>2022-06-01T10:22:28.580Z</time>
      </trkpt>
      <trkpt lat="42.53573" lon="18.36356">
        <ele>111.569955</ele>
        <time>2022-06-01T10:22:31.590Z</time>
      </trkpt>
      <trkpt lat="42.53577" lon="18.36344">
        <ele>111.575776</ele>
        <time>2022-06-01T10:22:34.593Z</time>
      </trkpt>
      <trkpt lat="42.53582" lon="18.36333">
        <ele>111.58153</ele>
        <time>2022-06-01T10:22:37.585Z</time>
      </trkpt>
      <trkpt lat="42.53587" lon="18.36322">
        <ele>111.700914</ele>
        <time>2022-06-01T10:22:40.586Z</time>
      </trkpt>
      <trkpt lat="42.53594" lon="18.36309">
        <ele>111.908994</ele>
        <time>2022-06-01T10:22:44.618Z</time>
      </trkpt>
      <trkpt lat="42.53599" lon="18.36299">
        <ele>112.079684</ele>
        <time>2022-06-01T10:22:47.583Z</time>
      </trkpt>
      <trkpt lat="42.53606" lon="18.36287">
        <ele>112.285137</ele>
        <time>2022-06-01T10:22:51.588Z</time>
      </trkpt>
      <trkpt lat="42.53611" lon="18.36274">
        <ele>112.487277</ele>
        <time>2022-06-01T10:22:55.579Z</time>
      </trkpt>
      <trkpt lat="42.53616" lon="18.36262">
        <ele>112.677581</ele>
        <time>2022-06-01T10:22:59.597Z</time>
      </trkpt>
      <trkpt lat="42.53621" lon="18.36249">
        <ele>112.865781</ele>
        <time>2022-06-01T10:23:03.600Z</time>
      </trkpt>
      <trkpt lat="42.53627" lon="18.36238">
        <ele>113.052013</ele>
        <time>2022-06-01T10:23:07.621Z</time>
      </trkpt>
      <trkpt lat="42.53631" lon="18.36226">
        <ele>113.239076</ele>
        <time>2022-06-01T10:23:11.589Z</time>
      </trkpt>
      <trkpt lat="42.53636" lon="18.36214">
        <ele>113.418459</ele>
        <time>2022-06-01T10:23:15.571Z</time>
      </trkpt>
      <trkpt lat="42.5364" lon="18.36201">
        <ele>113.598526</ele>
        <time>2022-06-01T10:23:19.587Z</time>
      </trkpt>
      <trkpt lat="42.53642" lon="18.3619">
        <ele>113.765096</ele>
        <time>2022-06-01T10:23:23.578Z</time>
      </trkpt>
      <trkpt lat="42.53646" lon="18.36176">
        <ele>113.960454</ele>
        <time>2022-06-01T10:23:27.596Z</time>
      </trkpt>
      <trkpt lat="42.53651" lon="18.36162">
        <ele>114.175066</ele>
        <time>2022-06-01T10:23:31.592Z</time>
      </trkpt>
      <trkpt lat="42.53655" lon="18.3615">
        <ele>114.34999</ele>
        <time>2022-06-01T10:23:34.586Z</time>
      </trkpt>
      <trkpt lat="42.53658" lon="18.36138">
        <ele>114.523664</ele>
        <time>2022-06-01T10:23:37.586Z</time>
      </trkpt>
      <trkpt lat="42.53662" lon="18.36125">
        <ele>114.711227</ele>
        <time>2022-06-01T10:23:40.587Z</time>
      </trkpt>
      <trkpt lat="42.53666" lon="18.36111">
        <ele>114.856191</ele>
        <time>2022-06-01T10:23:43.588Z</time>
      </trkpt>
      <trkpt lat="42.53668" lon="18.36097">
        <ele>114.701098</ele>
        <time>2022-06-01T10:23:46.626Z</time>
      </trkpt>
      <trkpt lat="42.53669" lon="18.36084">
        <ele>114.555564</ele>
        <time>2022-06-01T10:23:49.571Z</time>
      </trkpt>
      <trkpt lat="42.53672" lon="18.36072">
        <ele>114.420838</ele>
        <time>2022-06-01T10:23:52.580Z</time>
      </trkpt>
      <trkpt lat="42.53674" lon="18.3606">
        <ele>114.288653</ele>
        <time>2022-06-01T10:23:55.592Z</time>
      </trkpt>
      <trkpt lat="42.53677" lon="18.36048">
        <ele>114.15705</ele>
        <time>2022-06-01T10:23:58.591Z</time>
      </trkpt>
      <trkpt lat="42.53681" lon="18.36037">
        <ele>114.02509</ele>
        <time>2022-06-01T10:24:01.631Z</time>
      </trkpt>
      <trkpt lat="42.53688" lon="18.36025">
        <ele>113.859295</ele>
        <time>2022-06-01T10:24:04.564Z</time>
      </trkpt>
      <trkpt lat="42.53694" lon="18.36011">
        <ele>113.687129</ele>
        <time>2022-06-01T10:24:07.638Z</time>
      </trkpt>
      <trkpt lat="42.53699" lon="18.35997">
        <ele>113.512621</ele>
        <time>2022-06-01T10:24:10.593Z</time>
      </trkpt>
      <trkpt lat="42.53703" lon="18.35984">
        <ele>113.359831</ele>
        <time>2022-06-01T10:24:13.586Z</time>
      </trkpt>
      <trkpt lat="42.53706" lon="18.35972">
        <ele>113.220697</ele>
        <time>2022-06-01T10:24:16.608Z</time>
      </trkpt>
      <trkpt lat="42.53709" lon="18.35955">
        <ele>113.035312</ele>
        <time>2022-06-01T10:24:19.595Z</time>
      </trkpt>
      <trkpt lat="42.53712" lon="18.3594">
        <ele>112.865082</ele>
        <time>2022-06-01T10:24:22.587Z</time>
      </trkpt>
      <trkpt lat="42.53717" lon="18.35925">
        <ele>112.693463</ele>
        <time>2022-06-01T10:24:25.604Z</time>
      </trkpt>
      <trkpt lat="42.53722" lon="18.3591">
        <ele>112.518906</ele>
        <time>2022-06-01T10:24:28.589Z</time>
      </trkpt>
      <trkpt lat="42.53727" lon="18.35895">
        <ele>112.340614</ele>
        <time>2022-06-01T10:24:31.598Z</time>
      </trkpt>
      <trkpt lat="42.53731" lon="18.35879">
        <ele>112.197687</ele>
        <time>2022-06-01T10:24:34.588Z</time>
      </trkpt>
      <trkpt lat="42.53736" lon="18.35865">
        <ele>112.106545</ele>
        <time>2022-06-01T10:24:37.580Z</time>
      </trkpt>
      <trkpt lat="42.5374" lon="18.3585">
        <ele>112.011214</ele>
        <time>2022-06-01T10:24:40.575Z</time>
      </trkpt>
      <trkpt lat="42.53745" lon="18.35835">
        <ele>111.914001</ele>
        <time>2022-06-01T10:24:43.601Z</time>
      </trkpt>
      <trkpt lat="42.53749" lon="18.3582">
        <ele>111.823188</ele>
        <time>2022-06-01T10:24:46.627Z</time>
      </trkpt>
      <trkpt lat="42.53753" lon="18.35808">
        <ele>111.74385</ele>
        <time>2022-06-01T10:24:49.575Z</time>
      </trkpt>
      <trkpt lat="42.53757" lon="18.35793">
        <ele>111.649832</ele>
        <time>2022-06-01T10:24:53.594Z</time>
      </trkpt>
      <trkpt lat="42.53761" lon="18.35779">
        <ele>111.55736</ele>
        <time>2022-06-01T10:24:57.586Z</time>
      </trkpt>
      <trkpt lat="42.53764" lon="18.35766">
        <ele>111.480344</ele>
        <time>2022-06-01T10:25:00.592Z</time>
      </trkpt>
      <trkpt lat="42.53768" lon="18.35754">
        <ele>111.403633</ele>
        <time>2022-06-01T10:25:03.572Z</time>
      </trkpt>
      <trkpt lat="42.53771" lon="18.35741">
        <ele>111.32362</ele>
        <time>2022-06-01T10:25:06.575Z</time>
      </trkpt>
      <trkpt lat="42.53776" lon="18.35728">
        <ele>111.239397</ele>
        <time>2022-06-01T10:25:09.574Z</time>
      </trkpt>
      <trkpt lat="42.5378" lon="18.35714">
        <ele>111.148802</ele>
        <time>2022-06-01T10:25:12.576Z</time>
      </trkpt>
      <trkpt lat="42.53783" lon="18.357">
        <ele>111.062679</ele>
        <time>2022-06-01T10:25:15.589Z</time>
      </trkpt>
      <trkpt lat="42.53787" lon="18.35687">
        <ele>110.976011</ele>
        <time>2022-06-01T10:25:18.588Z</time>
      </trkpt>
      <trkpt lat="42.5379" lon="18.35674">
        <ele>110.895624</ele>
        <time>2022-06-01T10:25:21.584Z</time>
      </trkpt>
      <trkpt lat="42.53792" lon="18.3566">
        <ele>110.811152</ele>
        <time>2022-06-01T10:25:24.582Z</time>
      </trkpt>
      <trkpt lat="42.53796" lon="18.35647">
        <ele>110.745033</ele>
        <time>2022-06-01T10:25:27.587Z</time>
      </trkpt>
      <trkpt lat="42.53799" lon="18.35634">
        <ele>110.679329</ele>
        <time>2022-06-01T10:25:30.576Z</time>
      </trkpt>
      <trkpt lat="42.53803" lon="18.35619">
        <ele>110.605286</ele>
        <time>2022-06-01T10:25:33.587Z</time>
      </trkpt>
      <trkpt lat="42.53807" lon="18.35604">
        <ele>110.528763</ele>
        <time>2022-06-01T10:25:36.584Z</time>
      </trkpt>
      <trkpt lat="42.5381" lon="18.35588">
        <ele>110.445211</ele>
        <time>2022-06-01T10:25:39.582Z</time>
      </trkpt>
      <trkpt lat="42.53812" lon="18.35575">
        <ele>110.382493</ele>
        <time>2022-06-01T10:25:41.592Z</time>
      </trkpt>
      <trkpt lat="42.53814" lon="18.35561">
        <ele>110.315984</ele>
        <time>2022-06-01T10:25:43.582Z</time>
      </trkpt>
      <trkpt lat="42.53817" lon="18.35547">
        <ele>110.246997</ele>
        <time>2022-06-01T10:25:45.591Z</time>
      </trkpt>
      <trkpt lat="42.53819" lon="18.35532">
        <ele>110.17309</ele>
        <time>2022-06-01T10:25:47.599Z</time>
      </trkpt>
      <trkpt lat="42.53822" lon="18.35517">
        <ele>110.099014</ele>
        <time>2022-06-01T10:25:49.577Z</time>
      </trkpt>
      <trkpt lat="42.53825" lon="18.35502">
        <ele>110.023715</ele>
        <time>2022-06-01T10:25:51.582Z</time>
      </trkpt>
      <trkpt lat="42.53828" lon="18.35488">
        <ele>109.952872</ele>
        <time>2022-06-01T10:25:53.590Z</time>
      </trkpt>
      <trkpt lat="42.53831" lon="18.35474">
        <ele>109.885059</ele>
        <time>2022-06-01T10:25:55.578Z</time>
      </trkpt>
      <trkpt lat="42.53834" lon="18.35463">
        <ele>109.826064</ele>
        <time>2022-06-01T10:25:57.568Z</time>
      </trkpt>
      <trkpt lat="42.53838" lon="18.35446">
        <ele>109.740134</ele>
        <time>2022-06-01T10:26:00.592Z</time>
      </trkpt>
      <trkpt lat="42.53844" lon="18.3543">
        <ele>109.657345</ele>
        <time>2022-06-01T10:26:03.579Z</time>
      </trkpt>
      <trkpt lat="42.53848" lon="18.35419">
        <ele>109.601505</ele>
        <time>2022-06-01T10:26:05.610Z</time>
      </trkpt>
      <trkpt lat="42.53855" lon="18.35404">
        <ele>109.523751</ele>
        <time>2022-06-01T10:26:08.600Z</time>
      </trkpt>
      <trkpt lat="42.53861" lon="18.35389">
        <ele>109.448745</ele>
        <time>2022-06-01T10:26:11.587Z</time>
      </trkpt>
      <trkpt lat="42.53863" lon="18.35377">
        <ele>109.394683</ele>
        <time>2022-06-01T10:26:13.595Z</time>
      </trkpt>
      <trkpt lat="42.53865" lon="18.35365">
        <ele>109.338013</ele>
        <time>2022-06-01T10:26:15.589Z</time>
      </trkpt>
      <trkpt lat="42.53867" lon="18.35352">
        <ele>109.281773</ele>
        <time>2022-06-01T10:26:17.591Z</time>
      </trkpt>
      <trkpt lat="42.53868" lon="18.35339">
        <ele>109.226242</ele>
        <time>2022-06-01T10:26:19.590Z</time>
      </trkpt>
      <trkpt lat="42.53868" lon="18.35327">
        <ele>109.171854</ele>
        <time>2022-06-01T10:26:21.573Z</time>
      </trkpt>
      <trkpt lat="42.53868" lon="18.3531">
        <ele>109.098229</ele>
        <time>2022-06-01T10:26:24.598Z</time>
      </trkpt>
      <trkpt lat="42.53869" lon="18.35295">
        <ele>109.030307</ele>
        <time>2022-06-01T10:26:27.605Z</time>
      </trkpt>
      <trkpt lat="42.53872" lon="18.3528">
        <ele>108.964331</ele>
        <time>2022-06-01T10:26:30.597Z</time>
      </trkpt>
      <trkpt lat="42.53874" lon="18.35265">
        <ele>108.895232</ele>
        <time>2022-06-01T10:26:33.600Z</time>
      </trkpt>
      <trkpt lat="42.53879" lon="18.35249">
        <ele>108.82163</ele>
        <time>2022-06-01T10:26:36.590Z</time>
      </trkpt>
      <trkpt lat="42.53882" lon="18.35233">
        <ele>108.747968</ele>
        <time>2022-06-01T10:26:39.620Z</time>
      </trkpt>
      <trkpt lat="42.53887" lon="18.35216">
        <ele>108.668795</ele>
        <time>2022-06-01T10:26:42.586Z</time>
      </trkpt>
      <trkpt lat="42.53892" lon="18.35199">
        <ele>108.587577</ele>
        <time>2022-06-01T10:26:45.567Z</time>
      </trkpt>
      <trkpt lat="42.53895" lon="18.35187">
        <ele>108.526513</ele>
        <time>2022-06-01T10:26:47.584Z</time>
      </trkpt>
      <trkpt lat="42.53898" lon="18.35174">
        <ele>108.459607</ele>
        <time>2022-06-01T10:26:49.590Z</time>
      </trkpt>
      <trkpt lat="42.53902" lon="18.35161">
        <ele>108.391297</ele>
        <time>2022-06-01T10:26:51.592Z</time>
      </trkpt>
      <trkpt lat="42.53905" lon="18.35148">
        <ele>108.321787</ele>
        <time>2022-06-01T10:26:53.604Z</time>
      </trkpt>
      <trkpt lat="42.53909" lon="18.35136">
        <ele>108.253205</ele>
        <time>2022-06-01T10:26:55.588Z</time>
      </trkpt>
      <trkpt lat="42.53913" lon="18.35123">
        <ele>108.185129</ele>
        <time>2022-06-01T10:26:57.590Z</time>
      </trkpt>
      <trkpt lat="42.53916" lon="18.35109">
        <ele>108.113964</ele>
        <time>2022-06-01T10:26:59.595Z</time>
      </trkpt>
      <trkpt lat="42.5392" lon="18.35096">
        <ele>108.043524</ele>
        <time>2022-06-01T10:27:01.593Z</time>
      </trkpt>
      <trkpt lat="42.53925" lon="18.35084">
        <ele>107.972555</ele>
        <time>2022-06-01T10:27:03.608Z</time>
      </trkpt>
      <trkpt lat="42.53929" lon="18.3507">
        <ele>107.89824</ele>
        <time>2022-06-01T10:27:05.579Z</time>
      </trkpt>
      <trkpt lat="42.53933" lon="18.35057">
        <ele>107.82547</ele>
        <time>2022-06-01T10:27:07.597Z</time>
      </trkpt>
      <trkpt lat="42.53938" lon="18.35044">
        <ele>107.754347</ele>
        <time>2022-06-01T10:27:09.588Z</time>
      </trkpt>
      <trkpt lat="42.53942" lon="18.35031">
        <ele>107.680837</ele>
        <time>2022-06-01T10:27:11.592Z</time>
      </trkpt>
      <trkpt lat="42.53946" lon="18.35018">
        <ele>107.611821</ele>
        <time>2022-06-01T10:27:13.580Z</time>
      </trkpt>
      <trkpt lat="42.53949" lon="18.35004">
        <ele>107.542229</ele>
        <time>2022-06-01T10:27:15.592Z</time>
      </trkpt>
      <trkpt lat="42.53952" lon="18.34992">
        <ele>107.476383</ele>
        <time>2022-06-01T10:27:17.591Z</time>
      </trkpt>
      <trkpt lat="42.53955" lon="18.34979">
        <ele>107.411972</ele>
        <time>2022-06-01T10:27:19.596Z</time>
      </trkpt>
      <trkpt lat="42.53958" lon="18.34967">
        <ele>107.34831</ele>
        <time>2022-06-01T10:27:21.596Z</time>
      </trkpt>
      <trkpt lat="42.53961" lon="18.34955">
        <ele>107.277053</ele>
        <time>2022-06-01T10:27:23.582Z</time>
      </trkpt>
      <trkpt lat="42.53964" lon="18.34943">
        <ele>107.206897</ele>
        <time>2022-06-01T10:27:25.563Z</time>
      </trkpt>
      <trkpt lat="42.53966" lon="18.34931">
        <ele>107.136209</ele>
        <time>2022-06-01T10:27:27.592Z</time>
      </trkpt>
      <trkpt lat="42.53969" lon="18.34919">
        <ele>107.067408</ele>
        <time>2022-06-01T10:27:29.593Z</time>
      </trkpt>
      <trkpt lat="42.53972" lon="18.34908">
        <ele>106.999135</ele>
        <time>2022-06-01T10:27:31.582Z</time>
      </trkpt>
      <trkpt lat="42.53977" lon="18.34891">
        <ele>106.89688</ele>
        <time>2022-06-01T10:27:34.576Z</time>
      </trkpt>
      <trkpt lat="42.5398" lon="18.34879">
        <ele>106.828886</ele>
        <time>2022-06-01T10:27:36.627Z</time>
      </trkpt>
      <trkpt lat="42.53984" lon="18.34863">
        <ele>106.731865</ele>
        <time>2022-06-01T10:27:39.576Z</time>
      </trkpt>
      <trkpt lat="42.53988" lon="18.34847">
        <ele>106.636673</ele>
        <time>2022-06-01T10:27:42.584Z</time>
      </trkpt>
      <trkpt lat="42.53992" lon="18.3483">
        <ele>106.539478</ele>
        <time>2022-06-01T10:27:45.578Z</time>
      </trkpt>
      <trkpt lat="42.53996" lon="18.34813">
        <ele>106.439579</ele>
        <time>2022-06-01T10:27:48.603Z</time>
      </trkpt>
      <trkpt lat="42.54001" lon="18.34797">
        <ele>106.344915</ele>
        <time>2022-06-01T10:27:51.570Z</time>
      </trkpt>
      <trkpt lat="42.54006" lon="18.34782">
        <ele>106.25091</ele>
        <time>2022-06-01T10:27:54.598Z</time>
      </trkpt>
      <trkpt lat="42.54012" lon="18.34765">
        <ele>106.148857</ele>
        <time>2022-06-01T10:27:57.589Z</time>
      </trkpt>
      <trkpt lat="42.54018" lon="18.34749">
        <ele>106.046761</ele>
        <time>2022-06-01T10:28:00.584Z</time>
      </trkpt>
      <trkpt lat="42.54023" lon="18.34737">
        <ele>105.971346</ele>
        <time>2022-06-01T10:28:02.584Z</time>
      </trkpt>
      <trkpt lat="42.54029" lon="18.34725">
        <ele>105.896522</ele>
        <time>2022-06-01T10:28:04.608Z</time>
      </trkpt>
      <trkpt lat="42.54036" lon="18.34713">
        <ele>105.81332</ele>
        <time>2022-06-01T10:28:06.566Z</time>
      </trkpt>
      <trkpt lat="42.54046" lon="18.34701">
        <ele>105.720368</ele>
        <time>2022-06-01T10:28:08.602Z</time>
      </trkpt>
      <trkpt lat="42.54055" lon="18.34689">
        <ele>105.629888</ele>
        <time>2022-06-01T10:28:10.608Z</time>
      </trkpt>
      <trkpt lat="42.54063" lon="18.34677">
        <ele>105.545621</ele>
        <time>2022-06-01T10:28:12.587Z</time>
      </trkpt>
      <trkpt lat="42.54069" lon="18.34664">
        <ele>105.467149</ele>
        <time>2022-06-01T10:28:14.581Z</time>
      </trkpt>
      <trkpt lat="42.54073" lon="18.34652">
        <ele>105.395079</ele>
        <time>2022-06-01T10:28:16.586Z</time>
      </trkpt>
      <trkpt lat="42.54076" lon="18.3464">
        <ele>105.329877</ele>
        <time>2022-06-01T10:28:18.591Z</time>
      </trkpt>
      <trkpt lat="42.5408" lon="18.34624">
        <ele>105.238421</ele>
        <time>2022-06-01T10:28:21.629Z</time>
      </trkpt>
      <trkpt lat="42.54084" lon="18.34608">
        <ele>105.155031</ele>
        <time>2022-06-01T10:28:24.569Z</time>
      </trkpt>
      <trkpt lat="42.54087" lon="18.34592">
        <ele>105.067832</ele>
        <time>2022-06-01T10:28:27.576Z</time>
      </trkpt>
      <trkpt lat="42.54089" lon="18.34574">
        <ele>104.97256</ele>
        <time>2022-06-01T10:28:30.587Z</time>
      </trkpt>
      <trkpt lat="42.54091" lon="18.34562">
        <ele>104.906445</ele>
        <time>2022-06-01T10:28:32.587Z</time>
      </trkpt>
      <trkpt lat="42.54095" lon="18.3455">
        <ele>104.83618</ele>
        <time>2022-06-01T10:28:34.581Z</time>
      </trkpt>
      <trkpt lat="42.54098" lon="18.34538">
        <ele>104.769833</ele>
        <time>2022-06-01T10:28:36.568Z</time>
      </trkpt>
      <trkpt lat="42.54103" lon="18.34526">
        <ele>104.7065</ele>
        <time>2022-06-01T10:28:38.581Z</time>
      </trkpt>
      <trkpt lat="42.54108" lon="18.34515">
        <ele>104.716591</ele>
        <time>2022-06-01T10:28:40.612Z</time>
      </trkpt>
      <trkpt lat="42.54114" lon="18.34503">
        <ele>104.727019</ele>
        <time>2022-06-01T10:28:42.588Z</time>
      </trkpt>
      <trkpt lat="42.5412" lon="18.3449">
        <ele>104.73797</ele>
        <time>2022-06-01T10:28:44.600Z</time>
      </trkpt>
      <trkpt lat="42.54126" lon="18.34478">
        <ele>104.748404</ele>
        <time>2022-06-01T10:28:46.614Z</time>
      </trkpt>
      <trkpt lat="42.54132" lon="18.34466">
        <ele>104.758723</ele>
        <time>2022-06-01T10:28:48.631Z</time>
      </trkpt>
      <trkpt lat="42.54138" lon="18.34454">
        <ele>104.769272</ele>
        <time>2022-06-01T10:28:50.576Z</time>
      </trkpt>
      <trkpt lat="42.54144" lon="18.34442">
        <ele>104.77996</ele>
        <time>2022-06-01T10:28:52.589Z</time>
      </trkpt>
      <trkpt lat="42.54149" lon="18.34429">
        <ele>104.791021</ele>
        <time>2022-06-01T10:28:54.586Z</time>
      </trkpt>
      <trkpt lat="42.54155" lon="18.34416">
        <ele>104.801934</ele>
        <time>2022-06-01T10:28:56.586Z</time>
      </trkpt>
      <trkpt lat="42.5416" lon="18.34403">
        <ele>104.812833</ele>
        <time>2022-06-01T10:28:58.576Z</time>
      </trkpt>
      <trkpt lat="42.54165" lon="18.34391">
        <ele>104.823017</ele>
        <time>2022-06-01T10:29:00.590Z</time>
      </trkpt>
      <trkpt lat="42.54171" lon="18.3438">
        <ele>104.832519</ele>
        <time>2022-06-01T10:29:02.571Z</time>
      </trkpt>
      <trkpt lat="42.54176" lon="18.34369">
        <ele>104.841663</ele>
        <time>2022-06-01T10:29:04.598Z</time>
      </trkpt>
      <trkpt lat="42.54182" lon="18.34354">
        <ele>104.854252</ele>
        <time>2022-06-01T10:29:07.591Z</time>
      </trkpt>
      <trkpt lat="42.54188" lon="18.34339">
        <ele>104.866995</ele>
        <time>2022-06-01T10:29:10.580Z</time>
      </trkpt>
      <trkpt lat="42.54196" lon="18.34324">
        <ele>104.879774</ele>
        <time>2022-06-01T10:29:13.580Z</time>
      </trkpt>
      <trkpt lat="42.54203" lon="18.3431">
        <ele>104.877393</ele>
        <time>2022-06-01T10:29:16.627Z</time>
      </trkpt>
      <trkpt lat="42.54209" lon="18.34295">
        <ele>104.868899</ele>
        <time>2022-06-01T10:29:19.593Z</time>
      </trkpt>
      <trkpt lat="42.54215" lon="18.34281">
        <ele>104.861077</ele>
        <time>2022-06-01T10:29:22.596Z</time>
      </trkpt>
      <trkpt lat="42.54222" lon="18.34268">
        <ele>104.853202</ele>
        <time>2022-06-01T10:29:25.691Z</time>
      </trkpt>
      <trkpt lat="42.54228" lon="18.34254">
        <ele>104.845133</ele>
        <time>2022-06-01T10:29:28.619Z</time>
      </trkpt>
      <trkpt lat="42.54234" lon="18.3424">
        <ele>104.837327</ele>
        <time>2022-06-01T10:29:31.561Z</time>
      </trkpt>
      <trkpt lat="42.54239" lon="18.34227">
        <ele>104.829834</ele>
        <time>2022-06-01T10:29:34.569Z</time>
      </trkpt>
      <trkpt lat="42.54245" lon="18.34214">
        <ele>104.822403</ele>
        <time>2022-06-01T10:29:37.722Z</time>
      </trkpt>
      <trkpt lat="42.54251" lon="18.34201">
        <ele>104.814766</ele>
        <time>2022-06-01T10:29:40.598Z</time>
      </trkpt>
      <trkpt lat="42.54257" lon="18.34189">
        <ele>104.807575</ele>
        <time>2022-06-01T10:29:43.618Z</time>
      </trkpt>
      <trkpt lat="42.54264" lon="18.3418">
        <ele>104.800945</ele>
        <time>2022-06-01T10:29:46.577Z</time>
      </trkpt>
      <trkpt lat="42.54272" lon="18.34172">
        <ele>104.794626</ele>
        <time>2022-06-01T10:29:49.595Z</time>
      </trkpt>
      <trkpt lat="42.54282" lon="18.34167">
        <ele>104.787239</ele>
        <time>2022-06-01T10:29:52.582Z</time>
      </trkpt>
      <trkpt lat="42.54292" lon="18.34164">
        <ele>104.780476</ele>
        <time>2022-06-01T10:29:55.593Z</time>
      </trkpt>
      <trkpt lat="42.54301" lon="18.34162">
        <ele>104.774096</ele>
        <time>2022-06-01T10:29:58.574Z</time>
      </trkpt>
      <trkpt lat="42.54311" lon="18.3416">
        <ele>104.767818</ele>
        <time>2022-06-01T10:30:01.588Z</time>
      </trkpt>
      <trkpt lat="42.5432" lon="18.34159">
        <ele>104.81562</ele>
        <time>2022-06-01T10:30:04.581Z</time>
      </trkpt>
      <trkpt lat="42.54331" lon="18.34157">
        <ele>105.112139</ele>
        <time>2022-06-01T10:30:08.574Z</time>
      </trkpt>
      <trkpt lat="42.54342" lon="18.34155">
        <ele>105.393579</ele>
        <time>2022-06-01T10:30:12.618Z</time>
      </trkpt>
      <trkpt lat="42.54352" lon="18.34153">
        <ele>105.661982</ele>
        <time>2022-06-01T10:30:16.606Z</time>
      </trkpt>
      <trkpt lat="42.54363" lon="18.3415">
        <ele>105.947801</ele>
        <time>2022-06-01T10:30:20.572Z</time>
      </trkpt>
      <trkpt lat="42.54374" lon="18.34148">
        <ele>106.223867</ele>
        <time>2022-06-01T10:30:24.596Z</time>
      </trkpt>
      <trkpt lat="42.54384" lon="18.34147">
        <ele>106.490894</ele>
        <time>2022-06-01T10:30:28.571Z</time>
      </trkpt>
      <trkpt lat="42.54394" lon="18.34145">
        <ele>106.747289</ele>
        <time>2022-06-01T10:30:32.579Z</time>
      </trkpt>
      <trkpt lat="42.54404" lon="18.34144">
        <ele>106.99892</ele>
        <time>2022-06-01T10:30:36.589Z</time>
      </trkpt>
      <trkpt lat="42.54413" lon="18.34144">
        <ele>107.249147</ele>
        <time>2022-06-01T10:30:40.647Z</time>
      </trkpt>
      <trkpt lat="42.54423" lon="18.34144">
        <ele>107.504555</ele>
        <time>2022-06-01T10:30:44.585Z</time>
      </trkpt>
      <trkpt lat="42.54434" lon="18.34143">
        <ele>107.788825</ele>
        <time>2022-06-01T10:30:49.591Z</time>
      </trkpt>
      <trkpt lat="42.54444" lon="18.34142">
        <ele>108.039629</ele>
        <time>2022-06-01T10:30:54.596Z</time>
      </trkpt>
      <trkpt lat="42.54454" lon="18.34141">
        <ele>108.287859</ele>
        <time>2022-06-01T10:30:59.583Z</time>
      </trkpt>
      <trkpt lat="42.54463" lon="18.34141">
        <ele>108.540723</ele>
        <time>2022-06-01T10:31:04.581Z</time>
      </trkpt>
      <trkpt lat="42.54473" lon="18.3414">
        <ele>108.783948</ele>
        <time>2022-06-01T10:31:09.627Z</time>
      </trkpt>
      <trkpt lat="42.54481" lon="18.34136">
        <ele>109.019302</ele>
        <time>2022-06-01T10:31:14.581Z</time>
      </trkpt>
      <trkpt lat="42.5449" lon="18.34131">
        <ele>109.263015</ele>
        <time>2022-06-01T10:31:19.579Z</time>
      </trkpt>
      <trkpt lat="42.54499" lon="18.34125">
        <ele>109.596497</ele>
        <time>2022-06-01T10:31:24.581Z</time>
      </trkpt>
      <trkpt lat="42.54507" lon="18.34118">
        <ele>110.000857</ele>
        <time>2022-06-01T10:31:28.591Z</time>
      </trkpt>
      <trkpt lat="42.54516" lon="18.3411">
        <ele>110.473493</ele>
        <time>2022-06-01T10:31:32.594Z</time>
      </trkpt>
      <trkpt lat="42.54524" lon="18.34102">
        <ele>110.89567</ele>
        <time>2022-06-01T10:31:36.582Z</time>
      </trkpt>
      <trkpt lat="42.54532" lon="18.34094">
        <ele>111.307473</ele>
        <time>2022-06-01T10:31:40.595Z</time>
      </trkpt>
      <trkpt lat="42.54539" lon="18.34087">
        <ele>111.703722</ele>
        <time>2022-06-01T10:31:44.591Z</time>
      </trkpt>
      <trkpt lat="42.54547" lon="18.3408">
        <ele>112.099672</ele>
        <time>2022-06-01T10:31:48.581Z</time>
      </trkpt>
      <trkpt lat="42.54555" lon="18.34074">
        <ele>112.508273</ele>
        <time>2022-06-01T10:31:52.582Z</time>
      </trkpt>
      <trkpt lat="42.54565" lon="18.34069">
        <ele>112.928492</ele>
        <time>2022-06-01T10:31:57.587Z</time>
      </trkpt>
      <trkpt lat="42.54575" lon="18.34071">
        <ele>113.371154</ele>
        <time>2022-06-01T10:32:03.578Z</time>
      </trkpt>
      <trkpt lat="42.54584" lon="18.3408">
        <ele>113.855386</ele>
        <time>2022-06-01T10:32:08.580Z</time>
      </trkpt>
      <trkpt lat="42.54591" lon="18.34087">
        <ele>114.248258</ele>
        <time>2022-06-01T10:32:12.578Z</time>
      </trkpt>
      <trkpt lat="42.54598" lon="18.34095">
        <ele>114.636025</ele>
        <time>2022-06-01T10:32:16.602Z</time>
      </trkpt>
      <trkpt lat="42.54606" lon="18.34104">
        <ele>115.06831</ele>
        <time>2022-06-01T10:32:21.579Z</time>
      </trkpt>
      <trkpt lat="42.54614" lon="18.34113">
        <ele>115.505705</ele>
        <time>2022-06-01T10:32:26.574Z</time>
      </trkpt>
      <trkpt lat="42.54621" lon="18.34121">
        <ele>115.89188</ele>
        <time>2022-06-01T10:32:31.574Z</time>
      </trkpt>
      <trkpt lat="42.54628" lon="18.34129">
        <ele>116.312685</ele>
        <time>2022-06-01T10:32:37.589Z</time>
      </trkpt>
      <trkpt lat="42.54634" lon="18.34138">
        <ele>116.703515</ele>
        <time>2022-06-01T10:32:44.588Z</time>
      </trkpt>
      <trkpt lat="42.54642" lon="18.34148">
        <ele>117.151645</ele>
        <time>2022-06-01T10:32:50.631Z</time>
      </trkpt>
      <trkpt lat="42.54649" lon="18.34156">
        <ele>117.67049</ele>
        <time>2022-06-01T10:32:56.633Z</time>
      </trkpt>
      <trkpt lat="42.54656" lon="18.34164">
        <ele>118.209858</ele>
        <time>2022-06-01T10:33:02.581Z</time>
      </trkpt>
      <trkpt lat="42.54664" lon="18.34172">
        <ele>118.7548</ele>
        <time>2022-06-01T10:33:08.577Z</time>
      </trkpt>
      <trkpt lat="42.54671" lon="18.34181">
        <ele>119.280585</ele>
        <time>2022-06-01T10:33:14.596Z</time>
      </trkpt>
      <trkpt lat="42.54679" lon="18.3419">
        <ele>119.875991</ele>
        <time>2022-06-01T10:33:21.583Z</time>
      </trkpt>
      <trkpt lat="42.54688" lon="18.34197">
        <ele>120.449956</ele>
        <time>2022-06-01T10:33:28.605Z</time>
      </trkpt>
      <trkpt lat="42.54695" lon="18.34205">
        <ele>120.994897</ele>
        <time>2022-06-01T10:33:35.629Z</time>
      </trkpt>
      <trkpt lat="42.54703" lon="18.34214">
        <ele>121.581259</ele>
        <time>2022-06-01T10:33:42.586Z</time>
      </trkpt>
      <trkpt lat="42.54711" lon="18.34222">
        <ele>122.149121</ele>
        <time>2022-06-01T10:33:49.596Z</time>
      </trkpt>
      <trkpt lat="42.5472" lon="18.3423">
        <ele>122.727854</ele>
        <time>2022-06-01T10:33:57.592Z</time>
      </trkpt>
      <trkpt lat="42.54729" lon="18.34236">
        <ele>123.267586</ele>
        <time>2022-06-01T10:34:04.591Z</time>
      </trkpt>
      <trkpt lat="42.54739" lon="18.34241">
        <ele>123.864758</ele>
        <time>2022-06-01T10:34:11.582Z</time>
      </trkpt>
      <trkpt lat="42.54748" lon="18.34244">
        <ele>124.431873</ele>
        <time>2022-06-01T10:34:18.580Z</time>
      </trkpt>
      <trkpt lat="42.54758" lon="18.34247">
        <ele>125.013225</ele>
        <time>2022-06-01T10:34:25.560Z</time>
      </trkpt>
      <trkpt lat="42.54767" lon="18.34249">
        <ele>125.528949</ele>
        <time>2022-06-01T10:34:31.559Z</time>
      </trkpt>
      <trkpt lat="42.54776" lon="18.34249">
        <ele>126.042165</ele>
        <time>2022-06-01T10:34:38.558Z</time>
      </trkpt>
      <trkpt lat="42.54786" lon="18.34248">
        <ele>126.603947</ele>
        <time>2022-06-01T10:34:46.549Z</time>
      </trkpt>
      <trkpt lat="42.54796" lon="18.34245">
        <ele>127.133911</ele>
        <time>2022-06-01T10:34:53.558Z</time>
      </trkpt>
      <trkpt lat="42.54805" lon="18.34243">
        <ele>127.435621</ele>
        <time>2022-06-01T10:35:00.551Z</time>
      </trkpt>
      <trkpt lat="42.54814" lon="18.34238">
        <ele>127.653508</ele>
        <time>2022-06-01T10:35:09.597Z</time>
      </trkpt>
      <trkpt lat="42.54823" lon="18.34232">
        <ele>127.89419</ele>
        <time>2022-06-01T10:35:16.575Z</time>
      </trkpt>
      <trkpt lat="42.54829" lon="18.34221">
        <ele>128.129429</ele>
        <time>2022-06-01T10:35:20.565Z</time>
      </trkpt>
      <trkpt lat="42.54835" lon="18.34206">
        <ele>128.41735</ele>
        <time>2022-06-01T10:35:23.563Z</time>
      </trkpt>
      <trkpt lat="42.5484" lon="18.34196">
        <ele>128.628608</ele>
        <time>2022-06-01T10:35:25.550Z</time>
      </trkpt>
      <trkpt lat="42.54848" lon="18.34183">
        <ele>128.924702</ele>
        <time>2022-06-01T10:35:28.564Z</time>
      </trkpt>
      <trkpt lat="42.54853" lon="18.3417">
        <ele>129.180827</ele>
        <time>2022-06-01T10:35:31.557Z</time>
      </trkpt>
      <trkpt lat="42.54856" lon="18.34158">
        <ele>129.399075</ele>
        <time>2022-06-01T10:35:34.553Z</time>
      </trkpt>
      <trkpt lat="42.54858" lon="18.34145">
        <ele>129.621093</ele>
        <time>2022-06-01T10:35:37.577Z</time>
      </trkpt>
      <trkpt lat="42.54861" lon="18.3413">
        <ele>129.885044</ele>
        <time>2022-06-01T10:35:41.577Z</time>
      </trkpt>
      <trkpt lat="42.54862" lon="18.34117">
        <ele>130.119263</ele>
        <time>2022-06-01T10:35:45.572Z</time>
      </trkpt>
      <trkpt lat="42.54861" lon="18.34105">
        <ele>130.332881</ele>
        <time>2022-06-01T10:35:49.550Z</time>
      </trkpt>
      <trkpt lat="42.5486" lon="18.34092">
        <ele>130.545676</ele>
        <time>2022-06-01T10:35:53.557Z</time>
      </trkpt>
      <trkpt lat="42.54859" lon="18.34079">
        <ele>130.77453</ele>
        <time>2022-06-01T10:35:57.567Z</time>
      </trkpt>
      <trkpt lat="42.54866" lon="18.34051">
        <ele>131.283974</ele>
        <time>2022-06-01T10:38:22.591Z</time>
      </trkpt>
      <trkpt lat="42.54874" lon="18.34037">
        <ele>131.360386</ele>
        <time>2022-06-01T10:38:25.555Z</time>
      </trkpt>
      <trkpt lat="42.5488" lon="18.34028">
        <ele>131.152523</ele>
        <time>2022-06-01T10:38:27.548Z</time>
      </trkpt>
      <trkpt lat="42.54887" lon="18.34018">
        <ele>130.930789</ele>
        <time>2022-06-01T10:38:29.549Z</time>
      </trkpt>
      <trkpt lat="42.54895" lon="18.34009">
        <ele>130.699759</ele>
        <time>2022-06-01T10:38:31.561Z</time>
      </trkpt>
      <trkpt lat="42.54904" lon="18.34001">
        <ele>130.458491</ele>
        <time>2022-06-01T10:38:33.565Z</time>
      </trkpt>
      <trkpt lat="42.54914" lon="18.33996">
        <ele>130.23122</ele>
        <time>2022-06-01T10:38:35.556Z</time>
      </trkpt>
      <trkpt lat="42.54925" lon="18.33991">
        <ele>129.957713</ele>
        <time>2022-06-01T10:38:38.566Z</time>
      </trkpt>
      <trkpt lat="42.54935" lon="18.33988">
        <ele>129.730325</ele>
        <time>2022-06-01T10:38:41.557Z</time>
      </trkpt>
      <trkpt lat="42.54944" lon="18.33984">
        <ele>129.518447</ele>
        <time>2022-06-01T10:38:44.559Z</time>
      </trkpt>
      <trkpt lat="42.54954" lon="18.33981">
        <ele>129.30973</ele>
        <time>2022-06-01T10:38:47.571Z</time>
      </trkpt>
      <trkpt lat="42.54962" lon="18.33977">
        <ele>129.107305</ele>
        <time>2022-06-01T10:38:50.553Z</time>
      </trkpt>
      <trkpt lat="42.54972" lon="18.33972">
        <ele>128.884603</ele>
        <time>2022-06-01T10:38:53.555Z</time>
      </trkpt>
      <trkpt lat="42.54981" lon="18.33965">
        <ele>128.643693</ele>
        <time>2022-06-01T10:38:56.588Z</time>
      </trkpt>
      <trkpt lat="42.54991" lon="18.33959">
        <ele>128.404468</ele>
        <time>2022-06-01T10:38:59.569Z</time>
      </trkpt>
      <trkpt lat="42.55" lon="18.33951">
        <ele>128.171685</ele>
        <time>2022-06-01T10:39:02.580Z</time>
      </trkpt>
      <trkpt lat="42.55009" lon="18.33943">
        <ele>127.922707</ele>
        <time>2022-06-01T10:39:05.566Z</time>
      </trkpt>
      <trkpt lat="42.55019" lon="18.33932">
        <ele>127.639248</ele>
        <time>2022-06-01T10:39:08.586Z</time>
      </trkpt>
      <trkpt lat="42.55026" lon="18.33924">
        <ele>127.511384</ele>
        <time>2022-06-01T10:39:10.613Z</time>
      </trkpt>
      <trkpt lat="42.55033" lon="18.33915">
        <ele>127.676169</ele>
        <time>2022-06-01T10:39:12.555Z</time>
      </trkpt>
      <trkpt lat="42.55039" lon="18.33902">
        <ele>127.883701</ele>
        <time>2022-06-01T10:39:15.562Z</time>
      </trkpt>
      <trkpt lat="42.55043" lon="18.3389">
        <ele>128.063643</ele>
        <time>2022-06-01T10:39:18.569Z</time>
      </trkpt>
      <trkpt lat="42.55047" lon="18.33878">
        <ele>128.227453</ele>
        <time>2022-06-01T10:39:21.559Z</time>
      </trkpt>
      <trkpt lat="42.55051" lon="18.33866">
        <ele>128.414932</ele>
        <time>2022-06-01T10:39:25.555Z</time>
      </trkpt>
      <trkpt lat="42.55056" lon="18.33852">
        <ele>128.616304</ele>
        <time>2022-06-01T10:39:29.568Z</time>
      </trkpt>
      <trkpt lat="42.5506" lon="18.33841">
        <ele>128.779247</ele>
        <time>2022-06-01T10:39:32.547Z</time>
      </trkpt>
      <trkpt lat="42.55067" lon="18.33829">
        <ele>128.980271</ele>
        <time>2022-06-01T10:39:35.556Z</time>
      </trkpt>
      <trkpt lat="42.55073" lon="18.33816">
        <ele>129.184379</ele>
        <time>2022-06-01T10:39:38.552Z</time>
      </trkpt>
      <trkpt lat="42.55081" lon="18.33804">
        <ele>129.403988</ele>
        <time>2022-06-01T10:39:41.560Z</time>
      </trkpt>
      <trkpt lat="42.5509" lon="18.3379">
        <ele>129.64643</ele>
        <time>2022-06-01T10:39:44.558Z</time>
      </trkpt>
      <trkpt lat="42.55096" lon="18.3378">
        <ele>129.818896</ele>
        <time>2022-06-01T10:39:46.563Z</time>
      </trkpt>
      <trkpt lat="42.55103" lon="18.3377">
        <ele>130.000934</ele>
        <time>2022-06-01T10:39:48.578Z</time>
      </trkpt>
      <trkpt lat="42.55109" lon="18.33759">
        <ele>130.174109</ele>
        <time>2022-06-01T10:39:50.572Z</time>
      </trkpt>
      <trkpt lat="42.55115" lon="18.33749">
        <ele>130.353116</ele>
        <time>2022-06-01T10:39:52.587Z</time>
      </trkpt>
      <trkpt lat="42.55122" lon="18.33739">
        <ele>130.535249</ele>
        <time>2022-06-01T10:39:54.556Z</time>
      </trkpt>
      <trkpt lat="42.55129" lon="18.33729">
        <ele>130.71007</ele>
        <time>2022-06-01T10:39:56.562Z</time>
      </trkpt>
      <trkpt lat="42.55135" lon="18.3372">
        <ele>130.657964</ele>
        <time>2022-06-01T10:39:58.595Z</time>
      </trkpt>
      <trkpt lat="42.55141" lon="18.3371">
        <ele>130.601203</ele>
        <time>2022-06-01T10:40:00.555Z</time>
      </trkpt>
      <trkpt lat="42.55149" lon="18.33696">
        <ele>130.516971</ele>
        <time>2022-06-01T10:40:03.565Z</time>
      </trkpt>
      <trkpt lat="42.55157" lon="18.33682">
        <ele>130.434641</ele>
        <time>2022-06-01T10:40:06.557Z</time>
      </trkpt>
      <trkpt lat="42.55163" lon="18.33672">
        <ele>130.374968</ele>
        <time>2022-06-01T10:40:08.553Z</time>
      </trkpt>
      <trkpt lat="42.55169" lon="18.33662">
        <ele>130.314306</ele>
        <time>2022-06-01T10:40:10.568Z</time>
      </trkpt>
      <trkpt lat="42.55175" lon="18.33652">
        <ele>130.251119</ele>
        <time>2022-06-01T10:40:12.554Z</time>
      </trkpt>
      <trkpt lat="42.55181" lon="18.33641">
        <ele>130.186469</ele>
        <time>2022-06-01T10:40:14.551Z</time>
      </trkpt>
      <trkpt lat="42.55187" lon="18.33629">
        <ele>130.120822</ele>
        <time>2022-06-01T10:40:16.559Z</time>
      </trkpt>
      <trkpt lat="42.55192" lon="18.33617">
        <ele>130.0549</ele>
        <time>2022-06-01T10:40:18.549Z</time>
      </trkpt>
      <trkpt lat="42.55198" lon="18.33605">
        <ele>129.986836</ele>
        <time>2022-06-01T10:40:20.580Z</time>
      </trkpt>
      <trkpt lat="42.55205" lon="18.33592">
        <ele>129.915415</ele>
        <time>2022-06-01T10:40:22.565Z</time>
      </trkpt>
      <trkpt lat="42.55213" lon="18.3358">
        <ele>129.841998</ele>
        <time>2022-06-01T10:40:24.554Z</time>
      </trkpt>
      <trkpt lat="42.5522" lon="18.33568">
        <ele>129.767498</ele>
        <time>2022-06-01T10:40:26.552Z</time>
      </trkpt>
      <trkpt lat="42.55228" lon="18.33556">
        <ele>129.692909</ele>
        <time>2022-06-01T10:40:28.553Z</time>
      </trkpt>
      <trkpt lat="42.55235" lon="18.33543">
        <ele>129.617142</ele>
        <time>2022-06-01T10:40:30.564Z</time>
      </trkpt>
      <trkpt lat="42.55244" lon="18.33531">
        <ele>129.448738</ele>
        <time>2022-06-01T10:40:32.560Z</time>
      </trkpt>
      <trkpt lat="42.55252" lon="18.33519">
        <ele>129.188756</ele>
        <time>2022-06-01T10:40:34.560Z</time>
      </trkpt>
      <trkpt lat="42.5526" lon="18.33507">
        <ele>128.927598</ele>
        <time>2022-06-01T10:40:36.551Z</time>
      </trkpt>
      <trkpt lat="42.55268" lon="18.33494">
        <ele>128.677257</ele>
        <time>2022-06-01T10:40:38.550Z</time>
      </trkpt>
      <trkpt lat="42.55274" lon="18.33482">
        <ele>128.444838</ele>
        <time>2022-06-01T10:40:40.549Z</time>
      </trkpt>
      <trkpt lat="42.5528" lon="18.33472">
        <ele>128.230048</ele>
        <time>2022-06-01T10:40:42.578Z</time>
      </trkpt>
      <trkpt lat="42.55286" lon="18.33461">
        <ele>128.034277</ele>
        <time>2022-06-01T10:40:44.555Z</time>
      </trkpt>
      <trkpt lat="42.55294" lon="18.33449">
        <ele>127.776251</ele>
        <time>2022-06-01T10:40:47.561Z</time>
      </trkpt>
      <trkpt lat="42.55301" lon="18.33437">
        <ele>127.529689</ele>
        <time>2022-06-01T10:40:50.549Z</time>
      </trkpt>
      <trkpt lat="42.55308" lon="18.33424">
        <ele>127.28087</ele>
        <time>2022-06-01T10:40:53.566Z</time>
      </trkpt>
      <trkpt lat="42.55315" lon="18.33412">
        <ele>127.031747</ele>
        <time>2022-06-01T10:40:56.564Z</time>
      </trkpt>
      <trkpt lat="42.55322" lon="18.33398">
        <ele>126.772814</ele>
        <time>2022-06-01T10:40:59.576Z</time>
      </trkpt>
      <trkpt lat="42.55328" lon="18.33385">
        <ele>126.524137</ele>
        <time>2022-06-01T10:41:02.557Z</time>
      </trkpt>
      <trkpt lat="42.55334" lon="18.33371">
        <ele>126.27458</ele>
        <time>2022-06-01T10:41:05.582Z</time>
      </trkpt>
      <trkpt lat="42.55339" lon="18.33358">
        <ele>126.041146</ele>
        <time>2022-06-01T10:41:08.557Z</time>
      </trkpt>
      <trkpt lat="42.55344" lon="18.33345">
        <ele>125.825237</ele>
        <time>2022-06-01T10:41:11.555Z</time>
      </trkpt>
      <trkpt lat="42.55349" lon="18.33333">
        <ele>125.628977</ele>
        <time>2022-06-01T10:41:14.557Z</time>
      </trkpt>
      <trkpt lat="42.55354" lon="18.3332">
        <ele>125.417633</ele>
        <time>2022-06-01T10:41:18.553Z</time>
      </trkpt>
      <trkpt lat="42.55359" lon="18.33306">
        <ele>125.211116</ele>
        <time>2022-06-01T10:41:22.592Z</time>
      </trkpt>
      <trkpt lat="42.55364" lon="18.33291">
        <ele>124.985934</ele>
        <time>2022-06-01T10:41:26.564Z</time>
      </trkpt>
      <trkpt lat="42.55368" lon="18.33277">
        <ele>124.789274</ele>
        <time>2022-06-01T10:41:29.568Z</time>
      </trkpt>
      <trkpt lat="42.55372" lon="18.33262">
        <ele>124.563242</ele>
        <time>2022-06-01T10:41:32.558Z</time>
      </trkpt>
      <trkpt lat="42.55377" lon="18.33251">
        <ele>124.396562</ele>
        <time>2022-06-01T10:41:34.572Z</time>
      </trkpt>
      <trkpt lat="42.55383" lon="18.33241">
        <ele>124.220165</ele>
        <time>2022-06-01T10:41:36.558Z</time>
      </trkpt>
      <trkpt lat="42.55389" lon="18.33231">
        <ele>124.035505</ele>
        <time>2022-06-01T10:41:38.554Z</time>
      </trkpt>
      <trkpt lat="42.55398" lon="18.3322">
        <ele>123.819053</ele>
        <time>2022-06-01T10:41:40.552Z</time>
      </trkpt>
      <trkpt lat="42.55408" lon="18.3321">
        <ele>123.582223</ele>
        <time>2022-06-01T10:41:42.555Z</time>
      </trkpt>
      <trkpt lat="42.55419" lon="18.332">
        <ele>123.332409</ele>
        <time>2022-06-01T10:41:44.587Z</time>
      </trkpt>
      <trkpt lat="42.55429" lon="18.33189">
        <ele>123.093897</ele>
        <time>2022-06-01T10:41:46.556Z</time>
      </trkpt>
      <trkpt lat="42.55439" lon="18.33175">
        <ele>122.847</ele>
        <time>2022-06-01T10:41:48.554Z</time>
      </trkpt>
      <trkpt lat="42.55446" lon="18.33161">
        <ele>122.607069</ele>
        <time>2022-06-01T10:41:50.576Z</time>
      </trkpt>
      <trkpt lat="42.55452" lon="18.33145">
        <ele>122.365016</ele>
        <time>2022-06-01T10:41:52.553Z</time>
      </trkpt>
      <trkpt lat="42.55457" lon="18.33128">
        <ele>122.103838</ele>
        <time>2022-06-01T10:41:54.549Z</time>
      </trkpt>
      <trkpt lat="42.55458" lon="18.33109">
        <ele>121.830447</ele>
        <time>2022-06-01T10:41:56.575Z</time>
      </trkpt>
      <trkpt lat="42.55457" lon="18.3309">
        <ele>121.554177</ele>
        <time>2022-06-01T10:41:58.552Z</time>
      </trkpt>
      <trkpt lat="42.55455" lon="18.33072">
        <ele>121.291404</ele>
        <time>2022-06-01T10:42:00.560Z</time>
      </trkpt>
      <trkpt lat="42.55452" lon="18.33055">
        <ele>121.038493</ele>
        <time>2022-06-01T10:42:02.549Z</time>
      </trkpt>
      <trkpt lat="42.55452" lon="18.33039">
        <ele>120.811621</ele>
        <time>2022-06-01T10:42:04.555Z</time>
      </trkpt>
      <trkpt lat="42.55453" lon="18.33025">
        <ele>120.605239</ele>
        <time>2022-06-01T10:42:06.550Z</time>
      </trkpt>
      <trkpt lat="42.55455" lon="18.33012">
        <ele>120.418182</ele>
        <time>2022-06-01T10:42:08.547Z</time>
      </trkpt>
      <trkpt lat="42.55456" lon="18.33">
        <ele>120.242157</ele>
        <time>2022-06-01T10:42:10.558Z</time>
      </trkpt>
      <trkpt lat="42.55459" lon="18.32982">
        <ele>119.991719</ele>
        <time>2022-06-01T10:42:13.561Z</time>
      </trkpt>
      <trkpt lat="42.5546" lon="18.32966">
        <ele>119.752711</ele>
        <time>2022-06-01T10:42:16.561Z</time>
      </trkpt>
      <trkpt lat="42.55462" lon="18.3295">
        <ele>119.521312</ele>
        <time>2022-06-01T10:42:19.553Z</time>
      </trkpt>
      <trkpt lat="42.55465" lon="18.32934">
        <ele>119.287071</ele>
        <time>2022-06-01T10:42:22.577Z</time>
      </trkpt>
      <trkpt lat="42.55466" lon="18.32917">
        <ele>119.042077</ele>
        <time>2022-06-01T10:42:25.552Z</time>
      </trkpt>
      <trkpt lat="42.55467" lon="18.329">
        <ele>118.829134</ele>
        <time>2022-06-01T10:42:28.564Z</time>
      </trkpt>
      <trkpt lat="42.55468" lon="18.32882">
        <ele>118.63321</ele>
        <time>2022-06-01T10:42:31.568Z</time>
      </trkpt>
      <trkpt lat="42.55468" lon="18.3287">
        <ele>118.495996</ele>
        <time>2022-06-01T10:42:33.559Z</time>
      </trkpt>
      <trkpt lat="42.55468" lon="18.32857">
        <ele>118.355557</ele>
        <time>2022-06-01T10:42:35.565Z</time>
      </trkpt>
      <trkpt lat="42.55469" lon="18.32844">
        <ele>118.21623</ele>
        <time>2022-06-01T10:42:37.567Z</time>
      </trkpt>
      <trkpt lat="42.55469" lon="18.32831">
        <ele>118.07035</ele>
        <time>2022-06-01T10:42:39.571Z</time>
      </trkpt>
      <trkpt lat="42.55469" lon="18.32816">
        <ele>117.916853</ele>
        <time>2022-06-01T10:42:41.558Z</time>
      </trkpt>
      <trkpt lat="42.55469" lon="18.32802">
        <ele>117.760119</ele>
        <time>2022-06-01T10:42:43.551Z</time>
      </trkpt>
      <trkpt lat="42.55469" lon="18.32788">
        <ele>117.604445</ele>
        <time>2022-06-01T10:42:45.573Z</time>
      </trkpt>
      <trkpt lat="42.55469" lon="18.32774">
        <ele>117.454212</ele>
        <time>2022-06-01T10:42:47.570Z</time>
      </trkpt>
      <trkpt lat="42.5547" lon="18.32761">
        <ele>117.309421</ele>
        <time>2022-06-01T10:42:49.556Z</time>
      </trkpt>
      <trkpt lat="42.5547" lon="18.32748">
        <ele>117.173359</ele>
        <time>2022-06-01T10:42:51.559Z</time>
      </trkpt>
      <trkpt lat="42.5547" lon="18.32736">
        <ele>117.037877</ele>
        <time>2022-06-01T10:42:53.562Z</time>
      </trkpt>
      <trkpt lat="42.55471" lon="18.32718">
        <ele>116.846034</ele>
        <time>2022-06-01T10:42:56.575Z</time>
      </trkpt>
      <trkpt lat="42.55472" lon="18.32701">
        <ele>116.654327</ele>
        <time>2022-06-01T10:42:59.563Z</time>
      </trkpt>
      <trkpt lat="42.55472" lon="18.32684">
        <ele>116.470234</ele>
        <time>2022-06-01T10:43:02.577Z</time>
      </trkpt>
      <trkpt lat="42.55472" lon="18.32667">
        <ele>116.290588</ele>
        <time>2022-06-01T10:43:05.561Z</time>
      </trkpt>
      <trkpt lat="42.55473" lon="18.32652">
        <ele>116.347072</ele>
        <time>2022-06-01T10:43:08.557Z</time>
      </trkpt>
      <trkpt lat="42.55475" lon="18.32637">
        <ele>116.436747</ele>
        <time>2022-06-01T10:43:11.554Z</time>
      </trkpt>
      <trkpt lat="42.55477" lon="18.32622">
        <ele>116.533809</ele>
        <time>2022-06-01T10:43:14.552Z</time>
      </trkpt>
      <trkpt lat="42.5548" lon="18.32604">
        <ele>116.643138</ele>
        <time>2022-06-01T10:43:17.570Z</time>
      </trkpt>
      <trkpt lat="42.55481" lon="18.32587">
        <ele>116.751116</ele>
        <time>2022-06-01T10:43:20.566Z</time>
      </trkpt>
      <trkpt lat="42.55483" lon="18.32569">
        <ele>116.861705</ele>
        <time>2022-06-01T10:43:23.554Z</time>
      </trkpt>
      <trkpt lat="42.55484" lon="18.32551">
        <ele>116.971592</ele>
        <time>2022-06-01T10:43:26.563Z</time>
      </trkpt>
      <trkpt lat="42.55485" lon="18.32539">
        <ele>117.046334</ele>
        <time>2022-06-01T10:43:28.558Z</time>
      </trkpt>
      <trkpt lat="42.55486" lon="18.32526">
        <ele>117.124511</ele>
        <time>2022-06-01T10:43:30.582Z</time>
      </trkpt>
      <trkpt lat="42.55486" lon="18.32513">
        <ele>117.208613</ele>
        <time>2022-06-01T10:43:32.557Z</time>
      </trkpt>
      <trkpt lat="42.55486" lon="18.32498">
        <ele>117.296394</ele>
        <time>2022-06-01T10:43:34.552Z</time>
      </trkpt>
      <trkpt lat="42.55487" lon="18.32484">
        <ele>117.381821</ele>
        <time>2022-06-01T10:43:36.563Z</time>
      </trkpt>
      <trkpt lat="42.55488" lon="18.32471">
        <ele>117.466253</ele>
        <time>2022-06-01T10:43:38.561Z</time>
      </trkpt>
      <trkpt lat="42.55488" lon="18.32457">
        <ele>117.552294</ele>
        <time>2022-06-01T10:43:40.560Z</time>
      </trkpt>
      <trkpt lat="42.55489" lon="18.32443">
        <ele>117.635582</ele>
        <time>2022-06-01T10:43:42.559Z</time>
      </trkpt>
      <trkpt lat="42.5549" lon="18.3243">
        <ele>117.720013</ele>
        <time>2022-06-01T10:43:44.557Z</time>
      </trkpt>
      <trkpt lat="42.55491" lon="18.32416">
        <ele>117.675402</ele>
        <time>2022-06-01T10:43:46.554Z</time>
      </trkpt>
      <trkpt lat="42.55493" lon="18.32402">
        <ele>117.489589</ele>
        <time>2022-06-01T10:43:48.579Z</time>
      </trkpt>
      <trkpt lat="42.55494" lon="18.32388">
        <ele>117.305389</ele>
        <time>2022-06-01T10:43:50.553Z</time>
      </trkpt>
      <trkpt lat="42.55496" lon="18.32375">
        <ele>117.122511</ele>
        <time>2022-06-01T10:43:52.549Z</time>
      </trkpt>
      <trkpt lat="42.55498" lon="18.32361">
        <ele>116.934169</ele>
        <time>2022-06-01T10:43:54.575Z</time>
      </trkpt>
      <trkpt lat="42.55501" lon="18.32348">
        <ele>116.745399</ele>
        <time>2022-06-01T10:43:56.569Z</time>
      </trkpt>
      <trkpt lat="42.55503" lon="18.32334">
        <ele>116.559224</ele>
        <time>2022-06-01T10:43:58.566Z</time>
      </trkpt>
      <trkpt lat="42.55506" lon="18.32321">
        <ele>116.370098</ele>
        <time>2022-06-01T10:44:00.575Z</time>
      </trkpt>
      <trkpt lat="42.5551" lon="18.32307">
        <ele>116.174908</ele>
        <time>2022-06-01T10:44:02.553Z</time>
      </trkpt>
      <trkpt lat="42.55515" lon="18.32294">
        <ele>115.978821</ele>
        <time>2022-06-01T10:44:04.559Z</time>
      </trkpt>
      <trkpt lat="42.55519" lon="18.3228">
        <ele>115.774165</ele>
        <time>2022-06-01T10:44:06.557Z</time>
      </trkpt>
      <trkpt lat="42.55521" lon="18.32265">
        <ele>115.572223</ele>
        <time>2022-06-01T10:44:08.552Z</time>
      </trkpt>
      <trkpt lat="42.55519" lon="18.3225">
        <ele>115.37292</ele>
        <time>2022-06-01T10:44:10.570Z</time>
      </trkpt>
      <trkpt lat="42.55516" lon="18.32236">
        <ele>115.177915</ele>
        <time>2022-06-01T10:44:12.558Z</time>
      </trkpt>
      <trkpt lat="42.55513" lon="18.32222">
        <ele>114.989321</ele>
        <time>2022-06-01T10:44:14.557Z</time>
      </trkpt>
      <trkpt lat="42.5551" lon="18.3221">
        <ele>114.807337</ele>
        <time>2022-06-01T10:44:16.551Z</time>
      </trkpt>
      <trkpt lat="42.55506" lon="18.32197">
        <ele>114.628485</ele>
        <time>2022-06-01T10:44:18.561Z</time>
      </trkpt>
      <trkpt lat="42.55503" lon="18.32185">
        <ele>114.4835</ele>
        <time>2022-06-01T10:44:20.556Z</time>
      </trkpt>
      <trkpt lat="42.555" lon="18.32173">
        <ele>114.429109</ele>
        <time>2022-06-01T10:44:22.555Z</time>
      </trkpt>
      <trkpt lat="42.55498" lon="18.3216">
        <ele>114.374343</ele>
        <time>2022-06-01T10:44:24.555Z</time>
      </trkpt>
      <trkpt lat="42.55496" lon="18.32148">
        <ele>114.318961</ele>
        <time>2022-06-01T10:44:26.555Z</time>
      </trkpt>
      <trkpt lat="42.55497" lon="18.32135">
        <ele>114.264439</ele>
        <time>2022-06-01T10:44:28.559Z</time>
      </trkpt>
      <trkpt lat="42.55497" lon="18.32122">
        <ele>114.210959</ele>
        <time>2022-06-01T10:44:30.558Z</time>
      </trkpt>
      <trkpt lat="42.55499" lon="18.3211">
        <ele>114.158981</ele>
        <time>2022-06-01T10:44:32.559Z</time>
      </trkpt>
      <trkpt lat="42.555" lon="18.32098">
        <ele>114.10641</ele>
        <time>2022-06-01T10:44:34.588Z</time>
      </trkpt>
      <trkpt lat="42.55503" lon="18.32081">
        <ele>114.031767</ele>
        <time>2022-06-01T10:44:37.564Z</time>
      </trkpt>
      <trkpt lat="42.55506" lon="18.32064">
        <ele>113.953672</ele>
        <time>2022-06-01T10:44:40.580Z</time>
      </trkpt>
      <trkpt lat="42.55509" lon="18.32051">
        <ele>113.897832</ele>
        <time>2022-06-01T10:44:42.587Z</time>
      </trkpt>
      <trkpt lat="42.55512" lon="18.32039">
        <ele>113.843034</ele>
        <time>2022-06-01T10:44:44.587Z</time>
      </trkpt>
      <trkpt lat="42.55515" lon="18.32026">
        <ele>113.783797</ele>
        <time>2022-06-01T10:44:46.639Z</time>
      </trkpt>
      <trkpt lat="42.55518" lon="18.32013">
        <ele>113.723103</ele>
        <time>2022-06-01T10:44:48.579Z</time>
      </trkpt>
      <trkpt lat="42.55521" lon="18.31999">
        <ele>113.662581</ele>
        <time>2022-06-01T10:44:50.590Z</time>
      </trkpt>
      <trkpt lat="42.55525" lon="18.31987">
        <ele>113.604086</ele>
        <time>2022-06-01T10:44:52.582Z</time>
      </trkpt>
      <trkpt lat="42.5553" lon="18.31974">
        <ele>113.543035</ele>
        <time>2022-06-01T10:44:54.578Z</time>
      </trkpt>
      <trkpt lat="42.55536" lon="18.31961">
        <ele>113.4789</ele>
        <time>2022-06-01T10:44:56.579Z</time>
      </trkpt>
      <trkpt lat="42.55542" lon="18.31949">
        <ele>113.384334</ele>
        <time>2022-06-01T10:44:58.577Z</time>
      </trkpt>
      <trkpt lat="42.55547" lon="18.31936">
        <ele>113.26728</ele>
        <time>2022-06-01T10:45:00.585Z</time>
      </trkpt>
      <trkpt lat="42.55552" lon="18.31923">
        <ele>113.152672</ele>
        <time>2022-06-01T10:45:02.579Z</time>
      </trkpt>
      <trkpt lat="42.55557" lon="18.31911">
        <ele>113.03909</ele>
        <time>2022-06-01T10:45:04.570Z</time>
      </trkpt>
      <trkpt lat="42.55561" lon="18.31899">
        <ele>112.934532</ele>
        <time>2022-06-01T10:45:06.611Z</time>
      </trkpt>
      <trkpt lat="42.55565" lon="18.31887">
        <ele>112.834117</ele>
        <time>2022-06-01T10:45:08.583Z</time>
      </trkpt>
      <trkpt lat="42.55569" lon="18.31876">
        <ele>112.73152</ele>
        <time>2022-06-01T10:45:10.579Z</time>
      </trkpt>
      <trkpt lat="42.55575" lon="18.3186">
        <ele>112.586741</ele>
        <time>2022-06-01T10:45:13.605Z</time>
      </trkpt>
      <trkpt lat="42.55579" lon="18.31848">
        <ele>112.48755</ele>
        <time>2022-06-01T10:45:15.584Z</time>
      </trkpt>
      <trkpt lat="42.55582" lon="18.31837">
        <ele>112.389908</ele>
        <time>2022-06-01T10:45:17.602Z</time>
      </trkpt>
      <trkpt lat="42.55585" lon="18.31825">
        <ele>112.289988</ele>
        <time>2022-06-01T10:45:19.579Z</time>
      </trkpt>
      <trkpt lat="42.55587" lon="18.31811">
        <ele>112.180055</ele>
        <time>2022-06-01T10:45:21.600Z</time>
      </trkpt>
      <trkpt lat="42.55589" lon="18.31798">
        <ele>112.068141</ele>
        <time>2022-06-01T10:45:23.571Z</time>
      </trkpt>
      <trkpt lat="42.5559" lon="18.31784">
        <ele>111.95998</ele>
        <time>2022-06-01T10:45:25.614Z</time>
      </trkpt>
      <trkpt lat="42.55591" lon="18.3177">
        <ele>111.848915</ele>
        <time>2022-06-01T10:45:27.571Z</time>
      </trkpt>
      <trkpt lat="42.55592" lon="18.31756">
        <ele>111.735299</ele>
        <time>2022-06-01T10:45:29.580Z</time>
      </trkpt>
      <trkpt lat="42.55594" lon="18.31742">
        <ele>111.621817</ele>
        <time>2022-06-01T10:45:31.562Z</time>
      </trkpt>
      <trkpt lat="42.55596" lon="18.31727">
        <ele>111.504037</ele>
        <time>2022-06-01T10:45:33.570Z</time>
      </trkpt>
      <trkpt lat="42.55599" lon="18.31713">
        <ele>111.412421</ele>
        <time>2022-06-01T10:45:35.550Z</time>
      </trkpt>
      <trkpt lat="42.55602" lon="18.317">
        <ele>111.321909</ele>
        <time>2022-06-01T10:45:37.568Z</time>
      </trkpt>
      <trkpt lat="42.55605" lon="18.31686">
        <ele>111.233306</ele>
        <time>2022-06-01T10:45:39.566Z</time>
      </trkpt>
      <trkpt lat="42.55609" lon="18.31673">
        <ele>111.144395</ele>
        <time>2022-06-01T10:45:41.555Z</time>
      </trkpt>
      <trkpt lat="42.55613" lon="18.3166">
        <ele>111.055204</ele>
        <time>2022-06-01T10:45:43.552Z</time>
      </trkpt>
      <trkpt lat="42.55616" lon="18.31647">
        <ele>110.968074</ele>
        <time>2022-06-01T10:45:45.559Z</time>
      </trkpt>
      <trkpt lat="42.55619" lon="18.31634">
        <ele>110.883208</ele>
        <time>2022-06-01T10:45:47.559Z</time>
      </trkpt>
      <trkpt lat="42.55622" lon="18.31621">
        <ele>110.802088</ele>
        <time>2022-06-01T10:45:49.567Z</time>
      </trkpt>
      <trkpt lat="42.55625" lon="18.3161">
        <ele>110.725169</ele>
        <time>2022-06-01T10:45:51.553Z</time>
      </trkpt>
      <trkpt lat="42.55629" lon="18.31594">
        <ele>110.617426</ele>
        <time>2022-06-01T10:45:54.583Z</time>
      </trkpt>
      <trkpt lat="42.55634" lon="18.31578">
        <ele>110.510843</ele>
        <time>2022-06-01T10:45:57.552Z</time>
      </trkpt>
      <trkpt lat="42.55638" lon="18.31562">
        <ele>110.403041</ele>
        <time>2022-06-01T10:46:00.585Z</time>
      </trkpt>
      <trkpt lat="42.55644" lon="18.31546">
        <ele>110.295672</ele>
        <time>2022-06-01T10:46:03.560Z</time>
      </trkpt>
      <trkpt lat="42.5565" lon="18.3153">
        <ele>110.18008</ele>
        <time>2022-06-01T10:46:06.564Z</time>
      </trkpt>
      <trkpt lat="42.55654" lon="18.31519">
        <ele>110.102266</ele>
        <time>2022-06-01T10:46:08.560Z</time>
      </trkpt>
      <trkpt lat="42.55657" lon="18.31508">
        <ele>110.025689</ele>
        <time>2022-06-01T10:46:10.571Z</time>
      </trkpt>
      <trkpt lat="42.5566" lon="18.31496">
        <ele>109.958585</ele>
        <time>2022-06-01T10:46:12.578Z</time>
      </trkpt>
      <trkpt lat="42.55663" lon="18.31484">
        <ele>109.916341</ele>
        <time>2022-06-01T10:46:14.568Z</time>
      </trkpt>
      <trkpt lat="42.55667" lon="18.31467">
        <ele>109.856788</ele>
        <time>2022-06-01T10:46:17.574Z</time>
      </trkpt>
      <trkpt lat="42.55669" lon="18.3145">
        <ele>109.800211</ele>
        <time>2022-06-01T10:46:20.559Z</time>
      </trkpt>
      <trkpt lat="42.55671" lon="18.31435">
        <ele>109.748557</ele>
        <time>2022-06-01T10:46:23.580Z</time>
      </trkpt>
      <trkpt lat="42.55674" lon="18.31421">
        <ele>109.699374</ele>
        <time>2022-06-01T10:46:26.579Z</time>
      </trkpt>
      <trkpt lat="42.55677" lon="18.31407">
        <ele>109.649962</ele>
        <time>2022-06-01T10:46:29.623Z</time>
      </trkpt>
      <trkpt lat="42.55681" lon="18.31392">
        <ele>109.597675</ele>
        <time>2022-06-01T10:46:32.591Z</time>
      </trkpt>
      <trkpt lat="42.55685" lon="18.31377">
        <ele>109.542381</ele>
        <time>2022-06-01T10:46:35.604Z</time>
      </trkpt>
      <trkpt lat="42.55688" lon="18.3136">
        <ele>109.483668</ele>
        <time>2022-06-01T10:46:38.607Z</time>
      </trkpt>
      <trkpt lat="42.55692" lon="18.31343">
        <ele>109.424115</ele>
        <time>2022-06-01T10:46:41.577Z</time>
      </trkpt>
      <trkpt lat="42.55695" lon="18.31326">
        <ele>109.365011</ele>
        <time>2022-06-01T10:46:44.572Z</time>
      </trkpt>
      <trkpt lat="42.55698" lon="18.31309">
        <ele>109.305706</ele>
        <time>2022-06-01T10:46:47.570Z</time>
      </trkpt>
      <trkpt lat="42.557" lon="18.31292">
        <ele>109.247672</ele>
        <time>2022-06-01T10:46:50.581Z</time>
      </trkpt>
      <trkpt lat="42.55702" lon="18.31274">
        <ele>109.187687</ele>
        <time>2022-06-01T10:46:53.587Z</time>
      </trkpt>
      <trkpt lat="42.55702" lon="18.31262">
        <ele>109.165936</ele>
        <time>2022-06-01T10:46:55.590Z</time>
      </trkpt>
      <trkpt lat="42.557" lon="18.31244">
        <ele>109.390019</ele>
        <time>2022-06-01T10:46:58.588Z</time>
      </trkpt>
      <trkpt lat="42.557" lon="18.31227">
        <ele>109.603527</ele>
        <time>2022-06-01T10:47:01.587Z</time>
      </trkpt>
      <trkpt lat="42.55701" lon="18.3121">
        <ele>109.816088</ele>
        <time>2022-06-01T10:47:04.580Z</time>
      </trkpt>
      <trkpt lat="42.55703" lon="18.31195">
        <ele>110.012259</ele>
        <time>2022-06-01T10:47:07.592Z</time>
      </trkpt>
      <trkpt lat="42.55705" lon="18.3118">
        <ele>110.207188</ele>
        <time>2022-06-01T10:47:10.572Z</time>
      </trkpt>
      <trkpt lat="42.55708" lon="18.31166">
        <ele>110.390836</ele>
        <time>2022-06-01T10:47:13.626Z</time>
      </trkpt>
      <trkpt lat="42.55711" lon="18.31154">
        <ele>110.546825</ele>
        <time>2022-06-01T10:47:16.587Z</time>
      </trkpt>
      <trkpt lat="42.55715" lon="18.31141">
        <ele>110.727018</ele>
        <time>2022-06-01T10:47:19.580Z</time>
      </trkpt>
      <trkpt lat="42.5572" lon="18.31128">
        <ele>110.906276</ele>
        <time>2022-06-01T10:47:22.588Z</time>
      </trkpt>
      <trkpt lat="42.55725" lon="18.31114">
        <ele>111.096202</ele>
        <time>2022-06-01T10:47:26.596Z</time>
      </trkpt>
      <trkpt lat="42.5573" lon="18.31101">
        <ele>111.284302</ele>
        <time>2022-06-01T10:47:30.591Z</time>
      </trkpt>
      <trkpt lat="42.55735" lon="18.31087">
        <ele>111.484431</ele>
        <time>2022-06-01T10:47:34.589Z</time>
      </trkpt>
      <trkpt lat="42.5574" lon="18.31073">
        <ele>111.676051</ele>
        <time>2022-06-01T10:47:38.598Z</time>
      </trkpt>
      <trkpt lat="42.55744" lon="18.31059">
        <ele>111.865177</ele>
        <time>2022-06-01T10:47:42.639Z</time>
      </trkpt>
      <trkpt lat="42.55748" lon="18.31045">
        <ele>112.057277</ele>
        <time>2022-06-01T10:47:46.575Z</time>
      </trkpt>
      <trkpt lat="42.55753" lon="18.31031">
        <ele>112.187919</ele>
        <time>2022-06-01T10:47:50.599Z</time>
      </trkpt>
      <trkpt lat="42.55756" lon="18.31019">
        <ele>112.018056</ele>
        <time>2022-06-01T10:47:54.584Z</time>
      </trkpt>
      <trkpt lat="42.55759" lon="18.31006">
        <ele>111.840129</ele>
        <time>2022-06-01T10:47:58.606Z</time>
      </trkpt>
      <trkpt lat="42.55762" lon="18.30992">
        <ele>111.661476</ele>
        <time>2022-06-01T10:48:02.579Z</time>
      </trkpt>
      <trkpt lat="42.55764" lon="18.30977">
        <ele>111.455459</ele>
        <time>2022-06-01T10:48:06.574Z</time>
      </trkpt>
      <trkpt lat="42.55766" lon="18.30964">
        <ele>111.289931</ele>
        <time>2022-06-01T10:48:09.590Z</time>
      </trkpt>
      <trkpt lat="42.55765" lon="18.30949">
        <ele>111.10416</ele>
        <time>2022-06-01T10:48:12.588Z</time>
      </trkpt>
      <trkpt lat="42.55764" lon="18.30934">
        <ele>110.906245</ele>
        <time>2022-06-01T10:48:15.588Z</time>
      </trkpt>
      <trkpt lat="42.55761" lon="18.30919">
        <ele>110.704158</ele>
        <time>2022-06-01T10:48:18.588Z</time>
      </trkpt>
      <trkpt lat="42.55756" lon="18.30903">
        <ele>110.483695</ele>
        <time>2022-06-01T10:48:21.581Z</time>
      </trkpt>
      <trkpt lat="42.55749" lon="18.30888">
        <ele>110.253123</ele>
        <time>2022-06-01T10:48:24.610Z</time>
      </trkpt>
      <trkpt lat="42.55744" lon="18.30877">
        <ele>110.09525</ele>
        <time>2022-06-01T10:48:26.609Z</time>
      </trkpt>
      <trkpt lat="42.55741" lon="18.30865">
        <ele>109.936084</ele>
        <time>2022-06-01T10:48:28.578Z</time>
      </trkpt>
      <trkpt lat="42.55738" lon="18.30853">
        <ele>109.773319</ele>
        <time>2022-06-01T10:48:30.577Z</time>
      </trkpt>
      <trkpt lat="42.55737" lon="18.30841">
        <ele>109.617144</ele>
        <time>2022-06-01T10:48:32.585Z</time>
      </trkpt>
      <trkpt lat="42.55737" lon="18.30825">
        <ele>109.415035</ele>
        <time>2022-06-01T10:48:35.580Z</time>
      </trkpt>
      <trkpt lat="42.55738" lon="18.30809">
        <ele>109.205808</ele>
        <time>2022-06-01T10:48:38.626Z</time>
      </trkpt>
      <trkpt lat="42.55739" lon="18.30792">
        <ele>109.140315</ele>
        <time>2022-06-01T10:48:41.593Z</time>
      </trkpt>
      <trkpt lat="42.55739" lon="18.30775">
        <ele>109.252156</ele>
        <time>2022-06-01T10:48:44.586Z</time>
      </trkpt>
      <trkpt lat="42.5574" lon="18.30758">
        <ele>109.363307</ele>
        <time>2022-06-01T10:48:47.572Z</time>
      </trkpt>
      <trkpt lat="42.55741" lon="18.30742">
        <ele>109.468071</ele>
        <time>2022-06-01T10:48:50.583Z</time>
      </trkpt>
      <trkpt lat="42.55742" lon="18.30727">
        <ele>109.571609</ele>
        <time>2022-06-01T10:48:53.572Z</time>
      </trkpt>
      <trkpt lat="42.55745" lon="18.30713">
        <ele>109.669109</ele>
        <time>2022-06-01T10:48:56.567Z</time>
      </trkpt>
      <trkpt lat="42.55748" lon="18.307">
        <ele>109.758308</ele>
        <time>2022-06-01T10:48:59.594Z</time>
      </trkpt>
      <trkpt lat="42.55751" lon="18.30687">
        <ele>109.84841</ele>
        <time>2022-06-01T10:49:02.578Z</time>
      </trkpt>
      <trkpt lat="42.55755" lon="18.30673">
        <ele>109.940938</ele>
        <time>2022-06-01T10:49:05.576Z</time>
      </trkpt>
      <trkpt lat="42.55759" lon="18.30659">
        <ele>110.040871</ele>
        <time>2022-06-01T10:49:08.591Z</time>
      </trkpt>
      <trkpt lat="42.55763" lon="18.30644">
        <ele>110.148213</ele>
        <time>2022-06-01T10:49:11.635Z</time>
      </trkpt>
      <trkpt lat="42.55767" lon="18.30628">
        <ele>110.255547</ele>
        <time>2022-06-01T10:49:14.589Z</time>
      </trkpt>
      <trkpt lat="42.55772" lon="18.30612">
        <ele>110.370667</ele>
        <time>2022-06-01T10:49:17.576Z</time>
      </trkpt>
      <trkpt lat="42.55775" lon="18.30601">
        <ele>110.452105</ele>
        <time>2022-06-01T10:49:19.593Z</time>
      </trkpt>
      <trkpt lat="42.55778" lon="18.30589">
        <ele>110.533069</ele>
        <time>2022-06-01T10:49:21.586Z</time>
      </trkpt>
      <trkpt lat="42.5578" lon="18.30577">
        <ele>110.614587</ele>
        <time>2022-06-01T10:49:23.594Z</time>
      </trkpt>
      <trkpt lat="42.55781" lon="18.30559">
        <ele>110.685027</ele>
        <time>2022-06-01T10:49:26.587Z</time>
      </trkpt>
      <trkpt lat="42.55782" lon="18.3054">
        <ele>110.654804</ele>
        <time>2022-06-01T10:49:29.655Z</time>
      </trkpt>
      <trkpt lat="42.55784" lon="18.30524">
        <ele>110.626883</ele>
        <time>2022-06-01T10:49:32.582Z</time>
      </trkpt>
      <trkpt lat="42.55786" lon="18.30507">
        <ele>110.598982</ele>
        <time>2022-06-01T10:49:35.578Z</time>
      </trkpt>
      <trkpt lat="42.55789" lon="18.30491">
        <ele>110.57136</ele>
        <time>2022-06-01T10:49:38.584Z</time>
      </trkpt>
      <trkpt lat="42.55792" lon="18.30475">
        <ele>110.544015</ele>
        <time>2022-06-01T10:49:41.576Z</time>
      </trkpt>
      <trkpt lat="42.55795" lon="18.3046">
        <ele>110.517211</ele>
        <time>2022-06-01T10:49:44.622Z</time>
      </trkpt>
      <trkpt lat="42.55798" lon="18.30445">
        <ele>110.491096</ele>
        <time>2022-06-01T10:49:47.579Z</time>
      </trkpt>
      <trkpt lat="42.55801" lon="18.3043">
        <ele>110.465201</ele>
        <time>2022-06-01T10:49:50.582Z</time>
      </trkpt>
      <trkpt lat="42.55804" lon="18.30415">
        <ele>110.439246</ele>
        <time>2022-06-01T10:49:53.600Z</time>
      </trkpt>
      <trkpt lat="42.55807" lon="18.304">
        <ele>110.414437</ele>
        <time>2022-06-01T10:49:56.589Z</time>
      </trkpt>
      <trkpt lat="42.55809" lon="18.30386">
        <ele>110.389887</ele>
        <time>2022-06-01T10:49:59.582Z</time>
      </trkpt>
      <trkpt lat="42.55813" lon="18.30371">
        <ele>110.364574</ele>
        <time>2022-06-01T10:50:02.611Z</time>
      </trkpt>
      <trkpt lat="42.55817" lon="18.30357">
        <ele>110.339062</ele>
        <time>2022-06-01T10:50:05.601Z</time>
      </trkpt>
      <trkpt lat="42.55822" lon="18.30343">
        <ele>110.312393</ele>
        <time>2022-06-01T10:50:08.577Z</time>
      </trkpt>
      <trkpt lat="42.55829" lon="18.30328">
        <ele>110.263761</ele>
        <time>2022-06-01T10:50:11.586Z</time>
      </trkpt>
      <trkpt lat="42.55832" lon="18.30317">
        <ele>110.147078</ele>
        <time>2022-06-01T10:50:13.626Z</time>
      </trkpt>
      <trkpt lat="42.55835" lon="18.30304">
        <ele>110.023264</ele>
        <time>2022-06-01T10:50:15.602Z</time>
      </trkpt>
      <trkpt lat="42.55838" lon="18.30291">
        <ele>109.895656</ele>
        <time>2022-06-01T10:50:17.596Z</time>
      </trkpt>
      <trkpt lat="42.5584" lon="18.30279">
        <ele>109.773222</ele>
        <time>2022-06-01T10:50:19.612Z</time>
      </trkpt>
      <trkpt lat="42.55841" lon="18.30265">
        <ele>109.645531</ele>
        <time>2022-06-01T10:50:21.601Z</time>
      </trkpt>
      <trkpt lat="42.55842" lon="18.30252">
        <ele>109.515796</ele>
        <time>2022-06-01T10:50:23.589Z</time>
      </trkpt>
      <trkpt lat="42.55844" lon="18.30237">
        <ele>109.381545</ele>
        <time>2022-06-01T10:50:25.591Z</time>
      </trkpt>
      <trkpt lat="42.55844" lon="18.30224">
        <ele>109.249918</ele>
        <time>2022-06-01T10:50:27.596Z</time>
      </trkpt>
      <trkpt lat="42.55844" lon="18.30209">
        <ele>109.114598</ele>
        <time>2022-06-01T10:50:29.579Z</time>
      </trkpt>
      <trkpt lat="42.55842" lon="18.30195">
        <ele>108.97608</ele>
        <time>2022-06-01T10:50:31.568Z</time>
      </trkpt>
      <trkpt lat="42.5584" lon="18.30181">
        <ele>108.841349</ele>
        <time>2022-06-01T10:50:33.592Z</time>
      </trkpt>
      <trkpt lat="42.55838" lon="18.30168">
        <ele>108.714749</ele>
        <time>2022-06-01T10:50:35.589Z</time>
      </trkpt>
      <trkpt lat="42.55837" lon="18.30155">
        <ele>108.597529</ele>
        <time>2022-06-01T10:50:37.582Z</time>
      </trkpt>
      <trkpt lat="42.55837" lon="18.30138">
        <ele>108.432152</ele>
        <time>2022-06-01T10:50:40.594Z</time>
      </trkpt>
      <trkpt lat="42.5584" lon="18.30122">
        <ele>108.278001</ele>
        <time>2022-06-01T10:50:43.590Z</time>
      </trkpt>
      <trkpt lat="42.55844" lon="18.30108">
        <ele>108.135708</ele>
        <time>2022-06-01T10:50:46.586Z</time>
      </trkpt>
      <trkpt lat="42.55849" lon="18.30096">
        <ele>108.007731</ele>
        <time>2022-06-01T10:50:49.597Z</time>
      </trkpt>
      <trkpt lat="42.55855" lon="18.30084">
        <ele>108.036507</ele>
        <time>2022-06-01T10:50:52.608Z</time>
      </trkpt>
      <trkpt lat="42.5586" lon="18.30073">
        <ele>108.100533</ele>
        <time>2022-06-01T10:50:55.609Z</time>
      </trkpt>
      <trkpt lat="42.55865" lon="18.30062">
        <ele>108.165761</ele>
        <time>2022-06-01T10:50:58.591Z</time>
      </trkpt>
      <trkpt lat="42.5587" lon="18.3005">
        <ele>108.234763</ele>
        <time>2022-06-01T10:51:01.589Z</time>
      </trkpt>
      <trkpt lat="42.55875" lon="18.30038">
        <ele>108.305653</ele>
        <time>2022-06-01T10:51:04.587Z</time>
      </trkpt>
      <trkpt lat="42.55881" lon="18.30026">
        <ele>108.377098</ele>
        <time>2022-06-01T10:51:07.584Z</time>
      </trkpt>
      <trkpt lat="42.55886" lon="18.30014">
        <ele>108.445109</ele>
        <time>2022-06-01T10:51:10.571Z</time>
      </trkpt>
      <trkpt lat="42.55891" lon="18.30003">
        <ele>108.51147</ele>
        <time>2022-06-01T10:51:13.586Z</time>
      </trkpt>
      <trkpt lat="42.55896" lon="18.29991">
        <ele>108.582286</ele>
        <time>2022-06-01T10:51:16.599Z</time>
      </trkpt>
      <trkpt lat="42.55903" lon="18.29978">
        <ele>108.657275</ele>
        <time>2022-06-01T10:51:19.586Z</time>
      </trkpt>
      <trkpt lat="42.55911" lon="18.29966">
        <ele>108.73887</ele>
        <time>2022-06-01T10:51:22.585Z</time>
      </trkpt>
      <trkpt lat="42.55918" lon="18.29951">
        <ele>108.824483</ele>
        <time>2022-06-01T10:51:25.589Z</time>
      </trkpt>
      <trkpt lat="42.55921" lon="18.29936">
        <ele>108.904214</ele>
        <time>2022-06-01T10:51:28.610Z</time>
      </trkpt>
      <trkpt lat="42.55925" lon="18.29921">
        <ele>108.982106</ele>
        <time>2022-06-01T10:51:31.587Z</time>
      </trkpt>
      <trkpt lat="42.55928" lon="18.29907">
        <ele>109.055871</ele>
        <time>2022-06-01T10:51:34.582Z</time>
      </trkpt>
      <trkpt lat="42.55931" lon="18.29894">
        <ele>109.125988</ele>
        <time>2022-06-01T10:51:37.567Z</time>
      </trkpt>
      <trkpt lat="42.55936" lon="18.29881">
        <ele>109.195778</ele>
        <time>2022-06-01T10:51:40.591Z</time>
      </trkpt>
      <trkpt lat="42.55941" lon="18.29867">
        <ele>109.310324</ele>
        <time>2022-06-01T10:51:43.611Z</time>
      </trkpt>
      <trkpt lat="42.55947" lon="18.29855">
        <ele>109.42338</ele>
        <time>2022-06-01T10:51:46.589Z</time>
      </trkpt>
      <trkpt lat="42.55953" lon="18.29842">
        <ele>109.535992</ele>
        <time>2022-06-01T10:51:49.578Z</time>
      </trkpt>
      <trkpt lat="42.5596" lon="18.29828">
        <ele>109.664095</ele>
        <time>2022-06-01T10:51:52.586Z</time>
      </trkpt>
      <trkpt lat="42.55967" lon="18.29814">
        <ele>109.788714</ele>
        <time>2022-06-01T10:51:55.574Z</time>
      </trkpt>
      <trkpt lat="42.55973" lon="18.298">
        <ele>109.909035</ele>
        <time>2022-06-01T10:51:58.585Z</time>
      </trkpt>
      <trkpt lat="42.55977" lon="18.29786">
        <ele>110.019063</ele>
        <time>2022-06-01T10:52:01.578Z</time>
      </trkpt>
      <trkpt lat="42.55979" lon="18.29773">
        <ele>110.123997</ele>
        <time>2022-06-01T10:52:04.601Z</time>
      </trkpt>
      <trkpt lat="42.55982" lon="18.2976">
        <ele>110.219019</ele>
        <time>2022-06-01T10:52:07.596Z</time>
      </trkpt>
      <trkpt lat="42.55983" lon="18.29748">
        <ele>110.30992</ele>
        <time>2022-06-01T10:52:10.592Z</time>
      </trkpt>
      <trkpt lat="42.55984" lon="18.29733">
        <ele>110.425216</ele>
        <time>2022-06-01T10:52:14.581Z</time>
      </trkpt>
      <trkpt lat="42.55985" lon="18.2972">
        <ele>110.525168</ele>
        <time>2022-06-01T10:52:18.598Z</time>
      </trkpt>
      <trkpt lat="42.55986" lon="18.29706">
        <ele>110.629471</ele>
        <time>2022-06-01T10:52:22.579Z</time>
      </trkpt>
      <trkpt lat="42.55987" lon="18.29692">
        <ele>110.735012</ele>
        <time>2022-06-01T10:52:26.582Z</time>
      </trkpt>
      <trkpt lat="42.55988" lon="18.29678">
        <ele>110.840903</ele>
        <time>2022-06-01T10:52:30.604Z</time>
      </trkpt>
      <trkpt lat="42.55989" lon="18.29664">
        <ele>110.947607</ele>
        <time>2022-06-01T10:52:34.581Z</time>
      </trkpt>
      <trkpt lat="42.55992" lon="18.29651">
        <ele>111.011938</ele>
        <time>2022-06-01T10:52:37.595Z</time>
      </trkpt>
      <trkpt lat="42.55995" lon="18.29638">
        <ele>110.975904</ele>
        <time>2022-06-01T10:52:40.593Z</time>
      </trkpt>
      <trkpt lat="42.55998" lon="18.29624">
        <ele>110.93409</ele>
        <time>2022-06-01T10:52:43.592Z</time>
      </trkpt>
      <trkpt lat="42.56001" lon="18.29607">
        <ele>110.886846</ele>
        <time>2022-06-01T10:52:46.587Z</time>
      </trkpt>
      <trkpt lat="42.56004" lon="18.29595">
        <ele>110.85177</ele>
        <time>2022-06-01T10:52:48.600Z</time>
      </trkpt>
      <trkpt lat="42.56007" lon="18.29583">
        <ele>110.817306</ele>
        <time>2022-06-01T10:52:50.587Z</time>
      </trkpt>
      <trkpt lat="42.56009" lon="18.29571">
        <ele>110.782952</ele>
        <time>2022-06-01T10:52:52.576Z</time>
      </trkpt>
      <trkpt lat="42.56013" lon="18.29559">
        <ele>110.74878</ele>
        <time>2022-06-01T10:52:54.609Z</time>
      </trkpt>
      <trkpt lat="42.56016" lon="18.29547">
        <ele>110.713919</ele>
        <time>2022-06-01T10:52:56.586Z</time>
      </trkpt>
      <trkpt lat="42.5602" lon="18.29536">
        <ele>110.680128</ele>
        <time>2022-06-01T10:52:58.581Z</time>
      </trkpt>
      <trkpt lat="42.56023" lon="18.29524">
        <ele>110.646599</ele>
        <time>2022-06-01T10:53:00.584Z</time>
      </trkpt>
      <trkpt lat="42.56026" lon="18.29513">
        <ele>110.613197</ele>
        <time>2022-06-01T10:53:02.569Z</time>
      </trkpt>
      <trkpt lat="42.56029" lon="18.29501">
        <ele>110.579794</ele>
        <time>2022-06-01T10:53:04.589Z</time>
      </trkpt>
      <trkpt lat="42.56033" lon="18.2949">
        <ele>110.54612</ele>
        <time>2022-06-01T10:53:06.598Z</time>
      </trkpt>
      <trkpt lat="42.56036" lon="18.29479">
        <ele>110.512558</ele>
        <time>2022-06-01T10:53:08.582Z</time>
      </trkpt>
      <trkpt lat="42.56039" lon="18.29467">
        <ele>110.477862</ele>
        <time>2022-06-01T10:53:10.603Z</time>
      </trkpt>
      <trkpt lat="42.56043" lon="18.29455">
        <ele>110.443145</ele>
        <time>2022-06-01T10:53:12.586Z</time>
      </trkpt>
      <trkpt lat="42.56046" lon="18.29443">
        <ele>110.408284</ele>
        <time>2022-06-01T10:53:14.598Z</time>
      </trkpt>
      <trkpt lat="42.5605" lon="18.29432">
        <ele>110.373847</ele>
        <time>2022-06-01T10:53:16.602Z</time>
      </trkpt>
      <trkpt lat="42.56053" lon="18.2942">
        <ele>110.340257</ele>
        <time>2022-06-01T10:53:18.567Z</time>
      </trkpt>
      <trkpt lat="42.56057" lon="18.29408">
        <ele>110.307446</ele>
        <time>2022-06-01T10:53:20.591Z</time>
      </trkpt>
      <trkpt lat="42.56061" lon="18.29397">
        <ele>110.275857</ele>
        <time>2022-06-01T10:53:22.640Z</time>
      </trkpt>
      <trkpt lat="42.56065" lon="18.2938">
        <ele>110.230114</ele>
        <time>2022-06-01T10:53:25.586Z</time>
      </trkpt>
      <trkpt lat="42.56067" lon="18.29363">
        <ele>110.18397</ele>
        <time>2022-06-01T10:53:28.564Z</time>
      </trkpt>
      <trkpt lat="42.56069" lon="18.29346">
        <ele>110.139662</ele>
        <time>2022-06-01T10:53:31.587Z</time>
      </trkpt>
      <trkpt lat="42.5607" lon="18.29328">
        <ele>110.095069</ele>
        <time>2022-06-01T10:53:34.577Z</time>
      </trkpt>
      <trkpt lat="42.56071" lon="18.29311">
        <ele>110.050001</ele>
        <time>2022-06-01T10:53:37.581Z</time>
      </trkpt>
      <trkpt lat="42.56072" lon="18.29295">
        <ele>110.007704</ele>
        <time>2022-06-01T10:53:40.587Z</time>
      </trkpt>
      <trkpt lat="42.56072" lon="18.29279">
        <ele>109.968754</ele>
        <time>2022-06-01T10:53:43.598Z</time>
      </trkpt>
      <trkpt lat="42.56073" lon="18.29265">
        <ele>109.930969</ele>
        <time>2022-06-01T10:53:46.593Z</time>
      </trkpt>
      <trkpt lat="42.56074" lon="18.2925">
        <ele>109.891612</ele>
        <time>2022-06-01T10:53:49.599Z</time>
      </trkpt>
      <trkpt lat="42.56076" lon="18.29236">
        <ele>109.854675</ele>
        <time>2022-06-01T10:53:52.581Z</time>
      </trkpt>
      <trkpt lat="42.56078" lon="18.29222">
        <ele>109.818291</ele>
        <time>2022-06-01T10:53:55.611Z</time>
      </trkpt>
      <trkpt lat="42.56081" lon="18.29207">
        <ele>109.779976</ele>
        <time>2022-06-01T10:53:58.590Z</time>
      </trkpt>
      <trkpt lat="42.56084" lon="18.29192">
        <ele>109.740101</ele>
        <time>2022-06-01T10:54:01.569Z</time>
      </trkpt>
      <trkpt lat="42.56087" lon="18.29178">
        <ele>109.729541</ele>
        <time>2022-06-01T10:54:04.616Z</time>
      </trkpt>
      <trkpt lat="42.56091" lon="18.29163">
        <ele>109.740703</ele>
        <time>2022-06-01T10:54:07.622Z</time>
      </trkpt>
      <trkpt lat="42.56095" lon="18.29148">
        <ele>109.751498</ele>
        <time>2022-06-01T10:54:10.582Z</time>
      </trkpt>
      <trkpt lat="42.56098" lon="18.29134">
        <ele>109.762143</ele>
        <time>2022-06-01T10:54:13.588Z</time>
      </trkpt>
      <trkpt lat="42.56102" lon="18.29119">
        <ele>109.772772</ele>
        <time>2022-06-01T10:54:16.591Z</time>
      </trkpt>
      <trkpt lat="42.56106" lon="18.29105">
        <ele>109.783475</ele>
        <time>2022-06-01T10:54:19.592Z</time>
      </trkpt>
      <trkpt lat="42.56109" lon="18.29091">
        <ele>109.793809</ele>
        <time>2022-06-01T10:54:22.599Z</time>
      </trkpt>
      <trkpt lat="42.56113" lon="18.29077">
        <ele>109.804179</ele>
        <time>2022-06-01T10:54:25.610Z</time>
      </trkpt>
      <trkpt lat="42.56115" lon="18.29063">
        <ele>109.814283</ele>
        <time>2022-06-01T10:54:28.589Z</time>
      </trkpt>
      <trkpt lat="42.56117" lon="18.29048">
        <ele>109.824597</ele>
        <time>2022-06-01T10:54:31.620Z</time>
      </trkpt>
      <trkpt lat="42.56118" lon="18.29034">
        <ele>109.83496</ele>
        <time>2022-06-01T10:54:34.586Z</time>
      </trkpt>
      <trkpt lat="42.56118" lon="18.29019">
        <ele>109.845552</ele>
        <time>2022-06-01T10:54:37.580Z</time>
      </trkpt>
      <trkpt lat="42.56118" lon="18.29003">
        <ele>109.856564</ele>
        <time>2022-06-01T10:54:40.592Z</time>
      </trkpt>
      <trkpt lat="42.5612" lon="18.28987">
        <ele>109.86782</ele>
        <time>2022-06-01T10:54:43.605Z</time>
      </trkpt>
      <trkpt lat="42.56122" lon="18.28971">
        <ele>109.879236</ele>
        <time>2022-06-01T10:54:46.571Z</time>
      </trkpt>
      <trkpt lat="42.56125" lon="18.28956">
        <ele>109.89043</ele>
        <time>2022-06-01T10:54:49.582Z</time>
      </trkpt>
      <trkpt lat="42.56127" lon="18.28941">
        <ele>110.143931</ele>
        <time>2022-06-01T10:54:52.579Z</time>
      </trkpt>
      <trkpt lat="42.5613" lon="18.28926">
        <ele>110.540762</ele>
        <time>2022-06-01T10:54:55.575Z</time>
      </trkpt>
      <trkpt lat="42.56132" lon="18.28912">
        <ele>110.937835</ele>
        <time>2022-06-01T10:54:58.579Z</time>
      </trkpt>
      <trkpt lat="42.56135" lon="18.28897">
        <ele>111.333758</ele>
        <time>2022-06-01T10:55:01.584Z</time>
      </trkpt>
      <trkpt lat="42.56137" lon="18.28883">
        <ele>111.723758</ele>
        <time>2022-06-01T10:55:04.565Z</time>
      </trkpt>
      <trkpt lat="42.56139" lon="18.28869">
        <ele>112.101832</ele>
        <time>2022-06-01T10:55:07.579Z</time>
      </trkpt>
      <trkpt lat="42.56141" lon="18.28855">
        <ele>112.479642</ele>
        <time>2022-06-01T10:55:10.667Z</time>
      </trkpt>
      <trkpt lat="42.56143" lon="18.28841">
        <ele>112.853062</ele>
        <time>2022-06-01T10:55:13.586Z</time>
      </trkpt>
      <trkpt lat="42.56145" lon="18.28827">
        <ele>113.233041</ele>
        <time>2022-06-01T10:55:16.583Z</time>
      </trkpt>
      <trkpt lat="42.56147" lon="18.28814">
        <ele>113.591017</ele>
        <time>2022-06-01T10:55:19.580Z</time>
      </trkpt>
      <trkpt lat="42.56149" lon="18.28802">
        <ele>113.921438</ele>
        <time>2022-06-01T10:55:22.601Z</time>
      </trkpt>
      <trkpt lat="42.56151" lon="18.28787">
        <ele>114.329679</ele>
        <time>2022-06-01T10:55:26.612Z</time>
      </trkpt>
      <trkpt lat="42.56154" lon="18.28774">
        <ele>114.692366</ele>
        <time>2022-06-01T10:55:30.585Z</time>
      </trkpt>
      <trkpt lat="42.56159" lon="18.28763">
        <ele>115.0323</ele>
        <time>2022-06-01T10:55:34.603Z</time>
      </trkpt>
      <trkpt lat="42.56164" lon="18.2875">
        <ele>115.437273</ele>
        <time>2022-06-01T10:55:39.586Z</time>
      </trkpt>
      <trkpt lat="42.5617" lon="18.2874">
        <ele>115.77197</ele>
        <time>2022-06-01T10:55:43.603Z</time>
      </trkpt>
      <trkpt lat="42.56175" lon="18.28729">
        <ele>116.103512</ele>
        <time>2022-06-01T10:55:47.579Z</time>
      </trkpt>
      <trkpt lat="42.56181" lon="18.28719">
        <ele>116.477466</ele>
        <time>2022-06-01T10:55:51.573Z</time>
      </trkpt>
      <trkpt lat="42.56187" lon="18.28707">
        <ele>117.204636</ele>
        <time>2022-06-01T10:55:56.588Z</time>
      </trkpt>
      <trkpt lat="42.56192" lon="18.28697">
        <ele>117.803057</ele>
        <time>2022-06-01T10:56:00.610Z</time>
      </trkpt>
      <trkpt lat="42.56197" lon="18.28686">
        <ele>118.431249</ele>
        <time>2022-06-01T10:56:04.574Z</time>
      </trkpt>
      <trkpt lat="42.56201" lon="18.28674">
        <ele>119.08253</ele>
        <time>2022-06-01T10:56:08.601Z</time>
      </trkpt>
      <trkpt lat="42.56205" lon="18.28662">
        <ele>119.731033</ele>
        <time>2022-06-01T10:56:12.584Z</time>
      </trkpt>
      <trkpt lat="42.5621" lon="18.28651">
        <ele>120.350532</ele>
        <time>2022-06-01T10:56:16.593Z</time>
      </trkpt>
      <trkpt lat="42.56214" lon="18.2864">
        <ele>120.956111</ele>
        <time>2022-06-01T10:56:20.577Z</time>
      </trkpt>
      <trkpt lat="42.56219" lon="18.28626">
        <ele>121.703951</ele>
        <time>2022-06-01T10:56:25.588Z</time>
      </trkpt>
      <trkpt lat="42.56223" lon="18.28614">
        <ele>122.333473</ele>
        <time>2022-06-01T10:56:29.588Z</time>
      </trkpt>
      <trkpt lat="42.56228" lon="18.28603">
        <ele>122.961409</ele>
        <time>2022-06-01T10:56:33.642Z</time>
      </trkpt>
      <trkpt lat="42.56232" lon="18.2859">
        <ele>123.640001</ele>
        <time>2022-06-01T10:56:37.573Z</time>
      </trkpt>
      <trkpt lat="42.56236" lon="18.28578">
        <ele>124.276788</ele>
        <time>2022-06-01T10:56:41.586Z</time>
      </trkpt>
      <trkpt lat="42.56241" lon="18.28567">
        <ele>124.935359</ele>
        <time>2022-06-01T10:56:45.587Z</time>
      </trkpt>
      <trkpt lat="42.56246" lon="18.28556">
        <ele>125.589775</ele>
        <time>2022-06-01T10:56:49.583Z</time>
      </trkpt>
      <trkpt lat="42.56252" lon="18.28545">
        <ele>126.223135</ele>
        <time>2022-06-01T10:56:53.582Z</time>
      </trkpt>
      <trkpt lat="42.56256" lon="18.28534">
        <ele>126.839551</ele>
        <time>2022-06-01T10:56:57.571Z</time>
      </trkpt>
      <trkpt lat="42.56262" lon="18.28524">
        <ele>127.436854</ele>
        <time>2022-06-01T10:57:01.621Z</time>
      </trkpt>
      <trkpt lat="42.56267" lon="18.28513">
        <ele>128.058415</ele>
        <time>2022-06-01T10:57:05.585Z</time>
      </trkpt>
      <trkpt lat="42.56272" lon="18.28503">
        <ele>128.249396</ele>
        <time>2022-06-01T10:57:09.586Z</time>
      </trkpt>
      <trkpt lat="42.56276" lon="18.28492">
        <ele>128.127492</ele>
        <time>2022-06-01T10:57:13.588Z</time>
      </trkpt>
      <trkpt lat="42.5628" lon="18.2848">
        <ele>128.003111</ele>
        <time>2022-06-01T10:57:17.576Z</time>
      </trkpt>
      <trkpt lat="42.56286" lon="18.28468">
        <ele>127.856003</ele>
        <time>2022-06-01T10:57:22.580Z</time>
      </trkpt>
      <trkpt lat="42.5629" lon="18.28456">
        <ele>127.73313</ele>
        <time>2022-06-01T10:57:26.591Z</time>
      </trkpt>
      <trkpt lat="42.56294" lon="18.28446">
        <ele>127.61226</ele>
        <time>2022-06-01T10:57:30.581Z</time>
      </trkpt>
      <trkpt lat="42.56299" lon="18.28435">
        <ele>127.484434</ele>
        <time>2022-06-01T10:57:34.597Z</time>
      </trkpt>
      <trkpt lat="42.56304" lon="18.28423">
        <ele>127.350022</ele>
        <time>2022-06-01T10:57:38.600Z</time>
      </trkpt>
      <trkpt lat="42.56309" lon="18.28411">
        <ele>127.213503</ele>
        <time>2022-06-01T10:57:42.578Z</time>
      </trkpt>
      <trkpt lat="42.56313" lon="18.28398">
        <ele>127.077276</ele>
        <time>2022-06-01T10:57:46.587Z</time>
      </trkpt>
      <trkpt lat="42.56319" lon="18.28384">
        <ele>126.922885</ele>
        <time>2022-06-01T10:57:50.595Z</time>
      </trkpt>
      <trkpt lat="42.56324" lon="18.2837">
        <ele>126.769722</ele>
        <time>2022-06-01T10:57:54.581Z</time>
      </trkpt>
      <trkpt lat="42.56329" lon="18.28356">
        <ele>126.616421</ele>
        <time>2022-06-01T10:57:58.568Z</time>
      </trkpt>
      <trkpt lat="42.56333" lon="18.28344">
        <ele>126.487354</ele>
        <time>2022-06-01T10:58:01.605Z</time>
      </trkpt>
      <trkpt lat="42.56338" lon="18.28331">
        <ele>126.3442</ele>
        <time>2022-06-01T10:58:04.635Z</time>
      </trkpt>
      <trkpt lat="42.56342" lon="18.28317">
        <ele>126.192697</ele>
        <time>2022-06-01T10:58:07.591Z</time>
      </trkpt>
      <trkpt lat="42.56347" lon="18.28302">
        <ele>126.033071</ele>
        <time>2022-06-01T10:58:10.583Z</time>
      </trkpt>
      <trkpt lat="42.56351" lon="18.28287">
        <ele>125.884098</ele>
        <time>2022-06-01T10:58:13.584Z</time>
      </trkpt>
      <trkpt lat="42.56355" lon="18.28272">
        <ele>125.772045</ele>
        <time>2022-06-01T10:58:16.587Z</time>
      </trkpt>
      <trkpt lat="42.56359" lon="18.28258">
        <ele>125.666357</ele>
        <time>2022-06-01T10:58:19.586Z</time>
      </trkpt>
      <trkpt lat="42.56361" lon="18.28244">
        <ele>125.565116</ele>
        <time>2022-06-01T10:58:22.582Z</time>
      </trkpt>
      <trkpt lat="42.56364" lon="18.28232">
        <ele>125.472253</ele>
        <time>2022-06-01T10:58:25.592Z</time>
      </trkpt>
      <trkpt lat="42.56367" lon="18.2822">
        <ele>125.383783</ele>
        <time>2022-06-01T10:58:28.574Z</time>
      </trkpt>
      <trkpt lat="42.5637" lon="18.28205">
        <ele>125.274231</ele>
        <time>2022-06-01T10:58:32.574Z</time>
      </trkpt>
      <trkpt lat="42.56373" lon="18.28191">
        <ele>125.167894</ele>
        <time>2022-06-01T10:58:36.578Z</time>
      </trkpt>
      <trkpt lat="42.56376" lon="18.28177">
        <ele>125.065697</ele>
        <time>2022-06-01T10:58:40.578Z</time>
      </trkpt>
      <trkpt lat="42.56379" lon="18.28164">
        <ele>124.96506</ele>
        <time>2022-06-01T10:58:44.586Z</time>
      </trkpt>
      <trkpt lat="42.56384" lon="18.28152">
        <ele>124.863079</ele>
        <time>2022-06-01T10:58:48.577Z</time>
      </trkpt>
      <trkpt lat="42.5639" lon="18.2814">
        <ele>124.763042</ele>
        <time>2022-06-01T10:58:52.577Z</time>
      </trkpt>
      <trkpt lat="42.56396" lon="18.28129">
        <ele>124.660866</ele>
        <time>2022-06-01T10:58:56.576Z</time>
      </trkpt>
      <trkpt lat="42.56402" lon="18.28117">
        <ele>124.558562</ele>
        <time>2022-06-01T10:59:00.581Z</time>
      </trkpt>
      <trkpt lat="42.56407" lon="18.28106">
        <ele>124.467713</ele>
        <time>2022-06-01T10:59:04.597Z</time>
      </trkpt>
      <trkpt lat="42.56413" lon="18.28095">
        <ele>124.36952</ele>
        <time>2022-06-01T10:59:08.579Z</time>
      </trkpt>
      <trkpt lat="42.56418" lon="18.28083">
        <ele>124.270813</ele>
        <time>2022-06-01T10:59:12.583Z</time>
      </trkpt>
      <trkpt lat="42.56423" lon="18.28073">
        <ele>124.180171</ele>
        <time>2022-06-01T10:59:16.597Z</time>
      </trkpt>
      <trkpt lat="42.5643" lon="18.28061">
        <ele>124.625501</ele>
        <time>2022-06-01T10:59:21.584Z</time>
      </trkpt>
      <trkpt lat="42.56435" lon="18.28048">
        <ele>125.146779</ele>
        <time>2022-06-01T10:59:26.765Z</time>
      </trkpt>
      <trkpt lat="42.56441" lon="18.28036">
        <ele>125.664984</ele>
        <time>2022-06-01T10:59:31.590Z</time>
      </trkpt>
      <trkpt lat="42.56447" lon="18.28026">
        <ele>126.107088</ele>
        <time>2022-06-01T10:59:35.563Z</time>
      </trkpt>
      <trkpt lat="42.56452" lon="18.28013">
        <ele>126.625325</ele>
        <time>2022-06-01T10:59:40.594Z</time>
      </trkpt>
      <trkpt lat="42.56458" lon="18.28">
        <ele>127.151408</ele>
        <time>2022-06-01T10:59:45.588Z</time>
      </trkpt>
      <trkpt lat="42.56462" lon="18.27989">
        <ele>127.589851</ele>
        <time>2022-06-01T10:59:49.573Z</time>
      </trkpt>
      <trkpt lat="42.56467" lon="18.27976">
        <ele>128.093452</ele>
        <time>2022-06-01T10:59:54.579Z</time>
      </trkpt>
      <trkpt lat="42.56472" lon="18.27963">
        <ele>128.60628</ele>
        <time>2022-06-01T10:59:59.584Z</time>
      </trkpt>
      <trkpt lat="42.56477" lon="18.27952">
        <ele>129.041961</ele>
        <time>2022-06-01T11:00:03.611Z</time>
      </trkpt>
      <trkpt lat="42.56482" lon="18.2794">
        <ele>129.545264</ele>
        <time>2022-06-01T11:00:08.577Z</time>
      </trkpt>
      <trkpt lat="42.56487" lon="18.27928">
        <ele>130.006855</ele>
        <time>2022-06-01T11:00:12.583Z</time>
      </trkpt>
      <trkpt lat="42.56491" lon="18.27916">
        <ele>130.477059</ele>
        <time>2022-06-01T11:00:16.562Z</time>
      </trkpt>
      <trkpt lat="42.56494" lon="18.27903">
        <ele>130.94145</ele>
        <time>2022-06-01T11:00:20.594Z</time>
      </trkpt>
      <trkpt lat="42.56497" lon="18.27889">
        <ele>131.482904</ele>
        <time>2022-06-01T11:00:25.618Z</time>
      </trkpt>
      <trkpt lat="42.56501" lon="18.27877">
        <ele>131.921038</ele>
        <time>2022-06-01T11:00:29.589Z</time>
      </trkpt>
      <trkpt lat="42.56504" lon="18.27865">
        <ele>132.365898</ele>
        <time>2022-06-01T11:00:33.588Z</time>
      </trkpt>
      <trkpt lat="42.56508" lon="18.27853">
        <ele>132.704996</ele>
        <time>2022-06-01T11:00:37.621Z</time>
      </trkpt>
      <trkpt lat="42.56512" lon="18.2784">
        <ele>132.68381</ele>
        <time>2022-06-01T11:00:42.590Z</time>
      </trkpt>
      <trkpt lat="42.56516" lon="18.27828">
        <ele>132.666377</ele>
        <time>2022-06-01T11:00:46.602Z</time>
      </trkpt>
      <trkpt lat="42.5652" lon="18.27816">
        <ele>132.647285</ele>
        <time>2022-06-01T11:00:50.585Z</time>
      </trkpt>
      <trkpt lat="42.56525" lon="18.27805">
        <ele>132.628448</ele>
        <time>2022-06-01T11:00:54.609Z</time>
      </trkpt>
      <trkpt lat="42.56531" lon="18.27794">
        <ele>132.609744</ele>
        <time>2022-06-01T11:00:58.565Z</time>
      </trkpt>
      <trkpt lat="42.56536" lon="18.27784">
        <ele>132.591779</ele>
        <time>2022-06-01T11:01:02.585Z</time>
      </trkpt>
      <trkpt lat="42.5654" lon="18.27772">
        <ele>132.57298</ele>
        <time>2022-06-01T11:01:06.608Z</time>
      </trkpt>
      <trkpt lat="42.56545" lon="18.2776">
        <ele>132.553395</ele>
        <time>2022-06-01T11:01:10.590Z</time>
      </trkpt>
      <trkpt lat="42.5655" lon="18.27749">
        <ele>132.534693</ele>
        <time>2022-06-01T11:01:14.603Z</time>
      </trkpt>
      <trkpt lat="42.56555" lon="18.27737">
        <ele>132.515027</ele>
        <time>2022-06-01T11:01:18.579Z</time>
      </trkpt>
      <trkpt lat="42.5656" lon="18.27725">
        <ele>132.49603</ele>
        <time>2022-06-01T11:01:22.579Z</time>
      </trkpt>
      <trkpt lat="42.56565" lon="18.27713">
        <ele>132.475611</ele>
        <time>2022-06-01T11:01:26.578Z</time>
      </trkpt>
      <trkpt lat="42.5657" lon="18.27701">
        <ele>132.456287</ele>
        <time>2022-06-01T11:01:30.582Z</time>
      </trkpt>
      <trkpt lat="42.56574" lon="18.27688">
        <ele>132.436876</ele>
        <time>2022-06-01T11:01:34.584Z</time>
      </trkpt>
      <trkpt lat="42.56579" lon="18.27676">
        <ele>132.417401</ele>
        <time>2022-06-01T11:01:38.586Z</time>
      </trkpt>
      <trkpt lat="42.56583" lon="18.27664">
        <ele>132.398395</ele>
        <time>2022-06-01T11:01:42.591Z</time>
      </trkpt>
      <trkpt lat="42.56588" lon="18.27652">
        <ele>132.379164</ele>
        <time>2022-06-01T11:01:46.580Z</time>
      </trkpt>
      <trkpt lat="42.56592" lon="18.27641">
        <ele>132.349784</ele>
        <time>2022-06-01T11:01:50.593Z</time>
      </trkpt>
      <trkpt lat="42.56598" lon="18.2763">
        <ele>132.10802</ele>
        <time>2022-06-01T11:01:54.576Z</time>
      </trkpt>
      <trkpt lat="42.56604" lon="18.2762">
        <ele>131.880734</ele>
        <time>2022-06-01T11:01:58.579Z</time>
      </trkpt>
      <trkpt lat="42.56608" lon="18.27609">
        <ele>131.644431</ele>
        <time>2022-06-01T11:02:02.585Z</time>
      </trkpt>
      <trkpt lat="42.56614" lon="18.27597">
        <ele>131.397935</ele>
        <time>2022-06-01T11:02:06.624Z</time>
      </trkpt>
      <trkpt lat="42.5662" lon="18.27586">
        <ele>131.150353</ele>
        <time>2022-06-01T11:02:10.574Z</time>
      </trkpt>
      <trkpt lat="42.56625" lon="18.27574">
        <ele>130.896</ele>
        <time>2022-06-01T11:02:14.585Z</time>
      </trkpt>
      <trkpt lat="42.56631" lon="18.27563">
        <ele>130.642505</ele>
        <time>2022-06-01T11:02:18.638Z</time>
      </trkpt>
      <trkpt lat="42.56638" lon="18.27551">
        <ele>130.37293</ele>
        <time>2022-06-01T11:02:22.621Z</time>
      </trkpt>
      <trkpt lat="42.56644" lon="18.27541">
        <ele>130.139912</ele>
        <time>2022-06-01T11:02:25.587Z</time>
      </trkpt>
      <trkpt lat="42.56649" lon="18.2753">
        <ele>129.902471</ele>
        <time>2022-06-01T11:02:28.613Z</time>
      </trkpt>
      <trkpt lat="42.56655" lon="18.27519">
        <ele>129.661995</ele>
        <time>2022-06-01T11:02:31.581Z</time>
      </trkpt>
      <trkpt lat="42.56661" lon="18.27507">
        <ele>129.392997</ele>
        <time>2022-06-01T11:02:34.592Z</time>
      </trkpt>
      <trkpt lat="42.56665" lon="18.27492">
        <ele>129.108594</ele>
        <time>2022-06-01T11:02:37.572Z</time>
      </trkpt>
      <trkpt lat="42.5667" lon="18.27477">
        <ele>128.813593</ele>
        <time>2022-06-01T11:02:40.571Z</time>
      </trkpt>
      <trkpt lat="42.56677" lon="18.27464">
        <ele>128.517312</ele>
        <time>2022-06-01T11:02:43.591Z</time>
      </trkpt>
      <trkpt lat="42.56683" lon="18.2745">
        <ele>128.229554</ele>
        <time>2022-06-01T11:02:46.584Z</time>
      </trkpt>
      <trkpt lat="42.56689" lon="18.27437">
        <ele>127.959271</ele>
        <time>2022-06-01T11:02:49.591Z</time>
      </trkpt>
      <trkpt lat="42.56694" lon="18.27425">
        <ele>128.17261</ele>
        <time>2022-06-01T11:02:52.578Z</time>
      </trkpt>
      <trkpt lat="42.567" lon="18.27414">
        <ele>128.416476</ele>
        <time>2022-06-01T11:02:55.581Z</time>
      </trkpt>
      <trkpt lat="42.56705" lon="18.27403">
        <ele>128.640899</ele>
        <time>2022-06-01T11:02:58.593Z</time>
      </trkpt>
      <trkpt lat="42.56709" lon="18.27392">
        <ele>128.865837</ele>
        <time>2022-06-01T11:03:01.580Z</time>
      </trkpt>
      <trkpt lat="42.56715" lon="18.27378">
        <ele>129.14303</ele>
        <time>2022-06-01T11:03:05.576Z</time>
      </trkpt>
      <trkpt lat="42.56721" lon="18.27365">
        <ele>129.422529</ele>
        <time>2022-06-01T11:03:09.615Z</time>
      </trkpt>
      <trkpt lat="42.56728" lon="18.27352">
        <ele>129.69461</ele>
        <time>2022-06-01T11:03:13.622Z</time>
      </trkpt>
      <trkpt lat="42.56733" lon="18.27339">
        <ele>129.959891</ele>
        <time>2022-06-01T11:03:17.572Z</time>
      </trkpt>
      <trkpt lat="42.56738" lon="18.27326">
        <ele>130.219609</ele>
        <time>2022-06-01T11:03:21.585Z</time>
      </trkpt>
      <trkpt lat="42.56743" lon="18.27314">
        <ele>130.456763</ele>
        <time>2022-06-01T11:03:25.581Z</time>
      </trkpt>
      <trkpt lat="42.56748" lon="18.27303">
        <ele>130.682926</ele>
        <time>2022-06-01T11:03:29.580Z</time>
      </trkpt>
      <trkpt lat="42.56753" lon="18.27292">
        <ele>130.915292</ele>
        <time>2022-06-01T11:03:33.576Z</time>
      </trkpt>
      <trkpt lat="42.56758" lon="18.2728">
        <ele>131.161309</ele>
        <time>2022-06-01T11:03:37.574Z</time>
      </trkpt>
      <trkpt lat="42.56764" lon="18.27268">
        <ele>131.414</ele>
        <time>2022-06-01T11:03:41.635Z</time>
      </trkpt>
      <trkpt lat="42.56769" lon="18.27256">
        <ele>131.654699</ele>
        <time>2022-06-01T11:03:45.601Z</time>
      </trkpt>
      <trkpt lat="42.56774" lon="18.27245">
        <ele>131.87615</ele>
        <time>2022-06-01T11:03:49.606Z</time>
      </trkpt>
      <trkpt lat="42.56778" lon="18.27232">
        <ele>132.136842</ele>
        <time>2022-06-01T11:03:54.598Z</time>
      </trkpt>
      <trkpt lat="42.56783" lon="18.2722">
        <ele>132.343299</ele>
        <time>2022-06-01T11:03:58.595Z</time>
      </trkpt>
      <trkpt lat="42.56787" lon="18.27209">
        <ele>132.522845</ele>
        <time>2022-06-01T11:04:02.596Z</time>
      </trkpt>
      <trkpt lat="42.56792" lon="18.27197">
        <ele>132.6992</ele>
        <time>2022-06-01T11:04:06.608Z</time>
      </trkpt>
      <trkpt lat="42.56796" lon="18.27184">
        <ele>132.902488</ele>
        <time>2022-06-01T11:04:11.579Z</time>
      </trkpt>
      <trkpt lat="42.568" lon="18.27173">
        <ele>133.071055</ele>
        <time>2022-06-01T11:04:15.586Z</time>
      </trkpt>
      <trkpt lat="42.56804" lon="18.27162">
        <ele>133.240883</ele>
        <time>2022-06-01T11:04:19.587Z</time>
      </trkpt>
      <trkpt lat="42.56807" lon="18.2715">
        <ele>133.41176</ele>
        <time>2022-06-01T11:04:23.561Z</time>
      </trkpt>
      <trkpt lat="42.56811" lon="18.27139">
        <ele>133.590195</ele>
        <time>2022-06-01T11:04:27.587Z</time>
      </trkpt>
      <trkpt lat="42.56816" lon="18.27127">
        <ele>133.767037</ele>
        <time>2022-06-01T11:04:31.578Z</time>
      </trkpt>
      <trkpt lat="42.5682" lon="18.27116">
        <ele>133.939249</ele>
        <time>2022-06-01T11:04:35.594Z</time>
      </trkpt>
      <trkpt lat="42.56824" lon="18.27105">
        <ele>134.110649</ele>
        <time>2022-06-01T11:04:39.581Z</time>
      </trkpt>
      <trkpt lat="42.56828" lon="18.27094">
        <ele>134.285397</ele>
        <time>2022-06-01T11:04:43.603Z</time>
      </trkpt>
      <trkpt lat="42.56833" lon="18.27082">
        <ele>134.467542</ele>
        <time>2022-06-01T11:04:47.578Z</time>
      </trkpt>
      <trkpt lat="42.56838" lon="18.2707">
        <ele>134.666262</ele>
        <time>2022-06-01T11:04:51.583Z</time>
      </trkpt>
      <trkpt lat="42.56845" lon="18.27058">
        <ele>134.87347</ele>
        <time>2022-06-01T11:04:55.585Z</time>
      </trkpt>
      <trkpt lat="42.56851" lon="18.27049">
        <ele>135.046262</ele>
        <time>2022-06-01T11:04:58.591Z</time>
      </trkpt>
      <trkpt lat="42.56857" lon="18.27039">
        <ele>135.223399</ele>
        <time>2022-06-01T11:05:01.581Z</time>
      </trkpt>
      <trkpt lat="42.56862" lon="18.27028">
        <ele>135.401916</ele>
        <time>2022-06-01T11:05:04.589Z</time>
      </trkpt>
      <trkpt lat="42.56867" lon="18.27017">
        <ele>135.581467</ele>
        <time>2022-06-01T11:05:07.580Z</time>
      </trkpt>
      <trkpt lat="42.56873" lon="18.27007">
        <ele>135.703973</ele>
        <time>2022-06-01T11:05:10.593Z</time>
      </trkpt>
      <trkpt lat="42.5688" lon="18.26994">
        <ele>135.839178</ele>
        <time>2022-06-01T11:05:14.579Z</time>
      </trkpt>
      <trkpt lat="42.56886" lon="18.26984">
        <ele>135.946627</ele>
        <time>2022-06-01T11:05:17.589Z</time>
      </trkpt>
      <trkpt lat="42.56892" lon="18.26973">
        <ele>136.060115</ele>
        <time>2022-06-01T11:05:20.584Z</time>
      </trkpt>
      <trkpt lat="42.56898" lon="18.26962">
        <ele>136.172933</ele>
        <time>2022-06-01T11:05:23.578Z</time>
      </trkpt>
      <trkpt lat="42.56903" lon="18.26951">
        <ele>136.286459</ele>
        <time>2022-06-01T11:05:26.592Z</time>
      </trkpt>
      <trkpt lat="42.56909" lon="18.26939">
        <ele>136.401698</ele>
        <time>2022-06-01T11:05:29.589Z</time>
      </trkpt>
      <trkpt lat="42.56913" lon="18.26928">
        <ele>136.509284</ele>
        <time>2022-06-01T11:05:32.609Z</time>
      </trkpt>
      <trkpt lat="42.56918" lon="18.26917">
        <ele>136.613387</ele>
        <time>2022-06-01T11:05:35.586Z</time>
      </trkpt>
      <trkpt lat="42.56923" lon="18.26907">
        <ele>136.717583</ele>
        <time>2022-06-01T11:05:38.622Z</time>
      </trkpt>
      <trkpt lat="42.56929" lon="18.26893">
        <ele>136.851613</ele>
        <time>2022-06-01T11:05:42.576Z</time>
      </trkpt>
      <trkpt lat="42.56934" lon="18.2688">
        <ele>136.982333</ele>
        <time>2022-06-01T11:05:46.587Z</time>
      </trkpt>
      <trkpt lat="42.56939" lon="18.26869">
        <ele>137.085879</ele>
        <time>2022-06-01T11:05:49.581Z</time>
      </trkpt>
      <trkpt lat="42.56945" lon="18.26855">
        <ele>137.219354</ele>
        <time>2022-06-01T11:05:53.584Z</time>
      </trkpt>
      <trkpt lat="42.56951" lon="18.26842">
        <ele>137.350475</ele>
        <time>2022-06-01T11:05:57.591Z</time>
      </trkpt>
      <trkpt lat="42.56957" lon="18.26828">
        <ele>137.484344</ele>
        <time>2022-06-01T11:06:01.615Z</time>
      </trkpt>
      <trkpt lat="42.56963" lon="18.26815">
        <ele>137.616398</ele>
        <time>2022-06-01T11:06:05.585Z</time>
      </trkpt>
      <trkpt lat="42.56968" lon="18.26801">
        <ele>137.821436</ele>
        <time>2022-06-01T11:06:09.583Z</time>
      </trkpt>
      <trkpt lat="42.56973" lon="18.26788">
        <ele>138.078463</ele>
        <time>2022-06-01T11:06:13.592Z</time>
      </trkpt>
      <trkpt lat="42.56979" lon="18.26775">
        <ele>138.334281</ele>
        <time>2022-06-01T11:06:17.581Z</time>
      </trkpt>
      <trkpt lat="42.56984" lon="18.26761">
        <ele>138.595626</ele>
        <time>2022-06-01T11:06:21.576Z</time>
      </trkpt>
      <trkpt lat="42.56989" lon="18.26747">
        <ele>138.86085</ele>
        <time>2022-06-01T11:06:25.584Z</time>
      </trkpt>
      <trkpt lat="42.56994" lon="18.26733">
        <ele>139.130302</ele>
        <time>2022-06-01T11:06:29.575Z</time>
      </trkpt>
      <trkpt lat="42.56999" lon="18.2672">
        <ele>139.385047</ele>
        <time>2022-06-01T11:06:33.612Z</time>
      </trkpt>
      <trkpt lat="42.57003" lon="18.26706">
        <ele>139.635733</ele>
        <time>2022-06-01T11:06:37.590Z</time>
      </trkpt>
      <trkpt lat="42.57008" lon="18.26694">
        <ele>139.863911</ele>
        <time>2022-06-01T11:06:41.616Z</time>
      </trkpt>
      <trkpt lat="42.57011" lon="18.26683">
        <ele>140.073267</ele>
        <time>2022-06-01T11:06:45.572Z</time>
      </trkpt>
      <trkpt lat="42.57015" lon="18.2667">
        <ele>140.310862</ele>
        <time>2022-06-01T11:06:50.624Z</time>
      </trkpt>
      <trkpt lat="42.57018" lon="18.26658">
        <ele>140.533761</ele>
        <time>2022-06-01T11:06:55.593Z</time>
      </trkpt>
      <trkpt lat="42.57022" lon="18.26645">
        <ele>140.765398</ele>
        <time>2022-06-01T11:07:01.576Z</time>
      </trkpt>
      <trkpt lat="42.57026" lon="18.26632">
        <ele>140.999689</ele>
        <time>2022-06-01T11:07:07.576Z</time>
      </trkpt>
      <trkpt lat="42.57029" lon="18.2662">
        <ele>141.218529</ele>
        <time>2022-06-01T11:07:13.562Z</time>
      </trkpt>
      <trkpt lat="42.57033" lon="18.26609">
        <ele>141.439641</ele>
        <time>2022-06-01T11:07:18.590Z</time>
      </trkpt>
      <trkpt lat="42.57038" lon="18.26596">
        <ele>141.671897</ele>
        <time>2022-06-01T11:07:24.560Z</time>
      </trkpt>
      <trkpt lat="42.57043" lon="18.26585">
        <ele>141.857425</ele>
        <time>2022-06-01T11:07:30.591Z</time>
      </trkpt>
      <trkpt lat="42.57047" lon="18.26572">
        <ele>141.960419</ele>
        <time>2022-06-01T11:07:36.587Z</time>
      </trkpt>
      <trkpt lat="42.57052" lon="18.26561">
        <ele>142.053878</ele>
        <time>2022-06-01T11:07:41.568Z</time>
      </trkpt>
      <trkpt lat="42.57057" lon="18.26551">
        <ele>142.148864</ele>
        <time>2022-06-01T11:07:46.591Z</time>
      </trkpt>
      <trkpt lat="42.57063" lon="18.2654">
        <ele>142.250553</ele>
        <time>2022-06-01T11:07:51.582Z</time>
      </trkpt>
      <trkpt lat="42.57068" lon="18.26527">
        <ele>142.36032</ele>
        <time>2022-06-01T11:07:56.573Z</time>
      </trkpt>
      <trkpt lat="42.57073" lon="18.26516">
        <ele>142.455283</ele>
        <time>2022-06-01T11:08:00.622Z</time>
      </trkpt>
      <trkpt lat="42.57077" lon="18.26504">
        <ele>142.554868</ele>
        <time>2022-06-01T11:08:04.591Z</time>
      </trkpt>
      <trkpt lat="42.5708" lon="18.26492">
        <ele>142.648404</ele>
        <time>2022-06-01T11:08:08.579Z</time>
      </trkpt>
      <trkpt lat="42.57082" lon="18.26479">
        <ele>142.746818</ele>
        <time>2022-06-01T11:08:12.579Z</time>
      </trkpt>
      <trkpt lat="42.57084" lon="18.26466">
        <ele>142.846986</ele>
        <time>2022-06-01T11:08:16.596Z</time>
      </trkpt>
      <trkpt lat="42.57086" lon="18.26454">
        <ele>142.939572</ele>
        <time>2022-06-01T11:08:20.594Z</time>
      </trkpt>
      <trkpt lat="42.57089" lon="18.26442">
        <ele>143.035206</ele>
        <time>2022-06-01T11:08:25.586Z</time>
      </trkpt>
      <trkpt lat="42.57092" lon="18.2643">
        <ele>143.129899</ele>
        <time>2022-06-01T11:08:30.600Z</time>
      </trkpt>
      <trkpt lat="42.57095" lon="18.26417">
        <ele>143.227745</ele>
        <time>2022-06-01T11:08:35.587Z</time>
      </trkpt>
      <trkpt lat="42.57097" lon="18.26405">
        <ele>143.324002</ele>
        <time>2022-06-01T11:08:40.622Z</time>
      </trkpt>
      <trkpt lat="42.57102" lon="18.26392">
        <ele>143.433467</ele>
        <time>2022-06-01T11:08:46.610Z</time>
      </trkpt>
      <trkpt lat="42.57105" lon="18.26379">
        <ele>143.531622</ele>
        <time>2022-06-01T11:08:51.598Z</time>
      </trkpt>
      <trkpt lat="42.5711" lon="18.26368">
        <ele>143.632275</ele>
        <time>2022-06-01T11:08:56.585Z</time>
      </trkpt>
      <trkpt lat="42.57114" lon="18.26357">
        <ele>143.75196</ele>
        <time>2022-06-01T11:09:00.600Z</time>
      </trkpt>
      <trkpt lat="42.57119" lon="18.26345">
        <ele>143.889012</ele>
        <time>2022-06-01T11:09:04.583Z</time>
      </trkpt>
      <trkpt lat="42.57125" lon="18.26331">
        <ele>144.045993</ele>
        <time>2022-06-01T11:09:08.575Z</time>
      </trkpt>
      <trkpt lat="42.5713" lon="18.26319">
        <ele>144.184348</ele>
        <time>2022-06-01T11:09:11.603Z</time>
      </trkpt>
      <trkpt lat="42.57134" lon="18.26306">
        <ele>144.331895</ele>
        <time>2022-06-01T11:09:14.577Z</time>
      </trkpt>
      <trkpt lat="42.57138" lon="18.26292">
        <ele>144.486514</ele>
        <time>2022-06-01T11:09:17.580Z</time>
      </trkpt>
      <trkpt lat="42.57142" lon="18.26278">
        <ele>144.635325</ele>
        <time>2022-06-01T11:09:20.592Z</time>
      </trkpt>
      <trkpt lat="42.57145" lon="18.26265">
        <ele>144.780837</ele>
        <time>2022-06-01T11:09:23.585Z</time>
      </trkpt>
      <trkpt lat="42.57148" lon="18.26252">
        <ele>144.916121</ele>
        <time>2022-06-01T11:09:26.615Z</time>
      </trkpt>
      <trkpt lat="42.57151" lon="18.2624">
        <ele>145.040683</ele>
        <time>2022-06-01T11:09:29.591Z</time>
      </trkpt>
      <trkpt lat="42.57155" lon="18.26226">
        <ele>145.19427</ele>
        <time>2022-06-01T11:09:33.593Z</time>
      </trkpt>
      <trkpt lat="42.5716" lon="18.26213">
        <ele>145.343683</ele>
        <time>2022-06-01T11:09:37.637Z</time>
      </trkpt>
      <trkpt lat="42.57164" lon="18.26199">
        <ele>145.488827</ele>
        <time>2022-06-01T11:09:41.568Z</time>
      </trkpt>
      <trkpt lat="42.57167" lon="18.26186">
        <ele>145.635246</ele>
        <time>2022-06-01T11:09:45.582Z</time>
      </trkpt>
      <trkpt lat="42.57172" lon="18.26171">
        <ele>145.798962</ele>
        <time>2022-06-01T11:09:49.600Z</time>
      </trkpt>
      <trkpt lat="42.57178" lon="18.26159">
        <ele>145.938283</ele>
        <time>2022-06-01T11:09:52.588Z</time>
      </trkpt>
      <trkpt lat="42.57182" lon="18.26148">
        <ele>146.072208</ele>
        <time>2022-06-01T11:09:55.585Z</time>
      </trkpt>
      <trkpt lat="42.57187" lon="18.26135">
        <ele>146.280694</ele>
        <time>2022-06-01T11:09:58.598Z</time>
      </trkpt>
      <trkpt lat="42.57192" lon="18.26122">
        <ele>146.544156</ele>
        <time>2022-06-01T11:10:01.594Z</time>
      </trkpt>
      <trkpt lat="42.57197" lon="18.26109">
        <ele>146.815342</ele>
        <time>2022-06-01T11:10:04.590Z</time>
      </trkpt>
      <trkpt lat="42.57202" lon="18.26096">
        <ele>147.082485</ele>
        <time>2022-06-01T11:10:07.583Z</time>
      </trkpt>
      <trkpt lat="42.57206" lon="18.26083">
        <ele>147.327817</ele>
        <time>2022-06-01T11:10:10.583Z</time>
      </trkpt>
      <trkpt lat="42.5721" lon="18.26071">
        <ele>147.556821</ele>
        <time>2022-06-01T11:10:13.593Z</time>
      </trkpt>
      <trkpt lat="42.57213" lon="18.26059">
        <ele>147.785543</ele>
        <time>2022-06-01T11:10:16.569Z</time>
      </trkpt>
      <trkpt lat="42.57217" lon="18.26048">
        <ele>148.010074</ele>
        <time>2022-06-01T11:10:19.578Z</time>
      </trkpt>
      <trkpt lat="42.5722" lon="18.26033">
        <ele>148.291035</ele>
        <time>2022-06-01T11:10:23.582Z</time>
      </trkpt>
      <trkpt lat="42.57224" lon="18.26017">
        <ele>148.575402</ele>
        <time>2022-06-01T11:10:27.548Z</time>
      </trkpt>
      <trkpt lat="42.57227" lon="18.26002">
        <ele>148.864557</ele>
        <time>2022-06-01T11:10:31.581Z</time>
      </trkpt>
      <trkpt lat="42.57231" lon="18.25987">
        <ele>149.144424</ele>
        <time>2022-06-01T11:10:35.580Z</time>
      </trkpt>
      <trkpt lat="42.57234" lon="18.25973">
        <ele>149.401347</ele>
        <time>2022-06-01T11:10:39.563Z</time>
      </trkpt>
      <trkpt lat="42.57237" lon="18.2596">
        <ele>149.647308</ele>
        <time>2022-06-01T11:10:43.606Z</time>
      </trkpt>
      <trkpt lat="42.57239" lon="18.25947">
        <ele>149.883209</ele>
        <time>2022-06-01T11:10:47.556Z</time>
      </trkpt>
      <trkpt lat="42.57242" lon="18.25934">
        <ele>150.124761</ele>
        <time>2022-06-01T11:10:51.582Z</time>
      </trkpt>
      <trkpt lat="42.57244" lon="18.25921">
        <ele>150.371101</ele>
        <time>2022-06-01T11:10:55.607Z</time>
      </trkpt>
      <trkpt lat="42.57248" lon="18.25908">
        <ele>150.538601</ele>
        <time>2022-06-01T11:10:59.602Z</time>
      </trkpt>
      <trkpt lat="42.57251" lon="18.25895">
        <ele>150.639504</ele>
        <time>2022-06-01T11:11:03.559Z</time>
      </trkpt>
      <trkpt lat="42.57255" lon="18.25882">
        <ele>150.748261</ele>
        <time>2022-06-01T11:11:07.551Z</time>
      </trkpt>
      <trkpt lat="42.57259" lon="18.25869">
        <ele>150.850168</ele>
        <time>2022-06-01T11:11:11.550Z</time>
      </trkpt>
      <trkpt lat="42.57262" lon="18.25856">
        <ele>150.949298</ele>
        <time>2022-06-01T11:11:15.561Z</time>
      </trkpt>
      <trkpt lat="42.57266" lon="18.25843">
        <ele>151.052944</ele>
        <time>2022-06-01T11:11:19.549Z</time>
      </trkpt>
      <trkpt lat="42.57268" lon="18.25829">
        <ele>151.159496</ele>
        <time>2022-06-01T11:11:23.576Z</time>
      </trkpt>
      <trkpt lat="42.57272" lon="18.25815">
        <ele>151.26909</ele>
        <time>2022-06-01T11:11:27.547Z</time>
      </trkpt>
      <trkpt lat="42.57276" lon="18.258">
        <ele>151.38561</ele>
        <time>2022-06-01T11:11:31.549Z</time>
      </trkpt>
      <trkpt lat="42.57279" lon="18.25786">
        <ele>151.498335</ele>
        <time>2022-06-01T11:11:35.555Z</time>
      </trkpt>
      <trkpt lat="42.57283" lon="18.25772">
        <ele>151.61106</ele>
        <time>2022-06-01T11:11:39.551Z</time>
      </trkpt>
      <trkpt lat="42.57287" lon="18.25758">
        <ele>151.72062</ele>
        <time>2022-06-01T11:11:43.546Z</time>
      </trkpt>
      <trkpt lat="42.57291" lon="18.25743">
        <ele>151.838179</ele>
        <time>2022-06-01T11:11:47.548Z</time>
      </trkpt>
      <trkpt lat="42.57294" lon="18.25728">
        <ele>151.953012</ele>
        <time>2022-06-01T11:11:51.546Z</time>
      </trkpt>
      <trkpt lat="42.57298" lon="18.25714">
        <ele>152.065737</ele>
        <time>2022-06-01T11:11:55.558Z</time>
      </trkpt>
      <trkpt lat="42.57301" lon="18.257">
        <ele>152.175406</ele>
        <time>2022-06-01T11:11:59.550Z</time>
      </trkpt>
      <trkpt lat="42.57305" lon="18.25685">
        <ele>152.286404</ele>
        <time>2022-06-01T11:12:03.573Z</time>
      </trkpt>
      <trkpt lat="42.57308" lon="18.25671">
        <ele>152.369236</ele>
        <time>2022-06-01T11:12:07.549Z</time>
      </trkpt>
      <trkpt lat="42.57311" lon="18.25658">
        <ele>152.448072</ele>
        <time>2022-06-01T11:12:11.550Z</time>
      </trkpt>
      <trkpt lat="42.57315" lon="18.25644">
        <ele>152.527891</ele>
        <time>2022-06-01T11:12:15.580Z</time>
      </trkpt>
      <trkpt lat="42.57318" lon="18.25629">
        <ele>152.610152</ele>
        <time>2022-06-01T11:12:19.552Z</time>
      </trkpt>
      <trkpt lat="42.57322" lon="18.25615">
        <ele>152.692026</ele>
        <time>2022-06-01T11:12:23.585Z</time>
      </trkpt>
      <trkpt lat="42.57325" lon="18.256">
        <ele>152.773305</ele>
        <time>2022-06-01T11:12:27.573Z</time>
      </trkpt>
      <trkpt lat="42.57329" lon="18.25587">
        <ele>152.851604</ele>
        <time>2022-06-01T11:12:31.556Z</time>
      </trkpt>
      <trkpt lat="42.57332" lon="18.25574">
        <ele>152.925863</ele>
        <time>2022-06-01T11:12:35.559Z</time>
      </trkpt>
      <trkpt lat="42.57335" lon="18.25561">
        <ele>152.999153</ele>
        <time>2022-06-01T11:12:39.572Z</time>
      </trkpt>
      <trkpt lat="42.57338" lon="18.25547">
        <ele>153.076067</ele>
        <time>2022-06-01T11:12:43.556Z</time>
      </trkpt>
      <trkpt lat="42.5734" lon="18.25534">
        <ele>153.148016</ele>
        <time>2022-06-01T11:12:47.557Z</time>
      </trkpt>
      <trkpt lat="42.57343" lon="18.25522">
        <ele>153.218429</ele>
        <time>2022-06-01T11:12:51.567Z</time>
      </trkpt>
      <trkpt lat="42.57347" lon="18.25509">
        <ele>153.295196</ele>
        <time>2022-06-01T11:12:55.560Z</time>
      </trkpt>
      <trkpt lat="42.5735" lon="18.25495">
        <ele>153.372325</ele>
        <time>2022-06-01T11:12:59.549Z</time>
      </trkpt>
      <trkpt lat="42.57353" lon="18.25481">
        <ele>153.452564</ele>
        <time>2022-06-01T11:13:03.552Z</time>
      </trkpt>
      <trkpt lat="42.57356" lon="18.25469">
        <ele>153.523508</ele>
        <time>2022-06-01T11:13:07.553Z</time>
      </trkpt>
      <trkpt lat="42.57359" lon="18.25457">
        <ele>153.592141</ele>
        <time>2022-06-01T11:13:11.555Z</time>
      </trkpt>
      <trkpt lat="42.57362" lon="18.25443">
        <ele>153.922213</ele>
        <time>2022-06-01T11:13:15.550Z</time>
      </trkpt>
      <trkpt lat="42.57366" lon="18.25431">
        <ele>154.396324</ele>
        <time>2022-06-01T11:13:19.571Z</time>
      </trkpt>
      <trkpt lat="42.5737" lon="18.25418">
        <ele>154.884116</ele>
        <time>2022-06-01T11:13:23.560Z</time>
      </trkpt>
      <trkpt lat="42.57372" lon="18.25405">
        <ele>155.335764</ele>
        <time>2022-06-01T11:13:27.568Z</time>
      </trkpt>
      <trkpt lat="42.57375" lon="18.25393">
        <ele>155.788255</ele>
        <time>2022-06-01T11:13:31.571Z</time>
      </trkpt>
      <trkpt lat="42.57378" lon="18.25381">
        <ele>156.222937</ele>
        <time>2022-06-01T11:13:35.558Z</time>
      </trkpt>
      <trkpt lat="42.57381" lon="18.25368">
        <ele>156.676897</ele>
        <time>2022-06-01T11:13:39.550Z</time>
      </trkpt>
      <trkpt lat="42.57385" lon="18.25357">
        <ele>157.102527</ele>
        <time>2022-06-01T11:13:43.546Z</time>
      </trkpt>
      <trkpt lat="42.5739" lon="18.25344">
        <ele>157.59904</ele>
        <time>2022-06-01T11:13:48.579Z</time>
      </trkpt>
      <trkpt lat="42.57394" lon="18.25333">
        <ele>158.032127</ele>
        <time>2022-06-01T11:13:52.567Z</time>
      </trkpt>
      <trkpt lat="42.57399" lon="18.25322">
        <ele>158.478791</ele>
        <time>2022-06-01T11:13:56.567Z</time>
      </trkpt>
      <trkpt lat="42.57404" lon="18.25311">
        <ele>158.918858</ele>
        <time>2022-06-01T11:14:00.550Z</time>
      </trkpt>
      <trkpt lat="42.57409" lon="18.25299">
        <ele>159.383317</ele>
        <time>2022-06-01T11:14:04.555Z</time>
      </trkpt>
      <trkpt lat="42.57414" lon="18.25289">
        <ele>159.806776</ele>
        <time>2022-06-01T11:14:08.559Z</time>
      </trkpt>
      <trkpt lat="42.57419" lon="18.25276">
        <ele>160.319804</ele>
        <time>2022-06-01T11:14:13.559Z</time>
      </trkpt>
      <trkpt lat="42.57424" lon="18.25265">
        <ele>160.749207</ele>
        <time>2022-06-01T11:14:17.554Z</time>
      </trkpt>
      <trkpt lat="42.5743" lon="18.25252">
        <ele>161.271065</ele>
        <time>2022-06-01T11:14:22.586Z</time>
      </trkpt>
      <trkpt lat="42.57434" lon="18.25242">
        <ele>161.694523</ele>
        <time>2022-06-01T11:14:26.553Z</time>
      </trkpt>
      <trkpt lat="42.57437" lon="18.25229">
        <ele>162.001166</ele>
        <time>2022-06-01T11:14:30.554Z</time>
      </trkpt>
      <trkpt lat="42.57441" lon="18.25217">
        <ele>161.905756</ele>
        <time>2022-06-01T11:14:34.555Z</time>
      </trkpt>
      <trkpt lat="42.57445" lon="18.25203">
        <ele>161.797011</ele>
        <time>2022-06-01T11:14:39.558Z</time>
      </trkpt>
      <trkpt lat="42.57449" lon="18.25189">
        <ele>161.687844</ele>
        <time>2022-06-01T11:14:44.581Z</time>
      </trkpt>
      <trkpt lat="42.57453" lon="18.25175">
        <ele>161.576166</ele>
        <time>2022-06-01T11:14:49.555Z</time>
      </trkpt>
      <trkpt lat="42.57456" lon="18.25161">
        <ele>161.466317</ele>
        <time>2022-06-01T11:14:54.550Z</time>
      </trkpt>
      <trkpt lat="42.57458" lon="18.25148">
        <ele>161.370678</ele>
        <time>2022-06-01T11:14:58.552Z</time>
      </trkpt>
      <trkpt lat="42.57459" lon="18.25135">
        <ele>161.273315</ele>
        <time>2022-06-01T11:15:02.553Z</time>
      </trkpt>
      <trkpt lat="42.5746" lon="18.25121">
        <ele>161.173778</ele>
        <time>2022-06-01T11:15:06.548Z</time>
      </trkpt>
      <trkpt lat="42.57461" lon="18.25108">
        <ele>161.075932</ele>
        <time>2022-06-01T11:15:10.564Z</time>
      </trkpt>
      <trkpt lat="42.57463" lon="18.25095">
        <ele>160.982455</ele>
        <time>2022-06-01T11:15:14.559Z</time>
      </trkpt>
      <trkpt lat="42.57465" lon="18.25083">
        <ele>160.889142</ele>
        <time>2022-06-01T11:15:18.572Z</time>
      </trkpt>
      <trkpt lat="42.57466" lon="18.2507">
        <ele>160.793089</ele>
        <time>2022-06-01T11:15:22.557Z</time>
      </trkpt>
      <trkpt lat="42.57467" lon="18.25057">
        <ele>160.699173</ele>
        <time>2022-06-01T11:15:26.553Z</time>
      </trkpt>
      <trkpt lat="42.57468" lon="18.25044">
        <ele>160.60095</ele>
        <time>2022-06-01T11:15:30.554Z</time>
      </trkpt>
      <trkpt lat="42.5747" lon="18.25031">
        <ele>160.504898</ele>
        <time>2022-06-01T11:15:34.563Z</time>
      </trkpt>
      <trkpt lat="42.57471" lon="18.25017">
        <ele>160.404931</ele>
        <time>2022-06-01T11:15:38.564Z</time>
      </trkpt>
      <trkpt lat="42.57473" lon="18.25005">
        <ele>160.310026</ele>
        <time>2022-06-01T11:15:42.582Z</time>
      </trkpt>
      <trkpt lat="42.57476" lon="18.24992">
        <ele>160.283966</ele>
        <time>2022-06-01T11:15:46.604Z</time>
      </trkpt>
      <trkpt lat="42.57478" lon="18.24978">
        <ele>160.483121</ele>
        <time>2022-06-01T11:15:50.569Z</time>
      </trkpt>
      <trkpt lat="42.57479" lon="18.24964">
        <ele>160.667051</ele>
        <time>2022-06-01T11:15:54.614Z</time>
      </trkpt>
      <trkpt lat="42.57481" lon="18.24951">
        <ele>160.849257</ele>
        <time>2022-06-01T11:15:58.578Z</time>
      </trkpt>
      <trkpt lat="42.57483" lon="18.24937">
        <ele>161.035173</ele>
        <time>2022-06-01T11:16:02.581Z</time>
      </trkpt>
      <trkpt lat="42.57485" lon="18.24924">
        <ele>161.220179</ele>
        <time>2022-06-01T11:16:06.576Z</time>
      </trkpt>
      <trkpt lat="42.57488" lon="18.24911">
        <ele>161.405184</ele>
        <time>2022-06-01T11:16:10.569Z</time>
      </trkpt>
      <trkpt lat="42.57489" lon="18.24898">
        <ele>161.578992</ele>
        <time>2022-06-01T11:16:14.578Z</time>
      </trkpt>
      <trkpt lat="42.57491" lon="18.24885">
        <ele>161.76446</ele>
        <time>2022-06-01T11:16:19.574Z</time>
      </trkpt>
      <trkpt lat="42.57494" lon="18.24872">
        <ele>161.941934</ele>
        <time>2022-06-01T11:16:26.584Z</time>
      </trkpt>
      <trkpt lat="42.57487" lon="18.24881">
        <ele>162.111472</ele>
        <time>2022-06-01T11:16:41.582Z</time>
      </trkpt>
      <trkpt lat="42.57494" lon="18.24891">
        <ele>162.294803</ele>
        <time>2022-06-01T11:16:48.586Z</time>
      </trkpt>
      <trkpt lat="42.57497" lon="18.24878">
        <ele>162.4759</ele>
        <time>2022-06-01T11:18:22.616Z</time>
      </trkpt>
      <trkpt lat="42.57499" lon="18.24848">
        <ele>162.886808</ele>
        <time>2022-06-01T11:18:48.582Z</time>
      </trkpt>
      <trkpt lat="42.575" lon="18.24835">
        <ele>163.060199</ele>
        <time>2022-06-01T11:18:52.587Z</time>
      </trkpt>
      <trkpt lat="42.57501" lon="18.2482">
        <ele>163.261426</ele>
        <time>2022-06-01T11:18:57.598Z</time>
      </trkpt>
      <trkpt lat="42.57503" lon="18.24806">
        <ele>163.456543</ele>
        <time>2022-06-01T11:19:02.596Z</time>
      </trkpt>
      <trkpt lat="42.57506" lon="18.24794">
        <ele>163.798548</ele>
        <time>2022-06-01T11:19:06.581Z</time>
      </trkpt>
      <trkpt lat="42.5751" lon="18.24782">
        <ele>164.375832</ele>
        <time>2022-06-01T11:19:10.570Z</time>
      </trkpt>
      <trkpt lat="42.57512" lon="18.2477">
        <ele>164.920842</ele>
        <time>2022-06-01T11:19:14.580Z</time>
      </trkpt>
      <trkpt lat="42.57514" lon="18.24756">
        <ele>165.550463</ele>
        <time>2022-06-01T11:19:19.592Z</time>
      </trkpt>
      <trkpt lat="42.5752" lon="18.24746">
        <ele>166.088996</ele>
        <time>2022-06-01T11:19:24.607Z</time>
      </trkpt>
      <trkpt lat="42.57527" lon="18.24739">
        <ele>166.621768</ele>
        <time>2022-06-01T11:19:29.587Z</time>
      </trkpt>
      <trkpt lat="42.57535" lon="18.24732">
        <ele>167.191375</ele>
        <time>2022-06-01T11:19:35.588Z</time>
      </trkpt>
      <trkpt lat="42.5754" lon="18.2472">
        <ele>167.794873</ele>
        <time>2022-06-01T11:19:41.616Z</time>
      </trkpt>
      <trkpt lat="42.57544" lon="18.24708">
        <ele>168.38744</ele>
        <time>2022-06-01T11:19:47.581Z</time>
      </trkpt>
      <trkpt lat="42.5755" lon="18.24696">
        <ele>168.981672</ele>
        <time>2022-06-01T11:19:53.592Z</time>
      </trkpt>
      <trkpt lat="42.57553" lon="18.24684">
        <ele>169.552047</ele>
        <time>2022-06-01T11:19:59.567Z</time>
      </trkpt>
      <trkpt lat="42.57556" lon="18.24673">
        <ele>170.089352</ele>
        <time>2022-06-01T11:20:05.581Z</time>
      </trkpt>
      <trkpt lat="42.57559" lon="18.24661">
        <ele>170.639086</ele>
        <time>2022-06-01T11:20:11.578Z</time>
      </trkpt>
      <trkpt lat="42.57564" lon="18.24648">
        <ele>171.247556</ele>
        <time>2022-06-01T11:20:17.570Z</time>
      </trkpt>
      <trkpt lat="42.57568" lon="18.24636">
        <ele>171.811337</ele>
        <time>2022-06-01T11:20:23.572Z</time>
      </trkpt>
      <trkpt lat="42.57572" lon="18.24623">
        <ele>172.441504</ele>
        <time>2022-06-01T11:20:30.584Z</time>
      </trkpt>
      <trkpt lat="42.57576" lon="18.24609">
        <ele>173.095938</ele>
        <time>2022-06-01T11:20:37.563Z</time>
      </trkpt>
      <trkpt lat="42.57579" lon="18.24597">
        <ele>173.65789</ele>
        <time>2022-06-01T11:20:42.585Z</time>
      </trkpt>
      <trkpt lat="42.57582" lon="18.24585">
        <ele>174.209556</ele>
        <time>2022-06-01T11:20:46.588Z</time>
      </trkpt>
      <trkpt lat="42.57586" lon="18.24572">
        <ele>174.27303</ele>
        <time>2022-06-01T11:20:50.573Z</time>
      </trkpt>
      <trkpt lat="42.5759" lon="18.2456">
        <ele>174.321589</ele>
        <time>2022-06-01T11:20:53.617Z</time>
      </trkpt>
      <trkpt lat="42.57594" lon="18.24547">
        <ele>174.374876</ele>
        <time>2022-06-01T11:20:56.599Z</time>
      </trkpt>
      <trkpt lat="42.57598" lon="18.24532">
        <ele>174.433214</ele>
        <time>2022-06-01T11:20:59.575Z</time>
      </trkpt>
      <trkpt lat="42.576" lon="18.2452">
        <ele>174.478903</ele>
        <time>2022-06-01T11:21:01.573Z</time>
      </trkpt>
      <trkpt lat="42.57603" lon="18.24508">
        <ele>174.527964</ele>
        <time>2022-06-01T11:21:03.577Z</time>
      </trkpt>
      <trkpt lat="42.57608" lon="18.24495">
        <ele>174.58192</ele>
        <time>2022-06-01T11:21:05.577Z</time>
      </trkpt>
      <trkpt lat="42.57613" lon="18.24482">
        <ele>174.634103</ele>
        <time>2022-06-01T11:21:07.595Z</time>
      </trkpt>
      <trkpt lat="42.57617" lon="18.2447">
        <ele>174.683314</ele>
        <time>2022-06-01T11:21:09.583Z</time>
      </trkpt>
      <trkpt lat="42.57621" lon="18.24455">
        <ele>174.74384</ele>
        <time>2022-06-01T11:21:12.576Z</time>
      </trkpt>
      <trkpt lat="42.57626" lon="18.2444">
        <ele>174.802326</ele>
        <time>2022-06-01T11:21:15.624Z</time>
      </trkpt>
      <trkpt lat="42.5763" lon="18.24429">
        <ele>174.848615</ele>
        <time>2022-06-01T11:21:18.570Z</time>
      </trkpt>
      <trkpt lat="42.57634" lon="18.24415">
        <ele>174.903226</ele>
        <time>2022-06-01T11:21:21.581Z</time>
      </trkpt>
      <trkpt lat="42.57637" lon="18.24402">
        <ele>174.954215</ele>
        <time>2022-06-01T11:21:24.585Z</time>
      </trkpt>
      <trkpt lat="42.57642" lon="18.24391">
        <ele>175.000881</ele>
        <time>2022-06-01T11:21:27.576Z</time>
      </trkpt>
      <trkpt lat="42.57646" lon="18.24378">
        <ele>175.051437</ele>
        <time>2022-06-01T11:21:30.589Z</time>
      </trkpt>
      <trkpt lat="42.5765" lon="18.24367">
        <ele>175.099223</ele>
        <time>2022-06-01T11:21:33.571Z</time>
      </trkpt>
      <trkpt lat="42.57655" lon="18.24353">
        <ele>175.154941</ele>
        <time>2022-06-01T11:21:37.561Z</time>
      </trkpt>
      <trkpt lat="42.57662" lon="18.24342">
        <ele>175.205916</ele>
        <time>2022-06-01T11:21:42.563Z</time>
      </trkpt>
      <trkpt lat="42.57668" lon="18.24331">
        <ele>175.256406</ele>
        <time>2022-06-01T11:21:46.578Z</time>
      </trkpt>
      <trkpt lat="42.57674" lon="18.2432">
        <ele>175.304981</ele>
        <time>2022-06-01T11:21:49.611Z</time>
      </trkpt>
      <trkpt lat="42.57679" lon="18.24308">
        <ele>175.353957</ele>
        <time>2022-06-01T11:21:52.590Z</time>
      </trkpt>
      <trkpt lat="42.57684" lon="18.24296">
        <ele>175.401508</ele>
        <time>2022-06-01T11:21:56.587Z</time>
      </trkpt>
      <trkpt lat="42.57678" lon="18.24285">
        <ele>175.448062</ele>
        <time>2022-06-01T11:22:01.592Z</time>
      </trkpt>
      <trkpt lat="42.57697" lon="18.24277">
        <ele>175.540828</ele>
        <time>2022-06-01T11:48:24.607Z</time>
      </trkpt>
      <trkpt lat="42.57703" lon="18.24268">
        <ele>175.587603</ele>
        <time>2022-06-01T11:48:27.580Z</time>
      </trkpt>
      <trkpt lat="42.57712" lon="18.24274">
        <ele>175.634268</ele>
        <time>2022-06-01T11:48:31.689Z</time>
      </trkpt>
      <trkpt lat="42.57723" lon="18.24278">
        <ele>175.69086</ele>
        <time>2022-06-01T11:48:34.566Z</time>
      </trkpt>
      <trkpt lat="42.57733" lon="18.24284">
        <ele>175.744764</ele>
        <time>2022-06-01T11:48:37.557Z</time>
      </trkpt>
      <trkpt lat="42.57742" lon="18.24291">
        <ele>175.793044</ele>
        <time>2022-06-01T11:48:40.587Z</time>
      </trkpt>
      <trkpt lat="42.57751" lon="18.24298">
        <ele>175.842967</ele>
        <time>2022-06-01T11:48:43.559Z</time>
      </trkpt>
      <trkpt lat="42.57759" lon="18.24305">
        <ele>175.890083</ele>
        <time>2022-06-01T11:48:46.559Z</time>
      </trkpt>
      <trkpt lat="42.57768" lon="18.24312">
        <ele>175.939699</ele>
        <time>2022-06-01T11:48:49.561Z</time>
      </trkpt>
      <trkpt lat="42.57778" lon="18.2432">
        <ele>175.994014</ele>
        <time>2022-06-01T11:48:53.568Z</time>
      </trkpt>
      <trkpt lat="42.57787" lon="18.24325">
        <ele>176.338367</ele>
        <time>2022-06-01T11:48:57.569Z</time>
      </trkpt>
      <trkpt lat="42.57796" lon="18.24331">
        <ele>176.69673</ele>
        <time>2022-06-01T11:49:01.575Z</time>
      </trkpt>
      <trkpt lat="42.57806" lon="18.24337">
        <ele>177.074049</ele>
        <time>2022-06-01T11:49:06.570Z</time>
      </trkpt>
      <trkpt lat="42.57819" lon="18.24345">
        <ele>177.542997</ele>
        <time>2022-06-01T11:49:12.580Z</time>
      </trkpt>
      <trkpt lat="42.57828" lon="18.24352">
        <ele>177.937596</ele>
        <time>2022-06-01T11:49:16.581Z</time>
      </trkpt>
      <trkpt lat="42.57837" lon="18.24359">
        <ele>178.290685</ele>
        <time>2022-06-01T11:49:21.564Z</time>
      </trkpt>
      <trkpt lat="42.57847" lon="18.24364">
        <ele>178.633583</ele>
        <time>2022-06-01T11:49:27.573Z</time>
      </trkpt>
      <trkpt lat="42.57855" lon="18.24369">
        <ele>178.950131</ele>
        <time>2022-06-01T11:49:33.573Z</time>
      </trkpt>
      <trkpt lat="42.57864" lon="18.24374">
        <ele>179.287537</ele>
        <time>2022-06-01T11:49:40.574Z</time>
      </trkpt>
      <trkpt lat="42.57871" lon="18.24362">
        <ele>179.689691</ele>
        <time>2022-06-01T11:49:48.642Z</time>
      </trkpt>
      <trkpt lat="42.57869" lon="18.24345">
        <ele>180.13104</ele>
        <time>2022-06-01T11:49:51.581Z</time>
      </trkpt>
      <trkpt lat="42.57868" lon="18.24332">
        <ele>180.48912</ele>
        <time>2022-06-01T11:49:53.577Z</time>
      </trkpt>
      <trkpt lat="42.57865" lon="18.24317">
        <ele>180.868095</ele>
        <time>2022-06-01T11:49:55.582Z</time>
      </trkpt>
      <trkpt lat="42.57863" lon="18.24303">
        <ele>181.227452</ele>
        <time>2022-06-01T11:49:57.568Z</time>
      </trkpt>
      <trkpt lat="42.57861" lon="18.2429">
        <ele>181.574993</ele>
        <time>2022-06-01T11:49:59.569Z</time>
      </trkpt>
      <trkpt lat="42.57859" lon="18.24276">
        <ele>181.938099</ele>
        <time>2022-06-01T11:50:01.583Z</time>
      </trkpt>
      <trkpt lat="42.57856" lon="18.2426">
        <ele>181.990753</ele>
        <time>2022-06-01T11:50:03.569Z</time>
      </trkpt>
      <trkpt lat="42.57854" lon="18.24246">
        <ele>181.171575</ele>
        <time>2022-06-01T11:50:05.588Z</time>
      </trkpt>
      <trkpt lat="42.57851" lon="18.24232">
        <ele>180.443886</ele>
        <time>2022-06-01T11:50:07.575Z</time>
      </trkpt>
      <trkpt lat="42.57849" lon="18.24218">
        <ele>179.663144</ele>
        <time>2022-06-01T11:50:09.584Z</time>
      </trkpt>
      <trkpt lat="42.57846" lon="18.24203">
        <ele>178.818532</ele>
        <time>2022-06-01T11:50:11.607Z</time>
      </trkpt>
      <trkpt lat="42.57843" lon="18.24188">
        <ele>177.982544</ele>
        <time>2022-06-01T11:50:13.568Z</time>
      </trkpt>
      <trkpt lat="42.5784" lon="18.24173">
        <ele>177.162188</ele>
        <time>2022-06-01T11:50:15.581Z</time>
      </trkpt>
      <trkpt lat="42.57838" lon="18.24159">
        <ele>176.348913</ele>
        <time>2022-06-01T11:50:17.565Z</time>
      </trkpt>
      <trkpt lat="42.57834" lon="18.24144">
        <ele>175.520495</ele>
        <time>2022-06-01T11:50:19.579Z</time>
      </trkpt>
      <trkpt lat="42.57831" lon="18.24131">
        <ele>174.777946</ele>
        <time>2022-06-01T11:50:21.566Z</time>
      </trkpt>
      <trkpt lat="42.57828" lon="18.24116">
        <ele>173.959834</ele>
        <time>2022-06-01T11:50:24.590Z</time>
      </trkpt>
      <trkpt lat="42.57825" lon="18.241">
        <ele>173.073199</ele>
        <time>2022-06-01T11:50:28.606Z</time>
      </trkpt>
      <trkpt lat="42.57822" lon="18.24089">
        <ele>172.410499</ele>
        <time>2022-06-01T11:50:32.582Z</time>
      </trkpt>
      <trkpt lat="42.57823" lon="18.24074">
        <ele>171.607874</ele>
        <time>2022-06-01T11:50:37.572Z</time>
      </trkpt>
      <trkpt lat="42.57819" lon="18.24071">
        <ele>171.288775</ele>
        <time>2022-06-01T11:52:16.753Z</time>
      </trkpt>
      <trkpt lat="42.57818" lon="18.24051">
        <ele>170.205084</ele>
        <time>2022-06-01T11:59:29.588Z</time>
      </trkpt>
      <trkpt lat="42.57814" lon="18.24038">
        <ele>169.43778</ele>
        <time>2022-06-01T11:59:34.593Z</time>
      </trkpt>
      <trkpt lat="42.57809" lon="18.24026">
        <ele>168.479901</ele>
        <time>2022-06-01T11:59:38.570Z</time>
      </trkpt>
      <trkpt lat="42.57803" lon="18.24011">
        <ele>167.134488</ele>
        <time>2022-06-01T11:59:42.581Z</time>
      </trkpt>
      <trkpt lat="42.57799" lon="18.24001">
        <ele>166.085415</ele>
        <time>2022-06-01T11:59:46.586Z</time>
      </trkpt>
      <trkpt lat="42.57794" lon="18.23987">
        <ele>164.779791</ele>
        <time>2022-06-01T11:59:50.583Z</time>
      </trkpt>
      <trkpt lat="42.57789" lon="18.23975">
        <ele>163.724835</ele>
        <time>2022-06-01T11:59:53.573Z</time>
      </trkpt>
      <trkpt lat="42.57784" lon="18.23964">
        <ele>162.620096</ele>
        <time>2022-06-01T11:59:56.599Z</time>
      </trkpt>
      <trkpt lat="42.57778" lon="18.23951">
        <ele>161.364638</ele>
        <time>2022-06-01T11:59:59.563Z</time>
      </trkpt>
      <trkpt lat="42.57773" lon="18.23941">
        <ele>160.337512</ele>
        <time>2022-06-01T12:00:01.567Z</time>
      </trkpt>
      <trkpt lat="42.57769" lon="18.23929">
        <ele>159.228861</ele>
        <time>2022-06-01T12:00:03.588Z</time>
      </trkpt>
      <trkpt lat="42.57764" lon="18.23917">
        <ele>158.075307</ele>
        <time>2022-06-01T12:00:05.582Z</time>
      </trkpt>
      <trkpt lat="42.57758" lon="18.23905">
        <ele>156.936144</ele>
        <time>2022-06-01T12:00:07.572Z</time>
      </trkpt>
      <trkpt lat="42.57754" lon="18.23894">
        <ele>155.869707</ele>
        <time>2022-06-01T12:00:09.566Z</time>
      </trkpt>
      <trkpt lat="42.57753" lon="18.23876">
        <ele>154.4068</ele>
        <time>2022-06-01T12:00:12.601Z</time>
      </trkpt>
      <trkpt lat="42.57755" lon="18.23863">
        <ele>153.212767</ele>
        <time>2022-06-01T12:00:16.587Z</time>
      </trkpt>
      <trkpt lat="42.57759" lon="18.2385">
        <ele>152.038446</ele>
        <time>2022-06-01T12:00:22.591Z</time>
      </trkpt>
      <trkpt lat="42.57764" lon="18.23839">
        <ele>151.018259</ele>
        <time>2022-06-01T12:00:25.642Z</time>
      </trkpt>
      <trkpt lat="42.57773" lon="18.23827">
        <ele>149.558587</ele>
        <time>2022-06-01T12:00:28.593Z</time>
      </trkpt>
      <trkpt lat="42.57781" lon="18.23817">
        <ele>148.592317</ele>
        <time>2022-06-01T12:00:30.590Z</time>
      </trkpt>
      <trkpt lat="42.57788" lon="18.23806">
        <ele>148.122251</ele>
        <time>2022-06-01T12:00:32.595Z</time>
      </trkpt>
      <trkpt lat="42.57797" lon="18.23795">
        <ele>147.639233</ele>
        <time>2022-06-01T12:00:34.603Z</time>
      </trkpt>
      <trkpt lat="42.57804" lon="18.23784">
        <ele>147.144256</ele>
        <time>2022-06-01T12:00:36.626Z</time>
      </trkpt>
      <trkpt lat="42.57812" lon="18.23772">
        <ele>146.644167</ele>
        <time>2022-06-01T12:00:38.580Z</time>
      </trkpt>
      <trkpt lat="42.5782" lon="18.23759">
        <ele>146.087334</ele>
        <time>2022-06-01T12:00:40.585Z</time>
      </trkpt>
      <trkpt lat="42.57829" lon="18.23746">
        <ele>145.537118</ele>
        <time>2022-06-01T12:00:42.587Z</time>
      </trkpt>
      <trkpt lat="42.57837" lon="18.23734">
        <ele>145.038085</ele>
        <time>2022-06-01T12:00:44.604Z</time>
      </trkpt>
      <trkpt lat="42.57844" lon="18.23722">
        <ele>144.527967</ele>
        <time>2022-06-01T12:00:46.582Z</time>
      </trkpt>
      <trkpt lat="42.57853" lon="18.23709">
        <ele>143.993953</ele>
        <time>2022-06-01T12:00:48.581Z</time>
      </trkpt>
      <trkpt lat="42.57862" lon="18.23696">
        <ele>143.415799</ele>
        <time>2022-06-01T12:00:50.575Z</time>
      </trkpt>
      <trkpt lat="42.57871" lon="18.23683">
        <ele>142.865585</ele>
        <time>2022-06-01T12:00:52.590Z</time>
      </trkpt>
      <trkpt lat="42.57879" lon="18.23671">
        <ele>142.331572</ele>
        <time>2022-06-01T12:00:54.572Z</time>
      </trkpt>
      <trkpt lat="42.57888" lon="18.23657">
        <ele>141.754594</ele>
        <time>2022-06-01T12:00:56.662Z</time>
      </trkpt>
      <trkpt lat="42.57898" lon="18.23644">
        <ele>141.154407</ele>
        <time>2022-06-01T12:00:58.569Z</time>
      </trkpt>
      <trkpt lat="42.57909" lon="18.23632">
        <ele>140.342549</ele>
        <time>2022-06-01T12:01:00.582Z</time>
      </trkpt>
      <trkpt lat="42.57919" lon="18.23619">
        <ele>139.440158</ele>
        <time>2022-06-01T12:01:02.589Z</time>
      </trkpt>
      <trkpt lat="42.57931" lon="18.23608">
        <ele>138.51479</ele>
        <time>2022-06-01T12:01:04.577Z</time>
      </trkpt>
      <trkpt lat="42.57943" lon="18.23597">
        <ele>137.58478</ele>
        <time>2022-06-01T12:01:06.582Z</time>
      </trkpt>
      <trkpt lat="42.57956" lon="18.23586">
        <ele>136.590998</ele>
        <time>2022-06-01T12:01:08.569Z</time>
      </trkpt>
      <trkpt lat="42.57972" lon="18.23577">
        <ele>135.525828</ele>
        <time>2022-06-01T12:01:10.612Z</time>
      </trkpt>
      <trkpt lat="42.57988" lon="18.23568">
        <ele>134.385376</ele>
        <time>2022-06-01T12:01:12.665Z</time>
      </trkpt>
      <trkpt lat="42.58004" lon="18.2356">
        <ele>133.306199</ele>
        <time>2022-06-01T12:01:14.591Z</time>
      </trkpt>
      <trkpt lat="42.5802" lon="18.23551">
        <ele>132.201476</ele>
        <time>2022-06-01T12:01:16.577Z</time>
      </trkpt>
      <trkpt lat="42.58036" lon="18.23542">
        <ele>131.042162</ele>
        <time>2022-06-01T12:01:18.562Z</time>
      </trkpt>
      <trkpt lat="42.58045" lon="18.23538">
        <ele>130.445805</ele>
        <time>2022-06-01T12:01:19.583Z</time>
      </trkpt>
      <trkpt lat="42.58054" lon="18.23533">
        <ele>129.863139</ele>
        <time>2022-06-01T12:01:20.580Z</time>
      </trkpt>
      <trkpt lat="42.58063" lon="18.23529">
        <ele>129.290424</ele>
        <time>2022-06-01T12:01:21.619Z</time>
      </trkpt>
      <trkpt lat="42.58072" lon="18.23525">
        <ele>128.791887</ele>
        <time>2022-06-01T12:01:22.582Z</time>
      </trkpt>
      <trkpt lat="42.58082" lon="18.23521">
        <ele>128.284815</ele>
        <time>2022-06-01T12:01:23.590Z</time>
      </trkpt>
      <trkpt lat="42.58091" lon="18.23517">
        <ele>127.794543</ele>
        <time>2022-06-01T12:01:24.641Z</time>
      </trkpt>
      <trkpt lat="42.581" lon="18.23514">
        <ele>127.324754</ele>
        <time>2022-06-01T12:01:25.575Z</time>
      </trkpt>
      <trkpt lat="42.58109" lon="18.23511">
        <ele>126.869183</ele>
        <time>2022-06-01T12:01:26.569Z</time>
      </trkpt>
      <trkpt lat="42.58126" lon="18.23507">
        <ele>125.987437</ele>
        <time>2022-06-01T12:01:28.578Z</time>
      </trkpt>
      <trkpt lat="42.58142" lon="18.23502">
        <ele>125.139038</ele>
        <time>2022-06-01T12:01:30.550Z</time>
      </trkpt>
      <trkpt lat="42.58158" lon="18.23497">
        <ele>124.320651</ele>
        <time>2022-06-01T12:01:32.560Z</time>
      </trkpt>
      <trkpt lat="42.58176" lon="18.23492">
        <ele>123.418523</ele>
        <time>2022-06-01T12:01:34.570Z</time>
      </trkpt>
      <trkpt lat="42.58193" lon="18.23487">
        <ele>122.520426</ele>
        <time>2022-06-01T12:01:36.567Z</time>
      </trkpt>
      <trkpt lat="42.58202" lon="18.23484">
        <ele>122.054999</ele>
        <time>2022-06-01T12:01:37.559Z</time>
      </trkpt>
      <trkpt lat="42.58212" lon="18.23481">
        <ele>121.536203</ele>
        <time>2022-06-01T12:01:38.550Z</time>
      </trkpt>
      <trkpt lat="42.58222" lon="18.23478">
        <ele>121.019062</ele>
        <time>2022-06-01T12:01:39.558Z</time>
      </trkpt>
      <trkpt lat="42.58232" lon="18.23475">
        <ele>120.517515</ele>
        <time>2022-06-01T12:01:40.547Z</time>
      </trkpt>
      <trkpt lat="42.58241" lon="18.23472">
        <ele>120.034845</ele>
        <time>2022-06-01T12:01:41.551Z</time>
      </trkpt>
      <trkpt lat="42.58251" lon="18.23469">
        <ele>119.556308</ele>
        <time>2022-06-01T12:01:42.564Z</time>
      </trkpt>
      <trkpt lat="42.58261" lon="18.23467">
        <ele>119.09528</ele>
        <time>2022-06-01T12:01:43.578Z</time>
      </trkpt>
      <trkpt lat="42.5827" lon="18.23464">
        <ele>118.64296</ele>
        <time>2022-06-01T12:01:44.550Z</time>
      </trkpt>
      <trkpt lat="42.58287" lon="18.23458">
        <ele>117.809552</ele>
        <time>2022-06-01T12:01:46.543Z</time>
      </trkpt>
      <trkpt lat="42.58296" lon="18.23456">
        <ele>117.373681</ele>
        <time>2022-06-01T12:01:47.548Z</time>
      </trkpt>
      <trkpt lat="42.58313" lon="18.23451">
        <ele>116.540582</ele>
        <time>2022-06-01T12:01:49.563Z</time>
      </trkpt>
      <trkpt lat="42.58331" lon="18.23445">
        <ele>115.661835</ele>
        <time>2022-06-01T12:01:51.553Z</time>
      </trkpt>
      <trkpt lat="42.5834" lon="18.23443">
        <ele>115.201927</ele>
        <time>2022-06-01T12:01:52.543Z</time>
      </trkpt>
      <trkpt lat="42.5835" lon="18.23439">
        <ele>114.728585</ele>
        <time>2022-06-01T12:01:53.551Z</time>
      </trkpt>
      <trkpt lat="42.5836" lon="18.23435">
        <ele>114.242336</ele>
        <time>2022-06-01T12:01:54.584Z</time>
      </trkpt>
      <trkpt lat="42.5837" lon="18.23431">
        <ele>113.745351</ele>
        <time>2022-06-01T12:01:55.558Z</time>
      </trkpt>
      <trkpt lat="42.58379" lon="18.23424">
        <ele>113.22929</ele>
        <time>2022-06-01T12:01:56.559Z</time>
      </trkpt>
      <trkpt lat="42.58389" lon="18.23418">
        <ele>112.700475</ele>
        <time>2022-06-01T12:01:57.554Z</time>
      </trkpt>
      <trkpt lat="42.58399" lon="18.23413">
        <ele>112.195893</ele>
        <time>2022-06-01T12:01:58.562Z</time>
      </trkpt>
      <trkpt lat="42.58409" lon="18.23407">
        <ele>111.767719</ele>
        <time>2022-06-01T12:01:59.549Z</time>
      </trkpt>
      <trkpt lat="42.58418" lon="18.23401">
        <ele>111.620764</ele>
        <time>2022-06-01T12:02:00.549Z</time>
      </trkpt>
      <trkpt lat="42.58426" lon="18.23395">
        <ele>111.486131</ele>
        <time>2022-06-01T12:02:01.550Z</time>
      </trkpt>
      <trkpt lat="42.58435" lon="18.23387">
        <ele>111.342595</ele>
        <time>2022-06-01T12:02:02.558Z</time>
      </trkpt>
      <trkpt lat="42.58443" lon="18.23379">
        <ele>111.198471</ele>
        <time>2022-06-01T12:02:03.545Z</time>
      </trkpt>
      <trkpt lat="42.58451" lon="18.23371">
        <ele>111.063093</ele>
        <time>2022-06-01T12:02:04.546Z</time>
      </trkpt>
      <trkpt lat="42.58458" lon="18.23363">
        <ele>110.931626</ele>
        <time>2022-06-01T12:02:05.573Z</time>
      </trkpt>
      <trkpt lat="42.58465" lon="18.23354">
        <ele>110.800222</ele>
        <time>2022-06-01T12:02:06.559Z</time>
      </trkpt>
      <trkpt lat="42.58472" lon="18.23346">
        <ele>110.669827</ele>
        <time>2022-06-01T12:02:07.546Z</time>
      </trkpt>
      <trkpt lat="42.58485" lon="18.23331">
        <ele>110.424218</ele>
        <time>2022-06-01T12:02:09.559Z</time>
      </trkpt>
      <trkpt lat="42.58497" lon="18.23317">
        <ele>110.195427</ele>
        <time>2022-06-01T12:02:11.547Z</time>
      </trkpt>
      <trkpt lat="42.58509" lon="18.23302">
        <ele>109.970263</ele>
        <time>2022-06-01T12:02:13.545Z</time>
      </trkpt>
      <trkpt lat="42.58521" lon="18.23289">
        <ele>109.76029</ele>
        <time>2022-06-01T12:02:15.553Z</time>
      </trkpt>
      <trkpt lat="42.58532" lon="18.23277">
        <ele>109.555964</ele>
        <time>2022-06-01T12:02:17.550Z</time>
      </trkpt>
      <trkpt lat="42.58543" lon="18.23265">
        <ele>109.35378</ele>
        <time>2022-06-01T12:02:19.542Z</time>
      </trkpt>
      <trkpt lat="42.58554" lon="18.23256">
        <ele>109.401451</ele>
        <time>2022-06-01T12:02:21.544Z</time>
      </trkpt>
      <trkpt lat="42.58566" lon="18.23249">
        <ele>109.74716</ele>
        <time>2022-06-01T12:02:23.555Z</time>
      </trkpt>
      <trkpt lat="42.58577" lon="18.23241">
        <ele>110.097961</ele>
        <time>2022-06-01T12:02:25.547Z</time>
      </trkpt>
      <trkpt lat="42.58589" lon="18.23234">
        <ele>110.436304</ele>
        <time>2022-06-01T12:02:27.548Z</time>
      </trkpt>
      <trkpt lat="42.586" lon="18.23229">
        <ele>110.742015</ele>
        <time>2022-06-01T12:02:29.574Z</time>
      </trkpt>
      <trkpt lat="42.58609" lon="18.23224">
        <ele>111.001611</ele>
        <time>2022-06-01T12:02:31.549Z</time>
      </trkpt>
      <trkpt lat="42.58617" lon="18.2322">
        <ele>111.245523</ele>
        <time>2022-06-01T12:02:33.545Z</time>
      </trkpt>
      <trkpt lat="42.58628" lon="18.23214">
        <ele>111.559826</ele>
        <time>2022-06-01T12:02:36.558Z</time>
      </trkpt>
      <trkpt lat="42.58638" lon="18.23208">
        <ele>111.852545</ele>
        <time>2022-06-01T12:02:39.558Z</time>
      </trkpt>
      <trkpt lat="42.58647" lon="18.23202">
        <ele>112.121626</ele>
        <time>2022-06-01T12:02:42.561Z</time>
      </trkpt>
      <trkpt lat="42.58656" lon="18.23197">
        <ele>112.388239</ele>
        <time>2022-06-01T12:02:45.546Z</time>
      </trkpt>
      <trkpt lat="42.58665" lon="18.23191">
        <ele>112.645429</ele>
        <time>2022-06-01T12:02:48.555Z</time>
      </trkpt>
      <trkpt lat="42.58675" lon="18.23184">
        <ele>112.956895</ele>
        <time>2022-06-01T12:02:52.540Z</time>
      </trkpt>
      <trkpt lat="42.58686" lon="18.23177">
        <ele>113.272408</ele>
        <time>2022-06-01T12:02:56.554Z</time>
      </trkpt>
      <trkpt lat="42.58696" lon="18.23169">
        <ele>113.58373</ele>
        <time>2022-06-01T12:03:00.550Z</time>
      </trkpt>
      <trkpt lat="42.58704" lon="18.23162">
        <ele>113.855811</ele>
        <time>2022-06-01T12:03:04.554Z</time>
      </trkpt>
      <trkpt lat="42.58713" lon="18.23155">
        <ele>114.129538</ele>
        <time>2022-06-01T12:03:08.558Z</time>
      </trkpt>
      <trkpt lat="42.58721" lon="18.23148">
        <ele>114.461175</ele>
        <time>2022-06-01T12:03:13.550Z</time>
      </trkpt>
      <trkpt lat="42.58729" lon="18.2314">
        <ele>114.788343</ele>
        <time>2022-06-01T12:03:18.548Z</time>
      </trkpt>
      <trkpt lat="42.58738" lon="18.23134">
        <ele>115.115143</ele>
        <time>2022-06-01T12:03:23.551Z</time>
      </trkpt>
      <trkpt lat="42.58746" lon="18.23125">
        <ele>115.454363</ele>
        <time>2022-06-01T12:03:29.552Z</time>
      </trkpt>
      <trkpt lat="42.58754" lon="18.23116">
        <ele>115.803087</ele>
        <time>2022-06-01T12:03:35.562Z</time>
      </trkpt>
      <trkpt lat="42.58761" lon="18.23107">
        <ele>116.123091</ele>
        <time>2022-06-01T12:03:40.555Z</time>
      </trkpt>
      <trkpt lat="42.58769" lon="18.23099">
        <ele>116.449769</ele>
        <time>2022-06-01T12:03:46.547Z</time>
      </trkpt>
      <trkpt lat="42.58776" lon="18.23091">
        <ele>116.759627</ele>
        <time>2022-06-01T12:03:51.589Z</time>
      </trkpt>
      <trkpt lat="42.58784" lon="18.23081">
        <ele>117.108889</ele>
        <time>2022-06-01T12:03:57.578Z</time>
      </trkpt>
      <trkpt lat="42.58793" lon="18.23073">
        <ele>117.453751</ele>
        <time>2022-06-01T12:04:02.553Z</time>
      </trkpt>
      <trkpt lat="42.58801" lon="18.23066">
        <ele>117.769854</ele>
        <time>2022-06-01T12:04:07.547Z</time>
      </trkpt>
      <trkpt lat="42.58809" lon="18.23059">
        <ele>118.090058</ele>
        <time>2022-06-01T12:04:12.550Z</time>
      </trkpt>
      <trkpt lat="42.58817" lon="18.23052">
        <ele>118.42013</ele>
        <time>2022-06-01T12:04:17.547Z</time>
      </trkpt>
      <trkpt lat="42.58825" lon="18.23046">
        <ele>118.719069</ele>
        <time>2022-06-01T12:04:22.550Z</time>
      </trkpt>
      <trkpt lat="42.58833" lon="18.23039">
        <ele>119.024203</ele>
        <time>2022-06-01T12:04:27.554Z</time>
      </trkpt>
      <trkpt lat="42.58841" lon="18.23032">
        <ele>119.332274</ele>
        <time>2022-06-01T12:04:32.575Z</time>
      </trkpt>
      <trkpt lat="42.58849" lon="18.23026">
        <ele>119.641021</ele>
        <time>2022-06-01T12:04:37.546Z</time>
      </trkpt>
      <trkpt lat="42.58858" lon="18.23022">
        <ele>119.953863</ele>
        <time>2022-06-01T12:04:42.558Z</time>
      </trkpt>
      <trkpt lat="42.58867" lon="18.23019">
        <ele>120.387904</ele>
        <time>2022-06-01T12:04:47.546Z</time>
      </trkpt>
      <trkpt lat="42.58875" lon="18.23014">
        <ele>120.873917</ele>
        <time>2022-06-01T12:04:52.545Z</time>
      </trkpt>
      <trkpt lat="42.58885" lon="18.23009">
        <ele>121.428755</ele>
        <time>2022-06-01T12:04:57.549Z</time>
      </trkpt>
      <trkpt lat="42.58895" lon="18.23006">
        <ele>121.969523</ele>
        <time>2022-06-01T12:05:03.540Z</time>
      </trkpt>
      <trkpt lat="42.58906" lon="18.23002">
        <ele>122.524517</ele>
        <time>2022-06-01T12:05:09.542Z</time>
      </trkpt>
      <trkpt lat="42.58915" lon="18.22999">
        <ele>123.014003</ele>
        <time>2022-06-01T12:05:14.547Z</time>
      </trkpt>
      <trkpt lat="42.58924" lon="18.22996">
        <ele>123.516225</ele>
        <time>2022-06-01T12:05:19.568Z</time>
      </trkpt>
      <trkpt lat="42.58933" lon="18.22991">
        <ele>124.024503</ele>
        <time>2022-06-01T12:05:25.544Z</time>
      </trkpt>
      <trkpt lat="42.58943" lon="18.22987">
        <ele>124.543272</ele>
        <time>2022-06-01T12:05:31.547Z</time>
      </trkpt>
      <trkpt lat="42.58953" lon="18.22984">
        <ele>125.073487</ele>
        <time>2022-06-01T12:05:37.553Z</time>
      </trkpt>
      <trkpt lat="42.58963" lon="18.22983">
        <ele>125.599384</ele>
        <time>2022-06-01T12:05:43.551Z</time>
      </trkpt>
      <trkpt lat="42.58972" lon="18.22985">
        <ele>126.101322</ele>
        <time>2022-06-01T12:05:47.586Z</time>
      </trkpt>
      <trkpt lat="42.58982" lon="18.22986">
        <ele>126.609542</ele>
        <time>2022-06-01T12:05:52.547Z</time>
      </trkpt>
      <trkpt lat="42.58991" lon="18.22983">
        <ele>127.081988</ele>
        <time>2022-06-01T12:05:58.554Z</time>
      </trkpt>
      <trkpt lat="42.59" lon="18.22982">
        <ele>127.584167</ele>
        <time>2022-06-01T12:06:04.543Z</time>
      </trkpt>
      <trkpt lat="42.5901" lon="18.22984">
        <ele>128.124545</ele>
        <time>2022-06-01T12:06:11.577Z</time>
      </trkpt>
      <trkpt lat="42.59021" lon="18.22989">
        <ele>128.720469</ele>
        <time>2022-06-01T12:06:15.546Z</time>
      </trkpt>
      <trkpt lat="42.5903" lon="18.22991">
        <ele>129.209574</ele>
        <time>2022-06-01T12:06:19.545Z</time>
      </trkpt>
      <trkpt lat="42.5904" lon="18.22995">
        <ele>129.519659</ele>
        <time>2022-06-01T12:06:24.557Z</time>
      </trkpt>
      <trkpt lat="42.5905" lon="18.23001">
        <ele>129.667639</ele>
        <time>2022-06-01T12:06:28.560Z</time>
      </trkpt>
      <trkpt lat="42.59061" lon="18.23002">
        <ele>129.80695</ele>
        <time>2022-06-01T12:06:33.577Z</time>
      </trkpt>
      <trkpt lat="42.5907" lon="18.23002">
        <ele>129.931628</ele>
        <time>2022-06-01T12:06:38.556Z</time>
      </trkpt>
      <trkpt lat="42.59079" lon="18.23003">
        <ele>130.056447</ele>
        <time>2022-06-01T12:06:43.547Z</time>
      </trkpt>
      <trkpt lat="42.59089" lon="18.23003">
        <ele>130.201797</ele>
        <time>2022-06-01T12:06:49.547Z</time>
      </trkpt>
      <trkpt lat="42.591" lon="18.23005">
        <ele>130.343948</ele>
        <time>2022-06-01T12:06:55.578Z</time>
      </trkpt>
      <trkpt lat="42.5911" lon="18.23005">
        <ele>130.479642</ele>
        <time>2022-06-01T12:07:00.563Z</time>
      </trkpt>
      <trkpt lat="42.59119" lon="18.23002">
        <ele>130.610155</ele>
        <time>2022-06-01T12:07:06.546Z</time>
      </trkpt>
      <trkpt lat="42.59128" lon="18.23005">
        <ele>130.741786</ele>
        <time>2022-06-01T12:07:11.550Z</time>
      </trkpt>
      <trkpt lat="42.59138" lon="18.23005">
        <ele>130.871955</ele>
        <time>2022-06-01T12:07:15.557Z</time>
      </trkpt>
      <trkpt lat="42.59148" lon="18.23004">
        <ele>131.006857</ele>
        <time>2022-06-01T12:07:20.556Z</time>
      </trkpt>
      <trkpt lat="42.59158" lon="18.23004">
        <ele>131.142494</ele>
        <time>2022-06-01T12:07:25.548Z</time>
      </trkpt>
      <trkpt lat="42.59168" lon="18.23005">
        <ele>131.282369</ele>
        <time>2022-06-01T12:07:30.548Z</time>
      </trkpt>
      <trkpt lat="42.59178" lon="18.23004">
        <ele>131.422475</ele>
        <time>2022-06-01T12:07:36.570Z</time>
      </trkpt>
      <trkpt lat="42.59189" lon="18.23004">
        <ele>131.569073</ele>
        <time>2022-06-01T12:07:42.563Z</time>
      </trkpt>
      <trkpt lat="42.59199" lon="18.23003">
        <ele>131.71716</ele>
        <time>2022-06-01T12:07:47.570Z</time>
      </trkpt>
      <trkpt lat="42.5921" lon="18.23004">
        <ele>131.858363</ele>
        <time>2022-06-01T12:07:51.553Z</time>
      </trkpt>
      <trkpt lat="42.5922" lon="18.23004">
        <ele>132.130052</ele>
        <time>2022-06-01T12:07:55.553Z</time>
      </trkpt>
      <trkpt lat="42.59231" lon="18.23003">
        <ele>132.454214</ele>
        <time>2022-06-01T12:07:59.553Z</time>
      </trkpt>
      <trkpt lat="42.59242" lon="18.23003">
        <ele>132.760587</ele>
        <time>2022-06-01T12:08:04.571Z</time>
      </trkpt>
      <trkpt lat="42.59253" lon="18.23003">
        <ele>133.096163</ele>
        <time>2022-06-01T12:08:09.544Z</time>
      </trkpt>
      <trkpt lat="42.59262" lon="18.23002">
        <ele>133.375617</ele>
        <time>2022-06-01T12:08:13.553Z</time>
      </trkpt>
      <trkpt lat="42.59272" lon="18.23001">
        <ele>133.664202</ele>
        <time>2022-06-01T12:08:17.545Z</time>
      </trkpt>
      <trkpt lat="42.59281" lon="18.22999">
        <ele>133.940549</ele>
        <time>2022-06-01T12:08:21.546Z</time>
      </trkpt>
      <trkpt lat="42.59291" lon="18.22998">
        <ele>134.21777</ele>
        <time>2022-06-01T12:08:25.546Z</time>
      </trkpt>
      <trkpt lat="42.59301" lon="18.22997">
        <ele>134.52496</ele>
        <time>2022-06-01T12:08:29.541Z</time>
      </trkpt>
      <trkpt lat="42.59312" lon="18.22995">
        <ele>134.849268</ele>
        <time>2022-06-01T12:08:33.552Z</time>
      </trkpt>
      <trkpt lat="42.59323" lon="18.22993">
        <ele>135.189609</ele>
        <time>2022-06-01T12:08:37.563Z</time>
      </trkpt>
      <trkpt lat="42.59332" lon="18.22992">
        <ele>135.457599</ele>
        <time>2022-06-01T12:08:40.563Z</time>
      </trkpt>
      <trkpt lat="42.59343" lon="18.22993">
        <ele>135.781556</ele>
        <time>2022-06-01T12:08:44.556Z</time>
      </trkpt>
      <trkpt lat="42.59354" lon="18.22996">
        <ele>136.10557</ele>
        <time>2022-06-01T12:08:48.552Z</time>
      </trkpt>
      <trkpt lat="42.59362" lon="18.22999">
        <ele>136.373462</ele>
        <time>2022-06-01T12:08:51.557Z</time>
      </trkpt>
      <trkpt lat="42.59371" lon="18.23004">
        <ele>136.64161</ele>
        <time>2022-06-01T12:08:54.551Z</time>
      </trkpt>
      <trkpt lat="42.5938" lon="18.23009">
        <ele>136.929319</ele>
        <time>2022-06-01T12:08:57.546Z</time>
      </trkpt>
      <trkpt lat="42.59388" lon="18.23015">
        <ele>137.208913</ele>
        <time>2022-06-01T12:09:00.547Z</time>
      </trkpt>
      <trkpt lat="42.59398" lon="18.2302">
        <ele>136.733446</ele>
        <time>2022-06-01T12:09:03.562Z</time>
      </trkpt>
      <trkpt lat="42.59406" lon="18.23026">
        <ele>136.190253</ele>
        <time>2022-06-01T12:09:06.548Z</time>
      </trkpt>
      <trkpt lat="42.59416" lon="18.23034">
        <ele>135.554975</ele>
        <time>2022-06-01T12:09:09.547Z</time>
      </trkpt>
      <trkpt lat="42.59425" lon="18.23041">
        <ele>134.979765</ele>
        <time>2022-06-01T12:09:12.553Z</time>
      </trkpt>
      <trkpt lat="42.59434" lon="18.23047">
        <ele>134.418294</ele>
        <time>2022-06-01T12:09:15.547Z</time>
      </trkpt>
      <trkpt lat="42.59444" lon="18.23054">
        <ele>133.801065</ele>
        <time>2022-06-01T12:09:18.546Z</time>
      </trkpt>
      <trkpt lat="42.59455" lon="18.2306">
        <ele>133.152308</ele>
        <time>2022-06-01T12:09:21.560Z</time>
      </trkpt>
      <trkpt lat="42.59467" lon="18.23068">
        <ele>132.411517</ele>
        <time>2022-06-01T12:09:24.577Z</time>
      </trkpt>
      <trkpt lat="42.59478" lon="18.23074">
        <ele>131.74399</ele>
        <time>2022-06-01T12:09:27.550Z</time>
      </trkpt>
      <trkpt lat="42.59491" lon="18.23081">
        <ele>131.006359</ele>
        <time>2022-06-01T12:09:30.578Z</time>
      </trkpt>
      <trkpt lat="42.59503" lon="18.23087">
        <ele>130.31126</ele>
        <time>2022-06-01T12:09:33.556Z</time>
      </trkpt>
      <trkpt lat="42.59515" lon="18.23093">
        <ele>129.587147</ele>
        <time>2022-06-01T12:09:36.572Z</time>
      </trkpt>
      <trkpt lat="42.59527" lon="18.23098">
        <ele>128.867939</ele>
        <time>2022-06-01T12:09:39.546Z</time>
      </trkpt>
      <trkpt lat="42.59537" lon="18.23101">
        <ele>128.345459</ele>
        <time>2022-06-01T12:09:41.547Z</time>
      </trkpt>
      <trkpt lat="42.59546" lon="18.23103">
        <ele>127.841442</ele>
        <time>2022-06-01T12:09:43.548Z</time>
      </trkpt>
      <trkpt lat="42.59555" lon="18.23104">
        <ele>127.340464</ele>
        <time>2022-06-01T12:09:45.556Z</time>
      </trkpt>
      <trkpt lat="42.59568" lon="18.23105">
        <ele>127.473099</ele>
        <time>2022-06-01T12:09:48.545Z</time>
      </trkpt>
      <trkpt lat="42.59577" lon="18.23106">
        <ele>127.592676</ele>
        <time>2022-06-01T12:09:50.556Z</time>
      </trkpt>
      <trkpt lat="42.59586" lon="18.23106">
        <ele>127.712173</ele>
        <time>2022-06-01T12:09:52.560Z</time>
      </trkpt>
      <trkpt lat="42.59599" lon="18.23104">
        <ele>127.885578</ele>
        <time>2022-06-01T12:09:55.570Z</time>
      </trkpt>
      <trkpt lat="42.59608" lon="18.23102">
        <ele>128.003418</ele>
        <time>2022-06-01T12:09:57.555Z</time>
      </trkpt>
      <trkpt lat="42.59617" lon="18.231">
        <ele>128.121299</ele>
        <time>2022-06-01T12:09:59.546Z</time>
      </trkpt>
      <trkpt lat="42.5963" lon="18.23097">
        <ele>128.293797</ele>
        <time>2022-06-01T12:10:02.555Z</time>
      </trkpt>
      <trkpt lat="42.59639" lon="18.23096">
        <ele>128.411243</ele>
        <time>2022-06-01T12:10:04.547Z</time>
      </trkpt>
      <trkpt lat="42.59648" lon="18.23094">
        <ele>128.530963</ele>
        <time>2022-06-01T12:10:06.561Z</time>
      </trkpt>
      <trkpt lat="42.59657" lon="18.23091">
        <ele>128.651352</ele>
        <time>2022-06-01T12:10:08.557Z</time>
      </trkpt>
      <trkpt lat="42.59667" lon="18.2309">
        <ele>128.779328</ele>
        <time>2022-06-01T12:10:10.544Z</time>
      </trkpt>
      <trkpt lat="42.59678" lon="18.2309">
        <ele>128.919618</ele>
        <time>2022-06-01T12:10:12.575Z</time>
      </trkpt>
      <trkpt lat="42.59688" lon="18.2309">
        <ele>129.050801</ele>
        <time>2022-06-01T12:10:14.557Z</time>
      </trkpt>
      <trkpt lat="42.59698" lon="18.23089">
        <ele>129.175245</ele>
        <time>2022-06-01T12:10:16.545Z</time>
      </trkpt>
      <trkpt lat="42.59707" lon="18.23087">
        <ele>129.303324</ele>
        <time>2022-06-01T12:10:18.551Z</time>
      </trkpt>
      <trkpt lat="42.59717" lon="18.23086">
        <ele>129.428618</ele>
        <time>2022-06-01T12:10:20.565Z</time>
      </trkpt>
      <trkpt lat="42.59727" lon="18.23084">
        <ele>129.557988</ele>
        <time>2022-06-01T12:10:22.552Z</time>
      </trkpt>
      <trkpt lat="42.59737" lon="18.23084">
        <ele>129.596254</ele>
        <time>2022-06-01T12:10:24.559Z</time>
      </trkpt>
      <trkpt lat="42.59746" lon="18.23083">
        <ele>129.428307</ele>
        <time>2022-06-01T12:10:26.546Z</time>
      </trkpt>
      <trkpt lat="42.59756" lon="18.23084">
        <ele>129.265543</ele>
        <time>2022-06-01T12:10:28.550Z</time>
      </trkpt>
      <trkpt lat="42.59767" lon="18.23087">
        <ele>129.073203</ele>
        <time>2022-06-01T12:10:30.551Z</time>
      </trkpt>
      <trkpt lat="42.59777" lon="18.23092">
        <ele>128.877052</ele>
        <time>2022-06-01T12:10:32.552Z</time>
      </trkpt>
      <trkpt lat="42.59788" lon="18.23096">
        <ele>128.694359</ele>
        <time>2022-06-01T12:10:34.552Z</time>
      </trkpt>
      <trkpt lat="42.59797" lon="18.23102">
        <ele>128.511918</ele>
        <time>2022-06-01T12:10:36.553Z</time>
      </trkpt>
      <trkpt lat="42.59807" lon="18.23107">
        <ele>128.336482</ele>
        <time>2022-06-01T12:10:38.549Z</time>
      </trkpt>
      <trkpt lat="42.59817" lon="18.23116">
        <ele>128.125071</ele>
        <time>2022-06-01T12:10:40.546Z</time>
      </trkpt>
      <trkpt lat="42.59827" lon="18.23124">
        <ele>127.9189</ele>
        <time>2022-06-01T12:10:42.554Z</time>
      </trkpt>
      <trkpt lat="42.59837" lon="18.23133">
        <ele>127.72499</ele>
        <time>2022-06-01T12:10:44.549Z</time>
      </trkpt>
      <trkpt lat="42.59845" lon="18.2314">
        <ele>127.556073</ele>
        <time>2022-06-01T12:10:46.546Z</time>
      </trkpt>
      <trkpt lat="42.59852" lon="18.23149">
        <ele>127.387412</ele>
        <time>2022-06-01T12:10:48.551Z</time>
      </trkpt>
      <trkpt lat="42.59859" lon="18.23157">
        <ele>127.224905</ele>
        <time>2022-06-01T12:10:50.551Z</time>
      </trkpt>
      <trkpt lat="42.59867" lon="18.23167">
        <ele>127.043777</ele>
        <time>2022-06-01T12:10:52.551Z</time>
      </trkpt>
      <trkpt lat="42.59874" lon="18.23181">
        <ele>126.832492</ele>
        <time>2022-06-01T12:10:54.549Z</time>
      </trkpt>
      <trkpt lat="42.5988" lon="18.23193">
        <ele>126.639675</ele>
        <time>2022-06-01T12:10:56.550Z</time>
      </trkpt>
      <trkpt lat="42.59886" lon="18.23207">
        <ele>126.636101</ele>
        <time>2022-06-01T12:10:58.556Z</time>
      </trkpt>
      <trkpt lat="42.59891" lon="18.23221">
        <ele>126.858463</ele>
        <time>2022-06-01T12:11:00.546Z</time>
      </trkpt>
      <trkpt lat="42.59895" lon="18.23236">
        <ele>127.067333</ele>
        <time>2022-06-01T12:11:02.554Z</time>
      </trkpt>
      <trkpt lat="42.59899" lon="18.23249">
        <ele>127.261587</ele>
        <time>2022-06-01T12:11:04.556Z</time>
      </trkpt>
      <trkpt lat="42.59903" lon="18.23262">
        <ele>127.449334</ele>
        <time>2022-06-01T12:11:06.549Z</time>
      </trkpt>
      <trkpt lat="42.59908" lon="18.23273">
        <ele>127.629767</ele>
        <time>2022-06-01T12:11:08.552Z</time>
      </trkpt>
      <trkpt lat="42.59916" lon="18.23282">
        <ele>127.810821</ele>
        <time>2022-06-01T12:11:10.577Z</time>
      </trkpt>
      <trkpt lat="42.59924" lon="18.2329">
        <ele>127.996495</ele>
        <time>2022-06-01T12:11:12.560Z</time>
      </trkpt>
      <trkpt lat="42.59934" lon="18.23294">
        <ele>128.18343</ele>
        <time>2022-06-01T12:11:14.558Z</time>
      </trkpt>
      <trkpt lat="42.59944" lon="18.23296">
        <ele>128.377854</ele>
        <time>2022-06-01T12:11:16.578Z</time>
      </trkpt>
      <trkpt lat="42.59954" lon="18.23296">
        <ele>128.562877</ele>
        <time>2022-06-01T12:11:18.551Z</time>
      </trkpt>
      <trkpt lat="42.59963" lon="18.23294">
        <ele>128.731721</ele>
        <time>2022-06-01T12:11:20.556Z</time>
      </trkpt>
      <trkpt lat="42.59972" lon="18.23289">
        <ele>128.898048</ele>
        <time>2022-06-01T12:11:22.557Z</time>
      </trkpt>
      <trkpt lat="42.5998" lon="18.2328">
        <ele>129.090921</ele>
        <time>2022-06-01T12:11:24.551Z</time>
      </trkpt>
      <trkpt lat="42.59988" lon="18.2327">
        <ele>129.289742</ele>
        <time>2022-06-01T12:11:26.557Z</time>
      </trkpt>
      <trkpt lat="42.59997" lon="18.23261">
        <ele>129.496258</ele>
        <time>2022-06-01T12:11:28.561Z</time>
      </trkpt>
      <trkpt lat="42.60006" lon="18.23252">
        <ele>129.700184</ele>
        <time>2022-06-01T12:11:30.552Z</time>
      </trkpt>
      <trkpt lat="42.60015" lon="18.23242">
        <ele>129.986393</ele>
        <time>2022-06-01T12:11:32.557Z</time>
      </trkpt>
      <trkpt lat="42.60024" lon="18.23235">
        <ele>130.347208</ele>
        <time>2022-06-01T12:11:34.564Z</time>
      </trkpt>
      <trkpt lat="42.60033" lon="18.2323">
        <ele>130.685119</ele>
        <time>2022-06-01T12:11:36.572Z</time>
      </trkpt>
      <trkpt lat="42.60043" lon="18.23225">
        <ele>131.063831</ele>
        <time>2022-06-01T12:11:38.552Z</time>
      </trkpt>
      <trkpt lat="42.60053" lon="18.23221">
        <ele>131.434188</ele>
        <time>2022-06-01T12:11:40.554Z</time>
      </trkpt>
      <trkpt lat="42.60062" lon="18.23214">
        <ele>131.794947</ele>
        <time>2022-06-01T12:11:42.554Z</time>
      </trkpt>
      <trkpt lat="42.60071" lon="18.23208">
        <ele>132.154556</ele>
        <time>2022-06-01T12:11:44.581Z</time>
      </trkpt>
      <trkpt lat="42.6008" lon="18.23204">
        <ele>132.512237</ele>
        <time>2022-06-01T12:11:46.553Z</time>
      </trkpt>
      <trkpt lat="42.6009" lon="18.232">
        <ele>132.860166</ele>
        <time>2022-06-01T12:11:48.547Z</time>
      </trkpt>
      <trkpt lat="42.60099" lon="18.23197">
        <ele>133.194459</ele>
        <time>2022-06-01T12:11:50.559Z</time>
      </trkpt>
      <trkpt lat="42.60108" lon="18.23192">
        <ele>133.536318</ele>
        <time>2022-06-01T12:11:52.558Z</time>
      </trkpt>
      <trkpt lat="42.60116" lon="18.23186">
        <ele>133.879308</ele>
        <time>2022-06-01T12:11:54.542Z</time>
      </trkpt>
      <trkpt lat="42.60124" lon="18.23179">
        <ele>134.204295</ele>
        <time>2022-06-01T12:11:56.549Z</time>
      </trkpt>
      <trkpt lat="42.60136" lon="18.23169">
        <ele>134.691065</ele>
        <time>2022-06-01T12:11:59.547Z</time>
      </trkpt>
      <trkpt lat="42.60144" lon="18.23164">
        <ele>135.032409</ele>
        <time>2022-06-01T12:12:01.575Z</time>
      </trkpt>
      <trkpt lat="42.60153" lon="18.23158">
        <ele>135.387571</ele>
        <time>2022-06-01T12:12:03.552Z</time>
      </trkpt>
      <trkpt lat="42.60163" lon="18.23154">
        <ele>135.759467</ele>
        <time>2022-06-01T12:12:05.547Z</time>
      </trkpt>
      <trkpt lat="42.60173" lon="18.23152">
        <ele>136.110468</ele>
        <time>2022-06-01T12:12:07.576Z</time>
      </trkpt>
      <trkpt lat="42.60183" lon="18.23148">
        <ele>135.889939</ele>
        <time>2022-06-01T12:12:09.548Z</time>
      </trkpt>
      <trkpt lat="42.60193" lon="18.23145">
        <ele>135.382924</ele>
        <time>2022-06-01T12:12:11.546Z</time>
      </trkpt>
      <trkpt lat="42.60204" lon="18.23145">
        <ele>134.845434</ele>
        <time>2022-06-01T12:12:13.575Z</time>
      </trkpt>
      <trkpt lat="42.60215" lon="18.23144">
        <ele>134.341272</ele>
        <time>2022-06-01T12:12:15.597Z</time>
      </trkpt>
      <trkpt lat="42.60225" lon="18.23144">
        <ele>133.842017</ele>
        <time>2022-06-01T12:12:17.591Z</time>
      </trkpt>
      <trkpt lat="42.60236" lon="18.23147">
        <ele>133.298935</ele>
        <time>2022-06-01T12:12:19.586Z</time>
      </trkpt>
      <trkpt lat="42.60248" lon="18.23152">
        <ele>132.693438</ele>
        <time>2022-06-01T12:12:21.582Z</time>
      </trkpt>
      <trkpt lat="42.60261" lon="18.23159">
        <ele>132.065881</ele>
        <time>2022-06-01T12:12:23.580Z</time>
      </trkpt>
      <trkpt lat="42.60272" lon="18.23163">
        <ele>131.510027</ele>
        <time>2022-06-01T12:12:25.570Z</time>
      </trkpt>
      <trkpt lat="42.60283" lon="18.23167">
        <ele>130.977237</ele>
        <time>2022-06-01T12:12:27.557Z</time>
      </trkpt>
      <trkpt lat="42.60293" lon="18.23171">
        <ele>130.458054</ele>
        <time>2022-06-01T12:12:29.574Z</time>
      </trkpt>
      <trkpt lat="42.60304" lon="18.23176">
        <ele>129.913921</ele>
        <time>2022-06-01T12:12:31.576Z</time>
      </trkpt>
      <trkpt lat="42.60313" lon="18.23181">
        <ele>129.409064</ele>
        <time>2022-06-01T12:12:33.573Z</time>
      </trkpt>
      <trkpt lat="42.60323" lon="18.23186">
        <ele>128.909959</ele>
        <time>2022-06-01T12:12:35.583Z</time>
      </trkpt>
      <trkpt lat="42.60332" lon="18.23192">
        <ele>128.42611</ele>
        <time>2022-06-01T12:12:37.574Z</time>
      </trkpt>
      <trkpt lat="42.60341" lon="18.23198">
        <ele>127.961216</ele>
        <time>2022-06-01T12:12:39.573Z</time>
      </trkpt>
      <trkpt lat="42.60353" lon="18.23204">
        <ele>127.373845</ele>
        <time>2022-06-01T12:12:42.576Z</time>
      </trkpt>
      <trkpt lat="42.60363" lon="18.23209">
        <ele>126.960705</ele>
        <time>2022-06-01T12:12:44.574Z</time>
      </trkpt>
      <trkpt lat="42.60371" lon="18.23216">
        <ele>126.592071</ele>
        <time>2022-06-01T12:12:46.572Z</time>
      </trkpt>
      <trkpt lat="42.6038" lon="18.23223">
        <ele>126.171306</ele>
        <time>2022-06-01T12:12:48.617Z</time>
      </trkpt>
      <trkpt lat="42.6039" lon="18.2323">
        <ele>125.705223</ele>
        <time>2022-06-01T12:12:50.668Z</time>
      </trkpt>
      <trkpt lat="42.60401" lon="18.23236">
        <ele>125.207332</ele>
        <time>2022-06-01T12:12:52.607Z</time>
      </trkpt>
      <trkpt lat="42.60411" lon="18.23243">
        <ele>124.788681</ele>
        <time>2022-06-01T12:12:54.596Z</time>
      </trkpt>
      <trkpt lat="42.60419" lon="18.23248">
        <ele>124.406958</ele>
        <time>2022-06-01T12:12:56.574Z</time>
      </trkpt>
      <trkpt lat="42.60428" lon="18.23253">
        <ele>124.014281</ele>
        <time>2022-06-01T12:12:58.579Z</time>
      </trkpt>
      <trkpt lat="42.60437" lon="18.23258">
        <ele>123.633724</ele>
        <time>2022-06-01T12:13:00.585Z</time>
      </trkpt>
      <trkpt lat="42.60446" lon="18.23262">
        <ele>123.256989</ele>
        <time>2022-06-01T12:13:02.580Z</time>
      </trkpt>
      <trkpt lat="42.60456" lon="18.23266">
        <ele>122.841729</ele>
        <time>2022-06-01T12:13:04.583Z</time>
      </trkpt>
      <trkpt lat="42.60465" lon="18.2327">
        <ele>122.437203</ele>
        <time>2022-06-01T12:13:06.573Z</time>
      </trkpt>
      <trkpt lat="42.60475" lon="18.23275">
        <ele>122.010917</ele>
        <time>2022-06-01T12:13:08.582Z</time>
      </trkpt>
      <trkpt lat="42.60486" lon="18.23279">
        <ele>121.571207</ele>
        <time>2022-06-01T12:13:10.573Z</time>
      </trkpt>
      <trkpt lat="42.60495" lon="18.23281">
        <ele>121.19538</ele>
        <time>2022-06-01T12:13:12.681Z</time>
      </trkpt>
      <trkpt lat="42.60506" lon="18.23285">
        <ele>120.746127</ele>
        <time>2022-06-01T12:13:14.613Z</time>
      </trkpt>
      <trkpt lat="42.60517" lon="18.23288">
        <ele>120.430863</ele>
        <time>2022-06-01T12:13:16.610Z</time>
      </trkpt>
      <trkpt lat="42.60528" lon="18.2329">
        <ele>120.872026</ele>
        <time>2022-06-01T12:13:18.574Z</time>
      </trkpt>
      <trkpt lat="42.60539" lon="18.2329">
        <ele>121.30768</ele>
        <time>2022-06-01T12:13:20.593Z</time>
      </trkpt>
      <trkpt lat="42.60549" lon="18.2329">
        <ele>121.74325</ele>
        <time>2022-06-01T12:13:22.589Z</time>
      </trkpt>
      <trkpt lat="42.6056" lon="18.23289">
        <ele>122.179659</ele>
        <time>2022-06-01T12:13:24.580Z</time>
      </trkpt>
      <trkpt lat="42.60569" lon="18.23288">
        <ele>122.567339</ele>
        <time>2022-06-01T12:13:26.575Z</time>
      </trkpt>
      <trkpt lat="42.6058" lon="18.23285">
        <ele>123.010487</ele>
        <time>2022-06-01T12:13:28.608Z</time>
      </trkpt>
      <trkpt lat="42.60591" lon="18.23283">
        <ele>123.487276</ele>
        <time>2022-06-01T12:13:30.599Z</time>
      </trkpt>
      <trkpt lat="42.60602" lon="18.23281">
        <ele>123.943712</ele>
        <time>2022-06-01T12:13:32.572Z</time>
      </trkpt>
      <trkpt lat="42.60612" lon="18.23277">
        <ele>124.372919</ele>
        <time>2022-06-01T12:13:34.591Z</time>
      </trkpt>
      <trkpt lat="42.60625" lon="18.23273">
        <ele>124.916902</ele>
        <time>2022-06-01T12:13:37.588Z</time>
      </trkpt>
      <trkpt lat="42.60636" lon="18.2327">
        <ele>125.380447</ele>
        <time>2022-06-01T12:13:39.574Z</time>
      </trkpt>
      <trkpt lat="42.60647" lon="18.23268">
        <ele>125.823854</ele>
        <time>2022-06-01T12:13:41.591Z</time>
      </trkpt>
      <trkpt lat="42.60658" lon="18.23266">
        <ele>126.263593</ele>
        <time>2022-06-01T12:13:43.597Z</time>
      </trkpt>
      <trkpt lat="42.60668" lon="18.23264">
        <ele>126.673625</ele>
        <time>2022-06-01T12:13:45.561Z</time>
      </trkpt>
      <trkpt lat="42.6068" lon="18.23261">
        <ele>127.178496</ele>
        <time>2022-06-01T12:13:48.585Z</time>
      </trkpt>
      <trkpt lat="42.60692" lon="18.23254">
        <ele>127.72505</ele>
        <time>2022-06-01T12:13:51.578Z</time>
      </trkpt>
      <trkpt lat="42.607" lon="18.23247">
        <ele>127.89901</ele>
        <time>2022-06-01T12:13:53.620Z</time>
      </trkpt>
      <trkpt lat="42.60707" lon="18.23239">
        <ele>128.066721</ele>
        <time>2022-06-01T12:13:55.604Z</time>
      </trkpt>
      <trkpt lat="42.60712" lon="18.23229">
        <ele>128.232971</ele>
        <time>2022-06-01T12:13:57.609Z</time>
      </trkpt>
      <trkpt lat="42.60718" lon="18.23218">
        <ele>128.408753</ele>
        <time>2022-06-01T12:13:59.607Z</time>
      </trkpt>
      <trkpt lat="42.60724" lon="18.23206">
        <ele>128.594066</ele>
        <time>2022-06-01T12:14:01.571Z</time>
      </trkpt>
      <trkpt lat="42.6073" lon="18.23194">
        <ele>128.784806</ele>
        <time>2022-06-01T12:14:03.608Z</time>
      </trkpt>
      <trkpt lat="42.60736" lon="18.23183">
        <ele>128.964862</ele>
        <time>2022-06-01T12:14:05.581Z</time>
      </trkpt>
      <trkpt lat="42.60742" lon="18.23172">
        <ele>129.152333</ele>
        <time>2022-06-01T12:14:07.584Z</time>
      </trkpt>
      <trkpt lat="42.60748" lon="18.2316">
        <ele>129.344082</ele>
        <time>2022-06-01T12:14:09.583Z</time>
      </trkpt>
      <trkpt lat="42.60755" lon="18.2315">
        <ele>129.520166</ele>
        <time>2022-06-01T12:14:11.587Z</time>
      </trkpt>
      <trkpt lat="42.60761" lon="18.2314">
        <ele>129.698209</ele>
        <time>2022-06-01T12:14:13.581Z</time>
      </trkpt>
      <trkpt lat="42.60769" lon="18.23131">
        <ele>129.875233</ele>
        <time>2022-06-01T12:14:15.588Z</time>
      </trkpt>
      <trkpt lat="42.60776" lon="18.23123">
        <ele>130.043161</ele>
        <time>2022-06-01T12:14:17.659Z</time>
      </trkpt>
      <trkpt lat="42.60783" lon="18.23115">
        <ele>130.204351</ele>
        <time>2022-06-01T12:14:19.580Z</time>
      </trkpt>
      <trkpt lat="42.60791" lon="18.23109">
        <ele>130.3692</ele>
        <time>2022-06-01T12:14:21.623Z</time>
      </trkpt>
      <trkpt lat="42.60799" lon="18.23102">
        <ele>130.532487</ele>
        <time>2022-06-01T12:14:23.611Z</time>
      </trkpt>
      <trkpt lat="42.60807" lon="18.23095">
        <ele>130.696125</ele>
        <time>2022-06-01T12:14:25.575Z</time>
      </trkpt>
      <trkpt lat="42.60815" lon="18.2309">
        <ele>130.865915</ele>
        <time>2022-06-01T12:14:27.617Z</time>
      </trkpt>
      <trkpt lat="42.60825" lon="18.23085">
        <ele>130.850854</ele>
        <time>2022-06-01T12:14:29.583Z</time>
      </trkpt>
      <trkpt lat="42.60835" lon="18.2308">
        <ele>130.666034</ele>
        <time>2022-06-01T12:14:31.573Z</time>
      </trkpt>
      <trkpt lat="42.60844" lon="18.23074">
        <ele>130.477311</ele>
        <time>2022-06-01T12:14:33.629Z</time>
      </trkpt>
      <trkpt lat="42.60853" lon="18.23067">
        <ele>130.293949</ele>
        <time>2022-06-01T12:14:35.587Z</time>
      </trkpt>
      <trkpt lat="42.60861" lon="18.23059">
        <ele>130.112238</ele>
        <time>2022-06-01T12:14:37.648Z</time>
      </trkpt>
      <trkpt lat="42.60868" lon="18.2305">
        <ele>129.937162</ele>
        <time>2022-06-01T12:14:39.599Z</time>
      </trkpt>
      <trkpt lat="42.60875" lon="18.23041">
        <ele>129.758054</ele>
        <time>2022-06-01T12:14:41.593Z</time>
      </trkpt>
      <trkpt lat="42.60882" lon="18.23031">
        <ele>129.578954</ele>
        <time>2022-06-01T12:14:43.576Z</time>
      </trkpt>
      <trkpt lat="42.60888" lon="18.23021">
        <ele>129.402015</ele>
        <time>2022-06-01T12:14:45.576Z</time>
      </trkpt>
      <trkpt lat="42.60894" lon="18.23009">
        <ele>129.21875</ele>
        <time>2022-06-01T12:14:47.583Z</time>
      </trkpt>
      <trkpt lat="42.60899" lon="18.22998">
        <ele>129.039273</ele>
        <time>2022-06-01T12:14:49.575Z</time>
      </trkpt>
      <trkpt lat="42.60904" lon="18.22987">
        <ele>128.870873</ele>
        <time>2022-06-01T12:14:51.576Z</time>
      </trkpt>
      <trkpt lat="42.6091" lon="18.22971">
        <ele>128.632513</ele>
        <time>2022-06-01T12:14:54.569Z</time>
      </trkpt>
      <trkpt lat="42.60916" lon="18.22959">
        <ele>128.446612</ele>
        <time>2022-06-01T12:14:56.572Z</time>
      </trkpt>
      <trkpt lat="42.60921" lon="18.22946">
        <ele>128.251209</ele>
        <time>2022-06-01T12:14:58.581Z</time>
      </trkpt>
      <trkpt lat="42.60926" lon="18.22936">
        <ele>128.079834</ele>
        <time>2022-06-01T12:15:00.577Z</time>
      </trkpt>
      <trkpt lat="42.60931" lon="18.22925">
        <ele>127.911624</ele>
        <time>2022-06-01T12:15:02.601Z</time>
      </trkpt>
      <trkpt lat="42.60938" lon="18.22911">
        <ele>127.679214</ele>
        <time>2022-06-01T12:15:05.575Z</time>
      </trkpt>
      <trkpt lat="42.60945" lon="18.22902">
        <ele>127.499903</ele>
        <time>2022-06-01T12:15:07.580Z</time>
      </trkpt>
      <trkpt lat="42.60953" lon="18.22893">
        <ele>127.3086</ele>
        <time>2022-06-01T12:15:09.575Z</time>
      </trkpt>
      <trkpt lat="42.60961" lon="18.22884">
        <ele>127.120036</ele>
        <time>2022-06-01T12:15:11.567Z</time>
      </trkpt>
      <trkpt lat="42.60968" lon="18.22875">
        <ele>126.930953</ele>
        <time>2022-06-01T12:15:13.584Z</time>
      </trkpt>
      <trkpt lat="42.60976" lon="18.22866">
        <ele>126.748279</ele>
        <time>2022-06-01T12:15:15.580Z</time>
      </trkpt>
      <trkpt lat="42.60984" lon="18.22858">
        <ele>126.560012</ele>
        <time>2022-06-01T12:15:17.617Z</time>
      </trkpt>
      <trkpt lat="42.60992" lon="18.2285">
        <ele>126.379544</ele>
        <time>2022-06-01T12:15:19.608Z</time>
      </trkpt>
      <trkpt lat="42.60999" lon="18.22842">
        <ele>126.203044</ele>
        <time>2022-06-01T12:15:21.581Z</time>
      </trkpt>
      <trkpt lat="42.61007" lon="18.22835">
        <ele>126.025107</ele>
        <time>2022-06-01T12:15:23.589Z</time>
      </trkpt>
      <trkpt lat="42.61015" lon="18.22828">
        <ele>125.849503</ele>
        <time>2022-06-01T12:15:25.577Z</time>
      </trkpt>
      <trkpt lat="42.61023" lon="18.22821">
        <ele>125.661085</ele>
        <time>2022-06-01T12:15:27.569Z</time>
      </trkpt>
      <trkpt lat="42.61032" lon="18.22814">
        <ele>125.466432</ele>
        <time>2022-06-01T12:15:29.580Z</time>
      </trkpt>
      <trkpt lat="42.61041" lon="18.22808">
        <ele>125.281654</ele>
        <time>2022-06-01T12:15:31.570Z</time>
      </trkpt>
      <trkpt lat="42.6105" lon="18.22802">
        <ele>125.098205</ele>
        <time>2022-06-01T12:15:33.589Z</time>
      </trkpt>
      <trkpt lat="42.61059" lon="18.22796">
        <ele>124.918625</ele>
        <time>2022-06-01T12:15:35.572Z</time>
      </trkpt>
      <trkpt lat="42.61067" lon="18.22791">
        <ele>124.74483</ele>
        <time>2022-06-01T12:15:37.598Z</time>
      </trkpt>
      <trkpt lat="42.6108" lon="18.22785">
        <ele>124.496869</ele>
        <time>2022-06-01T12:15:40.583Z</time>
      </trkpt>
      <trkpt lat="42.61088" lon="18.2278">
        <ele>124.362021</ele>
        <time>2022-06-01T12:15:42.583Z</time>
      </trkpt>
      <trkpt lat="42.61101" lon="18.22773">
        <ele>124.728107</ele>
        <time>2022-06-01T12:15:45.575Z</time>
      </trkpt>
      <trkpt lat="42.6111" lon="18.22769">
        <ele>124.997605</ele>
        <time>2022-06-01T12:15:47.621Z</time>
      </trkpt>
      <trkpt lat="42.61119" lon="18.22764">
        <ele>125.269434</ele>
        <time>2022-06-01T12:15:49.597Z</time>
      </trkpt>
      <trkpt lat="42.61128" lon="18.22759">
        <ele>125.527798</ele>
        <time>2022-06-01T12:15:51.599Z</time>
      </trkpt>
      <trkpt lat="42.61137" lon="18.22755">
        <ele>125.797954</ele>
        <time>2022-06-01T12:15:53.586Z</time>
      </trkpt>
      <trkpt lat="42.61151" lon="18.2275">
        <ele>126.190427</ele>
        <time>2022-06-01T12:15:56.629Z</time>
      </trkpt>
      <trkpt lat="42.61161" lon="18.22746">
        <ele>126.475839</ele>
        <time>2022-06-01T12:15:58.577Z</time>
      </trkpt>
      <trkpt lat="42.61171" lon="18.22742">
        <ele>126.768819</ele>
        <time>2022-06-01T12:16:00.569Z</time>
      </trkpt>
      <trkpt lat="42.61181" lon="18.22737">
        <ele>127.047583</ele>
        <time>2022-06-01T12:16:02.579Z</time>
      </trkpt>
      <trkpt lat="42.6119" lon="18.22732">
        <ele>127.328771</ele>
        <time>2022-06-01T12:16:04.578Z</time>
      </trkpt>
      <trkpt lat="42.612" lon="18.22727">
        <ele>127.610502</ele>
        <time>2022-06-01T12:16:06.577Z</time>
      </trkpt>
      <trkpt lat="42.61209" lon="18.22722">
        <ele>127.876276</ele>
        <time>2022-06-01T12:16:08.589Z</time>
      </trkpt>
      <trkpt lat="42.61217" lon="18.22716">
        <ele>128.136618</ele>
        <time>2022-06-01T12:16:10.600Z</time>
      </trkpt>
      <trkpt lat="42.61226" lon="18.2271">
        <ele>128.40406</ele>
        <time>2022-06-01T12:16:12.582Z</time>
      </trkpt>
      <trkpt lat="42.61235" lon="18.22705">
        <ele>128.670044</ele>
        <time>2022-06-01T12:16:14.575Z</time>
      </trkpt>
      <trkpt lat="42.61244" lon="18.227">
        <ele>128.941872</ele>
        <time>2022-06-01T12:16:16.579Z</time>
      </trkpt>
      <trkpt lat="42.61253" lon="18.22694">
        <ele>129.211976</ele>
        <time>2022-06-01T12:16:18.627Z</time>
      </trkpt>
      <trkpt lat="42.61262" lon="18.22688">
        <ele>129.050721</ele>
        <time>2022-06-01T12:16:20.592Z</time>
      </trkpt>
      <trkpt lat="42.6127" lon="18.22681">
        <ele>128.75745</ele>
        <time>2022-06-01T12:16:22.618Z</time>
      </trkpt>
      <trkpt lat="42.61278" lon="18.22673">
        <ele>128.477482</ele>
        <time>2022-06-01T12:16:24.583Z</time>
      </trkpt>
      <trkpt lat="42.61286" lon="18.22665">
        <ele>128.191283</ele>
        <time>2022-06-01T12:16:26.584Z</time>
      </trkpt>
      <trkpt lat="42.61293" lon="18.22656">
        <ele>127.907611</ele>
        <time>2022-06-01T12:16:28.577Z</time>
      </trkpt>
      <trkpt lat="42.613" lon="18.22646">
        <ele>127.608192</ele>
        <time>2022-06-01T12:16:30.610Z</time>
      </trkpt>
      <trkpt lat="42.61307" lon="18.22636">
        <ele>127.309671</ele>
        <time>2022-06-01T12:16:32.579Z</time>
      </trkpt>
      <trkpt lat="42.61314" lon="18.22626">
        <ele>127.014486</ele>
        <time>2022-06-01T12:16:34.571Z</time>
      </trkpt>
      <trkpt lat="42.6132" lon="18.22616">
        <ele>126.734287</ele>
        <time>2022-06-01T12:16:36.619Z</time>
      </trkpt>
      <trkpt lat="42.61326" lon="18.22606">
        <ele>126.454173</ele>
        <time>2022-06-01T12:16:38.586Z</time>
      </trkpt>
      <trkpt lat="42.61333" lon="18.22597">
        <ele>126.175636</ele>
        <time>2022-06-01T12:16:40.585Z</time>
      </trkpt>
      <trkpt lat="42.61339" lon="18.22587">
        <ele>125.901038</ele>
        <time>2022-06-01T12:16:42.601Z</time>
      </trkpt>
      <trkpt lat="42.61344" lon="18.22576">
        <ele>125.629098</ele>
        <time>2022-06-01T12:16:44.583Z</time>
      </trkpt>
      <trkpt lat="42.61349" lon="18.22565">
        <ele>125.346774</ele>
        <time>2022-06-01T12:16:46.585Z</time>
      </trkpt>
      <trkpt lat="42.61354" lon="18.22553">
        <ele>125.05182</ele>
        <time>2022-06-01T12:16:48.583Z</time>
      </trkpt>
      <trkpt lat="42.61359" lon="18.22542">
        <ele>124.76382</ele>
        <time>2022-06-01T12:16:50.581Z</time>
      </trkpt>
      <trkpt lat="42.61365" lon="18.22531">
        <ele>124.48365</ele>
        <time>2022-06-01T12:16:52.582Z</time>
      </trkpt>
      <trkpt lat="42.6137" lon="18.22521">
        <ele>124.203395</ele>
        <time>2022-06-01T12:16:54.582Z</time>
      </trkpt>
      <trkpt lat="42.61375" lon="18.22509">
        <ele>123.891309</ele>
        <time>2022-06-01T12:16:56.586Z</time>
      </trkpt>
      <trkpt lat="42.6138" lon="18.22497">
        <ele>123.519685</ele>
        <time>2022-06-01T12:16:58.582Z</time>
      </trkpt>
      <trkpt lat="42.61385" lon="18.22485">
        <ele>123.140353</ele>
        <time>2022-06-01T12:17:00.578Z</time>
      </trkpt>
      <trkpt lat="42.61389" lon="18.22473">
        <ele>122.766979</ele>
        <time>2022-06-01T12:17:02.567Z</time>
      </trkpt>
      <trkpt lat="42.61393" lon="18.2246">
        <ele>122.400856</ele>
        <time>2022-06-01T12:17:04.592Z</time>
      </trkpt>
      <trkpt lat="42.61396" lon="18.22448">
        <ele>122.041211</ele>
        <time>2022-06-01T12:17:06.603Z</time>
      </trkpt>
      <trkpt lat="42.614" lon="18.22436">
        <ele>121.66179</ele>
        <time>2022-06-01T12:17:08.684Z</time>
      </trkpt>
      <trkpt lat="42.61404" lon="18.22423">
        <ele>121.289365</ele>
        <time>2022-06-01T12:17:10.579Z</time>
      </trkpt>
      <trkpt lat="42.61409" lon="18.22411">
        <ele>120.92771</ele>
        <time>2022-06-01T12:17:12.580Z</time>
      </trkpt>
      <trkpt lat="42.61414" lon="18.22399">
        <ele>120.546567</ele>
        <time>2022-06-01T12:17:14.609Z</time>
      </trkpt>
      <trkpt lat="42.61418" lon="18.22387">
        <ele>120.172506</ele>
        <time>2022-06-01T12:17:16.588Z</time>
      </trkpt>
      <trkpt lat="42.61423" lon="18.22376">
        <ele>119.808171</ele>
        <time>2022-06-01T12:17:18.582Z</time>
      </trkpt>
      <trkpt lat="42.61427" lon="18.22364">
        <ele>119.454727</ele>
        <time>2022-06-01T12:17:20.574Z</time>
      </trkpt>
      <trkpt lat="42.61433" lon="18.22348">
        <ele>118.947946</ele>
        <time>2022-06-01T12:17:23.610Z</time>
      </trkpt>
      <trkpt lat="42.6144" lon="18.22332">
        <ele>118.442853</ele>
        <time>2022-06-01T12:17:26.587Z</time>
      </trkpt>
      <trkpt lat="42.61445" lon="18.22321">
        <ele>118.096325</ele>
        <time>2022-06-01T12:17:28.587Z</time>
      </trkpt>
      <trkpt lat="42.6145" lon="18.2231">
        <ele>117.754487</ele>
        <time>2022-06-01T12:17:30.618Z</time>
      </trkpt>
      <trkpt lat="42.61455" lon="18.22299">
        <ele>117.393371</ele>
        <time>2022-06-01T12:17:32.582Z</time>
      </trkpt>
      <trkpt lat="42.6146" lon="18.22289">
        <ele>117.12788</ele>
        <time>2022-06-01T12:17:34.597Z</time>
      </trkpt>
      <trkpt lat="42.61464" lon="18.22278">
        <ele>116.897546</ele>
        <time>2022-06-01T12:17:36.575Z</time>
      </trkpt>
      <trkpt lat="42.6147" lon="18.22261">
        <ele>116.559482</ele>
        <time>2022-06-01T12:17:39.592Z</time>
      </trkpt>
      <trkpt lat="42.61473" lon="18.2225">
        <ele>116.325322</ele>
        <time>2022-06-01T12:17:41.593Z</time>
      </trkpt>
      <trkpt lat="42.61477" lon="18.22238">
        <ele>116.073592</ele>
        <time>2022-06-01T12:17:43.568Z</time>
      </trkpt>
      <trkpt lat="42.61481" lon="18.22226">
        <ele>115.827782</ele>
        <time>2022-06-01T12:17:45.586Z</time>
      </trkpt>
      <trkpt lat="42.61484" lon="18.22214">
        <ele>115.591913</ele>
        <time>2022-06-01T12:17:47.651Z</time>
      </trkpt>
      <trkpt lat="42.61487" lon="18.22196">
        <ele>115.255647</ele>
        <time>2022-06-01T12:17:50.615Z</time>
      </trkpt>
      <trkpt lat="42.6149" lon="18.22179">
        <ele>114.921048</ele>
        <time>2022-06-01T12:17:53.583Z</time>
      </trkpt>
      <trkpt lat="42.61491" lon="18.22167">
        <ele>114.689098</ele>
        <time>2022-06-01T12:17:55.587Z</time>
      </trkpt>
      <trkpt lat="42.61492" lon="18.22155">
        <ele>114.457152</ele>
        <time>2022-06-01T12:17:57.601Z</time>
      </trkpt>
      <trkpt lat="42.61493" lon="18.22136">
        <ele>114.113327</ele>
        <time>2022-06-01T12:18:00.578Z</time>
      </trkpt>
      <trkpt lat="42.61494" lon="18.22118">
        <ele>113.771138</ele>
        <time>2022-06-01T12:18:03.580Z</time>
      </trkpt>
      <trkpt lat="42.61496" lon="18.221">
        <ele>113.425938</ele>
        <time>2022-06-01T12:18:06.574Z</time>
      </trkpt>
      <trkpt lat="42.61497" lon="18.22082">
        <ele>113.089104</ele>
        <time>2022-06-01T12:18:09.591Z</time>
      </trkpt>
      <trkpt lat="42.61499" lon="18.22064">
        <ele>112.7389</ele>
        <time>2022-06-01T12:18:12.580Z</time>
      </trkpt>
      <trkpt lat="42.615" lon="18.22046">
        <ele>112.718849</ele>
        <time>2022-06-01T12:18:15.582Z</time>
      </trkpt>
      <trkpt lat="42.61502" lon="18.22029">
        <ele>112.724261</ele>
        <time>2022-06-01T12:18:18.571Z</time>
      </trkpt>
      <trkpt lat="42.61504" lon="18.22012">
        <ele>112.729283</ele>
        <time>2022-06-01T12:18:21.576Z</time>
      </trkpt>
      <trkpt lat="42.61507" lon="18.21995">
        <ele>112.73475</ele>
        <time>2022-06-01T12:18:24.608Z</time>
      </trkpt>
      <trkpt lat="42.6151" lon="18.21978">
        <ele>112.739975</ele>
        <time>2022-06-01T12:18:27.578Z</time>
      </trkpt>
      <trkpt lat="42.61514" lon="18.2196">
        <ele>112.745536</ele>
        <time>2022-06-01T12:18:30.549Z</time>
      </trkpt>
      <trkpt lat="42.61519" lon="18.21945">
        <ele>112.750763</ele>
        <time>2022-06-01T12:18:33.579Z</time>
      </trkpt>
      <trkpt lat="42.61522" lon="18.21932">
        <ele>112.754734</ele>
        <time>2022-06-01T12:18:35.574Z</time>
      </trkpt>
      <trkpt lat="42.61527" lon="18.21915">
        <ele>112.760313</ele>
        <time>2022-06-01T12:18:38.588Z</time>
      </trkpt>
      <trkpt lat="42.6153" lon="18.21902">
        <ele>112.764412</ele>
        <time>2022-06-01T12:18:40.568Z</time>
      </trkpt>
      <trkpt lat="42.61534" lon="18.2189">
        <ele>112.768345</ele>
        <time>2022-06-01T12:18:42.581Z</time>
      </trkpt>
      <trkpt lat="42.61539" lon="18.21879">
        <ele>112.772254</ele>
        <time>2022-06-01T12:18:44.598Z</time>
      </trkpt>
      <trkpt lat="42.61543" lon="18.21867">
        <ele>112.776293</ele>
        <time>2022-06-01T12:18:46.560Z</time>
      </trkpt>
      <trkpt lat="42.61547" lon="18.21856">
        <ele>112.780082</ele>
        <time>2022-06-01T12:18:48.591Z</time>
      </trkpt>
      <trkpt lat="42.61552" lon="18.2184">
        <ele>112.785236</ele>
        <time>2022-06-01T12:18:51.579Z</time>
      </trkpt>
      <trkpt lat="42.61557" lon="18.2183">
        <ele>112.914063</ele>
        <time>2022-06-01T12:18:53.579Z</time>
      </trkpt>
      <trkpt lat="42.61563" lon="18.2182">
        <ele>113.396716</ele>
        <time>2022-06-01T12:18:55.614Z</time>
      </trkpt>
      <trkpt lat="42.61568" lon="18.2181">
        <ele>113.898689</ele>
        <time>2022-06-01T12:18:57.591Z</time>
      </trkpt>
      <trkpt lat="42.61573" lon="18.218">
        <ele>114.381424</ele>
        <time>2022-06-01T12:18:59.577Z</time>
      </trkpt>
      <trkpt lat="42.61579" lon="18.2179">
        <ele>114.879976</ele>
        <time>2022-06-01T12:19:01.590Z</time>
      </trkpt>
      <trkpt lat="42.61584" lon="18.2178">
        <ele>115.368972</ele>
        <time>2022-06-01T12:19:03.579Z</time>
      </trkpt>
      <trkpt lat="42.6159" lon="18.2177">
        <ele>115.854794</ele>
        <time>2022-06-01T12:19:05.591Z</time>
      </trkpt>
      <trkpt lat="42.61598" lon="18.21757">
        <ele>116.560589</ele>
        <time>2022-06-01T12:19:08.609Z</time>
      </trkpt>
      <trkpt lat="42.61607" lon="18.21743">
        <ele>117.271016</ele>
        <time>2022-06-01T12:19:11.591Z</time>
      </trkpt>
      <trkpt lat="42.61615" lon="18.21729">
        <ele>117.944384</ele>
        <time>2022-06-01T12:19:14.590Z</time>
      </trkpt>
      <trkpt lat="42.61624" lon="18.21717">
        <ele>118.63785</ele>
        <time>2022-06-01T12:19:17.580Z</time>
      </trkpt>
      <trkpt lat="42.61629" lon="18.21707">
        <ele>119.120803</ele>
        <time>2022-06-01T12:19:19.579Z</time>
      </trkpt>
      <trkpt lat="42.61635" lon="18.21697">
        <ele>119.623034</ele>
        <time>2022-06-01T12:19:21.570Z</time>
      </trkpt>
      <trkpt lat="42.61641" lon="18.21687">
        <ele>120.134342</ele>
        <time>2022-06-01T12:19:23.586Z</time>
      </trkpt>
      <trkpt lat="42.61648" lon="18.21677">
        <ele>120.662496</ele>
        <time>2022-06-01T12:19:25.602Z</time>
      </trkpt>
      <trkpt lat="42.61655" lon="18.21669">
        <ele>121.17345</ele>
        <time>2022-06-01T12:19:27.564Z</time>
      </trkpt>
      <trkpt lat="42.61662" lon="18.2166">
        <ele>121.690003</ele>
        <time>2022-06-01T12:19:29.563Z</time>
      </trkpt>
      <trkpt lat="42.61669" lon="18.21651">
        <ele>122.194708</ele>
        <time>2022-06-01T12:19:31.559Z</time>
      </trkpt>
      <trkpt lat="42.61675" lon="18.21642">
        <ele>122.595416</ele>
        <time>2022-06-01T12:19:33.583Z</time>
      </trkpt>
      <trkpt lat="42.61682" lon="18.21633">
        <ele>122.924829</ele>
        <time>2022-06-01T12:19:35.555Z</time>
      </trkpt>
      <trkpt lat="42.61689" lon="18.21624">
        <ele>123.261087</ele>
        <time>2022-06-01T12:19:37.579Z</time>
      </trkpt>
      <trkpt lat="42.61696" lon="18.21615">
        <ele>123.606822</ele>
        <time>2022-06-01T12:19:39.569Z</time>
      </trkpt>
      <trkpt lat="42.61703" lon="18.21606">
        <ele>123.941713</ele>
        <time>2022-06-01T12:19:41.571Z</time>
      </trkpt>
      <trkpt lat="42.61712" lon="18.21593">
        <ele>124.403082</ele>
        <time>2022-06-01T12:19:44.573Z</time>
      </trkpt>
      <trkpt lat="42.61719" lon="18.21584">
        <ele>124.72904</ele>
        <time>2022-06-01T12:19:46.594Z</time>
      </trkpt>
      <trkpt lat="42.61727" lon="18.21574">
        <ele>125.10584</ele>
        <time>2022-06-01T12:19:48.588Z</time>
      </trkpt>
      <trkpt lat="42.61735" lon="18.21565">
        <ele>125.4645</ele>
        <time>2022-06-01T12:19:50.580Z</time>
      </trkpt>
      <trkpt lat="42.61743" lon="18.21556">
        <ele>125.831555</ele>
        <time>2022-06-01T12:19:52.600Z</time>
      </trkpt>
      <trkpt lat="42.61751" lon="18.21548">
        <ele>126.167063</ele>
        <time>2022-06-01T12:19:54.581Z</time>
      </trkpt>
      <trkpt lat="42.61758" lon="18.2154">
        <ele>126.503577</ele>
        <time>2022-06-01T12:19:56.588Z</time>
      </trkpt>
      <trkpt lat="42.61766" lon="18.21532">
        <ele>126.850231</ele>
        <time>2022-06-01T12:19:58.591Z</time>
      </trkpt>
      <trkpt lat="42.61774" lon="18.21523">
        <ele>127.21553</ele>
        <time>2022-06-01T12:20:00.577Z</time>
      </trkpt>
      <trkpt lat="42.61783" lon="18.21516">
        <ele>127.575108</ele>
        <time>2022-06-01T12:20:02.562Z</time>
      </trkpt>
      <trkpt lat="42.61792" lon="18.21508">
        <ele>127.941788</ele>
        <time>2022-06-01T12:20:04.579Z</time>
      </trkpt>
      <trkpt lat="42.618" lon="18.215">
        <ele>128.292569</ele>
        <time>2022-06-01T12:20:06.574Z</time>
      </trkpt>
      <trkpt lat="42.61808" lon="18.21494">
        <ele>128.620873</ele>
        <time>2022-06-01T12:20:08.595Z</time>
      </trkpt>
      <trkpt lat="42.61817" lon="18.21487">
        <ele>128.515138</ele>
        <time>2022-06-01T12:20:10.571Z</time>
      </trkpt>
      <trkpt lat="42.61826" lon="18.21481">
        <ele>128.277743</ele>
        <time>2022-06-01T12:20:12.589Z</time>
      </trkpt>
      <trkpt lat="42.61836" lon="18.21477">
        <ele>128.046945</ele>
        <time>2022-06-01T12:20:14.574Z</time>
      </trkpt>
      <trkpt lat="42.61845" lon="18.21473">
        <ele>127.806391</ele>
        <time>2022-06-01T12:20:16.587Z</time>
      </trkpt>
      <trkpt lat="42.61856" lon="18.2147">
        <ele>127.556136</ele>
        <time>2022-06-01T12:20:18.592Z</time>
      </trkpt>
      <trkpt lat="42.61866" lon="18.21466">
        <ele>127.30649</ele>
        <time>2022-06-01T12:20:20.582Z</time>
      </trkpt>
      <trkpt lat="42.61876" lon="18.21461">
        <ele>127.051126</ele>
        <time>2022-06-01T12:20:22.591Z</time>
      </trkpt>
      <trkpt lat="42.61886" lon="18.21456">
        <ele>126.805295</ele>
        <time>2022-06-01T12:20:24.618Z</time>
      </trkpt>
      <trkpt lat="42.61894" lon="18.21448">
        <ele>126.565126</ele>
        <time>2022-06-01T12:20:26.580Z</time>
      </trkpt>
      <trkpt lat="42.61902" lon="18.2144">
        <ele>126.324813</ele>
        <time>2022-06-01T12:20:28.580Z</time>
      </trkpt>
      <trkpt lat="42.6191" lon="18.21431">
        <ele>126.089552</ele>
        <time>2022-06-01T12:20:30.600Z</time>
      </trkpt>
      <trkpt lat="42.61917" lon="18.21421">
        <ele>125.855926</ele>
        <time>2022-06-01T12:20:32.598Z</time>
      </trkpt>
      <trkpt lat="42.61923" lon="18.21411">
        <ele>125.632024</ele>
        <time>2022-06-01T12:20:34.581Z</time>
      </trkpt>
      <trkpt lat="42.61928" lon="18.214">
        <ele>125.409129</ele>
        <time>2022-06-01T12:20:36.578Z</time>
      </trkpt>
      <trkpt lat="42.61933" lon="18.21389">
        <ele>125.182035</ele>
        <time>2022-06-01T12:20:38.589Z</time>
      </trkpt>
      <trkpt lat="42.61938" lon="18.21377">
        <ele>124.937949</ele>
        <time>2022-06-01T12:20:40.601Z</time>
      </trkpt>
      <trkpt lat="42.61944" lon="18.21365">
        <ele>124.68618</ele>
        <time>2022-06-01T12:20:42.574Z</time>
      </trkpt>
      <trkpt lat="42.61949" lon="18.21352">
        <ele>124.438523</ele>
        <time>2022-06-01T12:20:44.587Z</time>
      </trkpt>
      <trkpt lat="42.61955" lon="18.21339">
        <ele>124.241073</ele>
        <time>2022-06-01T12:20:46.582Z</time>
      </trkpt>
      <trkpt lat="42.6196" lon="18.21326">
        <ele>124.053188</ele>
        <time>2022-06-01T12:20:48.581Z</time>
      </trkpt>
      <trkpt lat="42.61965" lon="18.21314">
        <ele>123.87123</ele>
        <time>2022-06-01T12:20:50.587Z</time>
      </trkpt>
      <trkpt lat="42.6197" lon="18.21301">
        <ele>123.68381</ele>
        <time>2022-06-01T12:20:52.584Z</time>
      </trkpt>
      <trkpt lat="42.61977" lon="18.21289">
        <ele>123.494133</ele>
        <time>2022-06-01T12:20:54.582Z</time>
      </trkpt>
      <trkpt lat="42.61984" lon="18.21278">
        <ele>123.295423</ele>
        <time>2022-06-01T12:20:56.576Z</time>
      </trkpt>
      <trkpt lat="42.61993" lon="18.21266">
        <ele>123.090872</ele>
        <time>2022-06-01T12:20:58.586Z</time>
      </trkpt>
      <trkpt lat="42.62001" lon="18.21255">
        <ele>122.873769</ele>
        <time>2022-06-01T12:21:00.580Z</time>
      </trkpt>
      <trkpt lat="42.62012" lon="18.21245">
        <ele>122.652399</ele>
        <time>2022-06-01T12:21:02.582Z</time>
      </trkpt>
      <trkpt lat="42.62022" lon="18.21237">
        <ele>122.44036</ele>
        <time>2022-06-01T12:21:04.607Z</time>
      </trkpt>
      <trkpt lat="42.62033" lon="18.21229">
        <ele>122.233696</ele>
        <time>2022-06-01T12:21:06.582Z</time>
      </trkpt>
      <trkpt lat="42.62043" lon="18.21224">
        <ele>122.047848</ele>
        <time>2022-06-01T12:21:08.572Z</time>
      </trkpt>
      <trkpt lat="42.62054" lon="18.2122">
        <ele>121.843963</ele>
        <time>2022-06-01T12:21:10.571Z</time>
      </trkpt>
      <trkpt lat="42.62064" lon="18.21217">
        <ele>121.659474</ele>
        <time>2022-06-01T12:21:12.582Z</time>
      </trkpt>
      <trkpt lat="42.62075" lon="18.21214">
        <ele>121.468682</ele>
        <time>2022-06-01T12:21:14.580Z</time>
      </trkpt>
      <trkpt lat="42.62086" lon="18.21213">
        <ele>121.298431</ele>
        <time>2022-06-01T12:21:16.589Z</time>
      </trkpt>
      <trkpt lat="42.62097" lon="18.21214">
        <ele>121.214831</ele>
        <time>2022-06-01T12:21:18.581Z</time>
      </trkpt>
      <trkpt lat="42.62109" lon="18.21215">
        <ele>121.125945</ele>
        <time>2022-06-01T12:21:20.570Z</time>
      </trkpt>
      <trkpt lat="42.6212" lon="18.21215">
        <ele>121.041643</ele>
        <time>2022-06-01T12:21:22.583Z</time>
      </trkpt>
      <trkpt lat="42.62133" lon="18.21215">
        <ele>120.944645</ele>
        <time>2022-06-01T12:21:24.576Z</time>
      </trkpt>
      <trkpt lat="42.62144" lon="18.21214">
        <ele>120.859484</ele>
        <time>2022-06-01T12:21:26.647Z</time>
      </trkpt>
      <trkpt lat="42.62155" lon="18.21212">
        <ele>120.776189</ele>
        <time>2022-06-01T12:21:28.583Z</time>
      </trkpt>
      <trkpt lat="42.62166" lon="18.21208">
        <ele>120.694405</ele>
        <time>2022-06-01T12:21:30.585Z</time>
      </trkpt>
      <trkpt lat="42.62176" lon="18.21203">
        <ele>120.614761</ele>
        <time>2022-06-01T12:21:32.620Z</time>
      </trkpt>
      <trkpt lat="42.62186" lon="18.21197">
        <ele>120.533647</ele>
        <time>2022-06-01T12:21:34.584Z</time>
      </trkpt>
      <trkpt lat="42.62196" lon="18.21191">
        <ele>120.45074</ele>
        <time>2022-06-01T12:21:36.573Z</time>
      </trkpt>
      <trkpt lat="42.62207" lon="18.21185">
        <ele>120.36306</ele>
        <time>2022-06-01T12:21:38.553Z</time>
      </trkpt>
      <trkpt lat="42.62217" lon="18.21179">
        <ele>120.280572</ele>
        <time>2022-06-01T12:21:40.588Z</time>
      </trkpt>
      <trkpt lat="42.62227" lon="18.21173">
        <ele>120.198117</ele>
        <time>2022-06-01T12:21:42.589Z</time>
      </trkpt>
      <trkpt lat="42.62237" lon="18.21166">
        <ele>120.117675</ele>
        <time>2022-06-01T12:21:44.611Z</time>
      </trkpt>
      <trkpt lat="42.62247" lon="18.2116">
        <ele>120.037659</ele>
        <time>2022-06-01T12:21:46.575Z</time>
      </trkpt>
      <trkpt lat="42.62256" lon="18.21153">
        <ele>119.957939</ele>
        <time>2022-06-01T12:21:48.588Z</time>
      </trkpt>
      <trkpt lat="42.62264" lon="18.21149">
        <ele>119.880946</ele>
        <time>2022-06-01T12:21:50.597Z</time>
      </trkpt>
      <trkpt lat="42.62275" lon="18.21139">
        <ele>119.776702</ele>
        <time>2022-06-01T12:21:52.583Z</time>
      </trkpt>
      <trkpt lat="42.62286" lon="18.2113">
        <ele>119.668694</ele>
        <time>2022-06-01T12:21:54.565Z</time>
      </trkpt>
      <trkpt lat="42.62299" lon="18.21123">
        <ele>119.556254</ele>
        <time>2022-06-01T12:21:56.584Z</time>
      </trkpt>
      <trkpt lat="42.6231" lon="18.21116">
        <ele>119.448139</ele>
        <time>2022-06-01T12:21:58.578Z</time>
      </trkpt>
      <trkpt lat="42.62323" lon="18.21109">
        <ele>119.337383</ele>
        <time>2022-06-01T12:22:00.574Z</time>
      </trkpt>
      <trkpt lat="42.62336" lon="18.21104">
        <ele>119.219198</ele>
        <time>2022-06-01T12:22:02.580Z</time>
      </trkpt>
      <trkpt lat="42.6235" lon="18.21097">
        <ele>119.094352</ele>
        <time>2022-06-01T12:22:04.559Z</time>
      </trkpt>
      <trkpt lat="42.62363" lon="18.21087">
        <ele>118.97319</ele>
        <time>2022-06-01T12:22:06.622Z</time>
      </trkpt>
      <trkpt lat="42.62377" lon="18.21078">
        <ele>118.847035</ele>
        <time>2022-06-01T12:22:08.577Z</time>
      </trkpt>
      <trkpt lat="42.6239" lon="18.21068">
        <ele>118.719745</ele>
        <time>2022-06-01T12:22:10.566Z</time>
      </trkpt>
      <trkpt lat="42.62402" lon="18.21058">
        <ele>118.603439</ele>
        <time>2022-06-01T12:22:12.583Z</time>
      </trkpt>
      <trkpt lat="42.62413" lon="18.21047">
        <ele>118.489592</ele>
        <time>2022-06-01T12:22:14.590Z</time>
      </trkpt>
      <trkpt lat="42.62424" lon="18.21035">
        <ele>117.938613</ele>
        <time>2022-06-01T12:22:16.578Z</time>
      </trkpt>
      <trkpt lat="42.62434" lon="18.21021">
        <ele>117.311913</ele>
        <time>2022-06-01T12:22:18.590Z</time>
      </trkpt>
      <trkpt lat="42.62443" lon="18.21007">
        <ele>116.673923</ele>
        <time>2022-06-01T12:22:20.584Z</time>
      </trkpt>
      <trkpt lat="42.62453" lon="18.20993">
        <ele>116.063598</ele>
        <time>2022-06-01T12:22:22.630Z</time>
      </trkpt>
      <trkpt lat="42.62461" lon="18.20978">
        <ele>115.448814</ele>
        <time>2022-06-01T12:22:24.594Z</time>
      </trkpt>
      <trkpt lat="42.62469" lon="18.20962">
        <ele>114.800837</ele>
        <time>2022-06-01T12:22:26.578Z</time>
      </trkpt>
      <trkpt lat="42.62476" lon="18.20943">
        <ele>114.110614</ele>
        <time>2022-06-01T12:22:28.578Z</time>
      </trkpt>
      <trkpt lat="42.62482" lon="18.20924">
        <ele>113.440126</ele>
        <time>2022-06-01T12:22:30.575Z</time>
      </trkpt>
      <trkpt lat="42.62486" lon="18.20904">
        <ele>112.742985</ele>
        <time>2022-06-01T12:22:32.585Z</time>
      </trkpt>
      <trkpt lat="42.62488" lon="18.20883">
        <ele>112.056378</ele>
        <time>2022-06-01T12:22:34.602Z</time>
      </trkpt>
      <trkpt lat="42.6249" lon="18.20861">
        <ele>111.341501</ele>
        <time>2022-06-01T12:22:36.585Z</time>
      </trkpt>
      <trkpt lat="42.6249" lon="18.20839">
        <ele>110.620472</ele>
        <time>2022-06-01T12:22:38.573Z</time>
      </trkpt>
      <trkpt lat="42.6249" lon="18.20817">
        <ele>109.578743</ele>
        <time>2022-06-01T12:22:40.591Z</time>
      </trkpt>
      <trkpt lat="42.62489" lon="18.20794">
        <ele>108.430045</ele>
        <time>2022-06-01T12:22:42.572Z</time>
      </trkpt>
      <trkpt lat="42.62485" lon="18.20772">
        <ele>107.288884</ele>
        <time>2022-06-01T12:22:44.583Z</time>
      </trkpt>
      <trkpt lat="42.6248" lon="18.20751">
        <ele>106.138101</ele>
        <time>2022-06-01T12:22:46.560Z</time>
      </trkpt>
      <trkpt lat="42.62476" lon="18.20728">
        <ele>104.957013</ele>
        <time>2022-06-01T12:22:48.581Z</time>
      </trkpt>
      <trkpt lat="42.6247" lon="18.20706">
        <ele>103.774941</ele>
        <time>2022-06-01T12:22:50.585Z</time>
      </trkpt>
      <trkpt lat="42.62463" lon="18.20685">
        <ele>102.603158</ele>
        <time>2022-06-01T12:22:52.587Z</time>
      </trkpt>
      <trkpt lat="42.6246" lon="18.20674">
        <ele>101.976271</ele>
        <time>2022-06-01T12:22:53.586Z</time>
      </trkpt>
      <trkpt lat="42.62456" lon="18.20662">
        <ele>101.308123</ele>
        <time>2022-06-01T12:22:54.594Z</time>
      </trkpt>
      <trkpt lat="42.62453" lon="18.2065">
        <ele>100.659801</ele>
        <time>2022-06-01T12:22:55.570Z</time>
      </trkpt>
      <trkpt lat="42.62449" lon="18.20637">
        <ele>99.978074</ele>
        <time>2022-06-01T12:22:56.564Z</time>
      </trkpt>
      <trkpt lat="42.62446" lon="18.20625">
        <ele>99.325014</ele>
        <time>2022-06-01T12:22:57.579Z</time>
      </trkpt>
      <trkpt lat="42.62442" lon="18.20614">
        <ele>98.688652</ele>
        <time>2022-06-01T12:22:58.582Z</time>
      </trkpt>
      <trkpt lat="42.62436" lon="18.20591">
        <ele>97.646563</ele>
        <time>2022-06-01T12:23:00.585Z</time>
      </trkpt>
      <trkpt lat="42.62429" lon="18.20571">
        <ele>96.837757</ele>
        <time>2022-06-01T12:23:02.566Z</time>
      </trkpt>
      <trkpt lat="42.62424" lon="18.20548">
        <ele>95.997675</ele>
        <time>2022-06-01T12:23:04.601Z</time>
      </trkpt>
      <trkpt lat="42.62419" lon="18.20527">
        <ele>95.19108</ele>
        <time>2022-06-01T12:23:06.621Z</time>
      </trkpt>
      <trkpt lat="42.62414" lon="18.20503">
        <ele>94.333916</ele>
        <time>2022-06-01T12:23:08.581Z</time>
      </trkpt>
      <trkpt lat="42.62412" lon="18.20491">
        <ele>93.879249</ele>
        <time>2022-06-01T12:23:09.584Z</time>
      </trkpt>
      <trkpt lat="42.6241" lon="18.20478">
        <ele>93.408044</ele>
        <time>2022-06-01T12:23:10.609Z</time>
      </trkpt>
      <trkpt lat="42.62409" lon="18.20465">
        <ele>92.93502</ele>
        <time>2022-06-01T12:23:11.559Z</time>
      </trkpt>
      <trkpt lat="42.62408" lon="18.20452">
        <ele>92.47243</ele>
        <time>2022-06-01T12:23:12.578Z</time>
      </trkpt>
      <trkpt lat="42.62407" lon="18.20439">
        <ele>92.029428</ele>
        <time>2022-06-01T12:23:13.592Z</time>
      </trkpt>
      <trkpt lat="42.62407" lon="18.20427">
        <ele>91.587617</ele>
        <time>2022-06-01T12:23:14.581Z</time>
      </trkpt>
      <trkpt lat="42.62407" lon="18.20415">
        <ele>91.142114</ele>
        <time>2022-06-01T12:23:15.646Z</time>
      </trkpt>
      <trkpt lat="42.62409" lon="18.2039">
        <ele>90.271642</ele>
        <time>2022-06-01T12:23:17.576Z</time>
      </trkpt>
      <trkpt lat="42.62412" lon="18.20367">
        <ele>89.428037</ele>
        <time>2022-06-01T12:23:19.570Z</time>
      </trkpt>
      <trkpt lat="42.62417" lon="18.20345">
        <ele>88.965884</ele>
        <time>2022-06-01T12:23:21.606Z</time>
      </trkpt>
      <trkpt lat="42.62423" lon="18.20325">
        <ele>88.558242</ele>
        <time>2022-06-01T12:23:23.591Z</time>
      </trkpt>
      <trkpt lat="42.6243" lon="18.20305">
        <ele>88.151298</ele>
        <time>2022-06-01T12:23:25.586Z</time>
      </trkpt>
      <trkpt lat="42.62438" lon="18.20286">
        <ele>87.748094</ele>
        <time>2022-06-01T12:23:27.602Z</time>
      </trkpt>
      <trkpt lat="42.62447" lon="18.20267">
        <ele>87.341812</ele>
        <time>2022-06-01T12:23:29.584Z</time>
      </trkpt>
      <trkpt lat="42.62456" lon="18.2025">
        <ele>86.943278</ele>
        <time>2022-06-01T12:23:31.588Z</time>
      </trkpt>
      <trkpt lat="42.62467" lon="18.20235">
        <ele>86.563226</ele>
        <time>2022-06-01T12:23:33.588Z</time>
      </trkpt>
      <trkpt lat="42.62478" lon="18.2022">
        <ele>86.175412</ele>
        <time>2022-06-01T12:23:35.594Z</time>
      </trkpt>
      <trkpt lat="42.6249" lon="18.20206">
        <ele>85.77438</ele>
        <time>2022-06-01T12:23:37.578Z</time>
      </trkpt>
      <trkpt lat="42.62502" lon="18.20191">
        <ele>85.364156</ele>
        <time>2022-06-01T12:23:39.572Z</time>
      </trkpt>
      <trkpt lat="42.62514" lon="18.20175">
        <ele>84.942944</ele>
        <time>2022-06-01T12:23:41.566Z</time>
      </trkpt>
      <trkpt lat="42.62525" lon="18.20158">
        <ele>84.238435</ele>
        <time>2022-06-01T12:23:43.589Z</time>
      </trkpt>
      <trkpt lat="42.62535" lon="18.20139">
        <ele>83.428636</ele>
        <time>2022-06-01T12:23:45.576Z</time>
      </trkpt>
      <trkpt lat="42.62545" lon="18.20119">
        <ele>82.591939</ele>
        <time>2022-06-01T12:23:47.590Z</time>
      </trkpt>
      <trkpt lat="42.62553" lon="18.20099">
        <ele>81.761829</ele>
        <time>2022-06-01T12:23:49.579Z</time>
      </trkpt>
      <trkpt lat="42.62559" lon="18.20076">
        <ele>80.902404</ele>
        <time>2022-06-01T12:23:51.620Z</time>
      </trkpt>
      <trkpt lat="42.62561" lon="18.20064">
        <ele>80.469952</ele>
        <time>2022-06-01T12:23:52.572Z</time>
      </trkpt>
      <trkpt lat="42.62563" lon="18.20051">
        <ele>80.006598</ele>
        <time>2022-06-01T12:23:53.571Z</time>
      </trkpt>
      <trkpt lat="42.62564" lon="18.20038">
        <ele>79.566371</ele>
        <time>2022-06-01T12:23:54.595Z</time>
      </trkpt>
      <trkpt lat="42.62565" lon="18.20026">
        <ele>79.131928</ele>
        <time>2022-06-01T12:23:55.631Z</time>
      </trkpt>
      <trkpt lat="42.62565" lon="18.20012">
        <ele>78.657224</ele>
        <time>2022-06-01T12:23:56.578Z</time>
      </trkpt>
      <trkpt lat="42.62565" lon="18.19998">
        <ele>78.158134</ele>
        <time>2022-06-01T12:23:57.568Z</time>
      </trkpt>
      <trkpt lat="42.62565" lon="18.19985">
        <ele>77.685614</ele>
        <time>2022-06-01T12:23:58.579Z</time>
      </trkpt>
      <trkpt lat="42.62563" lon="18.19972">
        <ele>77.216876</ele>
        <time>2022-06-01T12:23:59.582Z</time>
      </trkpt>
      <trkpt lat="42.62561" lon="18.19959">
        <ele>76.751036</ele>
        <time>2022-06-01T12:24:00.594Z</time>
      </trkpt>
      <trkpt lat="42.62559" lon="18.19946">
        <ele>76.292462</ele>
        <time>2022-06-01T12:24:01.691Z</time>
      </trkpt>
      <trkpt lat="42.62557" lon="18.19933">
        <ele>75.796857</ele>
        <time>2022-06-01T12:24:02.580Z</time>
      </trkpt>
      <trkpt lat="42.62554" lon="18.19921">
        <ele>75.285307</ele>
        <time>2022-06-01T12:24:03.580Z</time>
      </trkpt>
      <trkpt lat="42.62551" lon="18.19909">
        <ele>74.774052</ele>
        <time>2022-06-01T12:24:04.571Z</time>
      </trkpt>
      <trkpt lat="42.62547" lon="18.19896">
        <ele>74.266467</ele>
        <time>2022-06-01T12:24:05.608Z</time>
      </trkpt>
      <trkpt lat="42.62544" lon="18.19884">
        <ele>73.758667</ele>
        <time>2022-06-01T12:24:06.581Z</time>
      </trkpt>
      <trkpt lat="42.62541" lon="18.19872">
        <ele>73.263887</ele>
        <time>2022-06-01T12:24:07.581Z</time>
      </trkpt>
      <trkpt lat="42.62538" lon="18.19861">
        <ele>72.785503</ele>
        <time>2022-06-01T12:24:08.610Z</time>
      </trkpt>
      <trkpt lat="42.62534" lon="18.19849">
        <ele>72.306915</ele>
        <time>2022-06-01T12:24:09.586Z</time>
      </trkpt>
      <trkpt lat="42.62528" lon="18.19827">
        <ele>71.382555</ele>
        <time>2022-06-01T12:24:11.590Z</time>
      </trkpt>
      <trkpt lat="42.62522" lon="18.19806">
        <ele>70.518961</ele>
        <time>2022-06-01T12:24:13.663Z</time>
      </trkpt>
      <trkpt lat="42.62518" lon="18.19785">
        <ele>69.680035</ele>
        <time>2022-06-01T12:24:15.562Z</time>
      </trkpt>
      <trkpt lat="42.62517" lon="18.19764">
        <ele>68.845252</ele>
        <time>2022-06-01T12:24:17.611Z</time>
      </trkpt>
      <trkpt lat="42.62516" lon="18.19743">
        <ele>68.008738</ele>
        <time>2022-06-01T12:24:19.580Z</time>
      </trkpt>
      <trkpt lat="42.62518" lon="18.1972">
        <ele>67.137</ele>
        <time>2022-06-01T12:24:21.590Z</time>
      </trkpt>
      <trkpt lat="42.62521" lon="18.19698">
        <ele>66.316546</ele>
        <time>2022-06-01T12:24:23.576Z</time>
      </trkpt>
      <trkpt lat="42.62523" lon="18.19675">
        <ele>65.515947</ele>
        <time>2022-06-01T12:24:25.574Z</time>
      </trkpt>
      <trkpt lat="42.62527" lon="18.19653">
        <ele>64.739506</ele>
        <time>2022-06-01T12:24:27.579Z</time>
      </trkpt>
      <trkpt lat="42.6253" lon="18.19631">
        <ele>63.981632</ele>
        <time>2022-06-01T12:24:29.621Z</time>
      </trkpt>
      <trkpt lat="42.62532" lon="18.19608">
        <ele>63.202793</ele>
        <time>2022-06-01T12:24:31.602Z</time>
      </trkpt>
      <trkpt lat="42.62536" lon="18.19585">
        <ele>62.384561</ele>
        <time>2022-06-01T12:24:33.671Z</time>
      </trkpt>
      <trkpt lat="42.62537" lon="18.19562">
        <ele>61.591879</ele>
        <time>2022-06-01T12:24:35.578Z</time>
      </trkpt>
      <trkpt lat="42.62539" lon="18.19538">
        <ele>60.794376</ele>
        <time>2022-06-01T12:24:37.573Z</time>
      </trkpt>
      <trkpt lat="42.62539" lon="18.19516">
        <ele>60.029042</ele>
        <time>2022-06-01T12:24:39.559Z</time>
      </trkpt>
      <trkpt lat="42.62539" lon="18.19495">
        <ele>59.294512</ele>
        <time>2022-06-01T12:24:41.613Z</time>
      </trkpt>
      <trkpt lat="42.62538" lon="18.19473">
        <ele>58.551697</ele>
        <time>2022-06-01T12:24:43.596Z</time>
      </trkpt>
      <trkpt lat="42.62537" lon="18.1945">
        <ele>57.304776</ele>
        <time>2022-06-01T12:24:45.575Z</time>
      </trkpt>
      <trkpt lat="42.62535" lon="18.19426">
        <ele>55.889155</ele>
        <time>2022-06-01T12:24:47.590Z</time>
      </trkpt>
      <trkpt lat="42.62533" lon="18.19402">
        <ele>54.446421</ele>
        <time>2022-06-01T12:24:49.581Z</time>
      </trkpt>
      <trkpt lat="42.62531" lon="18.19379">
        <ele>53.083959</ele>
        <time>2022-06-01T12:24:51.620Z</time>
      </trkpt>
      <trkpt lat="42.62528" lon="18.19358">
        <ele>51.77134</ele>
        <time>2022-06-01T12:24:53.583Z</time>
      </trkpt>
      <trkpt lat="42.62524" lon="18.19337">
        <ele>50.527161</ele>
        <time>2022-06-01T12:24:55.577Z</time>
      </trkpt>
      <trkpt lat="42.62521" lon="18.19318">
        <ele>49.335734</ele>
        <time>2022-06-01T12:24:57.587Z</time>
      </trkpt>
      <trkpt lat="42.62518" lon="18.19301">
        <ele>48.290656</ele>
        <time>2022-06-01T12:24:59.575Z</time>
      </trkpt>
      <trkpt lat="42.62514" lon="18.19283">
        <ele>47.231872</ele>
        <time>2022-06-01T12:25:01.621Z</time>
      </trkpt>
      <trkpt lat="42.62511" lon="18.19268">
        <ele>46.293097</ele>
        <time>2022-06-01T12:25:03.647Z</time>
      </trkpt>
      <trkpt lat="42.62507" lon="18.19254">
        <ele>45.377747</ele>
        <time>2022-06-01T12:25:05.618Z</time>
      </trkpt>
      <trkpt lat="42.62504" lon="18.19241">
        <ele>44.584787</ele>
        <time>2022-06-01T12:25:07.600Z</time>
      </trkpt>
      <trkpt lat="42.625" lon="18.19227">
        <ele>43.974291</ele>
        <time>2022-06-01T12:25:10.601Z</time>
      </trkpt>
      <trkpt lat="42.62496" lon="18.19213">
        <ele>44.578698</ele>
        <time>2022-06-01T12:25:13.562Z</time>
      </trkpt>
      <trkpt lat="42.62494" lon="18.19199">
        <ele>45.144294</ele>
        <time>2022-06-01T12:25:16.548Z</time>
      </trkpt>
      <trkpt lat="42.62485" lon="18.19211">
        <ele>45.794923</ele>
        <time>2022-06-01T12:25:55.626Z</time>
      </trkpt>
      <trkpt lat="42.62488" lon="18.19223">
        <ele>46.310545</ele>
        <time>2022-06-01T12:26:03.563Z</time>
      </trkpt>
      <trkpt lat="42.62491" lon="18.19235">
        <ele>46.821492</ele>
        <time>2022-06-01T12:26:12.555Z</time>
      </trkpt>
      <trkpt lat="42.625" lon="18.19238">
        <ele>47.338392</ele>
        <time>2022-06-01T12:26:26.548Z</time>
      </trkpt>
      <trkpt lat="42.62507" lon="18.19227">
        <ele>47.940234</ele>
        <time>2022-06-01T12:26:30.559Z</time>
      </trkpt>
      <trkpt lat="42.62516" lon="18.19217">
        <ele>48.600993</ele>
        <time>2022-06-01T12:26:33.549Z</time>
      </trkpt>
      <trkpt lat="42.62526" lon="18.19214">
        <ele>49.119858</ele>
        <time>2022-06-01T12:26:36.557Z</time>
      </trkpt>
      <trkpt lat="42.62531" lon="18.19226">
        <ele>49.661357</ele>
        <time>2022-06-01T12:26:39.582Z</time>
      </trkpt>
      <trkpt lat="42.62537" lon="18.19235">
        <ele>50.193727</ele>
        <time>2022-06-01T12:26:43.553Z</time>
      </trkpt>
      <trkpt lat="42.62545" lon="18.19243">
        <ele>50.696588</ele>
        <time>2022-06-01T12:26:48.555Z</time>
      </trkpt>
      <trkpt lat="42.62553" lon="18.19251">
        <ele>51.25873</ele>
        <time>2022-06-01T12:26:53.550Z</time>
      </trkpt>
      <trkpt lat="42.62561" lon="18.19258">
        <ele>51.779468</ele>
        <time>2022-06-01T12:26:58.547Z</time>
      </trkpt>
      <trkpt lat="42.6257" lon="18.19265">
        <ele>52.369767</ele>
        <time>2022-06-01T12:27:05.557Z</time>
      </trkpt>
      <trkpt lat="42.6258" lon="18.19267">
        <ele>52.937711</ele>
        <time>2022-06-01T12:27:09.554Z</time>
      </trkpt>
      <trkpt lat="42.62589" lon="18.19261">
        <ele>53.506154</ele>
        <time>2022-06-01T12:27:15.547Z</time>
      </trkpt>
      <trkpt lat="42.62596" lon="18.19252">
        <ele>53.943239</ele>
        <time>2022-06-01T12:27:21.591Z</time>
      </trkpt>
      <trkpt lat="42.62605" lon="18.19244">
        <ele>54.273819</ele>
        <time>2022-06-01T12:27:26.575Z</time>
      </trkpt>
      <trkpt lat="42.62613" lon="18.19238">
        <ele>54.600589</ele>
        <time>2022-06-01T12:27:31.580Z</time>
      </trkpt>
      <trkpt lat="42.62621" lon="18.19229">
        <ele>54.938608</ele>
        <time>2022-06-01T12:27:35.610Z</time>
      </trkpt>
      <trkpt lat="42.62628" lon="18.19221">
        <ele>55.257184</ele>
        <time>2022-06-01T12:27:39.604Z</time>
      </trkpt>
      <trkpt lat="42.62633" lon="18.19209">
        <ele>55.58625</ele>
        <time>2022-06-01T12:27:42.570Z</time>
      </trkpt>
      <trkpt lat="42.62639" lon="18.19197">
        <ele>55.947018</ele>
        <time>2022-06-01T12:27:45.575Z</time>
      </trkpt>
      <trkpt lat="42.62647" lon="18.19185">
        <ele>56.339876</ele>
        <time>2022-06-01T12:27:48.580Z</time>
      </trkpt>
      <trkpt lat="42.62655" lon="18.19172">
        <ele>56.764191</ele>
        <time>2022-06-01T12:27:51.606Z</time>
      </trkpt>
      <trkpt lat="42.62662" lon="18.19158">
        <ele>57.184241</ele>
        <time>2022-06-01T12:27:54.607Z</time>
      </trkpt>
      <trkpt lat="42.62669" lon="18.19145">
        <ele>57.568564</ele>
        <time>2022-06-01T12:27:57.578Z</time>
      </trkpt>
      <trkpt lat="42.62676" lon="18.19132">
        <ele>57.982586</ele>
        <time>2022-06-01T12:28:00.578Z</time>
      </trkpt>
      <trkpt lat="42.62683" lon="18.19118">
        <ele>58.390959</ele>
        <time>2022-06-01T12:28:03.625Z</time>
      </trkpt>
      <trkpt lat="42.6269" lon="18.19106">
        <ele>58.777175</ele>
        <time>2022-06-01T12:28:06.580Z</time>
      </trkpt>
      <trkpt lat="42.62696" lon="18.19092">
        <ele>59.17195</ele>
        <time>2022-06-01T12:28:09.588Z</time>
      </trkpt>
      <trkpt lat="42.62702" lon="18.19082">
        <ele>59.504349</ele>
        <time>2022-06-01T12:28:12.582Z</time>
      </trkpt>
      <trkpt lat="42.6271" lon="18.19069">
        <ele>59.713241</ele>
        <time>2022-06-01T12:28:15.584Z</time>
      </trkpt>
      <trkpt lat="42.62716" lon="18.19056">
        <ele>59.201685</ele>
        <time>2022-06-01T12:28:18.587Z</time>
      </trkpt>
      <trkpt lat="42.62724" lon="18.19044">
        <ele>58.682124</ele>
        <time>2022-06-01T12:28:21.566Z</time>
      </trkpt>
      <trkpt lat="42.62732" lon="18.1903">
        <ele>58.105416</ele>
        <time>2022-06-01T12:28:24.584Z</time>
      </trkpt>
      <trkpt lat="42.62739" lon="18.19017">
        <ele>57.587923</ele>
        <time>2022-06-01T12:28:27.576Z</time>
      </trkpt>
      <trkpt lat="42.62747" lon="18.19004">
        <ele>57.047136</ele>
        <time>2022-06-01T12:28:30.602Z</time>
      </trkpt>
      <trkpt lat="42.62755" lon="18.18991">
        <ele>56.506052</ele>
        <time>2022-06-01T12:28:33.578Z</time>
      </trkpt>
      <trkpt lat="42.62762" lon="18.18978">
        <ele>55.960658</ele>
        <time>2022-06-01T12:28:36.582Z</time>
      </trkpt>
      <trkpt lat="42.6277" lon="18.18965">
        <ele>55.429422</ele>
        <time>2022-06-01T12:28:39.579Z</time>
      </trkpt>
      <trkpt lat="42.62777" lon="18.18952">
        <ele>54.920428</ele>
        <time>2022-06-01T12:28:42.589Z</time>
      </trkpt>
      <trkpt lat="42.62784" lon="18.18938">
        <ele>54.36609</ele>
        <time>2022-06-01T12:28:45.570Z</time>
      </trkpt>
      <trkpt lat="42.62791" lon="18.18924">
        <ele>53.819545</ele>
        <time>2022-06-01T12:28:48.591Z</time>
      </trkpt>
      <trkpt lat="42.62796" lon="18.18913">
        <ele>53.401246</ele>
        <time>2022-06-01T12:28:51.555Z</time>
      </trkpt>
      <trkpt lat="42.628" lon="18.18898">
        <ele>52.87766</ele>
        <time>2022-06-01T12:28:55.569Z</time>
      </trkpt>
      <trkpt lat="42.62803" lon="18.18883">
        <ele>52.377669</ele>
        <time>2022-06-01T12:28:58.584Z</time>
      </trkpt>
      <trkpt lat="42.62806" lon="18.18867">
        <ele>51.862752</ele>
        <time>2022-06-01T12:29:01.587Z</time>
      </trkpt>
      <trkpt lat="42.62808" lon="18.18852">
        <ele>51.313879</ele>
        <time>2022-06-01T12:29:04.578Z</time>
      </trkpt>
      <trkpt lat="42.62811" lon="18.18835">
        <ele>50.731451</ele>
        <time>2022-06-01T12:29:07.580Z</time>
      </trkpt>
      <trkpt lat="42.62814" lon="18.18819">
        <ele>50.17126</ele>
        <time>2022-06-01T12:29:10.610Z</time>
      </trkpt>
      <trkpt lat="42.62817" lon="18.18804">
        <ele>49.645796</ele>
        <time>2022-06-01T12:29:13.619Z</time>
      </trkpt>
      <trkpt lat="42.6282" lon="18.18789">
        <ele>49.091724</ele>
        <time>2022-06-01T12:29:16.578Z</time>
      </trkpt>
      <trkpt lat="42.62823" lon="18.18773">
        <ele>48.528782</ele>
        <time>2022-06-01T12:29:19.579Z</time>
      </trkpt>
      <trkpt lat="42.62824" lon="18.18757">
        <ele>47.981519</ele>
        <time>2022-06-01T12:29:22.580Z</time>
      </trkpt>
      <trkpt lat="42.62828" lon="18.18742">
        <ele>47.435777</ele>
        <time>2022-06-01T12:29:25.571Z</time>
      </trkpt>
      <trkpt lat="42.62831" lon="18.18726">
        <ele>46.882151</ele>
        <time>2022-06-01T12:29:28.581Z</time>
      </trkpt>
      <trkpt lat="42.62834" lon="18.1871">
        <ele>46.321218</ele>
        <time>2022-06-01T12:29:31.606Z</time>
      </trkpt>
      <trkpt lat="42.62838" lon="18.18695">
        <ele>45.75224</ele>
        <time>2022-06-01T12:29:34.576Z</time>
      </trkpt>
      <trkpt lat="42.62841" lon="18.18679">
        <ele>45.19039</ele>
        <time>2022-06-01T12:29:37.551Z</time>
      </trkpt>
      <trkpt lat="42.62844" lon="18.18663">
        <ele>44.64059</ele>
        <time>2022-06-01T12:29:40.547Z</time>
      </trkpt>
      <trkpt lat="42.62846" lon="18.18647">
        <ele>44.084282</ele>
        <time>2022-06-01T12:29:43.549Z</time>
      </trkpt>
      <trkpt lat="42.6285" lon="18.18631">
        <ele>43.602902</ele>
        <time>2022-06-01T12:29:46.553Z</time>
      </trkpt>
      <trkpt lat="42.62853" lon="18.18615">
        <ele>43.991298</ele>
        <time>2022-06-01T12:29:49.551Z</time>
      </trkpt>
      <trkpt lat="42.62857" lon="18.18599">
        <ele>44.362581</ele>
        <time>2022-06-01T12:29:52.551Z</time>
      </trkpt>
      <trkpt lat="42.62861" lon="18.18583">
        <ele>44.737171</ele>
        <time>2022-06-01T12:29:55.563Z</time>
      </trkpt>
      <trkpt lat="42.62865" lon="18.18568">
        <ele>45.105341</ele>
        <time>2022-06-01T12:29:58.551Z</time>
      </trkpt>
      <trkpt lat="42.62868" lon="18.18553">
        <ele>45.46335</ele>
        <time>2022-06-01T12:30:01.574Z</time>
      </trkpt>
      <trkpt lat="42.62871" lon="18.18537">
        <ele>45.828197</ele>
        <time>2022-06-01T12:30:04.559Z</time>
      </trkpt>
      <trkpt lat="42.62873" lon="18.18522">
        <ele>46.159011</ele>
        <time>2022-06-01T12:30:07.548Z</time>
      </trkpt>
      <trkpt lat="42.62876" lon="18.18509">
        <ele>46.48026</ele>
        <time>2022-06-01T12:30:11.547Z</time>
      </trkpt>
      <trkpt lat="42.6288" lon="18.18494">
        <ele>46.832418</ele>
        <time>2022-06-01T12:30:15.542Z</time>
      </trkpt>
      <trkpt lat="42.62884" lon="18.18481">
        <ele>47.142537</ele>
        <time>2022-06-01T12:30:18.558Z</time>
      </trkpt>
      <trkpt lat="42.62887" lon="18.18468">
        <ele>47.460843</ele>
        <time>2022-06-01T12:30:21.544Z</time>
      </trkpt>
      <trkpt lat="42.62892" lon="18.18454">
        <ele>47.799462</ele>
        <time>2022-06-01T12:30:24.557Z</time>
      </trkpt>
      <trkpt lat="42.62897" lon="18.18441">
        <ele>48.141779</ele>
        <time>2022-06-01T12:30:27.569Z</time>
      </trkpt>
      <trkpt lat="42.62907" lon="18.18439">
        <ele>48.451694</ele>
        <time>2022-06-01T12:30:30.626Z</time>
      </trkpt>
      <trkpt lat="42.62917" lon="18.18444">
        <ele>48.775961</ele>
        <time>2022-06-01T12:30:33.597Z</time>
      </trkpt>
      <trkpt lat="42.62929" lon="18.18448">
        <ele>49.161236</ele>
        <time>2022-06-01T12:30:37.586Z</time>
      </trkpt>
      <trkpt lat="42.62937" lon="18.18452">
        <ele>49.505254</ele>
        <time>2022-06-01T12:30:40.569Z</time>
      </trkpt>
      <trkpt lat="42.62948" lon="18.18459">
        <ele>49.931759</ele>
        <time>2022-06-01T12:30:44.579Z</time>
      </trkpt>
      <trkpt lat="42.62956" lon="18.18469">
        <ele>50.347316</ele>
        <time>2022-06-01T12:30:49.599Z</time>
      </trkpt>
      <trkpt lat="42.62961" lon="18.18481">
        <ele>50.749416</ele>
        <time>2022-06-01T12:30:54.592Z</time>
      </trkpt>
      <trkpt lat="42.62968" lon="18.18492">
        <ele>51.129212</ele>
        <time>2022-06-01T12:30:58.610Z</time>
      </trkpt>
      <trkpt lat="42.62972" lon="18.18503">
        <ele>51.480354</ele>
        <time>2022-06-01T12:31:02.574Z</time>
      </trkpt>
      <trkpt lat="42.62978" lon="18.18514">
        <ele>51.850846</ele>
        <time>2022-06-01T12:31:06.579Z</time>
      </trkpt>
      <trkpt lat="42.62985" lon="18.18525">
        <ele>52.237576</ele>
        <time>2022-06-01T12:31:10.601Z</time>
      </trkpt>
      <trkpt lat="42.62993" lon="18.18531">
        <ele>52.579616</ele>
        <time>2022-06-01T12:31:13.589Z</time>
      </trkpt>
      <trkpt lat="42.63002" lon="18.18535">
        <ele>52.927108</ele>
        <time>2022-06-01T12:31:16.587Z</time>
      </trkpt>
      <trkpt lat="42.63012" lon="18.18535">
        <ele>53.297705</ele>
        <time>2022-06-01T12:31:19.575Z</time>
      </trkpt>
      <trkpt lat="42.63023" lon="18.18532">
        <ele>53.716638</ele>
        <time>2022-06-01T12:31:23.580Z</time>
      </trkpt>
      <trkpt lat="42.63033" lon="18.18529">
        <ele>54.12195</ele>
        <time>2022-06-01T12:31:27.570Z</time>
      </trkpt>
      <trkpt lat="42.63044" lon="18.1853">
        <ele>54.545098</ele>
        <time>2022-06-01T12:31:31.579Z</time>
      </trkpt>
      <trkpt lat="42.63056" lon="18.18532">
        <ele>54.96584</ele>
        <time>2022-06-01T12:31:35.598Z</time>
      </trkpt>
      <trkpt lat="42.63064" lon="18.18537">
        <ele>55.328418</ele>
        <time>2022-06-01T12:31:39.575Z</time>
      </trkpt>
      <trkpt lat="42.63073" lon="18.18546">
        <ele>55.741842</ele>
        <time>2022-06-01T12:31:44.615Z</time>
      </trkpt>
      <trkpt lat="42.63081" lon="18.18554">
        <ele>55.856585</ele>
        <time>2022-06-01T12:31:48.570Z</time>
      </trkpt>
      <trkpt lat="42.6309" lon="18.18561">
        <ele>55.915157</ele>
        <time>2022-06-01T12:31:52.569Z</time>
      </trkpt>
      <trkpt lat="42.63101" lon="18.18564">
        <ele>55.979596</ele>
        <time>2022-06-01T12:31:56.577Z</time>
      </trkpt>
      <trkpt lat="42.63112" lon="18.18558">
        <ele>56.044449</ele>
        <time>2022-06-01T12:32:00.591Z</time>
      </trkpt>
      <trkpt lat="42.63116" lon="18.18545">
        <ele>56.101775</ele>
        <time>2022-06-01T12:32:04.585Z</time>
      </trkpt>
      <trkpt lat="42.6312" lon="18.18531">
        <ele>56.163074</ele>
        <time>2022-06-01T12:32:08.584Z</time>
      </trkpt>
      <trkpt lat="42.63124" lon="18.18516">
        <ele>56.23107</ele>
        <time>2022-06-01T12:32:12.613Z</time>
      </trkpt>
      <trkpt lat="42.63128" lon="18.18504">
        <ele>56.287161</ele>
        <time>2022-06-01T12:32:15.577Z</time>
      </trkpt>
      <trkpt lat="42.63131" lon="18.18491">
        <ele>56.345309</ele>
        <time>2022-06-01T12:32:18.577Z</time>
      </trkpt>
      <trkpt lat="42.63135" lon="18.18477">
        <ele>56.410142</ele>
        <time>2022-06-01T12:32:21.587Z</time>
      </trkpt>
      <trkpt lat="42.6314" lon="18.18461">
        <ele>56.482064</ele>
        <time>2022-06-01T12:32:24.579Z</time>
      </trkpt>
      <trkpt lat="42.63145" lon="18.1845">
        <ele>56.534333</ele>
        <time>2022-06-01T12:32:26.582Z</time>
      </trkpt>
      <trkpt lat="42.63152" lon="18.18441">
        <ele>56.589045</ele>
        <time>2022-06-01T12:32:28.579Z</time>
      </trkpt>
      <trkpt lat="42.6316" lon="18.18434">
        <ele>56.64263</ele>
        <time>2022-06-01T12:32:30.582Z</time>
      </trkpt>
      <trkpt lat="42.63171" lon="18.18426">
        <ele>56.716178</ele>
        <time>2022-06-01T12:32:33.596Z</time>
      </trkpt>
      <trkpt lat="42.63183" lon="18.18422">
        <ele>56.78515</ele>
        <time>2022-06-01T12:32:36.595Z</time>
      </trkpt>
      <trkpt lat="42.63193" lon="18.18419">
        <ele>56.839488</ele>
        <time>2022-06-01T12:32:39.592Z</time>
      </trkpt>
      <trkpt lat="42.63203" lon="18.18419">
        <ele>56.859299</ele>
        <time>2022-06-01T12:32:42.590Z</time>
      </trkpt>
      <trkpt lat="42.63213" lon="18.18414">
        <ele>56.878957</ele>
        <time>2022-06-01T12:32:45.596Z</time>
      </trkpt>
      <trkpt lat="42.63222" lon="18.18408">
        <ele>56.897967</ele>
        <time>2022-06-01T12:32:48.577Z</time>
      </trkpt>
      <trkpt lat="42.63231" lon="18.18401">
        <ele>56.916944</ele>
        <time>2022-06-01T12:32:51.597Z</time>
      </trkpt>
      <trkpt lat="42.63241" lon="18.18392">
        <ele>56.939711</ele>
        <time>2022-06-01T12:32:55.587Z</time>
      </trkpt>
      <trkpt lat="42.63249" lon="18.18384">
        <ele>56.960062</ele>
        <time>2022-06-01T12:32:58.590Z</time>
      </trkpt>
      <trkpt lat="42.63259" lon="18.18377">
        <ele>56.980045</ele>
        <time>2022-06-01T12:33:01.620Z</time>
      </trkpt>
      <trkpt lat="42.63268" lon="18.18372">
        <ele>56.999658</ele>
        <time>2022-06-01T12:33:04.628Z</time>
      </trkpt>
      <trkpt lat="42.63278" lon="18.18367">
        <ele>57.01891</ele>
        <time>2022-06-01T12:33:07.579Z</time>
      </trkpt>
      <trkpt lat="42.63288" lon="18.18365">
        <ele>57.038748</ele>
        <time>2022-06-01T12:33:10.562Z</time>
      </trkpt>
      <trkpt lat="42.63298" lon="18.1836">
        <ele>57.059533</ele>
        <time>2022-06-01T12:33:13.586Z</time>
      </trkpt>
      <trkpt lat="42.63308" lon="18.18353">
        <ele>57.081154</ele>
        <time>2022-06-01T12:33:16.570Z</time>
      </trkpt>
      <trkpt lat="42.63317" lon="18.18345">
        <ele>57.101956</ele>
        <time>2022-06-01T12:33:19.579Z</time>
      </trkpt>
      <trkpt lat="42.63324" lon="18.18335">
        <ele>57.1214</ele>
        <time>2022-06-01T12:33:22.588Z</time>
      </trkpt>
      <trkpt lat="42.63331" lon="18.18325">
        <ele>57.139512</ele>
        <time>2022-06-01T12:33:25.576Z</time>
      </trkpt>
      <trkpt lat="42.63336" lon="18.18314">
        <ele>57.15799</ele>
        <time>2022-06-01T12:33:28.559Z</time>
      </trkpt>
      <trkpt lat="42.6334" lon="18.18302">
        <ele>57.176578</ele>
        <time>2022-06-01T12:33:31.658Z</time>
      </trkpt>
      <trkpt lat="42.63344" lon="18.18288">
        <ele>56.77318</ele>
        <time>2022-06-01T12:33:34.611Z</time>
      </trkpt>
      <trkpt lat="42.63347" lon="18.18275">
        <ele>56.30603</ele>
        <time>2022-06-01T12:33:37.590Z</time>
      </trkpt>
      <trkpt lat="42.63349" lon="18.18261">
        <ele>55.828491</ele>
        <time>2022-06-01T12:33:40.570Z</time>
      </trkpt>
      <trkpt lat="42.63351" lon="18.18246">
        <ele>55.315791</ele>
        <time>2022-06-01T12:33:43.598Z</time>
      </trkpt>
      <trkpt lat="42.63355" lon="18.18232">
        <ele>54.817848</ele>
        <time>2022-06-01T12:33:46.579Z</time>
      </trkpt>
      <trkpt lat="42.63361" lon="18.18221">
        <ele>54.343137</ele>
        <time>2022-06-01T12:33:49.576Z</time>
      </trkpt>
      <trkpt lat="42.63367" lon="18.18211">
        <ele>53.896286</ele>
        <time>2022-06-01T12:33:52.563Z</time>
      </trkpt>
      <trkpt lat="42.63376" lon="18.18202">
        <ele>53.398921</ele>
        <time>2022-06-01T12:33:56.589Z</time>
      </trkpt>
      <trkpt lat="42.63383" lon="18.18194">
        <ele>52.966119</ele>
        <time>2022-06-01T12:34:00.589Z</time>
      </trkpt>
      <trkpt lat="42.63393" lon="18.18188">
        <ele>52.487859</ele>
        <time>2022-06-01T12:34:06.568Z</time>
      </trkpt>
      <trkpt lat="42.63399" lon="18.18177">
        <ele>52.017962</ele>
        <time>2022-06-01T12:34:11.587Z</time>
      </trkpt>
      <trkpt lat="42.63392" lon="18.18162">
        <ele>51.42791</ele>
        <time>2022-06-01T12:34:14.572Z</time>
      </trkpt>
      <trkpt lat="42.63384" lon="18.1815">
        <ele>50.876993</ele>
        <time>2022-06-01T12:34:16.571Z</time>
      </trkpt>
      <trkpt lat="42.63377" lon="18.18135">
        <ele>50.278381</ele>
        <time>2022-06-01T12:34:18.578Z</time>
      </trkpt>
      <trkpt lat="42.63371" lon="18.18119">
        <ele>49.651049</ele>
        <time>2022-06-01T12:34:20.571Z</time>
      </trkpt>
      <trkpt lat="42.63364" lon="18.18103">
        <ele>49.056069</ele>
        <time>2022-06-01T12:34:22.572Z</time>
      </trkpt>
      <trkpt lat="42.63359" lon="18.18088">
        <ele>48.921572</ele>
        <time>2022-06-01T12:34:24.580Z</time>
      </trkpt>
      <trkpt lat="42.63356" lon="18.18072">
        <ele>48.890599</ele>
        <time>2022-06-01T12:34:26.566Z</time>
      </trkpt>
      <trkpt lat="42.63358" lon="18.18057">
        <ele>48.862018</ele>
        <time>2022-06-01T12:34:28.574Z</time>
      </trkpt>
      <trkpt lat="42.63361" lon="18.18041">
        <ele>48.830194</ele>
        <time>2022-06-01T12:34:31.576Z</time>
      </trkpt>
      <trkpt lat="42.63364" lon="18.18028">
        <ele>48.803483</ele>
        <time>2022-06-01T12:34:34.572Z</time>
      </trkpt>
      <trkpt lat="42.6337" lon="18.18011">
        <ele>48.769145</ele>
        <time>2022-06-01T12:34:37.566Z</time>
      </trkpt>
      <trkpt lat="42.63375" lon="18.17999">
        <ele>48.743037</ele>
        <time>2022-06-01T12:34:39.563Z</time>
      </trkpt>
      <trkpt lat="42.6338" lon="18.17987">
        <ele>48.717133</ele>
        <time>2022-06-01T12:34:41.602Z</time>
      </trkpt>
      <trkpt lat="42.63385" lon="18.17975">
        <ele>48.69097</ele>
        <time>2022-06-01T12:34:43.575Z</time>
      </trkpt>
      <trkpt lat="42.63391" lon="18.17965">
        <ele>48.666287</ele>
        <time>2022-06-01T12:34:45.579Z</time>
      </trkpt>
      <trkpt lat="42.63398" lon="18.17951">
        <ele>48.634464</ele>
        <time>2022-06-01T12:34:48.587Z</time>
      </trkpt>
      <trkpt lat="42.63404" lon="18.17937">
        <ele>48.604422</ele>
        <time>2022-06-01T12:34:51.642Z</time>
      </trkpt>
      <trkpt lat="42.63408" lon="18.17922">
        <ele>48.572844</ele>
        <time>2022-06-01T12:34:54.580Z</time>
      </trkpt>
      <trkpt lat="42.63412" lon="18.17906">
        <ele>48.541969</ele>
        <time>2022-06-01T12:34:57.588Z</time>
      </trkpt>
      <trkpt lat="42.63417" lon="18.17891">
        <ele>48.509283</ele>
        <time>2022-06-01T12:35:00.577Z</time>
      </trkpt>
      <trkpt lat="42.63423" lon="18.17875">
        <ele>48.568006</ele>
        <time>2022-06-01T12:35:03.608Z</time>
      </trkpt>
      <trkpt lat="42.6343" lon="18.1786">
        <ele>48.900474</ele>
        <time>2022-06-01T12:35:06.583Z</time>
      </trkpt>
      <trkpt lat="42.63436" lon="18.17847">
        <ele>49.197036</ele>
        <time>2022-06-01T12:35:09.574Z</time>
      </trkpt>
      <trkpt lat="42.63441" lon="18.17836">
        <ele>49.450861</ele>
        <time>2022-06-01T12:35:12.587Z</time>
      </trkpt>
      <trkpt lat="42.63447" lon="18.17826">
        <ele>49.701886</ele>
        <time>2022-06-01T12:35:16.585Z</time>
      </trkpt>
      <trkpt lat="42.63452" lon="18.17815">
        <ele>49.955632</ele>
        <time>2022-06-01T12:35:21.620Z</time>
      </trkpt>
      <trkpt lat="42.63456" lon="18.17802">
        <ele>50.225651</ele>
        <time>2022-06-01T12:35:28.572Z</time>
      </trkpt>
      <trkpt lat="42.63461" lon="18.1779">
        <ele>50.483655</ele>
        <time>2022-06-01T12:35:33.562Z</time>
      </trkpt>
      <trkpt lat="42.6347" lon="18.17776">
        <ele>50.841111</ele>
        <time>2022-06-01T12:35:36.585Z</time>
      </trkpt>
      <trkpt lat="42.63478" lon="18.17763">
        <ele>51.168017</ele>
        <time>2022-06-01T12:35:38.606Z</time>
      </trkpt>
      <trkpt lat="42.63484" lon="18.1775">
        <ele>51.468279</ele>
        <time>2022-06-01T12:35:40.556Z</time>
      </trkpt>
      <trkpt lat="42.63489" lon="18.17737">
        <ele>51.749402</ele>
        <time>2022-06-01T12:35:42.550Z</time>
      </trkpt>
      <trkpt lat="42.63493" lon="18.17725">
        <ele>52.001393</ele>
        <time>2022-06-01T12:35:44.553Z</time>
      </trkpt>
      <trkpt lat="42.63497" lon="18.17713">
        <ele>52.257261</ele>
        <time>2022-06-01T12:35:46.585Z</time>
      </trkpt>
      <trkpt lat="42.635" lon="18.17701">
        <ele>52.508227</ele>
        <time>2022-06-01T12:35:48.557Z</time>
      </trkpt>
      <trkpt lat="42.63506" lon="18.17686">
        <ele>52.845145</ele>
        <time>2022-06-01T12:35:51.574Z</time>
      </trkpt>
      <trkpt lat="42.63511" lon="18.17671">
        <ele>53.162781</ele>
        <time>2022-06-01T12:35:54.633Z</time>
      </trkpt>
      <trkpt lat="42.63516" lon="18.17657">
        <ele>53.947691</ele>
        <time>2022-06-01T12:35:57.586Z</time>
      </trkpt>
      <trkpt lat="42.6352" lon="18.17643">
        <ele>54.830094</ele>
        <time>2022-06-01T12:36:00.570Z</time>
      </trkpt>
      <trkpt lat="42.63524" lon="18.17629">
        <ele>55.659544</ele>
        <time>2022-06-01T12:36:03.625Z</time>
      </trkpt>
      <trkpt lat="42.63528" lon="18.17616">
        <ele>56.496536</ele>
        <time>2022-06-01T12:36:06.579Z</time>
      </trkpt>
      <trkpt lat="42.63532" lon="18.17604">
        <ele>57.235905</ele>
        <time>2022-06-01T12:36:09.563Z</time>
      </trkpt>
      <trkpt lat="42.63536" lon="18.17592">
        <ele>57.976277</ele>
        <time>2022-06-01T12:36:13.550Z</time>
      </trkpt>
      <trkpt lat="42.63541" lon="18.17579">
        <ele>58.811877</ele>
        <time>2022-06-01T12:36:18.587Z</time>
      </trkpt>
      <trkpt lat="42.63545" lon="18.17567">
        <ele>59.592277</ele>
        <time>2022-06-01T12:36:24.585Z</time>
      </trkpt>
      <trkpt lat="42.63546" lon="18.17553">
        <ele>60.40977</ele>
        <time>2022-06-01T12:36:30.580Z</time>
      </trkpt>
      <trkpt lat="42.63547" lon="18.17539">
        <ele>61.189054</ele>
        <time>2022-06-01T12:36:36.574Z</time>
      </trkpt>
      <trkpt lat="42.63549" lon="18.17527">
        <ele>61.906273</ele>
        <time>2022-06-01T12:36:41.578Z</time>
      </trkpt>
      <trkpt lat="42.63549" lon="18.17514">
        <ele>62.629403</ele>
        <time>2022-06-01T12:36:46.643Z</time>
      </trkpt>
      <trkpt lat="42.6355" lon="18.17501">
        <ele>63.40127</ele>
        <time>2022-06-01T12:36:52.586Z</time>
      </trkpt>
      <trkpt lat="42.63551" lon="18.17487">
        <ele>64.18828</ele>
        <time>2022-06-01T12:36:57.621Z</time>
      </trkpt>
      <trkpt lat="42.63553" lon="18.17475">
        <ele>64.923847</ele>
        <time>2022-06-01T12:37:03.616Z</time>
      </trkpt>
      <trkpt lat="42.63554" lon="18.17462">
        <ele>65.635971</ele>
        <time>2022-06-01T12:37:11.582Z</time>
      </trkpt>
      <trkpt lat="42.63553" lon="18.17449">
        <ele>66.419242</ele>
        <time>2022-06-01T12:37:17.580Z</time>
      </trkpt>
      <trkpt lat="42.63556" lon="18.17435">
        <ele>67.197261</ele>
        <time>2022-06-01T12:37:24.591Z</time>
      </trkpt>
      <trkpt lat="42.63556" lon="18.1742">
        <ele>66.741997</ele>
        <time>2022-06-01T12:37:30.578Z</time>
      </trkpt>
      <trkpt lat="42.63555" lon="18.17407">
        <ele>66.343306</ele>
        <time>2022-06-01T12:37:34.583Z</time>
      </trkpt>
      <trkpt lat="42.63556" lon="18.17393">
        <ele>65.906098</ele>
        <time>2022-06-01T12:37:37.573Z</time>
      </trkpt>
      <trkpt lat="42.63559" lon="18.17377">
        <ele>65.381267</ele>
        <time>2022-06-01T12:37:40.581Z</time>
      </trkpt>
      <trkpt lat="42.63561" lon="18.17364">
        <ele>64.989412</ele>
        <time>2022-06-01T12:37:42.588Z</time>
      </trkpt>
      <trkpt lat="42.63563" lon="18.17348">
        <ele>64.473675</ele>
        <time>2022-06-01T12:37:45.581Z</time>
      </trkpt>
      <trkpt lat="42.63566" lon="18.17335">
        <ele>64.06228</ele>
        <time>2022-06-01T12:37:47.583Z</time>
      </trkpt>
      <trkpt lat="42.63569" lon="18.17321">
        <ele>63.599264</ele>
        <time>2022-06-01T12:37:51.603Z</time>
      </trkpt>
      <trkpt lat="42.6357" lon="18.17308">
        <ele>63.207622</ele>
        <time>2022-06-01T12:37:54.602Z</time>
      </trkpt>
      <trkpt lat="42.63568" lon="18.17293">
        <ele>62.725447</ele>
        <time>2022-06-01T12:37:57.589Z</time>
      </trkpt>
      <trkpt lat="42.63568" lon="18.17277">
        <ele>62.251808</ele>
        <time>2022-06-01T12:38:00.613Z</time>
      </trkpt>
      <trkpt lat="42.63568" lon="18.17265">
        <ele>61.868186</ele>
        <time>2022-06-01T12:38:03.586Z</time>
      </trkpt>
      <trkpt lat="42.63567" lon="18.17249">
        <ele>61.383736</ele>
        <time>2022-06-01T12:38:07.594Z</time>
      </trkpt>
      <trkpt lat="42.63566" lon="18.17234">
        <ele>60.901982</ele>
        <time>2022-06-01T12:38:11.620Z</time>
      </trkpt>
      <trkpt lat="42.63563" lon="18.1722">
        <ele>60.441943</ele>
        <time>2022-06-01T12:38:14.579Z</time>
      </trkpt>
      <trkpt lat="42.63561" lon="18.17203">
        <ele>59.924524</ele>
        <time>2022-06-01T12:38:17.587Z</time>
      </trkpt>
      <trkpt lat="42.6356" lon="18.17186">
        <ele>59.621191</ele>
        <time>2022-06-01T12:38:20.583Z</time>
      </trkpt>
      <trkpt lat="42.63558" lon="18.1717">
        <ele>59.569274</ele>
        <time>2022-06-01T12:38:23.607Z</time>
      </trkpt>
      <trkpt lat="42.63556" lon="18.17154">
        <ele>59.519382</ele>
        <time>2022-06-01T12:38:26.567Z</time>
      </trkpt>
      <trkpt lat="42.63554" lon="18.17139">
        <ele>59.469816</ele>
        <time>2022-06-01T12:38:29.585Z</time>
      </trkpt>
      <trkpt lat="42.63553" lon="18.17125">
        <ele>59.424763</ele>
        <time>2022-06-01T12:38:32.570Z</time>
      </trkpt>
      <trkpt lat="42.6355" lon="18.1711">
        <ele>59.376642</ele>
        <time>2022-06-01T12:38:35.596Z</time>
      </trkpt>
      <trkpt lat="42.63547" lon="18.17096">
        <ele>59.331562</ele>
        <time>2022-06-01T12:38:38.578Z</time>
      </trkpt>
      <trkpt lat="42.63545" lon="18.17082">
        <ele>59.284242</ele>
        <time>2022-06-01T12:38:41.571Z</time>
      </trkpt>
      <trkpt lat="42.63544" lon="18.17068">
        <ele>59.241224</ele>
        <time>2022-06-01T12:38:44.577Z</time>
      </trkpt>
      <trkpt lat="42.63542" lon="18.17055">
        <ele>59.196473</ele>
        <time>2022-06-01T12:38:48.591Z</time>
      </trkpt>
      <trkpt lat="42.63542" lon="18.17041">
        <ele>59.152086</ele>
        <time>2022-06-01T12:38:52.583Z</time>
      </trkpt>
      <trkpt lat="42.63542" lon="18.17027">
        <ele>59.108325</ele>
        <time>2022-06-01T12:38:55.574Z</time>
      </trkpt>
      <trkpt lat="42.63542" lon="18.17012">
        <ele>59.061688</ele>
        <time>2022-06-01T12:38:59.564Z</time>
      </trkpt>
      <trkpt lat="42.63543" lon="18.16999">
        <ele>59.021682</ele>
        <time>2022-06-01T12:39:03.582Z</time>
      </trkpt>
      <trkpt lat="42.63545" lon="18.16986">
        <ele>58.978244</ele>
        <time>2022-06-01T12:39:08.592Z</time>
      </trkpt>
      <trkpt lat="42.63547" lon="18.16972">
        <ele>58.933703</ele>
        <time>2022-06-01T12:39:12.572Z</time>
      </trkpt>
      <trkpt lat="42.63551" lon="18.16959">
        <ele>58.888028</ele>
        <time>2022-06-01T12:39:17.587Z</time>
      </trkpt>
      <trkpt lat="42.63553" lon="18.16946">
        <ele>59.633745</ele>
        <time>2022-06-01T12:39:23.580Z</time>
      </trkpt>
      <trkpt lat="42.63555" lon="18.16934">
        <ele>60.794182</ele>
        <time>2022-06-01T12:39:31.588Z</time>
      </trkpt>
      <trkpt lat="42.63559" lon="18.16921">
        <ele>62.077064</ele>
        <time>2022-06-01T12:39:39.578Z</time>
      </trkpt>
      <trkpt lat="42.63563" lon="18.1691">
        <ele>63.229303</ele>
        <time>2022-06-01T12:39:47.601Z</time>
      </trkpt>
      <trkpt lat="42.63561" lon="18.16898">
        <ele>64.379412</ele>
        <time>2022-06-01T12:39:53.585Z</time>
      </trkpt>
      <trkpt lat="42.63561" lon="18.16885">
        <ele>65.634876</ele>
        <time>2022-06-01T12:40:00.578Z</time>
      </trkpt>
      <trkpt lat="42.63556" lon="18.16874">
        <ele>66.798371</ele>
        <time>2022-06-01T12:40:10.570Z</time>
      </trkpt>
      <trkpt lat="42.6355" lon="18.16864">
        <ele>68.000732</ele>
        <time>2022-06-01T12:40:19.587Z</time>
      </trkpt>
      <trkpt lat="42.63543" lon="18.16856">
        <ele>69.193399</ele>
        <time>2022-06-01T12:40:26.620Z</time>
      </trkpt>
      <trkpt lat="42.63533" lon="18.1685">
        <ele>70.483922</ele>
        <time>2022-06-01T12:40:32.602Z</time>
      </trkpt>
      <trkpt lat="42.63525" lon="18.16846">
        <ele>71.685299</ele>
        <time>2022-06-01T12:40:36.569Z</time>
      </trkpt>
      <trkpt lat="42.63515" lon="18.16844">
        <ele>72.964355</ele>
        <time>2022-06-01T12:40:40.575Z</time>
      </trkpt>
      <trkpt lat="42.63504" lon="18.16842">
        <ele>74.293608</ele>
        <time>2022-06-01T12:40:45.590Z</time>
      </trkpt>
      <trkpt lat="42.63495" lon="18.16844">
        <ele>75.519329</ele>
        <time>2022-06-01T12:40:50.590Z</time>
      </trkpt>
      <trkpt lat="42.63485" lon="18.1685">
        <ele>76.801957</ele>
        <time>2022-06-01T12:40:57.593Z</time>
      </trkpt>
      <trkpt lat="42.63478" lon="18.16859">
        <ele>78.062578</ele>
        <time>2022-06-01T12:41:06.585Z</time>
      </trkpt>
      <trkpt lat="42.63471" lon="18.16868">
        <ele>79.325549</ele>
        <time>2022-06-01T12:41:13.595Z</time>
      </trkpt>
      <trkpt lat="42.63463" lon="18.16877">
        <ele>80.6366</ele>
        <time>2022-06-01T12:41:20.583Z</time>
      </trkpt>
      <trkpt lat="42.63453" lon="18.16883">
        <ele>81.915704</ele>
        <time>2022-06-01T12:41:27.569Z</time>
      </trkpt>
      <trkpt lat="42.63446" lon="18.16892">
        <ele>82.725749</ele>
        <time>2022-06-01T12:41:35.580Z</time>
      </trkpt>
      <trkpt lat="42.63437" lon="18.16898">
        <ele>83.538138</ele>
        <time>2022-06-01T12:41:42.602Z</time>
      </trkpt>
      <trkpt lat="42.63429" lon="18.16905">
        <ele>84.326126</ele>
        <time>2022-06-01T12:41:50.598Z</time>
      </trkpt>
      <trkpt lat="42.63421" lon="18.16914">
        <ele>85.156467</ele>
        <time>2022-06-01T12:41:58.578Z</time>
      </trkpt>
      <trkpt lat="42.63413" lon="18.16921">
        <ele>85.90386</ele>
        <time>2022-06-01T12:42:09.612Z</time>
      </trkpt>
      <trkpt lat="42.63404" lon="18.16925">
        <ele>86.709327</ele>
        <time>2022-06-01T12:42:15.567Z</time>
      </trkpt>
      <trkpt lat="42.63395" lon="18.1693">
        <ele>87.52939</ele>
        <time>2022-06-01T12:42:22.602Z</time>
      </trkpt>
      <trkpt lat="42.63386" lon="18.16934">
        <ele>88.274837</ele>
        <time>2022-06-01T12:42:29.580Z</time>
      </trkpt>
      <trkpt lat="42.63377" lon="18.16935">
        <ele>89.031861</ele>
        <time>2022-06-01T12:42:36.569Z</time>
      </trkpt>
      <trkpt lat="42.63368" lon="18.1694">
        <ele>89.802855</ele>
        <time>2022-06-01T12:42:43.606Z</time>
      </trkpt>
      <trkpt lat="42.63359" lon="18.16942">
        <ele>90.541531</ele>
        <time>2022-06-01T12:42:51.567Z</time>
      </trkpt>
      <trkpt lat="42.63349" lon="18.16942">
        <ele>91.318411</ele>
        <time>2022-06-01T12:43:01.589Z</time>
      </trkpt>
      <trkpt lat="42.6334" lon="18.16943">
        <ele>92.124214</ele>
        <time>2022-06-01T12:43:10.581Z</time>
      </trkpt>
      <trkpt lat="42.6333" lon="18.16943">
        <ele>92.893481</ele>
        <time>2022-06-01T12:43:19.561Z</time>
      </trkpt>
      <trkpt lat="42.63321" lon="18.1694">
        <ele>93.642346</ele>
        <time>2022-06-01T12:43:27.588Z</time>
      </trkpt>
      <trkpt lat="42.63311" lon="18.16937">
        <ele>94.469428</ele>
        <time>2022-06-01T12:43:36.599Z</time>
      </trkpt>
      <trkpt lat="42.63302" lon="18.16934">
        <ele>95.274942</ele>
        <time>2022-06-01T12:43:44.570Z</time>
      </trkpt>
      <trkpt lat="42.63294" lon="18.16925">
        <ele>96.129301</ele>
        <time>2022-06-01T12:43:52.586Z</time>
      </trkpt>
      <trkpt lat="42.63284" lon="18.16922">
        <ele>96.727592</ele>
        <time>2022-06-01T12:43:59.579Z</time>
      </trkpt>
      <trkpt lat="42.63275" lon="18.16918">
        <ele>97.167901</ele>
        <time>2022-06-01T12:44:08.570Z</time>
      </trkpt>
      <trkpt lat="42.63266" lon="18.1692">
        <ele>97.609913</ele>
        <time>2022-06-01T12:44:15.584Z</time>
      </trkpt>
      <trkpt lat="42.63257" lon="18.16924">
        <ele>98.038231</ele>
        <time>2022-06-01T12:44:22.596Z</time>
      </trkpt>
      <trkpt lat="42.6325" lon="18.16931">
        <ele>98.472007</ele>
        <time>2022-06-01T12:44:32.588Z</time>
      </trkpt>
      <trkpt lat="42.63242" lon="18.1694">
        <ele>98.934858</ele>
        <time>2022-06-01T12:44:40.580Z</time>
      </trkpt>
      <trkpt lat="42.63235" lon="18.1695">
        <ele>99.392651</ele>
        <time>2022-06-01T12:44:48.584Z</time>
      </trkpt>
      <trkpt lat="42.63228" lon="18.16958">
        <ele>99.827897</ele>
        <time>2022-06-01T12:44:57.594Z</time>
      </trkpt>
      <trkpt lat="42.6322" lon="18.16964">
        <ele>100.283271</ele>
        <time>2022-06-01T12:45:04.579Z</time>
      </trkpt>
      <trkpt lat="42.63214" lon="18.16954">
        <ele>100.717123</ele>
        <time>2022-06-01T12:45:13.620Z</time>
      </trkpt>
      <trkpt lat="42.63216" lon="18.16941">
        <ele>101.171644</ele>
        <time>2022-06-01T12:45:21.608Z</time>
      </trkpt>
      <trkpt lat="42.6322" lon="18.16929">
        <ele>101.612623</ele>
        <time>2022-06-01T12:45:28.586Z</time>
      </trkpt>
      <trkpt lat="42.63223" lon="18.16917">
        <ele>102.066495</ele>
        <time>2022-06-01T12:45:34.598Z</time>
      </trkpt>
      <trkpt lat="42.63227" lon="18.16903">
        <ele>102.565584</ele>
        <time>2022-06-01T12:45:41.558Z</time>
      </trkpt>
      <trkpt lat="42.6323" lon="18.1689">
        <ele>103.02445</ele>
        <time>2022-06-01T12:45:47.564Z</time>
      </trkpt>
      <trkpt lat="42.63233" lon="18.16878">
        <ele>103.462229</ele>
        <time>2022-06-01T12:45:53.569Z</time>
      </trkpt>
      <trkpt lat="42.63237" lon="18.16865">
        <ele>103.956405</ele>
        <time>2022-06-01T12:45:59.551Z</time>
      </trkpt>
      <trkpt lat="42.63239" lon="18.16853">
        <ele>104.393827</ele>
        <time>2022-06-01T12:46:05.579Z</time>
      </trkpt>
      <trkpt lat="42.6324" lon="18.16839">
        <ele>104.868296</ele>
        <time>2022-06-01T12:46:11.570Z</time>
      </trkpt>
      <trkpt lat="42.6324" lon="18.16826">
        <ele>105.191361</ele>
        <time>2022-06-01T12:46:16.587Z</time>
      </trkpt>
      <trkpt lat="42.63239" lon="18.16813">
        <ele>105.500059</ele>
        <time>2022-06-01T12:46:20.579Z</time>
      </trkpt>
      <trkpt lat="42.63238" lon="18.16799">
        <ele>105.869456</ele>
        <time>2022-06-01T12:46:24.606Z</time>
      </trkpt>
      <trkpt lat="42.63236" lon="18.16785">
        <ele>106.224809</ele>
        <time>2022-06-01T12:46:27.592Z</time>
      </trkpt>
      <trkpt lat="42.63235" lon="18.1677">
        <ele>106.596457</ele>
        <time>2022-06-01T12:46:30.587Z</time>
      </trkpt>
      <trkpt lat="42.63235" lon="18.16754">
        <ele>106.997267</ele>
        <time>2022-06-01T12:46:33.575Z</time>
      </trkpt>
      <trkpt lat="42.63235" lon="18.16739">
        <ele>107.373043</ele>
        <time>2022-06-01T12:46:36.590Z</time>
      </trkpt>
      <trkpt lat="42.63234" lon="18.16725">
        <ele>107.735257</ele>
        <time>2022-06-01T12:46:39.588Z</time>
      </trkpt>
      <trkpt lat="42.63234" lon="18.16709">
        <ele>108.121046</ele>
        <time>2022-06-01T12:46:43.575Z</time>
      </trkpt>
      <trkpt lat="42.63234" lon="18.16695">
        <ele>108.479218</ele>
        <time>2022-06-01T12:46:47.591Z</time>
      </trkpt>
      <trkpt lat="42.63234" lon="18.16681">
        <ele>108.837584</ele>
        <time>2022-06-01T12:46:51.582Z</time>
      </trkpt>
      <trkpt lat="42.63233" lon="18.16668">
        <ele>109.160919</ele>
        <time>2022-06-01T12:46:55.586Z</time>
      </trkpt>
      <trkpt lat="42.63233" lon="18.16654">
        <ele>109.496557</ele>
        <time>2022-06-01T12:46:59.618Z</time>
      </trkpt>
      <trkpt lat="42.63233" lon="18.16642">
        <ele>109.817118</ele>
        <time>2022-06-01T12:47:03.588Z</time>
      </trkpt>
      <trkpt lat="42.63233" lon="18.16628">
        <ele>110.162772</ele>
        <time>2022-06-01T12:47:08.580Z</time>
      </trkpt>
      <trkpt lat="42.63233" lon="18.16615">
        <ele>110.490899</ele>
        <time>2022-06-01T12:47:12.585Z</time>
      </trkpt>
      <trkpt lat="42.63231" lon="18.16602">
        <ele>110.815483</ele>
        <time>2022-06-01T12:47:16.594Z</time>
      </trkpt>
      <trkpt lat="42.63231" lon="18.16587">
        <ele>111.213504</ele>
        <time>2022-06-01T12:47:21.582Z</time>
      </trkpt>
      <trkpt lat="42.6323" lon="18.16574">
        <ele>111.613745</ele>
        <time>2022-06-01T12:47:26.599Z</time>
      </trkpt>
      <trkpt lat="42.63228" lon="18.16561">
        <ele>112.003762</ele>
        <time>2022-06-01T12:47:30.599Z</time>
      </trkpt>
      <trkpt lat="42.63226" lon="18.16548">
        <ele>112.387375</ele>
        <time>2022-06-01T12:47:35.558Z</time>
      </trkpt>
      <trkpt lat="42.63226" lon="18.16534">
        <ele>112.783687</ele>
        <time>2022-06-01T12:47:40.582Z</time>
      </trkpt>
      <trkpt lat="42.63224" lon="18.1652">
        <ele>113.201205</ele>
        <time>2022-06-01T12:47:44.558Z</time>
      </trkpt>
      <trkpt lat="42.63224" lon="18.16505">
        <ele>113.631966</ele>
        <time>2022-06-01T12:47:49.585Z</time>
      </trkpt>
      <trkpt lat="42.63223" lon="18.16491">
        <ele>114.05582</ele>
        <time>2022-06-01T12:47:54.611Z</time>
      </trkpt>
      <trkpt lat="42.63223" lon="18.16477">
        <ele>114.451638</ele>
        <time>2022-06-01T12:47:59.561Z</time>
      </trkpt>
      <trkpt lat="42.63222" lon="18.16465">
        <ele>114.806478</ele>
        <time>2022-06-01T12:48:04.586Z</time>
      </trkpt>
      <trkpt lat="42.6322" lon="18.16453">
        <ele>115.168719</ele>
        <time>2022-06-01T12:48:10.580Z</time>
      </trkpt>
      <trkpt lat="42.63219" lon="18.16438">
        <ele>115.595863</ele>
        <time>2022-06-01T12:48:15.590Z</time>
      </trkpt>
      <trkpt lat="42.63218" lon="18.16423">
        <ele>116.030166</ele>
        <time>2022-06-01T12:48:20.570Z</time>
      </trkpt>
      <trkpt lat="42.63219" lon="18.16409">
        <ele>116.449939</ele>
        <time>2022-06-01T12:48:26.572Z</time>
      </trkpt>
      <trkpt lat="42.6322" lon="18.16395">
        <ele>116.834625</ele>
        <time>2022-06-01T12:48:32.569Z</time>
      </trkpt>
      <trkpt lat="42.63219" lon="18.16381">
        <ele>117.2453</ele>
        <time>2022-06-01T12:48:37.587Z</time>
      </trkpt>
      <trkpt lat="42.63218" lon="18.16369">
        <ele>117.602426</ele>
        <time>2022-06-01T12:48:42.587Z</time>
      </trkpt>
      <trkpt lat="42.63218" lon="18.16356">
        <ele>117.980802</ele>
        <time>2022-06-01T12:48:47.575Z</time>
      </trkpt>
      <trkpt lat="42.63215" lon="18.16343">
        <ele>118.220986</ele>
        <time>2022-06-01T12:48:52.581Z</time>
      </trkpt>
      <trkpt lat="42.63211" lon="18.16331">
        <ele>118.404018</ele>
        <time>2022-06-01T12:48:57.600Z</time>
      </trkpt>
      <trkpt lat="42.63206" lon="18.16321">
        <ele>118.579006</ele>
        <time>2022-06-01T12:49:01.592Z</time>
      </trkpt>
      <trkpt lat="42.63199" lon="18.16309">
        <ele>118.782971</ele>
        <time>2022-06-01T12:49:06.588Z</time>
      </trkpt>
      <trkpt lat="42.63194" lon="18.16295">
        <ele>118.991246</ele>
        <time>2022-06-01T12:49:11.581Z</time>
      </trkpt>
      <trkpt lat="42.63191" lon="18.16284">
        <ele>119.168716</ele>
        <time>2022-06-01T12:49:16.574Z</time>
      </trkpt>
      <trkpt lat="42.63184" lon="18.16274">
        <ele>119.359999</ele>
        <time>2022-06-01T12:49:21.585Z</time>
      </trkpt>
      <trkpt lat="42.63177" lon="18.16263">
        <ele>119.546276</ele>
        <time>2022-06-01T12:49:26.579Z</time>
      </trkpt>
      <trkpt lat="42.63172" lon="18.16252">
        <ele>119.721831</ele>
        <time>2022-06-01T12:49:31.570Z</time>
      </trkpt>
      <trkpt lat="42.63167" lon="18.16242">
        <ele>119.897917</ele>
        <time>2022-06-01T12:49:36.565Z</time>
      </trkpt>
      <trkpt lat="42.63161" lon="18.16231">
        <ele>120.086533</ele>
        <time>2022-06-01T12:49:42.611Z</time>
      </trkpt>
      <trkpt lat="42.63156" lon="18.16219">
        <ele>120.281156</ele>
        <time>2022-06-01T12:49:47.591Z</time>
      </trkpt>
      <trkpt lat="42.63151" lon="18.16208">
        <ele>120.464026</ele>
        <time>2022-06-01T12:49:52.637Z</time>
      </trkpt>
      <trkpt lat="42.63145" lon="18.16198">
        <ele>120.633514</ele>
        <time>2022-06-01T12:49:57.570Z</time>
      </trkpt>
      <trkpt lat="42.6314" lon="18.16186">
        <ele>120.828711</ele>
        <time>2022-06-01T12:50:02.598Z</time>
      </trkpt>
      <trkpt lat="42.63135" lon="18.16174">
        <ele>121.013778</ele>
        <time>2022-06-01T12:50:08.587Z</time>
      </trkpt>
      <trkpt lat="42.63127" lon="18.16165">
        <ele>121.2052</ele>
        <time>2022-06-01T12:50:13.567Z</time>
      </trkpt>
      <trkpt lat="42.63119" lon="18.16157">
        <ele>121.398942</ele>
        <time>2022-06-01T12:50:18.572Z</time>
      </trkpt>
      <trkpt lat="42.6311" lon="18.16152">
        <ele>121.66594</ele>
        <time>2022-06-01T12:50:23.616Z</time>
      </trkpt>
      <trkpt lat="42.63102" lon="18.16146">
        <ele>121.994929</ele>
        <time>2022-06-01T12:50:28.557Z</time>
      </trkpt>
      <trkpt lat="42.63093" lon="18.1614">
        <ele>122.353012</ele>
        <time>2022-06-01T12:50:33.563Z</time>
      </trkpt>
      <trkpt lat="42.63083" lon="18.16138">
        <ele>122.692151</ele>
        <time>2022-06-01T12:50:37.571Z</time>
      </trkpt>
      <trkpt lat="42.63073" lon="18.16134">
        <ele>123.059202</ele>
        <time>2022-06-01T12:50:41.606Z</time>
      </trkpt>
      <trkpt lat="42.63065" lon="18.16125">
        <ele>123.424947</ele>
        <time>2022-06-01T12:50:46.584Z</time>
      </trkpt>
      <trkpt lat="42.63062" lon="18.16112">
        <ele>123.779038</ele>
        <time>2022-06-01T12:50:51.585Z</time>
      </trkpt>
      <trkpt lat="42.63058" lon="18.16099">
        <ele>124.135748</ele>
        <time>2022-06-01T12:50:55.578Z</time>
      </trkpt>
      <trkpt lat="42.63056" lon="18.16087">
        <ele>124.456763</ele>
        <time>2022-06-01T12:50:59.587Z</time>
      </trkpt>
      <trkpt lat="42.63056" lon="18.16075">
        <ele>124.77096</ele>
        <time>2022-06-01T12:51:04.559Z</time>
      </trkpt>
      <trkpt lat="42.63057" lon="18.16062">
        <ele>125.100992</ele>
        <time>2022-06-01T12:51:09.568Z</time>
      </trkpt>
      <trkpt lat="42.63055" lon="18.1605">
        <ele>125.42459</ele>
        <time>2022-06-01T12:51:13.568Z</time>
      </trkpt>
      <trkpt lat="42.63054" lon="18.16036">
        <ele>125.781625</ele>
        <time>2022-06-01T12:51:18.572Z</time>
      </trkpt>
      <trkpt lat="42.63054" lon="18.16024">
        <ele>126.098396</ele>
        <time>2022-06-01T12:51:23.607Z</time>
      </trkpt>
      <trkpt lat="42.63054" lon="18.1601">
        <ele>126.453987</ele>
        <time>2022-06-01T12:51:29.593Z</time>
      </trkpt>
      <trkpt lat="42.63056" lon="18.15998">
        <ele>126.772548</ele>
        <time>2022-06-01T12:51:35.585Z</time>
      </trkpt>
      <trkpt lat="42.63055" lon="18.15985">
        <ele>127.097644</ele>
        <time>2022-06-01T12:51:41.593Z</time>
      </trkpt>
      <trkpt lat="42.63057" lon="18.15972">
        <ele>127.448364</ele>
        <time>2022-06-01T12:51:47.597Z</time>
      </trkpt>
      <trkpt lat="42.63057" lon="18.15958">
        <ele>127.830773</ele>
        <time>2022-06-01T12:51:53.601Z</time>
      </trkpt>
      <trkpt lat="42.63055" lon="18.15944">
        <ele>128.453478</ele>
        <time>2022-06-01T12:51:59.585Z</time>
      </trkpt>
      <trkpt lat="42.63054" lon="18.15932">
        <ele>129.032501</ele>
        <time>2022-06-01T12:52:05.585Z</time>
      </trkpt>
      <trkpt lat="42.63054" lon="18.15918">
        <ele>129.635277</ele>
        <time>2022-06-01T12:52:13.577Z</time>
      </trkpt>
      <trkpt lat="42.63052" lon="18.15905">
        <ele>130.232708</ele>
        <time>2022-06-01T12:52:21.581Z</time>
      </trkpt>
      <trkpt lat="42.63051" lon="18.15892">
        <ele>130.838577</ele>
        <time>2022-06-01T12:52:28.587Z</time>
      </trkpt>
      <trkpt lat="42.6305" lon="18.15879">
        <ele>131.419667</ele>
        <time>2022-06-01T12:52:35.608Z</time>
      </trkpt>
      <trkpt lat="42.63049" lon="18.15867">
        <ele>131.9838</ele>
        <time>2022-06-01T12:52:44.590Z</time>
      </trkpt>
      <trkpt lat="42.63046" lon="18.15853">
        <ele>132.627771</ele>
        <time>2022-06-01T12:52:51.584Z</time>
      </trkpt>
      <trkpt lat="42.63045" lon="18.1584">
        <ele>133.202322</ele>
        <time>2022-06-01T12:52:59.584Z</time>
      </trkpt>
      <trkpt lat="42.63046" lon="18.15827">
        <ele>133.791731</ele>
        <time>2022-06-01T12:53:08.586Z</time>
      </trkpt>
      <trkpt lat="42.63043" lon="18.15815">
        <ele>134.36741</ele>
        <time>2022-06-01T12:53:15.600Z</time>
      </trkpt>
      <trkpt lat="42.63041" lon="18.15801">
        <ele>134.990115</ele>
        <time>2022-06-01T12:53:24.572Z</time>
      </trkpt>
      <trkpt lat="42.63038" lon="18.15789">
        <ele>135.545485</ele>
        <time>2022-06-01T12:53:31.569Z</time>
      </trkpt>
      <trkpt lat="42.63038" lon="18.15776">
        <ele>136.131833</ele>
        <time>2022-06-01T12:53:40.618Z</time>
      </trkpt>
      <trkpt lat="42.63036" lon="18.15763">
        <ele>136.747992</ele>
        <time>2022-06-01T12:53:53.560Z</time>
      </trkpt>
      <trkpt lat="42.63036" lon="18.15749">
        <ele>137.359797</ele>
        <time>2022-06-01T12:54:00.587Z</time>
      </trkpt>
      <trkpt lat="42.63034" lon="18.15736">
        <ele>137.956879</ele>
        <time>2022-06-01T12:54:08.573Z</time>
      </trkpt>
      <trkpt lat="42.63028" lon="18.15727">
        <ele>138.513985</ele>
        <time>2022-06-01T12:54:17.589Z</time>
      </trkpt>
      <trkpt lat="42.63019" lon="18.15722">
        <ele>139.110168</ele>
        <time>2022-06-01T12:54:24.571Z</time>
      </trkpt>
      <trkpt lat="42.6301" lon="18.15721">
        <ele>139.702957</ele>
        <time>2022-06-01T12:54:31.569Z</time>
      </trkpt>
      <trkpt lat="42.62999" lon="18.15721">
        <ele>140.363779</ele>
        <time>2022-06-01T12:54:37.579Z</time>
      </trkpt>
      <trkpt lat="42.62991" lon="18.15725">
        <ele>140.940976</ele>
        <time>2022-06-01T12:54:42.584Z</time>
      </trkpt>
      <trkpt lat="42.62985" lon="18.15735">
        <ele>141.513358</ele>
        <time>2022-06-01T12:54:48.583Z</time>
      </trkpt>
      <trkpt lat="42.62983" lon="18.15749">
        <ele>142.180414</ele>
        <time>2022-06-01T12:54:54.590Z</time>
      </trkpt>
      <trkpt lat="42.6298" lon="18.15762">
        <ele>142.847562</ele>
        <time>2022-06-01T12:55:00.608Z</time>
      </trkpt>
      <trkpt lat="42.62978" lon="18.15776">
        <ele>143.517634</ele>
        <time>2022-06-01T12:55:05.584Z</time>
      </trkpt>
      <trkpt lat="42.62975" lon="18.15789">
        <ele>144.125784</ele>
        <time>2022-06-01T12:55:09.586Z</time>
      </trkpt>
      <trkpt lat="42.62973" lon="18.15802">
        <ele>144.738921</ele>
        <time>2022-06-01T12:55:13.610Z</time>
      </trkpt>
      <trkpt lat="42.62971" lon="18.15814">
        <ele>145.328732</ele>
        <time>2022-06-01T12:55:17.587Z</time>
      </trkpt>
      <trkpt lat="42.62971" lon="18.15827">
        <ele>145.946618</ele>
        <time>2022-06-01T12:55:21.588Z</time>
      </trkpt>
      <trkpt lat="42.62971" lon="18.15842">
        <ele>146.647454</ele>
        <time>2022-06-01T12:55:26.577Z</time>
      </trkpt>
      <trkpt lat="42.6297" lon="18.15854">
        <ele>147.221707</ele>
        <time>2022-06-01T12:55:30.586Z</time>
      </trkpt>
      <trkpt lat="42.62968" lon="18.15868">
        <ele>147.851359</ele>
        <time>2022-06-01T12:55:34.624Z</time>
      </trkpt>
      <trkpt lat="42.62967" lon="18.1588">
        <ele>148.442225</ele>
        <time>2022-06-01T12:55:38.575Z</time>
      </trkpt>
      <trkpt lat="42.62967" lon="18.15895">
        <ele>149.134417</ele>
        <time>2022-06-01T12:55:43.581Z</time>
      </trkpt>
      <trkpt lat="42.62965" lon="18.15907">
        <ele>149.73411</ele>
        <time>2022-06-01T12:55:47.568Z</time>
      </trkpt>
      <trkpt lat="42.62963" lon="18.1592">
        <ele>150.1423</ele>
        <time>2022-06-01T12:55:51.623Z</time>
      </trkpt>
      <trkpt lat="42.62962" lon="18.15934">
        <ele>149.977646</ele>
        <time>2022-06-01T12:55:56.597Z</time>
      </trkpt>
      <trkpt lat="42.62959" lon="18.15947">
        <ele>149.827848</ele>
        <time>2022-06-01T12:56:00.582Z</time>
      </trkpt>
      <trkpt lat="42.62956" lon="18.15962">
        <ele>149.667079</ele>
        <time>2022-06-01T12:56:05.634Z</time>
      </trkpt>
      <trkpt lat="42.62954" lon="18.15974">
        <ele>149.530971</ele>
        <time>2022-06-01T12:56:09.569Z</time>
      </trkpt>
      <trkpt lat="42.62952" lon="18.15987">
        <ele>149.384408</ele>
        <time>2022-06-01T12:56:14.591Z</time>
      </trkpt>
      <trkpt lat="42.62943" lon="18.16012">
        <ele>149.071448</ele>
        <time>2022-06-01T13:01:49.596Z</time>
      </trkpt>
      <trkpt lat="42.62937" lon="18.16023">
        <ele>148.920456</ele>
        <time>2022-06-01T13:01:53.574Z</time>
      </trkpt>
      <trkpt lat="42.62933" lon="18.16035">
        <ele>148.786878</ele>
        <time>2022-06-01T13:01:56.580Z</time>
      </trkpt>
      <trkpt lat="42.6293" lon="18.16048">
        <ele>148.631856</ele>
        <time>2022-06-01T13:02:00.578Z</time>
      </trkpt>
      <trkpt lat="42.62927" lon="18.16059">
        <ele>148.498107</ele>
        <time>2022-06-01T13:02:04.574Z</time>
      </trkpt>
      <trkpt lat="42.62923" lon="18.16072">
        <ele>148.355589</ele>
        <time>2022-06-01T13:02:08.604Z</time>
      </trkpt>
      <trkpt lat="42.62921" lon="18.16084">
        <ele>148.213637</ele>
        <time>2022-06-01T13:02:13.554Z</time>
      </trkpt>
      <trkpt lat="42.62918" lon="18.16097">
        <ele>148.069357</ele>
        <time>2022-06-01T13:02:18.580Z</time>
      </trkpt>
      <trkpt lat="42.62916" lon="18.1611">
        <ele>147.924564</ele>
        <time>2022-06-01T13:02:23.593Z</time>
      </trkpt>
      <trkpt lat="42.62914" lon="18.16124">
        <ele>147.76096</ele>
        <time>2022-06-01T13:02:28.580Z</time>
      </trkpt>
      <trkpt lat="42.62912" lon="18.16138">
        <ele>147.606251</ele>
        <time>2022-06-01T13:02:33.585Z</time>
      </trkpt>
      <trkpt lat="42.6291" lon="18.16153">
        <ele>147.755484</ele>
        <time>2022-06-01T13:02:38.568Z</time>
      </trkpt>
      <trkpt lat="42.62892" lon="18.16157">
        <ele>149.011353</ele>
        <time>2022-06-01T13:03:42.583Z</time>
      </trkpt>
      <trkpt lat="42.6289" lon="18.16145">
        <ele>149.668049</ele>
        <time>2022-06-01T13:03:47.580Z</time>
      </trkpt>
      <trkpt lat="42.62893" lon="18.16133">
        <ele>150.303884</ele>
        <time>2022-06-01T13:03:53.585Z</time>
      </trkpt>
      <trkpt lat="42.62896" lon="18.1612">
        <ele>151.013751</ele>
        <time>2022-06-01T13:03:59.590Z</time>
      </trkpt>
      <trkpt lat="42.62899" lon="18.16108">
        <ele>151.660589</ele>
        <time>2022-06-01T13:04:04.583Z</time>
      </trkpt>
      <trkpt lat="42.62901" lon="18.16093">
        <ele>152.426421</ele>
        <time>2022-06-01T13:04:10.602Z</time>
      </trkpt>
      <trkpt lat="42.62904" lon="18.16081">
        <ele>153.118582</ele>
        <time>2022-06-01T13:04:15.588Z</time>
      </trkpt>
      <trkpt lat="42.62906" lon="18.16067">
        <ele>153.836573</ele>
        <time>2022-06-01T13:04:21.610Z</time>
      </trkpt>
      <trkpt lat="42.6291" lon="18.16054">
        <ele>154.580191</ele>
        <time>2022-06-01T13:04:27.591Z</time>
      </trkpt>
      <trkpt lat="42.62913" lon="18.16042">
        <ele>155.211135</ele>
        <time>2022-06-01T13:04:33.583Z</time>
      </trkpt>
      <trkpt lat="42.62916" lon="18.16028">
        <ele>155.970465</ele>
        <time>2022-06-01T13:04:39.597Z</time>
      </trkpt>
      <trkpt lat="42.62918" lon="18.16015">
        <ele>156.633402</ele>
        <time>2022-06-01T13:04:44.571Z</time>
      </trkpt>
      <trkpt lat="42.62921" lon="18.16002">
        <ele>157.301273</ele>
        <time>2022-06-01T13:04:49.595Z</time>
      </trkpt>
      <trkpt lat="42.62923" lon="18.1599">
        <ele>157.949832</ele>
        <time>2022-06-01T13:04:54.586Z</time>
      </trkpt>
      <trkpt lat="42.62924" lon="18.15978">
        <ele>158.60089</ele>
        <time>2022-06-01T13:05:00.579Z</time>
      </trkpt>
      <trkpt lat="42.62925" lon="18.15964">
        <ele>159.294448</ele>
        <time>2022-06-01T13:05:06.588Z</time>
      </trkpt>
      <trkpt lat="42.62926" lon="18.15952">
        <ele>159.939652</ele>
        <time>2022-06-01T13:05:11.588Z</time>
      </trkpt>
      <trkpt lat="42.62927" lon="18.15939">
        <ele>160.454533</ele>
        <time>2022-06-01T13:05:16.583Z</time>
      </trkpt>
      <trkpt lat="42.62927" lon="18.15925">
        <ele>161.000316</ele>
        <time>2022-06-01T13:05:22.581Z</time>
      </trkpt>
      <trkpt lat="42.62927" lon="18.15912">
        <ele>161.488536</ele>
        <time>2022-06-01T13:05:27.597Z</time>
      </trkpt>
      <trkpt lat="42.62927" lon="18.15899">
        <ele>161.988175</ele>
        <time>2022-06-01T13:05:33.588Z</time>
      </trkpt>
      <trkpt lat="42.62927" lon="18.15885">
        <ele>162.541719</ele>
        <time>2022-06-01T13:05:39.584Z</time>
      </trkpt>
      <trkpt lat="42.62927" lon="18.15872">
        <ele>163.015175</ele>
        <time>2022-06-01T13:05:44.584Z</time>
      </trkpt>
      <trkpt lat="42.62928" lon="18.15858">
        <ele>163.562531</ele>
        <time>2022-06-01T13:05:50.568Z</time>
      </trkpt>
      <trkpt lat="42.62929" lon="18.15845">
        <ele>164.085159</ele>
        <time>2022-06-01T13:05:56.598Z</time>
      </trkpt>
      <trkpt lat="42.62931" lon="18.15831">
        <ele>164.612948</ele>
        <time>2022-06-01T13:06:02.591Z</time>
      </trkpt>
      <trkpt lat="42.62932" lon="18.15817">
        <ele>165.143136</ele>
        <time>2022-06-01T13:06:08.597Z</time>
      </trkpt>
      <trkpt lat="42.62932" lon="18.15804">
        <ele>165.654411</ele>
        <time>2022-06-01T13:06:14.619Z</time>
      </trkpt>
      <trkpt lat="42.6293" lon="18.1579">
        <ele>166.219315</ele>
        <time>2022-06-01T13:06:20.586Z</time>
      </trkpt>
      <trkpt lat="42.6293" lon="18.15776">
        <ele>166.742118</ele>
        <time>2022-06-01T13:06:26.568Z</time>
      </trkpt>
      <trkpt lat="42.62932" lon="18.15763">
        <ele>167.275905</ele>
        <time>2022-06-01T13:06:32.589Z</time>
      </trkpt>
      <trkpt lat="42.62931" lon="18.1575">
        <ele>167.787157</ele>
        <time>2022-06-01T13:06:38.594Z</time>
      </trkpt>
      <trkpt lat="42.62931" lon="18.15737">
        <ele>168.267692</ele>
        <time>2022-06-01T13:06:44.628Z</time>
      </trkpt>
      <trkpt lat="42.62931" lon="18.15724">
        <ele>168.756247</ele>
        <time>2022-06-01T13:06:50.581Z</time>
      </trkpt>
      <trkpt lat="42.62933" lon="18.15712">
        <ele>169.261443</ele>
        <time>2022-06-01T13:06:56.566Z</time>
      </trkpt>
      <trkpt lat="42.62934" lon="18.15698">
        <ele>169.856652</ele>
        <time>2022-06-01T13:07:03.587Z</time>
      </trkpt>
      <trkpt lat="42.62937" lon="18.15685">
        <ele>170.47569</ele>
        <time>2022-06-01T13:07:10.581Z</time>
      </trkpt>
      <trkpt lat="42.6294" lon="18.15671">
        <ele>171.12794</ele>
        <time>2022-06-01T13:07:16.572Z</time>
      </trkpt>
      <trkpt lat="42.62942" lon="18.15658">
        <ele>171.727955</ele>
        <time>2022-06-01T13:07:23.588Z</time>
      </trkpt>
      <trkpt lat="42.62945" lon="18.15645">
        <ele>172.34763</ele>
        <time>2022-06-01T13:07:30.580Z</time>
      </trkpt>
      <trkpt lat="42.62948" lon="18.15633">
        <ele>172.922548</ele>
        <time>2022-06-01T13:07:35.589Z</time>
      </trkpt>
      <trkpt lat="42.62951" lon="18.15621">
        <ele>173.495284</ele>
        <time>2022-06-01T13:07:41.571Z</time>
      </trkpt>
      <trkpt lat="42.62956" lon="18.15608">
        <ele>174.132669</ele>
        <time>2022-06-01T13:07:47.567Z</time>
      </trkpt>
      <trkpt lat="42.62961" lon="18.15598">
        <ele>174.695998</ele>
        <time>2022-06-01T13:07:53.590Z</time>
      </trkpt>
      <trkpt lat="42.62965" lon="18.15586">
        <ele>175.292794</ele>
        <time>2022-06-01T13:08:00.576Z</time>
      </trkpt>
      <trkpt lat="42.62969" lon="18.15574">
        <ele>175.869862</ele>
        <time>2022-06-01T13:08:08.576Z</time>
      </trkpt>
      <trkpt lat="42.62973" lon="18.15563">
        <ele>176.431497</ele>
        <time>2022-06-01T13:08:14.572Z</time>
      </trkpt>
      <trkpt lat="42.62977" lon="18.15551">
        <ele>176.999809</ele>
        <time>2022-06-01T13:08:20.577Z</time>
      </trkpt>
      <trkpt lat="42.62981" lon="18.1554">
        <ele>177.585747</ele>
        <time>2022-06-01T13:08:29.573Z</time>
      </trkpt>
      <trkpt lat="42.62985" lon="18.15528">
        <ele>178.194623</ele>
        <time>2022-06-01T13:08:37.578Z</time>
      </trkpt>
      <trkpt lat="42.62989" lon="18.15515">
        <ele>178.820501</ele>
        <time>2022-06-01T13:08:44.567Z</time>
      </trkpt>
      <trkpt lat="42.62992" lon="18.15503">
        <ele>179.403839</ele>
        <time>2022-06-01T13:08:50.582Z</time>
      </trkpt>
      <trkpt lat="42.62995" lon="18.15491">
        <ele>179.977999</ele>
        <time>2022-06-01T13:08:57.569Z</time>
      </trkpt>
      <trkpt lat="42.62997" lon="18.15478">
        <ele>180.570072</ele>
        <time>2022-06-01T13:09:04.564Z</time>
      </trkpt>
      <trkpt lat="42.62998" lon="18.15465">
        <ele>181.150097</ele>
        <time>2022-06-01T13:09:12.571Z</time>
      </trkpt>
      <trkpt lat="42.63" lon="18.15451">
        <ele>181.797082</ele>
        <time>2022-06-01T13:09:18.615Z</time>
      </trkpt>
      <trkpt lat="42.63002" lon="18.15438">
        <ele>182.419266</ele>
        <time>2022-06-01T13:09:25.590Z</time>
      </trkpt>
      <trkpt lat="42.63001" lon="18.15425">
        <ele>182.997473</ele>
        <time>2022-06-01T13:09:31.574Z</time>
      </trkpt>
      <trkpt lat="42.63" lon="18.15412">
        <ele>183.594948</ele>
        <time>2022-06-01T13:09:38.584Z</time>
      </trkpt>
      <trkpt lat="42.62999" lon="18.15399">
        <ele>184.201297</ele>
        <time>2022-06-01T13:09:43.582Z</time>
      </trkpt>
      <trkpt lat="42.63001" lon="18.15387">
        <ele>184.764153</ele>
        <time>2022-06-01T13:09:47.578Z</time>
      </trkpt>
      <trkpt lat="42.63001" lon="18.15373">
        <ele>185.371385</ele>
        <time>2022-06-01T13:09:52.616Z</time>
      </trkpt>
      <trkpt lat="42.62998" lon="18.15361">
        <ele>185.952289</ele>
        <time>2022-06-01T13:09:58.584Z</time>
      </trkpt>
      <trkpt lat="42.63" lon="18.15347">
        <ele>186.61913</ele>
        <time>2022-06-01T13:10:04.587Z</time>
      </trkpt>
      <trkpt lat="42.62999" lon="18.15333">
        <ele>187.244023</ele>
        <time>2022-06-01T13:10:08.558Z</time>
      </trkpt>
      <trkpt lat="42.62999" lon="18.15319">
        <ele>187.895005</ele>
        <time>2022-06-01T13:10:12.600Z</time>
      </trkpt>
      <trkpt lat="42.62996" lon="18.15305">
        <ele>188.572771</ele>
        <time>2022-06-01T13:10:16.603Z</time>
      </trkpt>
      <trkpt lat="42.62995" lon="18.1529">
        <ele>189.266127</ele>
        <time>2022-06-01T13:10:20.585Z</time>
      </trkpt>
      <trkpt lat="42.62995" lon="18.15274">
        <ele>189.976244</ele>
        <time>2022-06-01T13:10:23.572Z</time>
      </trkpt>
      <trkpt lat="42.62998" lon="18.15256">
        <ele>190.835122</ele>
        <time>2022-06-01T13:10:26.600Z</time>
      </trkpt>
      <trkpt lat="42.63001" lon="18.15242">
        <ele>191.490916</ele>
        <time>2022-06-01T13:10:28.569Z</time>
      </trkpt>
      <trkpt lat="42.63005" lon="18.15225">
        <ele>191.541103</ele>
        <time>2022-06-01T13:10:30.615Z</time>
      </trkpt>
      <trkpt lat="42.63009" lon="18.15208">
        <ele>191.456131</ele>
        <time>2022-06-01T13:10:32.605Z</time>
      </trkpt>
      <trkpt lat="42.63013" lon="18.15189">
        <ele>191.362395</ele>
        <time>2022-06-01T13:10:34.584Z</time>
      </trkpt>
      <trkpt lat="42.63018" lon="18.15171">
        <ele>191.270935</ele>
        <time>2022-06-01T13:10:36.579Z</time>
      </trkpt>
      <trkpt lat="42.63023" lon="18.15153">
        <ele>191.180141</ele>
        <time>2022-06-01T13:10:38.599Z</time>
      </trkpt>
      <trkpt lat="42.63028" lon="18.15136">
        <ele>191.095272</ele>
        <time>2022-06-01T13:10:40.576Z</time>
      </trkpt>
      <trkpt lat="42.63032" lon="18.15118">
        <ele>191.008953</ele>
        <time>2022-06-01T13:10:42.589Z</time>
      </trkpt>
      <trkpt lat="42.63036" lon="18.15101">
        <ele>190.926149</ele>
        <time>2022-06-01T13:10:44.586Z</time>
      </trkpt>
      <trkpt lat="42.63039" lon="18.15084">
        <ele>190.844507</ele>
        <time>2022-06-01T13:10:46.579Z</time>
      </trkpt>
      <trkpt lat="42.63042" lon="18.15068">
        <ele>190.763685</ele>
        <time>2022-06-01T13:10:48.567Z</time>
      </trkpt>
      <trkpt lat="42.63047" lon="18.15051">
        <ele>190.67708</ele>
        <time>2022-06-01T13:10:50.591Z</time>
      </trkpt>
      <trkpt lat="42.63053" lon="18.15033">
        <ele>190.584013</ele>
        <time>2022-06-01T13:10:52.575Z</time>
      </trkpt>
      <trkpt lat="42.6306" lon="18.15015">
        <ele>190.491187</ele>
        <time>2022-06-01T13:10:54.594Z</time>
      </trkpt>
      <trkpt lat="42.63067" lon="18.14998">
        <ele>190.347545</ele>
        <time>2022-06-01T13:10:56.580Z</time>
      </trkpt>
      <trkpt lat="42.63075" lon="18.14982">
        <ele>190.190162</ele>
        <time>2022-06-01T13:10:58.608Z</time>
      </trkpt>
      <trkpt lat="42.63082" lon="18.14966">
        <ele>190.032601</ele>
        <time>2022-06-01T13:11:00.567Z</time>
      </trkpt>
      <trkpt lat="42.6309" lon="18.14947">
        <ele>189.860163</ele>
        <time>2022-06-01T13:11:02.587Z</time>
      </trkpt>
      <trkpt lat="42.63097" lon="18.14929">
        <ele>189.691162</ele>
        <time>2022-06-01T13:11:04.577Z</time>
      </trkpt>
      <trkpt lat="42.63103" lon="18.14911">
        <ele>189.5327</ele>
        <time>2022-06-01T13:11:06.598Z</time>
      </trkpt>
      <trkpt lat="42.63108" lon="18.14895">
        <ele>189.380682</ele>
        <time>2022-06-01T13:11:08.580Z</time>
      </trkpt>
      <trkpt lat="42.63115" lon="18.1488">
        <ele>189.239366</ele>
        <time>2022-06-01T13:11:10.576Z</time>
      </trkpt>
      <trkpt lat="42.6312" lon="18.14866">
        <ele>189.113229</ele>
        <time>2022-06-01T13:11:12.601Z</time>
      </trkpt>
      <trkpt lat="42.63124" lon="18.14852">
        <ele>188.989422</ele>
        <time>2022-06-01T13:11:14.599Z</time>
      </trkpt>
      <trkpt lat="42.63128" lon="18.14841">
        <ele>188.888496</ele>
        <time>2022-06-01T13:11:16.578Z</time>
      </trkpt>
      <trkpt lat="42.63132" lon="18.14826">
        <ele>188.75484</ele>
        <time>2022-06-01T13:11:19.570Z</time>
      </trkpt>
      <trkpt lat="42.63135" lon="18.1481">
        <ele>188.622609</ele>
        <time>2022-06-01T13:11:22.562Z</time>
      </trkpt>
      <trkpt lat="42.63139" lon="18.14796">
        <ele>188.498212</ele>
        <time>2022-06-01T13:11:25.557Z</time>
      </trkpt>
      <trkpt lat="42.63143" lon="18.14783">
        <ele>188.592723</ele>
        <time>2022-06-01T13:11:28.582Z</time>
      </trkpt>
      <trkpt lat="42.63146" lon="18.14771">
        <ele>188.809827</ele>
        <time>2022-06-01T13:11:31.563Z</time>
      </trkpt>
      <trkpt lat="42.6315" lon="18.14756">
        <ele>189.075213</ele>
        <time>2022-06-01T13:11:35.578Z</time>
      </trkpt>
      <trkpt lat="42.63153" lon="18.14743">
        <ele>189.324779</ele>
        <time>2022-06-01T13:11:39.615Z</time>
      </trkpt>
      <trkpt lat="42.63159" lon="18.14733">
        <ele>189.534118</ele>
        <time>2022-06-01T13:11:44.582Z</time>
      </trkpt>
      <trkpt lat="42.63162" lon="18.14721">
        <ele>189.747535</ele>
        <time>2022-06-01T13:11:49.566Z</time>
      </trkpt>
      <trkpt lat="42.63165" lon="18.14708">
        <ele>189.98343</ele>
        <time>2022-06-01T13:11:55.618Z</time>
      </trkpt>
      <trkpt lat="42.63168" lon="18.14695">
        <ele>190.211333</ele>
        <time>2022-06-01T13:12:02.575Z</time>
      </trkpt>
      <trkpt lat="42.63172" lon="18.14683">
        <ele>190.436579</ele>
        <time>2022-06-01T13:12:08.579Z</time>
      </trkpt>
      <trkpt lat="42.63174" lon="18.1467">
        <ele>190.661936</ele>
        <time>2022-06-01T13:12:14.580Z</time>
      </trkpt>
      <trkpt lat="42.63177" lon="18.14657">
        <ele>190.907</ele>
        <time>2022-06-01T13:12:20.583Z</time>
      </trkpt>
      <trkpt lat="42.63178" lon="18.14643">
        <ele>191.144168</ele>
        <time>2022-06-01T13:12:25.581Z</time>
      </trkpt>
      <trkpt lat="42.63178" lon="18.1463">
        <ele>191.35961</ele>
        <time>2022-06-01T13:12:30.642Z</time>
      </trkpt>
      <trkpt lat="42.63178" lon="18.14618">
        <ele>191.571631</ele>
        <time>2022-06-01T13:12:35.576Z</time>
      </trkpt>
      <trkpt lat="42.63179" lon="18.14605">
        <ele>191.79733</ele>
        <time>2022-06-01T13:12:41.592Z</time>
      </trkpt>
      <trkpt lat="42.63181" lon="18.14592">
        <ele>192.012094</ele>
        <time>2022-06-01T13:12:48.578Z</time>
      </trkpt>
      <trkpt lat="42.63181" lon="18.1458">
        <ele>192.232958</ele>
        <time>2022-06-01T13:12:55.581Z</time>
      </trkpt>
      <trkpt lat="42.63184" lon="18.14567">
        <ele>192.4516</ele>
        <time>2022-06-01T13:13:02.594Z</time>
      </trkpt>
      <trkpt lat="42.63184" lon="18.14553">
        <ele>193.091285</ele>
        <time>2022-06-01T13:13:09.581Z</time>
      </trkpt>
      <trkpt lat="42.63186" lon="18.14541">
        <ele>194.562916</ele>
        <time>2022-06-01T13:13:15.556Z</time>
      </trkpt>
      <trkpt lat="42.63188" lon="18.14529">
        <ele>196.054108</ele>
        <time>2022-06-01T13:13:21.568Z</time>
      </trkpt>
      <trkpt lat="42.6319" lon="18.14517">
        <ele>197.566095</ele>
        <time>2022-06-01T13:13:28.580Z</time>
      </trkpt>
      <trkpt lat="42.63193" lon="18.14504">
        <ele>199.167128</ele>
        <time>2022-06-01T13:13:35.599Z</time>
      </trkpt>
      <trkpt lat="42.63194" lon="18.14491">
        <ele>200.805737</ele>
        <time>2022-06-01T13:13:42.581Z</time>
      </trkpt>
      <trkpt lat="42.63196" lon="18.14478">
        <ele>202.351717</ele>
        <time>2022-06-01T13:13:48.585Z</time>
      </trkpt>
      <trkpt lat="42.63198" lon="18.14465">
        <ele>203.965895</ele>
        <time>2022-06-01T13:13:54.601Z</time>
      </trkpt>
      <trkpt lat="42.63201" lon="18.14452">
        <ele>205.652941</ele>
        <time>2022-06-01T13:14:02.578Z</time>
      </trkpt>
      <trkpt lat="42.63204" lon="18.1444">
        <ele>207.151837</ele>
        <time>2022-06-01T13:14:09.579Z</time>
      </trkpt>
      <trkpt lat="42.63207" lon="18.14428">
        <ele>208.64411</ele>
        <time>2022-06-01T13:14:16.574Z</time>
      </trkpt>
      <trkpt lat="42.63211" lon="18.14417">
        <ele>210.210807</ele>
        <time>2022-06-01T13:14:23.568Z</time>
      </trkpt>
      <trkpt lat="42.63216" lon="18.14406">
        <ele>211.791477</ele>
        <time>2022-06-01T13:14:29.578Z</time>
      </trkpt>
      <trkpt lat="42.63222" lon="18.14395">
        <ele>213.32048</ele>
        <time>2022-06-01T13:14:36.583Z</time>
      </trkpt>
      <trkpt lat="42.63231" lon="18.1439">
        <ele>214.998861</ele>
        <time>2022-06-01T13:14:45.570Z</time>
      </trkpt>
      <trkpt lat="42.63238" lon="18.14381">
        <ele>216.563813</ele>
        <time>2022-06-01T13:14:52.558Z</time>
      </trkpt>
      <trkpt lat="42.63246" lon="18.14377">
        <ele>218.045868</ele>
        <time>2022-06-01T13:15:00.580Z</time>
      </trkpt>
      <trkpt lat="42.63255" lon="18.14371">
        <ele>219.667713</ele>
        <time>2022-06-01T13:15:08.607Z</time>
      </trkpt>
      <trkpt lat="42.63264" lon="18.14365">
        <ele>221.21588</ele>
        <time>2022-06-01T13:15:14.599Z</time>
      </trkpt>
      <trkpt lat="42.63272" lon="18.1436">
        <ele>222.193546</ele>
        <time>2022-06-01T13:15:21.571Z</time>
      </trkpt>
      <trkpt lat="42.63281" lon="18.14353">
        <ele>222.220028</ele>
        <time>2022-06-01T13:15:28.587Z</time>
      </trkpt>
      <trkpt lat="42.6329" lon="18.14349">
        <ele>222.245608</ele>
        <time>2022-06-01T13:15:33.589Z</time>
      </trkpt>
      <trkpt lat="42.63299" lon="18.14341">
        <ele>222.271795</ele>
        <time>2022-06-01T13:15:40.589Z</time>
      </trkpt>
      <trkpt lat="42.63307" lon="18.14336">
        <ele>222.295625</ele>
        <time>2022-06-01T13:15:51.548Z</time>
      </trkpt>
      <trkpt lat="42.63314" lon="18.14327">
        <ele>222.321274</ele>
        <time>2022-06-01T13:15:58.570Z</time>
      </trkpt>
      <trkpt lat="42.63319" lon="18.14316">
        <ele>222.34551</ele>
        <time>2022-06-01T13:16:04.594Z</time>
      </trkpt>
      <trkpt lat="42.63322" lon="18.14303">
        <ele>222.372065</ele>
        <time>2022-06-01T13:16:12.587Z</time>
      </trkpt>
      <trkpt lat="42.63326" lon="18.14292">
        <ele>222.395914</ele>
        <time>2022-06-01T13:16:19.600Z</time>
      </trkpt>
      <trkpt lat="42.63329" lon="18.14279">
        <ele>222.422029</ele>
        <time>2022-06-01T13:16:27.579Z</time>
      </trkpt>
      <trkpt lat="42.63332" lon="18.14267">
        <ele>222.446959</ele>
        <time>2022-06-01T13:16:34.577Z</time>
      </trkpt>
      <trkpt lat="42.63334" lon="18.14254">
        <ele>222.472231</ele>
        <time>2022-06-01T13:16:40.577Z</time>
      </trkpt>
      <trkpt lat="42.63335" lon="18.1424">
        <ele>222.498245</ele>
        <time>2022-06-01T13:16:49.577Z</time>
      </trkpt>
      <trkpt lat="42.6334" lon="18.1423">
        <ele>222.522038</ele>
        <time>2022-06-01T13:16:57.582Z</time>
      </trkpt>
      <trkpt lat="42.63342" lon="18.14216">
        <ele>222.548769</ele>
        <time>2022-06-01T13:17:04.569Z</time>
      </trkpt>
      <trkpt lat="42.63346" lon="18.14205">
        <ele>222.57302</ele>
        <time>2022-06-01T13:17:11.589Z</time>
      </trkpt>
      <trkpt lat="42.63353" lon="18.14195">
        <ele>222.59902</ele>
        <time>2022-06-01T13:17:19.589Z</time>
      </trkpt>
      <trkpt lat="42.63359" lon="18.14185">
        <ele>222.623265</ele>
        <time>2022-06-01T13:17:27.575Z</time>
      </trkpt>
      <trkpt lat="42.63365" lon="18.14176">
        <ele>222.647356</ele>
        <time>2022-06-01T13:17:37.576Z</time>
      </trkpt>
      <trkpt lat="42.63368" lon="18.14146">
        <ele>223.468326</ele>
        <time>2022-06-01T13:20:08.580Z</time>
      </trkpt>
      <trkpt lat="42.63367" lon="18.14133">
        <ele>223.861062</ele>
        <time>2022-06-01T13:20:14.578Z</time>
      </trkpt>
      <trkpt lat="42.63366" lon="18.1412">
        <ele>224.254489</ele>
        <time>2022-06-01T13:20:20.607Z</time>
      </trkpt>
      <trkpt lat="42.63366" lon="18.14107">
        <ele>224.64768</ele>
        <time>2022-06-01T13:20:26.577Z</time>
      </trkpt>
      <trkpt lat="42.63365" lon="18.14093">
        <ele>225.05897</ele>
        <time>2022-06-01T13:20:33.560Z</time>
      </trkpt>
      <trkpt lat="42.63364" lon="18.14079">
        <ele>225.478227</ele>
        <time>2022-06-01T13:20:39.565Z</time>
      </trkpt>
      <trkpt lat="42.63363" lon="18.14067">
        <ele>225.856543</ele>
        <time>2022-06-01T13:20:45.558Z</time>
      </trkpt>
      <trkpt lat="42.6336" lon="18.14055">
        <ele>226.22817</ele>
        <time>2022-06-01T13:20:52.586Z</time>
      </trkpt>
      <trkpt lat="42.63358" lon="18.14043">
        <ele>226.60142</ele>
        <time>2022-06-01T13:21:03.557Z</time>
      </trkpt>
      <trkpt lat="42.63353" lon="18.14032">
        <ele>226.991587</ele>
        <time>2022-06-01T13:21:12.559Z</time>
      </trkpt>
      <trkpt lat="42.63347" lon="18.14022">
        <ele>227.373602</ele>
        <time>2022-06-01T13:21:20.620Z</time>
      </trkpt>
      <trkpt lat="42.63344" lon="18.14009">
        <ele>227.78854</ele>
        <time>2022-06-01T13:21:28.583Z</time>
      </trkpt>
      <trkpt lat="42.63342" lon="18.13996">
        <ele>228.172869</ele>
        <time>2022-06-01T13:21:35.586Z</time>
      </trkpt>
      <trkpt lat="42.63342" lon="18.13983">
        <ele>228.578626</ele>
        <time>2022-06-01T13:21:41.574Z</time>
      </trkpt>
      <trkpt lat="42.6334" lon="18.13971">
        <ele>228.955208</ele>
        <time>2022-06-01T13:21:47.590Z</time>
      </trkpt>
      <trkpt lat="42.63338" lon="18.13957">
        <ele>229.372758</ele>
        <time>2022-06-01T13:21:54.618Z</time>
      </trkpt>
      <trkpt lat="42.63336" lon="18.13945">
        <ele>229.744087</ele>
        <time>2022-06-01T13:22:00.621Z</time>
      </trkpt>
      <trkpt lat="42.63334" lon="18.13932">
        <ele>230.180465</ele>
        <time>2022-06-01T13:22:06.614Z</time>
      </trkpt>
      <trkpt lat="42.63333" lon="18.1392">
        <ele>230.717505</ele>
        <time>2022-06-01T13:22:12.596Z</time>
      </trkpt>
      <trkpt lat="42.63329" lon="18.13907">
        <ele>231.324858</ele>
        <time>2022-06-01T13:22:20.575Z</time>
      </trkpt>
      <trkpt lat="42.63326" lon="18.13896">
        <ele>231.858562</ele>
        <time>2022-06-01T13:22:26.647Z</time>
      </trkpt>
      <trkpt lat="42.63324" lon="18.13883">
        <ele>232.436819</ele>
        <time>2022-06-01T13:22:32.580Z</time>
      </trkpt>
      <trkpt lat="42.63323" lon="18.13869">
        <ele>233.039446</ele>
        <time>2022-06-01T13:22:39.619Z</time>
      </trkpt>
      <trkpt lat="42.63321" lon="18.13856">
        <ele>233.614904</ele>
        <time>2022-06-01T13:22:46.582Z</time>
      </trkpt>
      <trkpt lat="42.63318" lon="18.13843">
        <ele>234.217156</ele>
        <time>2022-06-01T13:22:53.587Z</time>
      </trkpt>
      <trkpt lat="42.63317" lon="18.13828">
        <ele>234.870826</ele>
        <time>2022-06-01T13:23:00.585Z</time>
      </trkpt>
      <trkpt lat="42.63321" lon="18.13817">
        <ele>235.433447</ele>
        <time>2022-06-01T13:23:09.582Z</time>
      </trkpt>
      <trkpt lat="42.63324" lon="18.13802">
        <ele>236.065302</ele>
        <time>2022-06-01T13:23:17.588Z</time>
      </trkpt>
      <trkpt lat="42.63325" lon="18.1379">
        <ele>236.610163</ele>
        <time>2022-06-01T13:23:22.571Z</time>
      </trkpt>
      <trkpt lat="42.63324" lon="18.13777">
        <ele>237.178025</ele>
        <time>2022-06-01T13:23:28.584Z</time>
      </trkpt>
      <trkpt lat="42.63326" lon="18.13765">
        <ele>237.707294</ele>
        <time>2022-06-01T13:23:33.613Z</time>
      </trkpt>
      <trkpt lat="42.6333" lon="18.13752">
        <ele>238.306425</ele>
        <time>2022-06-01T13:23:42.538Z</time>
      </trkpt>
      <trkpt lat="42.63335" lon="18.13741">
        <ele>238.885838</ele>
        <time>2022-06-01T13:23:48.571Z</time>
      </trkpt>
      <trkpt lat="42.63339" lon="18.1373">
        <ele>239.42566</ele>
        <time>2022-06-01T13:23:55.550Z</time>
      </trkpt>
      <trkpt lat="42.63344" lon="18.13719">
        <ele>239.971125</ele>
        <time>2022-06-01T13:24:01.557Z</time>
      </trkpt>
      <trkpt lat="42.63349" lon="18.13706">
        <ele>240.610158</ele>
        <time>2022-06-01T13:24:08.585Z</time>
      </trkpt>
      <trkpt lat="42.63351" lon="18.13692">
        <ele>240.557513</ele>
        <time>2022-06-01T13:24:16.573Z</time>
      </trkpt>
      <trkpt lat="42.63364" lon="18.13674">
        <ele>240.280739</ele>
        <time>2022-06-01T13:25:02.592Z</time>
      </trkpt>
      <trkpt lat="42.63375" lon="18.13663">
        <ele>240.089635</ele>
        <time>2022-06-01T13:25:05.623Z</time>
      </trkpt>
      <trkpt lat="42.63382" lon="18.13653">
        <ele>239.937715</ele>
        <time>2022-06-01T13:25:07.582Z</time>
      </trkpt>
      <trkpt lat="42.6339" lon="18.13642">
        <ele>239.77269</ele>
        <time>2022-06-01T13:25:09.579Z</time>
      </trkpt>
      <trkpt lat="42.63398" lon="18.1363">
        <ele>239.601423</ele>
        <time>2022-06-01T13:25:11.564Z</time>
      </trkpt>
      <trkpt lat="42.63406" lon="18.1362">
        <ele>239.437364</ele>
        <time>2022-06-01T13:25:13.578Z</time>
      </trkpt>
      <trkpt lat="42.63414" lon="18.1361">
        <ele>239.286558</ele>
        <time>2022-06-01T13:25:15.556Z</time>
      </trkpt>
      <trkpt lat="42.63422" lon="18.136">
        <ele>239.131378</ele>
        <time>2022-06-01T13:25:17.555Z</time>
      </trkpt>
      <trkpt lat="42.6343" lon="18.13591">
        <ele>238.973471</ele>
        <time>2022-06-01T13:25:19.594Z</time>
      </trkpt>
      <trkpt lat="42.6344" lon="18.13584">
        <ele>238.822358</ele>
        <time>2022-06-01T13:25:21.586Z</time>
      </trkpt>
      <trkpt lat="42.63448" lon="18.13577">
        <ele>238.681934</ele>
        <time>2022-06-01T13:25:23.577Z</time>
      </trkpt>
      <trkpt lat="42.63459" lon="18.13569">
        <ele>238.502012</ele>
        <time>2022-06-01T13:25:26.568Z</time>
      </trkpt>
      <trkpt lat="42.63467" lon="18.13562">
        <ele>238.359679</ele>
        <time>2022-06-01T13:25:28.580Z</time>
      </trkpt>
      <trkpt lat="42.63476" lon="18.13555">
        <ele>238.210845</ele>
        <time>2022-06-01T13:25:30.565Z</time>
      </trkpt>
      <trkpt lat="42.63485" lon="18.13546">
        <ele>237.984534</ele>
        <time>2022-06-01T13:25:32.576Z</time>
      </trkpt>
      <trkpt lat="42.63494" lon="18.13537">
        <ele>237.445297</ele>
        <time>2022-06-01T13:25:34.555Z</time>
      </trkpt>
      <trkpt lat="42.63505" lon="18.13527">
        <ele>236.881798</ele>
        <time>2022-06-01T13:25:36.579Z</time>
      </trkpt>
      <trkpt lat="42.63516" lon="18.13518">
        <ele>236.282113</ele>
        <time>2022-06-01T13:25:38.586Z</time>
      </trkpt>
      <trkpt lat="42.63527" lon="18.13508">
        <ele>235.701602</ele>
        <time>2022-06-01T13:25:40.577Z</time>
      </trkpt>
      <trkpt lat="42.63535" lon="18.13496">
        <ele>235.141152</ele>
        <time>2022-06-01T13:25:42.594Z</time>
      </trkpt>
      <trkpt lat="42.63547" lon="18.13483">
        <ele>234.454569</ele>
        <time>2022-06-01T13:25:44.625Z</time>
      </trkpt>
      <trkpt lat="42.63553" lon="18.13473">
        <ele>234.032193</ele>
        <time>2022-06-01T13:25:45.599Z</time>
      </trkpt>
      <trkpt lat="42.63568" lon="18.13459">
        <ele>233.221002</ele>
        <time>2022-06-01T13:25:47.603Z</time>
      </trkpt>
      <trkpt lat="42.63583" lon="18.13447">
        <ele>232.425338</ele>
        <time>2022-06-01T13:25:49.601Z</time>
      </trkpt>
      <trkpt lat="42.63597" lon="18.13436">
        <ele>231.671022</ele>
        <time>2022-06-01T13:25:51.595Z</time>
      </trkpt>
      <trkpt lat="42.63611" lon="18.13426">
        <ele>230.996486</ele>
        <time>2022-06-01T13:25:53.586Z</time>
      </trkpt>
      <trkpt lat="42.63623" lon="18.13416">
        <ele>230.344289</ele>
        <time>2022-06-01T13:25:55.556Z</time>
      </trkpt>
      <trkpt lat="42.63637" lon="18.13406">
        <ele>229.306402</ele>
        <time>2022-06-01T13:25:57.555Z</time>
      </trkpt>
      <trkpt lat="42.63652" lon="18.13397">
        <ele>227.721887</ele>
        <time>2022-06-01T13:25:59.567Z</time>
      </trkpt>
      <trkpt lat="42.63666" lon="18.13386">
        <ele>226.175122</ele>
        <time>2022-06-01T13:26:01.618Z</time>
      </trkpt>
      <trkpt lat="42.63679" lon="18.13374">
        <ele>224.673308</ele>
        <time>2022-06-01T13:26:03.579Z</time>
      </trkpt>
      <trkpt lat="42.6369" lon="18.13362">
        <ele>223.340193</ele>
        <time>2022-06-01T13:26:05.587Z</time>
      </trkpt>
      <trkpt lat="42.63701" lon="18.13346">
        <ele>221.75893</ele>
        <time>2022-06-01T13:26:07.574Z</time>
      </trkpt>
      <trkpt lat="42.63711" lon="18.13327">
        <ele>220.144457</ele>
        <time>2022-06-01T13:26:09.575Z</time>
      </trkpt>
      <trkpt lat="42.63721" lon="18.1331">
        <ele>218.59061</ele>
        <time>2022-06-01T13:26:11.577Z</time>
      </trkpt>
      <trkpt lat="42.63732" lon="18.13294">
        <ele>217.096178</ele>
        <time>2022-06-01T13:26:13.586Z</time>
      </trkpt>
      <trkpt lat="42.63742" lon="18.1328">
        <ele>215.688504</ele>
        <time>2022-06-01T13:26:15.583Z</time>
      </trkpt>
      <trkpt lat="42.63749" lon="18.13266">
        <ele>214.487857</ele>
        <time>2022-06-01T13:26:17.577Z</time>
      </trkpt>
      <trkpt lat="42.63753" lon="18.13249">
        <ele>213.213694</ele>
        <time>2022-06-01T13:26:19.593Z</time>
      </trkpt>
      <trkpt lat="42.63754" lon="18.13231">
        <ele>211.94065</ele>
        <time>2022-06-01T13:26:21.580Z</time>
      </trkpt>
      <trkpt lat="42.63756" lon="18.13214">
        <ele>210.766652</ele>
        <time>2022-06-01T13:26:23.637Z</time>
      </trkpt>
      <trkpt lat="42.63757" lon="18.132">
        <ele>209.819988</ele>
        <time>2022-06-01T13:26:25.578Z</time>
      </trkpt>
      <trkpt lat="42.63759" lon="18.13188">
        <ele>208.941604</ele>
        <time>2022-06-01T13:26:27.581Z</time>
      </trkpt>
      <trkpt lat="42.63762" lon="18.13175">
        <ele>208.00507</ele>
        <time>2022-06-01T13:26:29.568Z</time>
      </trkpt>
      <trkpt lat="42.63767" lon="18.13162">
        <ele>206.99543</ele>
        <time>2022-06-01T13:26:31.585Z</time>
      </trkpt>
      <trkpt lat="42.63772" lon="18.13149">
        <ele>205.969773</ele>
        <time>2022-06-01T13:26:33.580Z</time>
      </trkpt>
      <trkpt lat="42.63779" lon="18.13135">
        <ele>204.804824</ele>
        <time>2022-06-01T13:26:35.565Z</time>
      </trkpt>
      <trkpt lat="42.63788" lon="18.13121">
        <ele>203.512995</ele>
        <time>2022-06-01T13:26:37.582Z</time>
      </trkpt>
      <trkpt lat="42.63797" lon="18.13108">
        <ele>202.283339</ele>
        <time>2022-06-01T13:26:39.563Z</time>
      </trkpt>
      <trkpt lat="42.63805" lon="18.13094">
        <ele>201.008861</ele>
        <time>2022-06-01T13:26:41.547Z</time>
      </trkpt>
      <trkpt lat="42.63812" lon="18.13074">
        <ele>199.443547</ele>
        <time>2022-06-01T13:26:43.587Z</time>
      </trkpt>
      <trkpt lat="42.63818" lon="18.13052">
        <ele>197.848758</ele>
        <time>2022-06-01T13:26:45.580Z</time>
      </trkpt>
      <trkpt lat="42.63824" lon="18.13032">
        <ele>196.323973</ele>
        <time>2022-06-01T13:26:47.584Z</time>
      </trkpt>
      <trkpt lat="42.63831" lon="18.13012">
        <ele>194.792947</ele>
        <time>2022-06-01T13:26:49.587Z</time>
      </trkpt>
      <trkpt lat="42.63838" lon="18.12996">
        <ele>193.34295</ele>
        <time>2022-06-01T13:26:51.580Z</time>
      </trkpt>
      <trkpt lat="42.63847" lon="18.1298">
        <ele>191.902873</ele>
        <time>2022-06-01T13:26:53.589Z</time>
      </trkpt>
      <trkpt lat="42.63857" lon="18.12967">
        <ele>190.504604</ele>
        <time>2022-06-01T13:26:55.566Z</time>
      </trkpt>
      <trkpt lat="42.63869" lon="18.12955">
        <ele>189.060954</ele>
        <time>2022-06-01T13:26:57.617Z</time>
      </trkpt>
      <trkpt lat="42.63882" lon="18.12943">
        <ele>187.425175</ele>
        <time>2022-06-01T13:26:59.588Z</time>
      </trkpt>
      <trkpt lat="42.6389" lon="18.12937">
        <ele>186.524044</ele>
        <time>2022-06-01T13:27:00.583Z</time>
      </trkpt>
      <trkpt lat="42.63898" lon="18.1293">
        <ele>185.609883</ele>
        <time>2022-06-01T13:27:01.605Z</time>
      </trkpt>
      <trkpt lat="42.63912" lon="18.12914">
        <ele>183.84894</ele>
        <time>2022-06-01T13:27:03.611Z</time>
      </trkpt>
      <trkpt lat="42.63917" lon="18.12904">
        <ele>182.931868</ele>
        <time>2022-06-01T13:27:04.604Z</time>
      </trkpt>
      <trkpt lat="42.6392" lon="18.12892">
        <ele>182.023083</ele>
        <time>2022-06-01T13:27:05.606Z</time>
      </trkpt>
      <trkpt lat="42.63926" lon="18.1287">
        <ele>180.263038</ele>
        <time>2022-06-01T13:27:07.557Z</time>
      </trkpt>
      <trkpt lat="42.63931" lon="18.12859">
        <ele>179.365075</ele>
        <time>2022-06-01T13:27:08.561Z</time>
      </trkpt>
      <trkpt lat="42.63936" lon="18.12849">
        <ele>178.456362</ele>
        <time>2022-06-01T13:27:09.570Z</time>
      </trkpt>
      <trkpt lat="42.63942" lon="18.12839">
        <ele>177.48713</ele>
        <time>2022-06-01T13:27:10.569Z</time>
      </trkpt>
      <trkpt lat="42.63948" lon="18.1283">
        <ele>176.406872</ele>
        <time>2022-06-01T13:27:11.585Z</time>
      </trkpt>
      <trkpt lat="42.63954" lon="18.1282">
        <ele>175.316175</ele>
        <time>2022-06-01T13:27:12.591Z</time>
      </trkpt>
      <trkpt lat="42.6396" lon="18.1281">
        <ele>174.24772</ele>
        <time>2022-06-01T13:27:13.620Z</time>
      </trkpt>
      <trkpt lat="42.63966" lon="18.128">
        <ele>173.152359</ele>
        <time>2022-06-01T13:27:14.589Z</time>
      </trkpt>
      <trkpt lat="42.63972" lon="18.12789">
        <ele>171.995645</ele>
        <time>2022-06-01T13:27:15.589Z</time>
      </trkpt>
      <trkpt lat="42.63978" lon="18.12778">
        <ele>170.831516</ele>
        <time>2022-06-01T13:27:16.578Z</time>
      </trkpt>
      <trkpt lat="42.63985" lon="18.12766">
        <ele>169.591939</ele>
        <time>2022-06-01T13:27:17.586Z</time>
      </trkpt>
      <trkpt lat="42.63992" lon="18.12755">
        <ele>168.350696</ele>
        <time>2022-06-01T13:27:18.583Z</time>
      </trkpt>
      <trkpt lat="42.63999" lon="18.12745">
        <ele>167.133665</ele>
        <time>2022-06-01T13:27:19.570Z</time>
      </trkpt>
      <trkpt lat="42.64006" lon="18.12734">
        <ele>165.917972</ele>
        <time>2022-06-01T13:27:20.630Z</time>
      </trkpt>
      <trkpt lat="42.64013" lon="18.12723">
        <ele>164.718301</ele>
        <time>2022-06-01T13:27:21.599Z</time>
      </trkpt>
      <trkpt lat="42.64019" lon="18.12712">
        <ele>163.574544</ele>
        <time>2022-06-01T13:27:22.598Z</time>
      </trkpt>
      <trkpt lat="42.64025" lon="18.12702">
        <ele>162.464909</ele>
        <time>2022-06-01T13:27:23.592Z</time>
      </trkpt>
      <trkpt lat="42.64031" lon="18.12692">
        <ele>161.416375</ele>
        <time>2022-06-01T13:27:24.652Z</time>
      </trkpt>
      <trkpt lat="42.6404" lon="18.12676">
        <ele>159.640404</ele>
        <time>2022-06-01T13:27:26.577Z</time>
      </trkpt>
      <trkpt lat="42.64048" lon="18.12665">
        <ele>158.342034</ele>
        <time>2022-06-01T13:27:28.583Z</time>
      </trkpt>
      <trkpt lat="42.64052" lon="18.1265">
        <ele>156.964129</ele>
        <time>2022-06-01T13:27:30.555Z</time>
      </trkpt>
      <trkpt lat="42.64052" lon="18.12635">
        <ele>155.372917</ele>
        <time>2022-06-01T13:27:32.570Z</time>
      </trkpt>
      <trkpt lat="42.64051" lon="18.12622">
        <ele>154.040994</ele>
        <time>2022-06-01T13:27:34.575Z</time>
      </trkpt>
      <trkpt lat="42.64049" lon="18.12608">
        <ele>152.488104</ele>
        <time>2022-06-01T13:27:36.584Z</time>
      </trkpt>
      <trkpt lat="42.64049" lon="18.12591">
        <ele>150.760469</ele>
        <time>2022-06-01T13:27:38.575Z</time>
      </trkpt>
      <trkpt lat="42.64052" lon="18.12574">
        <ele>148.962325</ele>
        <time>2022-06-01T13:27:41.616Z</time>
      </trkpt>
      <trkpt lat="42.64052" lon="18.1256">
        <ele>147.423297</ele>
        <time>2022-06-01T13:27:43.575Z</time>
      </trkpt>
      <trkpt lat="42.64053" lon="18.12542">
        <ele>145.573132</ele>
        <time>2022-06-01T13:27:45.569Z</time>
      </trkpt>
      <trkpt lat="42.64055" lon="18.12522">
        <ele>143.450626</ele>
        <time>2022-06-01T13:27:47.559Z</time>
      </trkpt>
      <trkpt lat="42.64057" lon="18.12502">
        <ele>141.274385</ele>
        <time>2022-06-01T13:27:49.561Z</time>
      </trkpt>
      <trkpt lat="42.6406" lon="18.12482">
        <ele>139.150138</ele>
        <time>2022-06-01T13:27:51.555Z</time>
      </trkpt>
      <trkpt lat="42.64062" lon="18.12463">
        <ele>137.085802</ele>
        <time>2022-06-01T13:27:53.580Z</time>
      </trkpt>
      <trkpt lat="42.64064" lon="18.12442">
        <ele>134.832445</ele>
        <time>2022-06-01T13:27:55.581Z</time>
      </trkpt>
      <trkpt lat="42.64068" lon="18.1242">
        <ele>132.565882</ele>
        <time>2022-06-01T13:27:57.563Z</time>
      </trkpt>
      <trkpt lat="42.64071" lon="18.12403">
        <ele>130.911983</ele>
        <time>2022-06-01T13:27:59.571Z</time>
      </trkpt>
      <trkpt lat="42.64074" lon="18.12387">
        <ele>129.779172</ele>
        <time>2022-06-01T13:28:01.566Z</time>
      </trkpt>
      <trkpt lat="42.64077" lon="18.12374">
        <ele>128.796594</ele>
        <time>2022-06-01T13:28:03.588Z</time>
      </trkpt>
      <trkpt lat="42.64079" lon="18.12362">
        <ele>127.904239</ele>
        <time>2022-06-01T13:28:05.602Z</time>
      </trkpt>
      <trkpt lat="42.64082" lon="18.12347">
        <ele>126.887471</ele>
        <time>2022-06-01T13:28:07.560Z</time>
      </trkpt>
      <trkpt lat="42.64084" lon="18.12331">
        <ele>125.728028</ele>
        <time>2022-06-01T13:28:09.615Z</time>
      </trkpt>
      <trkpt lat="42.64086" lon="18.12316">
        <ele>124.617972</ele>
        <time>2022-06-01T13:28:11.567Z</time>
      </trkpt>
      <trkpt lat="42.64089" lon="18.12297">
        <ele>123.275969</ele>
        <time>2022-06-01T13:28:13.595Z</time>
      </trkpt>
      <trkpt lat="42.64093" lon="18.12279">
        <ele>121.985802</ele>
        <time>2022-06-01T13:28:15.586Z</time>
      </trkpt>
      <trkpt lat="42.64096" lon="18.12263">
        <ele>120.775607</ele>
        <time>2022-06-01T13:28:17.564Z</time>
      </trkpt>
      <trkpt lat="42.64099" lon="18.12248">
        <ele>119.687133</ele>
        <time>2022-06-01T13:28:19.568Z</time>
      </trkpt>
      <trkpt lat="42.64103" lon="18.12235">
        <ele>118.720972</ele>
        <time>2022-06-01T13:28:21.585Z</time>
      </trkpt>
      <trkpt lat="42.64106" lon="18.1222">
        <ele>117.614299</ele>
        <time>2022-06-01T13:28:23.640Z</time>
      </trkpt>
      <trkpt lat="42.64109" lon="18.12204">
        <ele>116.448309</ele>
        <time>2022-06-01T13:28:25.582Z</time>
      </trkpt>
      <trkpt lat="42.64113" lon="18.12189">
        <ele>115.330158</ele>
        <time>2022-06-01T13:28:27.587Z</time>
      </trkpt>
      <trkpt lat="42.64116" lon="18.12176">
        <ele>114.375777</ele>
        <time>2022-06-01T13:28:29.550Z</time>
      </trkpt>
      <trkpt lat="42.64121" lon="18.12161">
        <ele>114.709331</ele>
        <time>2022-06-01T13:28:32.574Z</time>
      </trkpt>
      <trkpt lat="42.64113" lon="18.12169">
        <ele>115.107208</ele>
        <time>2022-06-01T13:28:45.576Z</time>
      </trkpt>
      <trkpt lat="42.64109" lon="18.12182">
        <ele>115.566698</ele>
        <time>2022-06-01T13:28:50.690Z</time>
      </trkpt>
      <trkpt lat="42.64105" lon="18.12196">
        <ele>116.03289</ele>
        <time>2022-06-01T13:28:55.602Z</time>
      </trkpt>
      <trkpt lat="42.64101" lon="18.1221">
        <ele>116.489008</ele>
        <time>2022-06-01T13:29:01.596Z</time>
      </trkpt>
      <trkpt lat="42.64098" lon="18.12222">
        <ele>116.892404</ele>
        <time>2022-06-01T13:29:06.579Z</time>
      </trkpt>
      <trkpt lat="42.64093" lon="18.12235">
        <ele>117.361027</ele>
        <time>2022-06-01T13:29:11.569Z</time>
      </trkpt>
      <trkpt lat="42.64087" lon="18.12246">
        <ele>117.773129</ele>
        <time>2022-06-01T13:29:16.586Z</time>
      </trkpt>
      <trkpt lat="42.64084" lon="18.12258">
        <ele>118.161987</ele>
        <time>2022-06-01T13:29:21.556Z</time>
      </trkpt>
      <trkpt lat="42.64079" lon="18.12272">
        <ele>118.629223</ele>
        <time>2022-06-01T13:29:27.572Z</time>
      </trkpt>
      <trkpt lat="42.64075" lon="18.12286">
        <ele>119.105836</ele>
        <time>2022-06-01T13:29:31.598Z</time>
      </trkpt>
      <trkpt lat="42.6407" lon="18.12299">
        <ele>119.572777</ele>
        <time>2022-06-01T13:29:35.586Z</time>
      </trkpt>
      <trkpt lat="42.64067" lon="18.12315">
        <ele>120.070055</ele>
        <time>2022-06-01T13:29:39.585Z</time>
      </trkpt>
      <trkpt lat="42.64064" lon="18.12328">
        <ele>120.512853</ele>
        <time>2022-06-01T13:29:42.578Z</time>
      </trkpt>
      <trkpt lat="42.64061" lon="18.12344">
        <ele>121.026017</ele>
        <time>2022-06-01T13:29:45.562Z</time>
      </trkpt>
      <trkpt lat="42.64057" lon="18.12356">
        <ele>121.43629</ele>
        <time>2022-06-01T13:29:47.580Z</time>
      </trkpt>
      <trkpt lat="42.64052" lon="18.12369">
        <ele>121.865686</ele>
        <time>2022-06-01T13:29:49.594Z</time>
      </trkpt>
      <trkpt lat="42.64047" lon="18.12383">
        <ele>121.492583</ele>
        <time>2022-06-01T13:29:51.643Z</time>
      </trkpt>
      <trkpt lat="42.64041" lon="18.12398">
        <ele>121.097319</ele>
        <time>2022-06-01T13:29:53.586Z</time>
      </trkpt>
      <trkpt lat="42.64036" lon="18.12413">
        <ele>120.691272</ele>
        <time>2022-06-01T13:29:55.584Z</time>
      </trkpt>
      <trkpt lat="42.64031" lon="18.12429">
        <ele>120.282179</ele>
        <time>2022-06-01T13:29:57.572Z</time>
      </trkpt>
      <trkpt lat="42.64027" lon="18.12447">
        <ele>119.830411</ele>
        <time>2022-06-01T13:29:59.576Z</time>
      </trkpt>
      <trkpt lat="42.64023" lon="18.12466">
        <ele>119.361522</ele>
        <time>2022-06-01T13:30:01.595Z</time>
      </trkpt>
      <trkpt lat="42.64017" lon="18.12484">
        <ele>118.901685</ele>
        <time>2022-06-01T13:30:03.576Z</time>
      </trkpt>
      <trkpt lat="42.64012" lon="18.12501">
        <ele>118.465631</ele>
        <time>2022-06-01T13:30:05.581Z</time>
      </trkpt>
      <trkpt lat="42.64008" lon="18.12516">
        <ele>118.066654</ele>
        <time>2022-06-01T13:30:07.649Z</time>
      </trkpt>
      <trkpt lat="42.64004" lon="18.12533">
        <ele>117.644092</ele>
        <time>2022-06-01T13:30:09.594Z</time>
      </trkpt>
      <trkpt lat="42.63999" lon="18.1255">
        <ele>117.222693</ele>
        <time>2022-06-01T13:30:11.567Z</time>
      </trkpt>
      <trkpt lat="42.63995" lon="18.12565">
        <ele>116.838287</ele>
        <time>2022-06-01T13:30:13.637Z</time>
      </trkpt>
      <trkpt lat="42.63992" lon="18.12579">
        <ele>116.472166</ele>
        <time>2022-06-01T13:30:15.556Z</time>
      </trkpt>
      <trkpt lat="42.63988" lon="18.12592">
        <ele>116.145938</ele>
        <time>2022-06-01T13:30:17.601Z</time>
      </trkpt>
      <trkpt lat="42.63986" lon="18.12604">
        <ele>115.727172</ele>
        <time>2022-06-01T13:30:19.577Z</time>
      </trkpt>
      <trkpt lat="42.63975" lon="18.12605">
        <ele>115.163363</ele>
        <time>2022-06-01T13:30:24.601Z</time>
      </trkpt>
      <trkpt lat="42.63976" lon="18.12589">
        <ele>114.531297</ele>
        <time>2022-06-01T13:30:27.571Z</time>
      </trkpt>
      <trkpt lat="42.63979" lon="18.12569">
        <ele>113.739396</ele>
        <time>2022-06-01T13:30:30.588Z</time>
      </trkpt>
      <trkpt lat="42.63981" lon="18.12552">
        <ele>113.043738</ele>
        <time>2022-06-01T13:30:32.582Z</time>
      </trkpt>
      <trkpt lat="42.63983" lon="18.12534">
        <ele>112.324711</ele>
        <time>2022-06-01T13:30:34.599Z</time>
      </trkpt>
      <trkpt lat="42.63987" lon="18.12515">
        <ele>111.567261</ele>
        <time>2022-06-01T13:30:36.585Z</time>
      </trkpt>
      <trkpt lat="42.63991" lon="18.12497">
        <ele>110.835144</ele>
        <time>2022-06-01T13:30:38.577Z</time>
      </trkpt>
      <trkpt lat="42.63995" lon="18.12481">
        <ele>110.16297</ele>
        <time>2022-06-01T13:30:40.588Z</time>
      </trkpt>
      <trkpt lat="42.63999" lon="18.12464">
        <ele>109.456647</ele>
        <time>2022-06-01T13:30:42.577Z</time>
      </trkpt>
      <trkpt lat="42.64003" lon="18.12446">
        <ele>108.713102</ele>
        <time>2022-06-01T13:30:44.577Z</time>
      </trkpt>
      <trkpt lat="42.64006" lon="18.12427">
        <ele>107.940355</ele>
        <time>2022-06-01T13:30:46.572Z</time>
      </trkpt>
      <trkpt lat="42.6401" lon="18.12408">
        <ele>107.17526</ele>
        <time>2022-06-01T13:30:48.584Z</time>
      </trkpt>
      <trkpt lat="42.64013" lon="18.12389">
        <ele>106.412726</ele>
        <time>2022-06-01T13:30:50.595Z</time>
      </trkpt>
      <trkpt lat="42.64016" lon="18.1237">
        <ele>105.543518</ele>
        <time>2022-06-01T13:30:52.562Z</time>
      </trkpt>
      <trkpt lat="42.6402" lon="18.12349">
        <ele>104.610036</ele>
        <time>2022-06-01T13:30:54.618Z</time>
      </trkpt>
      <trkpt lat="42.64024" lon="18.12327">
        <ele>103.611764</ele>
        <time>2022-06-01T13:30:56.568Z</time>
      </trkpt>
      <trkpt lat="42.64029" lon="18.12306">
        <ele>102.641599</ele>
        <time>2022-06-01T13:30:58.586Z</time>
      </trkpt>
      <trkpt lat="42.64033" lon="18.12284">
        <ele>101.662879</ele>
        <time>2022-06-01T13:31:00.629Z</time>
      </trkpt>
      <trkpt lat="42.64037" lon="18.12261">
        <ele>100.650478</ele>
        <time>2022-06-01T13:31:02.577Z</time>
      </trkpt>
      <trkpt lat="42.64041" lon="18.1224">
        <ele>99.685912</ele>
        <time>2022-06-01T13:31:04.572Z</time>
      </trkpt>
      <trkpt lat="42.64045" lon="18.1222">
        <ele>98.810354</ele>
        <time>2022-06-01T13:31:06.613Z</time>
      </trkpt>
      <trkpt lat="42.64048" lon="18.12202">
        <ele>97.967238</ele>
        <time>2022-06-01T13:31:08.566Z</time>
      </trkpt>
      <trkpt lat="42.64052" lon="18.12182">
        <ele>97.10579</ele>
        <time>2022-06-01T13:31:10.547Z</time>
      </trkpt>
      <trkpt lat="42.64055" lon="18.12162">
        <ele>96.172313</ele>
        <time>2022-06-01T13:31:12.577Z</time>
      </trkpt>
      <trkpt lat="42.64058" lon="18.12145">
        <ele>95.369996</ele>
        <time>2022-06-01T13:31:14.561Z</time>
      </trkpt>
      <trkpt lat="42.6406" lon="18.12129">
        <ele>94.575149</ele>
        <time>2022-06-01T13:31:16.575Z</time>
      </trkpt>
      <trkpt lat="42.64063" lon="18.12113">
        <ele>93.72132</ele>
        <time>2022-06-01T13:31:18.575Z</time>
      </trkpt>
      <trkpt lat="42.64067" lon="18.12097">
        <ele>92.87829</ele>
        <time>2022-06-01T13:31:20.570Z</time>
      </trkpt>
      <trkpt lat="42.64072" lon="18.12083">
        <ele>92.068136</ele>
        <time>2022-06-01T13:31:22.571Z</time>
      </trkpt>
      <trkpt lat="42.64077" lon="18.12066">
        <ele>91.166148</ele>
        <time>2022-06-01T13:31:24.585Z</time>
      </trkpt>
      <trkpt lat="42.64083" lon="18.12051">
        <ele>90.293569</ele>
        <time>2022-06-01T13:31:26.571Z</time>
      </trkpt>
      <trkpt lat="42.6409" lon="18.12038">
        <ele>89.500259</ele>
        <time>2022-06-01T13:31:28.573Z</time>
      </trkpt>
      <trkpt lat="42.64097" lon="18.12023">
        <ele>88.567395</ele>
        <time>2022-06-01T13:31:30.574Z</time>
      </trkpt>
      <trkpt lat="42.64105" lon="18.12007">
        <ele>87.61802</ele>
        <time>2022-06-01T13:31:32.590Z</time>
      </trkpt>
      <trkpt lat="42.64112" lon="18.1199">
        <ele>86.582107</ele>
        <time>2022-06-01T13:31:34.580Z</time>
      </trkpt>
      <trkpt lat="42.64119" lon="18.11969">
        <ele>85.451319</ele>
        <time>2022-06-01T13:31:36.623Z</time>
      </trkpt>
      <trkpt lat="42.64126" lon="18.11949">
        <ele>84.309048</ele>
        <time>2022-06-01T13:31:38.584Z</time>
      </trkpt>
      <trkpt lat="42.64132" lon="18.11928">
        <ele>83.240528</ele>
        <time>2022-06-01T13:31:40.614Z</time>
      </trkpt>
      <trkpt lat="42.64138" lon="18.11909">
        <ele>82.542406</ele>
        <time>2022-06-01T13:31:42.608Z</time>
      </trkpt>
      <trkpt lat="42.64143" lon="18.11888">
        <ele>81.851343</ele>
        <time>2022-06-01T13:31:44.565Z</time>
      </trkpt>
      <trkpt lat="42.64148" lon="18.11867">
        <ele>81.123622</ele>
        <time>2022-06-01T13:31:46.567Z</time>
      </trkpt>
      <trkpt lat="42.64152" lon="18.11846">
        <ele>80.408665</ele>
        <time>2022-06-01T13:31:48.582Z</time>
      </trkpt>
      <trkpt lat="42.64155" lon="18.11827">
        <ele>79.748843</ele>
        <time>2022-06-01T13:31:50.636Z</time>
      </trkpt>
      <trkpt lat="42.64158" lon="18.11807">
        <ele>79.085809</ele>
        <time>2022-06-01T13:31:52.571Z</time>
      </trkpt>
      <trkpt lat="42.6416" lon="18.11789">
        <ele>78.512006</ele>
        <time>2022-06-01T13:31:54.574Z</time>
      </trkpt>
      <trkpt lat="42.64161" lon="18.1177">
        <ele>77.873721</ele>
        <time>2022-06-01T13:31:56.587Z</time>
      </trkpt>
      <trkpt lat="42.64163" lon="18.11751">
        <ele>77.247426</ele>
        <time>2022-06-01T13:31:58.569Z</time>
      </trkpt>
      <trkpt lat="42.64166" lon="18.11734">
        <ele>76.680778</ele>
        <time>2022-06-01T13:32:00.571Z</time>
      </trkpt>
      <trkpt lat="42.6417" lon="18.11719">
        <ele>76.145696</ele>
        <time>2022-06-01T13:32:02.616Z</time>
      </trkpt>
      <trkpt lat="42.64174" lon="18.11701">
        <ele>75.542829</ele>
        <time>2022-06-01T13:32:04.579Z</time>
      </trkpt>
      <trkpt lat="42.6418" lon="18.11683">
        <ele>74.728153</ele>
        <time>2022-06-01T13:32:06.569Z</time>
      </trkpt>
      <trkpt lat="42.64185" lon="18.11663">
        <ele>73.834183</ele>
        <time>2022-06-01T13:32:08.599Z</time>
      </trkpt>
      <trkpt lat="42.64189" lon="18.11644">
        <ele>72.933393</ele>
        <time>2022-06-01T13:32:10.642Z</time>
      </trkpt>
      <trkpt lat="42.64191" lon="18.11623">
        <ele>72.041583</ele>
        <time>2022-06-01T13:32:12.564Z</time>
      </trkpt>
      <trkpt lat="42.6419" lon="18.11604">
        <ele>71.166138</ele>
        <time>2022-06-01T13:32:14.587Z</time>
      </trkpt>
      <trkpt lat="42.64187" lon="18.11584">
        <ele>70.305795</ele>
        <time>2022-06-01T13:32:16.573Z</time>
      </trkpt>
      <trkpt lat="42.64184" lon="18.11564">
        <ele>69.426023</ele>
        <time>2022-06-01T13:32:18.586Z</time>
      </trkpt>
      <trkpt lat="42.64182" lon="18.11546">
        <ele>68.614795</ele>
        <time>2022-06-01T13:32:20.571Z</time>
      </trkpt>
      <trkpt lat="42.64179" lon="18.11529">
        <ele>67.832952</ele>
        <time>2022-06-01T13:32:22.565Z</time>
      </trkpt>
      <trkpt lat="42.64178" lon="18.11511">
        <ele>67.065451</ele>
        <time>2022-06-01T13:32:24.580Z</time>
      </trkpt>
      <trkpt lat="42.6418" lon="18.11496">
        <ele>66.404202</ele>
        <time>2022-06-01T13:32:26.613Z</time>
      </trkpt>
      <trkpt lat="42.64182" lon="18.1148">
        <ele>65.69625</ele>
        <time>2022-06-01T13:32:28.566Z</time>
      </trkpt>
      <trkpt lat="42.64183" lon="18.11464">
        <ele>64.97963</ele>
        <time>2022-06-01T13:32:30.583Z</time>
      </trkpt>
      <trkpt lat="42.64185" lon="18.11451">
        <ele>64.575974</ele>
        <time>2022-06-01T13:32:32.574Z</time>
      </trkpt>
      <trkpt lat="42.64186" lon="18.11434">
        <ele>64.424946</ele>
        <time>2022-06-01T13:32:35.567Z</time>
      </trkpt>
      <trkpt lat="42.64187" lon="18.1142">
        <ele>64.300809</ele>
        <time>2022-06-01T13:32:38.628Z</time>
      </trkpt>
      <trkpt lat="42.64187" lon="18.11402">
        <ele>64.140108</ele>
        <time>2022-06-01T13:32:41.571Z</time>
      </trkpt>
      <trkpt lat="42.64188" lon="18.11389">
        <ele>64.019598</ele>
        <time>2022-06-01T13:32:43.575Z</time>
      </trkpt>
      <trkpt lat="42.64189" lon="18.11374">
        <ele>63.891282</ele>
        <time>2022-06-01T13:32:45.580Z</time>
      </trkpt>
      <trkpt lat="42.64191" lon="18.1136">
        <ele>63.758088</ele>
        <time>2022-06-01T13:32:47.562Z</time>
      </trkpt>
      <trkpt lat="42.64192" lon="18.11345">
        <ele>63.630513</ele>
        <time>2022-06-01T13:32:49.570Z</time>
      </trkpt>
      <trkpt lat="42.64194" lon="18.11328">
        <ele>63.477026</ele>
        <time>2022-06-01T13:32:52.595Z</time>
      </trkpt>
      <trkpt lat="42.64197" lon="18.11316">
        <ele>63.359802</ele>
        <time>2022-06-01T13:32:55.590Z</time>
      </trkpt>
      <trkpt lat="42.64203" lon="18.11306">
        <ele>63.248357</ele>
        <time>2022-06-01T13:32:58.585Z</time>
      </trkpt>
      <trkpt lat="42.64212" lon="18.113">
        <ele>63.125486</ele>
        <time>2022-06-01T13:33:02.575Z</time>
      </trkpt>
      <trkpt lat="42.6422" lon="18.11293">
        <ele>63.005359</ele>
        <time>2022-06-01T13:33:06.583Z</time>
      </trkpt>
      <trkpt lat="42.64228" lon="18.11286">
        <ele>62.888002</ele>
        <time>2022-06-01T13:33:11.573Z</time>
      </trkpt>
      <trkpt lat="42.64236" lon="18.11275">
        <ele>62.76028</ele>
        <time>2022-06-01T13:33:16.545Z</time>
      </trkpt>
      <trkpt lat="42.6424" lon="18.11262">
        <ele>62.624993</ele>
        <time>2022-06-01T13:33:21.557Z</time>
      </trkpt>
      <trkpt lat="42.64239" lon="18.11248">
        <ele>62.501367</ele>
        <time>2022-06-01T13:33:27.554Z</time>
      </trkpt>
      <trkpt lat="42.64237" lon="18.11235">
        <ele>62.559232</ele>
        <time>2022-06-01T13:33:32.548Z</time>
      </trkpt>
      <trkpt lat="42.64234" lon="18.11223">
        <ele>62.783513</ele>
        <time>2022-06-01T13:33:36.550Z</time>
      </trkpt>
      <trkpt lat="42.64231" lon="18.11209">
        <ele>63.036115</ele>
        <time>2022-06-01T13:33:40.552Z</time>
      </trkpt>
      <trkpt lat="42.64228" lon="18.11197">
        <ele>63.2495</ele>
        <time>2022-06-01T13:33:44.548Z</time>
      </trkpt>
      <trkpt lat="42.64228" lon="18.11184">
        <ele>63.484392</ele>
        <time>2022-06-01T13:33:50.545Z</time>
      </trkpt>
      <trkpt lat="42.64229" lon="18.11171">
        <ele>63.714262</ele>
        <time>2022-06-01T13:33:56.547Z</time>
      </trkpt>
      <trkpt lat="42.64231" lon="18.11157">
        <ele>63.959981</ele>
        <time>2022-06-01T13:34:01.546Z</time>
      </trkpt>
      <trkpt lat="42.64233" lon="18.11144">
        <ele>64.188979</ele>
        <time>2022-06-01T13:34:05.551Z</time>
      </trkpt>
      <trkpt lat="42.64233" lon="18.11129">
        <ele>64.440467</ele>
        <time>2022-06-01T13:34:10.562Z</time>
      </trkpt>
      <trkpt lat="42.64233" lon="18.11114">
        <ele>64.695457</ele>
        <time>2022-06-01T13:34:17.553Z</time>
      </trkpt>
      <trkpt lat="42.64234" lon="18.11101">
        <ele>64.92905</ele>
        <time>2022-06-01T13:34:25.543Z</time>
      </trkpt>
      <trkpt lat="42.64235" lon="18.11087">
        <ele>65.179245</ele>
        <time>2022-06-01T13:34:32.549Z</time>
      </trkpt>
      <trkpt lat="42.64237" lon="18.11074">
        <ele>65.403345</ele>
        <time>2022-06-01T13:34:38.547Z</time>
      </trkpt>
      <trkpt lat="42.64239" lon="18.11061">
        <ele>65.627942</ele>
        <time>2022-06-01T13:34:45.554Z</time>
      </trkpt>
      <trkpt lat="42.64241" lon="18.11048">
        <ele>65.855232</ele>
        <time>2022-06-01T13:34:51.544Z</time>
      </trkpt>
      <trkpt lat="42.64243" lon="18.11034">
        <ele>66.105712</ele>
        <time>2022-06-01T13:34:58.548Z</time>
      </trkpt>
      <trkpt lat="42.64245" lon="18.1102">
        <ele>66.360363</ele>
        <time>2022-06-01T13:35:02.549Z</time>
      </trkpt>
      <trkpt lat="42.64247" lon="18.11006">
        <ele>66.602996</ele>
        <time>2022-06-01T13:35:05.545Z</time>
      </trkpt>
      <trkpt lat="42.64251" lon="18.10992">
        <ele>67.352212</ele>
        <time>2022-06-01T13:35:08.543Z</time>
      </trkpt>
      <trkpt lat="42.64255" lon="18.10976">
        <ele>68.390826</ele>
        <time>2022-06-01T13:35:11.552Z</time>
      </trkpt>
      <trkpt lat="42.64259" lon="18.10961">
        <ele>69.39496</ele>
        <time>2022-06-01T13:35:14.538Z</time>
      </trkpt>
      <trkpt lat="42.64265" lon="18.10949">
        <ele>70.316309</ele>
        <time>2022-06-01T13:35:17.539Z</time>
      </trkpt>
      <trkpt lat="42.64271" lon="18.10936">
        <ele>71.251468</ele>
        <time>2022-06-01T13:35:20.553Z</time>
      </trkpt>
      <trkpt lat="42.64277" lon="18.10924">
        <ele>72.145741</ele>
        <time>2022-06-01T13:35:23.543Z</time>
      </trkpt>
      <trkpt lat="42.64283" lon="18.10912">
        <ele>73.021888</ele>
        <time>2022-06-01T13:35:26.544Z</time>
      </trkpt>
      <trkpt lat="42.64289" lon="18.109">
        <ele>73.951857</ele>
        <time>2022-06-01T13:35:29.548Z</time>
      </trkpt>
      <trkpt lat="42.64296" lon="18.10885">
        <ele>75.052058</ele>
        <time>2022-06-01T13:35:32.540Z</time>
      </trkpt>
      <trkpt lat="42.64302" lon="18.10874">
        <ele>75.91184</ele>
        <time>2022-06-01T13:35:34.546Z</time>
      </trkpt>
      <trkpt lat="42.64308" lon="18.1086">
        <ele>76.88648</ele>
        <time>2022-06-01T13:35:36.547Z</time>
      </trkpt>
      <trkpt lat="42.64313" lon="18.10846">
        <ele>77.880939</ele>
        <time>2022-06-01T13:35:38.548Z</time>
      </trkpt>
      <trkpt lat="42.64313" lon="18.10831">
        <ele>78.828864</ele>
        <time>2022-06-01T13:35:40.541Z</time>
      </trkpt>
      <trkpt lat="42.64309" lon="18.10815">
        <ele>79.893997</ele>
        <time>2022-06-01T13:35:42.550Z</time>
      </trkpt>
      <trkpt lat="42.64299" lon="18.10804">
        <ele>80.930594</ele>
        <time>2022-06-01T13:35:44.541Z</time>
      </trkpt>
      <trkpt lat="42.64285" lon="18.10793">
        <ele>81.287765</ele>
        <time>2022-06-01T13:35:46.548Z</time>
      </trkpt>
      <trkpt lat="42.64274" lon="18.10784">
        <ele>79.67376</ele>
        <time>2022-06-01T13:35:48.549Z</time>
      </trkpt>
      <trkpt lat="42.64265" lon="18.10778">
        <ele>78.456026</ele>
        <time>2022-06-01T13:35:50.560Z</time>
      </trkpt>
      <trkpt lat="42.64256" lon="18.10771">
        <ele>77.227972</ele>
        <time>2022-06-01T13:35:54.541Z</time>
      </trkpt>
      <trkpt lat="42.64247" lon="18.10765">
        <ele>75.971651</ele>
        <time>2022-06-01T13:36:03.553Z</time>
      </trkpt>
      <trkpt lat="42.64239" lon="18.10758">
        <ele>74.723538</ele>
        <time>2022-06-01T13:36:12.547Z</time>
      </trkpt>
      <trkpt lat="42.6423" lon="18.10747">
        <ele>73.238059</ele>
        <time>2022-06-01T13:36:16.540Z</time>
      </trkpt>
      <trkpt lat="42.6422" lon="18.10733">
        <ele>71.489775</ele>
        <time>2022-06-01T13:36:19.539Z</time>
      </trkpt>
      <trkpt lat="42.64214" lon="18.10722">
        <ele>70.234968</ele>
        <time>2022-06-01T13:36:21.550Z</time>
      </trkpt>
      <trkpt lat="42.64209" lon="18.10711">
        <ele>69.022867</ele>
        <time>2022-06-01T13:36:23.538Z</time>
      </trkpt>
      <trkpt lat="42.64203" lon="18.107">
        <ele>67.774878</ele>
        <time>2022-06-01T13:36:32.538Z</time>
      </trkpt>
      <trkpt lat="42.64198" lon="18.10689">
        <ele>66.555082</ele>
        <time>2022-06-01T13:36:43.547Z</time>
      </trkpt>
      <trkpt lat="42.64194" lon="18.10677">
        <ele>65.385953</ele>
        <time>2022-06-01T13:36:46.543Z</time>
      </trkpt>
      <trkpt lat="42.6419" lon="18.10665">
        <ele>64.158896</ele>
        <time>2022-06-01T13:36:49.562Z</time>
      </trkpt>
      <trkpt lat="42.64184" lon="18.10653">
        <ele>62.811822</ele>
        <time>2022-06-01T13:36:53.556Z</time>
      </trkpt>
      <trkpt lat="42.6418" lon="18.10641">
        <ele>61.645329</ele>
        <time>2022-06-01T13:36:59.546Z</time>
      </trkpt>
      <trkpt lat="42.6417" lon="18.10646">
        <ele>60.285645</ele>
        <time>2022-06-01T13:37:04.542Z</time>
      </trkpt>
      <trkpt lat="42.64168" lon="18.10658">
        <ele>59.377107</ele>
        <time>2022-06-01T13:37:08.546Z</time>
      </trkpt>
      <trkpt lat="42.64167" lon="18.10673">
        <ele>58.854577</ele>
        <time>2022-06-01T13:37:15.561Z</time>
      </trkpt>
      <trkpt lat="42.64166" lon="18.10686">
        <ele>58.394071</ele>
        <time>2022-06-01T13:37:21.551Z</time>
      </trkpt>
      <trkpt lat="42.64174" lon="18.107">
        <ele>57.757594</ele>
        <time>2022-06-01T13:37:28.542Z</time>
      </trkpt>
      <trkpt lat="42.64182" lon="18.10707">
        <ele>57.309503</ele>
        <time>2022-06-01T13:37:31.547Z</time>
      </trkpt>
      <trkpt lat="42.64173" lon="18.10711">
        <ele>56.863359</ele>
        <time>2022-06-01T13:37:39.551Z</time>
      </trkpt>
      <trkpt lat="42.64167" lon="18.10702">
        <ele>56.423416</ele>
        <time>2022-06-01T13:37:43.554Z</time>
      </trkpt>
      <trkpt lat="42.6416" lon="18.10712">
        <ele>55.94923</ele>
        <time>2022-06-01T13:37:48.546Z</time>
      </trkpt>
      <trkpt lat="42.64161" lon="18.10726">
        <ele>55.455239</ele>
        <time>2022-06-01T13:38:04.548Z</time>
      </trkpt>
      <trkpt lat="42.64159" lon="18.10739">
        <ele>54.970497</ele>
        <time>2022-06-01T13:38:09.549Z</time>
      </trkpt>
      <trkpt lat="42.64156" lon="18.10751">
        <ele>54.524037</ele>
        <time>2022-06-01T13:38:13.552Z</time>
      </trkpt>
      <trkpt lat="42.64152" lon="18.10764">
        <ele>54.02264</ele>
        <time>2022-06-01T13:38:17.540Z</time>
      </trkpt>
      <trkpt lat="42.64149" lon="18.10776">
        <ele>53.57461</ele>
        <time>2022-06-01T13:38:23.553Z</time>
      </trkpt>
      <trkpt lat="42.64127" lon="18.10773">
        <ele>52.507587</ele>
        <time>2022-06-01T13:39:45.567Z</time>
      </trkpt>
      <trkpt lat="42.6412" lon="18.10761">
        <ele>51.957793</ele>
        <time>2022-06-01T13:39:54.630Z</time>
      </trkpt>
      <trkpt lat="42.64098" lon="18.10784">
        <ele>50.79451</ele>
        <time>2022-06-01T13:46:53.720Z</time>
      </trkpt>
      <trkpt lat="42.64107" lon="18.10767">
        <ele>50.79451</ele>
        <time>2022-06-01T13:46:56.574Z</time>
      </trkpt>
      <trkpt lat="42.64115" lon="18.10761">
        <ele>50.79451</ele>
        <time>2022-06-01T13:47:21.579Z</time>
      </trkpt>
      <trkpt lat="42.64124" lon="18.10767">
        <ele>50.79451</ele>
        <time>2022-06-01T13:47:29.584Z</time>
      </trkpt>
      <trkpt lat="42.6413" lon="18.10778">
        <ele>50.79451</ele>
        <time>2022-06-01T13:47:37.615Z</time>
      </trkpt>
      <trkpt lat="42.64136" lon="18.10787">
        <ele>50.79451</ele>
        <time>2022-06-01T13:47:43.551Z</time>
      </trkpt>
      <trkpt lat="42.64142" lon="18.10796">
        <ele>50.79451</ele>
        <time>2022-06-01T13:48:01.577Z</time>
      </trkpt>
      <trkpt lat="42.64141" lon="18.10809">
        <ele>50.79451</ele>
        <time>2022-06-01T13:48:13.557Z</time>
      </trkpt>
      <trkpt lat="42.64139" lon="18.10822">
        <ele>50.79451</ele>
        <time>2022-06-01T13:48:25.561Z</time>
      </trkpt>
      <trkpt lat="42.64136" lon="18.10835">
        <ele>50.79451</ele>
        <time>2022-06-01T13:48:35.557Z</time>
      </trkpt>
      <trkpt lat="42.64134" lon="18.10847">
        <ele>50.79451</ele>
        <time>2022-06-01T13:48:46.623Z</time>
      </trkpt>
      <trkpt lat="42.64134" lon="18.1086">
        <ele>50.79451</ele>
        <time>2022-06-01T13:48:54.602Z</time>
      </trkpt>
      <trkpt lat="42.64133" lon="18.10873">
        <ele>50.79451</ele>
        <time>2022-06-01T13:49:04.564Z</time>
      </trkpt>
      <trkpt lat="42.64132" lon="18.10886">
        <ele>50.79451</ele>
        <time>2022-06-01T13:49:12.558Z</time>
      </trkpt>
      <trkpt lat="42.6413" lon="18.109">
        <ele>50.79451</ele>
        <time>2022-06-01T13:49:21.554Z</time>
      </trkpt>
      <trkpt lat="42.64129" lon="18.10913">
        <ele>50.79451</ele>
        <time>2022-06-01T13:49:28.572Z</time>
      </trkpt>
      <trkpt lat="42.64125" lon="18.10927">
        <ele>50.79451</ele>
        <time>2022-06-01T13:49:35.563Z</time>
      </trkpt>
      <trkpt lat="42.64121" lon="18.10938">
        <ele>50.79451</ele>
        <time>2022-06-01T13:49:41.549Z</time>
      </trkpt>
      <trkpt lat="42.64115" lon="18.10938">
        <ele>50.79451</ele>
        <time>2022-06-01T13:50:56.390Z</time>
      </trkpt>
    </trkseg>
  </trk>
</gpx>